<?xml version="1.0" encoding="UTF-8" standalone="no" ?>
<gpx xmlns="http://www.topografix.com/GPX/1/1" xmlns:xsi="http://www.w3.org/2001/XMLSchema-instance" xsi:schemaLocation="http://www.topografix.com/GPX/1/1 http://www.topografix.com/GPX/1/1/gpx.xsd" version="1.1" creator="VisuGPX - https://www.visugpx.com">
  <metadata>
    <name>2017-12-13 Bike ride-Val d-Azergues O</name>
    <desc><![CDATA[2017-12-13 Bike ride-Val d-Azergues O
Cold start 0C]]></desc>
  </metadata>
  <wpt lat="45.92468" lon="4.73708">
    <ele>174</ele>
    <name><![CDATA[2017-12-13 10:47 (Start)]]></name>
  </wpt>
  <wpt lat="45.92459" lon="4.73712">
    <ele>174</ele>
    <name><![CDATA[2017-12-13 10:47 (End)]]></name>
    <desc><![CDATA[Created by Google My Tracks on Android  Name: 2017-12-13 10:47 Activity type: biking Description: - Total distance: 31.34 km (19.5 mi) Total time: 1:44:14 Moving time: 1:36:16 Average speed: 18.04 km/h (11.2 mi/h) Average moving speed: 19.53 km/h (12.1 mi/h) Max speed: 34.34 km/h (21.3 mi/h) Average pace: 3:20 min/km (5:21 min/mi) Average moving pace: 3:04 min/km (4:57 min/mi) Fastest pace: 1:45 min/km (2:49 min/mi) Max elevation: 294 m (963 ft) Min elevation: 214 m (702 ft) Elevation gain: 350 m (1149 ft) Max grade: 32 % Min grade: -38 % Recorded: 13/12/2017 10:47]]></desc>
  </wpt>
  <trk>
    <name><![CDATA[2017-12-13 10:47]]></name>
    <trkseg>
      <trkpt lat="45.92468" lon="4.73708">
        <ele>174</ele>
        <time>2017-12-13T09:47:56.931Z</time>
      </trkpt>
      <trkpt lat="45.92469" lon="4.73711">
        <ele>174</ele>
        <time>2017-12-13T09:47:58.731Z</time>
      </trkpt>
      <trkpt lat="45.92466" lon="4.73717">
        <ele>174</ele>
        <time>2017-12-13T09:47:59.724Z</time>
      </trkpt>
      <trkpt lat="45.92457" lon="4.73719">
        <ele>174</ele>
        <time>2017-12-13T09:48:00.726Z</time>
      </trkpt>
      <trkpt lat="45.92465" lon="4.73715">
        <ele>174</ele>
        <time>2017-12-13T09:48:02Z</time>
      </trkpt>
      <trkpt lat="45.92467" lon="4.73711">
        <ele>174</ele>
        <time>2017-12-13T09:48:03Z</time>
      </trkpt>
      <trkpt lat="45.92463" lon="4.73712">
        <ele>174</ele>
        <time>2017-12-13T09:48:11Z</time>
      </trkpt>
      <trkpt lat="45.92463" lon="4.73711">
        <ele>174</ele>
        <time>2017-12-13T09:48:12Z</time>
      </trkpt>
      <trkpt lat="45.92461" lon="4.73709">
        <ele>174</ele>
        <time>2017-12-13T09:48:17Z</time>
      </trkpt>
      <trkpt lat="45.92461" lon="4.73709">
        <ele>174</ele>
        <time>2017-12-13T09:48:18Z</time>
      </trkpt>
      <trkpt lat="45.92465" lon="4.73699">
        <ele>174</ele>
        <time>2017-12-13T09:48:28Z</time>
      </trkpt>
      <trkpt lat="45.92465" lon="4.73696">
        <ele>174</ele>
        <time>2017-12-13T09:48:29Z</time>
      </trkpt>
      <trkpt lat="45.92467" lon="4.73685">
        <ele>174</ele>
        <time>2017-12-13T09:48:33Z</time>
      </trkpt>
      <trkpt lat="45.92467" lon="4.73681">
        <ele>174</ele>
        <time>2017-12-13T09:48:34Z</time>
      </trkpt>
      <trkpt lat="45.92468" lon="4.73673">
        <ele>174</ele>
        <time>2017-12-13T09:48:36Z</time>
      </trkpt>
      <trkpt lat="45.92468" lon="4.73669">
        <ele>174</ele>
        <time>2017-12-13T09:48:37Z</time>
      </trkpt>
      <trkpt lat="45.92469" lon="4.7366">
        <ele>174</ele>
        <time>2017-12-13T09:48:39Z</time>
      </trkpt>
      <trkpt lat="45.9247" lon="4.73655">
        <ele>174</ele>
        <time>2017-12-13T09:48:40Z</time>
      </trkpt>
      <trkpt lat="45.92472" lon="4.73645">
        <ele>174</ele>
        <time>2017-12-13T09:48:42Z</time>
      </trkpt>
      <trkpt lat="45.92474" lon="4.73641">
        <ele>174</ele>
        <time>2017-12-13T09:48:43Z</time>
      </trkpt>
      <trkpt lat="45.92479" lon="4.73636">
        <ele>174</ele>
        <time>2017-12-13T09:48:45Z</time>
      </trkpt>
      <trkpt lat="45.92483" lon="4.73634">
        <ele>174</ele>
        <time>2017-12-13T09:48:46Z</time>
      </trkpt>
      <trkpt lat="45.92491" lon="4.73633">
        <ele>174</ele>
        <time>2017-12-13T09:48:48Z</time>
      </trkpt>
      <trkpt lat="45.92495" lon="4.73634">
        <ele>174</ele>
        <time>2017-12-13T09:48:49Z</time>
      </trkpt>
      <trkpt lat="45.92503" lon="4.73634">
        <ele>174</ele>
        <time>2017-12-13T09:48:51Z</time>
      </trkpt>
      <trkpt lat="45.92507" lon="4.73635">
        <ele>174</ele>
        <time>2017-12-13T09:48:52Z</time>
      </trkpt>
      <trkpt lat="45.92515" lon="4.73635">
        <ele>173</ele>
        <time>2017-12-13T09:48:54Z</time>
      </trkpt>
      <trkpt lat="45.92519" lon="4.73634">
        <ele>173</ele>
        <time>2017-12-13T09:48:55Z</time>
      </trkpt>
      <trkpt lat="45.92527" lon="4.73635">
        <ele>173</ele>
        <time>2017-12-13T09:48:57Z</time>
      </trkpt>
      <trkpt lat="45.92531" lon="4.73635">
        <ele>173</ele>
        <time>2017-12-13T09:48:58Z</time>
      </trkpt>
      <trkpt lat="45.92536" lon="4.73635">
        <ele>173</ele>
        <time>2017-12-13T09:48:59Z</time>
      </trkpt>
      <trkpt lat="45.9254" lon="4.73634">
        <ele>173</ele>
        <time>2017-12-13T09:49:00Z</time>
      </trkpt>
      <trkpt lat="45.92545" lon="4.73634">
        <ele>173</ele>
        <time>2017-12-13T09:49:01Z</time>
      </trkpt>
      <trkpt lat="45.9255" lon="4.73633">
        <ele>173</ele>
        <time>2017-12-13T09:49:02Z</time>
      </trkpt>
      <trkpt lat="45.92555" lon="4.73632">
        <ele>173</ele>
        <time>2017-12-13T09:49:03Z</time>
      </trkpt>
      <trkpt lat="45.92559" lon="4.73631">
        <ele>173</ele>
        <time>2017-12-13T09:49:04Z</time>
      </trkpt>
      <trkpt lat="45.92564" lon="4.7363">
        <ele>173</ele>
        <time>2017-12-13T09:49:05Z</time>
      </trkpt>
      <trkpt lat="45.92568" lon="4.7363">
        <ele>173</ele>
        <time>2017-12-13T09:49:06Z</time>
      </trkpt>
      <trkpt lat="45.92577" lon="4.73627">
        <ele>173</ele>
        <time>2017-12-13T09:49:08Z</time>
      </trkpt>
      <trkpt lat="45.92581" lon="4.73626">
        <ele>173</ele>
        <time>2017-12-13T09:49:09Z</time>
      </trkpt>
      <trkpt lat="45.92585" lon="4.73625">
        <ele>172</ele>
        <time>2017-12-13T09:49:10Z</time>
      </trkpt>
      <trkpt lat="45.92591" lon="4.73624">
        <ele>173</ele>
        <time>2017-12-13T09:49:11Z</time>
      </trkpt>
      <trkpt lat="45.92595" lon="4.73622">
        <ele>173</ele>
        <time>2017-12-13T09:49:12Z</time>
      </trkpt>
      <trkpt lat="45.926" lon="4.73623">
        <ele>173</ele>
        <time>2017-12-13T09:49:13Z</time>
      </trkpt>
      <trkpt lat="45.92604" lon="4.73624">
        <ele>173</ele>
        <time>2017-12-13T09:49:14Z</time>
      </trkpt>
      <trkpt lat="45.92609" lon="4.73625">
        <ele>173</ele>
        <time>2017-12-13T09:49:15Z</time>
      </trkpt>
      <trkpt lat="45.92617" lon="4.7363">
        <ele>173</ele>
        <time>2017-12-13T09:49:17Z</time>
      </trkpt>
      <trkpt lat="45.92621" lon="4.73633">
        <ele>173</ele>
        <time>2017-12-13T09:49:18Z</time>
      </trkpt>
      <trkpt lat="45.92628" lon="4.73641">
        <ele>173</ele>
        <time>2017-12-13T09:49:20Z</time>
      </trkpt>
      <trkpt lat="45.9263" lon="4.73647">
        <ele>173</ele>
        <time>2017-12-13T09:49:21Z</time>
      </trkpt>
      <trkpt lat="45.92632" lon="4.73654">
        <ele>173</ele>
        <time>2017-12-13T09:49:22Z</time>
      </trkpt>
      <trkpt lat="45.92635" lon="4.7366">
        <ele>173</ele>
        <time>2017-12-13T09:49:23Z</time>
      </trkpt>
      <trkpt lat="45.92637" lon="4.73665">
        <ele>173</ele>
        <time>2017-12-13T09:49:24Z</time>
      </trkpt>
      <trkpt lat="45.9264" lon="4.73671">
        <ele>173</ele>
        <time>2017-12-13T09:49:25Z</time>
      </trkpt>
      <trkpt lat="45.92644" lon="4.73677">
        <ele>173</ele>
        <time>2017-12-13T09:49:26Z</time>
      </trkpt>
      <trkpt lat="45.92648" lon="4.73683">
        <ele>173</ele>
        <time>2017-12-13T09:49:27Z</time>
      </trkpt>
      <trkpt lat="45.92652" lon="4.73688">
        <ele>173</ele>
        <time>2017-12-13T09:49:28Z</time>
      </trkpt>
      <trkpt lat="45.92657" lon="4.73693">
        <ele>173</ele>
        <time>2017-12-13T09:49:29Z</time>
      </trkpt>
      <trkpt lat="45.92661" lon="4.73696">
        <ele>173</ele>
        <time>2017-12-13T09:49:30Z</time>
      </trkpt>
      <trkpt lat="45.92666" lon="4.73699">
        <ele>173</ele>
        <time>2017-12-13T09:49:31Z</time>
      </trkpt>
      <trkpt lat="45.92671" lon="4.737">
        <ele>174</ele>
        <time>2017-12-13T09:49:32Z</time>
      </trkpt>
      <trkpt lat="45.92676" lon="4.73703">
        <ele>173</ele>
        <time>2017-12-13T09:49:33Z</time>
      </trkpt>
      <trkpt lat="45.92681" lon="4.73704">
        <ele>173</ele>
        <time>2017-12-13T09:49:34Z</time>
      </trkpt>
      <trkpt lat="45.92687" lon="4.73706">
        <ele>173</ele>
        <time>2017-12-13T09:49:35Z</time>
      </trkpt>
      <trkpt lat="45.92693" lon="4.73707">
        <ele>173</ele>
        <time>2017-12-13T09:49:36Z</time>
      </trkpt>
      <trkpt lat="45.92698" lon="4.73708">
        <ele>173</ele>
        <time>2017-12-13T09:49:37Z</time>
      </trkpt>
      <trkpt lat="45.92705" lon="4.7371">
        <ele>173</ele>
        <time>2017-12-13T09:49:38Z</time>
      </trkpt>
      <trkpt lat="45.92711" lon="4.73712">
        <ele>173</ele>
        <time>2017-12-13T09:49:39Z</time>
      </trkpt>
      <trkpt lat="45.92717" lon="4.73713">
        <ele>173</ele>
        <time>2017-12-13T09:49:40Z</time>
      </trkpt>
      <trkpt lat="45.92722" lon="4.73715">
        <ele>173</ele>
        <time>2017-12-13T09:49:41Z</time>
      </trkpt>
      <trkpt lat="45.92728" lon="4.73716">
        <ele>173</ele>
        <time>2017-12-13T09:49:42Z</time>
      </trkpt>
      <trkpt lat="45.92733" lon="4.73717">
        <ele>173</ele>
        <time>2017-12-13T09:49:43Z</time>
      </trkpt>
      <trkpt lat="45.92738" lon="4.73718">
        <ele>173</ele>
        <time>2017-12-13T09:49:44Z</time>
      </trkpt>
      <trkpt lat="45.92742" lon="4.7372">
        <ele>173</ele>
        <time>2017-12-13T09:49:45Z</time>
      </trkpt>
      <trkpt lat="45.92747" lon="4.73721">
        <ele>173</ele>
        <time>2017-12-13T09:49:46Z</time>
      </trkpt>
      <trkpt lat="45.92751" lon="4.73722">
        <ele>172</ele>
        <time>2017-12-13T09:49:47Z</time>
      </trkpt>
      <trkpt lat="45.92759" lon="4.73724">
        <ele>172</ele>
        <time>2017-12-13T09:49:49Z</time>
      </trkpt>
      <trkpt lat="45.92762" lon="4.73727">
        <ele>172</ele>
        <time>2017-12-13T09:49:50Z</time>
      </trkpt>
      <trkpt lat="45.92769" lon="4.73728">
        <ele>172</ele>
        <time>2017-12-13T09:49:52Z</time>
      </trkpt>
      <trkpt lat="45.92773" lon="4.7373">
        <ele>172</ele>
        <time>2017-12-13T09:49:53Z</time>
      </trkpt>
      <trkpt lat="45.92779" lon="4.73735">
        <ele>172</ele>
        <time>2017-12-13T09:49:55Z</time>
      </trkpt>
      <trkpt lat="45.92782" lon="4.7374">
        <ele>172</ele>
        <time>2017-12-13T09:49:56Z</time>
      </trkpt>
      <trkpt lat="45.92785" lon="4.73748">
        <ele>172</ele>
        <time>2017-12-13T09:49:58Z</time>
      </trkpt>
      <trkpt lat="45.92788" lon="4.73752">
        <ele>173</ele>
        <time>2017-12-13T09:49:59Z</time>
      </trkpt>
      <trkpt lat="45.92792" lon="4.73755">
        <ele>173</ele>
        <time>2017-12-13T09:50:00Z</time>
      </trkpt>
      <trkpt lat="45.92797" lon="4.73758">
        <ele>173</ele>
        <time>2017-12-13T09:50:01Z</time>
      </trkpt>
      <trkpt lat="45.92801" lon="4.73761">
        <ele>173</ele>
        <time>2017-12-13T09:50:02Z</time>
      </trkpt>
      <trkpt lat="45.92806" lon="4.73764">
        <ele>173</ele>
        <time>2017-12-13T09:50:03Z</time>
      </trkpt>
      <trkpt lat="45.92811" lon="4.73766">
        <ele>173</ele>
        <time>2017-12-13T09:50:04Z</time>
      </trkpt>
      <trkpt lat="45.92818" lon="4.73769">
        <ele>173</ele>
        <time>2017-12-13T09:50:05Z</time>
      </trkpt>
      <trkpt lat="45.92823" lon="4.73772">
        <ele>173</ele>
        <time>2017-12-13T09:50:06Z</time>
      </trkpt>
      <trkpt lat="45.92828" lon="4.73776">
        <ele>173</ele>
        <time>2017-12-13T09:50:07Z</time>
      </trkpt>
      <trkpt lat="45.92833" lon="4.73781">
        <ele>173</ele>
        <time>2017-12-13T09:50:08Z</time>
      </trkpt>
      <trkpt lat="45.92839" lon="4.73784">
        <ele>173</ele>
        <time>2017-12-13T09:50:09Z</time>
      </trkpt>
      <trkpt lat="45.92844" lon="4.73787">
        <ele>173</ele>
        <time>2017-12-13T09:50:10Z</time>
      </trkpt>
      <trkpt lat="45.92848" lon="4.73791">
        <ele>173</ele>
        <time>2017-12-13T09:50:11Z</time>
      </trkpt>
      <trkpt lat="45.92852" lon="4.73796">
        <ele>173</ele>
        <time>2017-12-13T09:50:12Z</time>
      </trkpt>
      <trkpt lat="45.92855" lon="4.738">
        <ele>173</ele>
        <time>2017-12-13T09:50:13Z</time>
      </trkpt>
      <trkpt lat="45.92857" lon="4.73807">
        <ele>173</ele>
        <time>2017-12-13T09:50:14Z</time>
      </trkpt>
      <trkpt lat="45.92859" lon="4.73815">
        <ele>173</ele>
        <time>2017-12-13T09:50:15Z</time>
      </trkpt>
      <trkpt lat="45.92861" lon="4.73822">
        <ele>173</ele>
        <time>2017-12-13T09:50:16Z</time>
      </trkpt>
      <trkpt lat="45.92863" lon="4.73829">
        <ele>173</ele>
        <time>2017-12-13T09:50:17Z</time>
      </trkpt>
      <trkpt lat="45.92864" lon="4.73837">
        <ele>173</ele>
        <time>2017-12-13T09:50:18Z</time>
      </trkpt>
      <trkpt lat="45.92866" lon="4.73845">
        <ele>173</ele>
        <time>2017-12-13T09:50:19Z</time>
      </trkpt>
      <trkpt lat="45.92869" lon="4.73853">
        <ele>173</ele>
        <time>2017-12-13T09:50:20Z</time>
      </trkpt>
      <trkpt lat="45.92871" lon="4.73862">
        <ele>173</ele>
        <time>2017-12-13T09:50:21Z</time>
      </trkpt>
      <trkpt lat="45.92873" lon="4.73869">
        <ele>173</ele>
        <time>2017-12-13T09:50:22Z</time>
      </trkpt>
      <trkpt lat="45.92874" lon="4.73878">
        <ele>173</ele>
        <time>2017-12-13T09:50:23Z</time>
      </trkpt>
      <trkpt lat="45.92876" lon="4.73887">
        <ele>173</ele>
        <time>2017-12-13T09:50:24Z</time>
      </trkpt>
      <trkpt lat="45.92877" lon="4.73893">
        <ele>173</ele>
        <time>2017-12-13T09:50:25Z</time>
      </trkpt>
      <trkpt lat="45.92879" lon="4.73901">
        <ele>173</ele>
        <time>2017-12-13T09:50:26Z</time>
      </trkpt>
      <trkpt lat="45.9288" lon="4.7391">
        <ele>173</ele>
        <time>2017-12-13T09:50:27Z</time>
      </trkpt>
      <trkpt lat="45.92881" lon="4.73918">
        <ele>172</ele>
        <time>2017-12-13T09:50:28Z</time>
      </trkpt>
      <trkpt lat="45.92881" lon="4.73926">
        <ele>172</ele>
        <time>2017-12-13T09:50:29Z</time>
      </trkpt>
      <trkpt lat="45.92882" lon="4.73935">
        <ele>172</ele>
        <time>2017-12-13T09:50:30Z</time>
      </trkpt>
      <trkpt lat="45.92884" lon="4.73945">
        <ele>172</ele>
        <time>2017-12-13T09:50:31Z</time>
      </trkpt>
      <trkpt lat="45.92883" lon="4.73952">
        <ele>172</ele>
        <time>2017-12-13T09:50:32Z</time>
      </trkpt>
      <trkpt lat="45.92883" lon="4.7396">
        <ele>172</ele>
        <time>2017-12-13T09:50:33Z</time>
      </trkpt>
      <trkpt lat="45.92883" lon="4.73968">
        <ele>172</ele>
        <time>2017-12-13T09:50:34Z</time>
      </trkpt>
      <trkpt lat="45.92883" lon="4.73975">
        <ele>172</ele>
        <time>2017-12-13T09:50:35Z</time>
      </trkpt>
      <trkpt lat="45.92882" lon="4.73983">
        <ele>172</ele>
        <time>2017-12-13T09:50:36Z</time>
      </trkpt>
      <trkpt lat="45.92881" lon="4.73991">
        <ele>172</ele>
        <time>2017-12-13T09:50:37Z</time>
      </trkpt>
      <trkpt lat="45.92879" lon="4.74">
        <ele>172</ele>
        <time>2017-12-13T09:50:38Z</time>
      </trkpt>
      <trkpt lat="45.92878" lon="4.74006">
        <ele>172</ele>
        <time>2017-12-13T09:50:39Z</time>
      </trkpt>
      <trkpt lat="45.92877" lon="4.74014">
        <ele>172</ele>
        <time>2017-12-13T09:50:40Z</time>
      </trkpt>
      <trkpt lat="45.92875" lon="4.74021">
        <ele>172</ele>
        <time>2017-12-13T09:50:41Z</time>
      </trkpt>
      <trkpt lat="45.92874" lon="4.74028">
        <ele>172</ele>
        <time>2017-12-13T09:50:42Z</time>
      </trkpt>
      <trkpt lat="45.92872" lon="4.74035">
        <ele>172</ele>
        <time>2017-12-13T09:50:43Z</time>
      </trkpt>
      <trkpt lat="45.92869" lon="4.74041">
        <ele>172</ele>
        <time>2017-12-13T09:50:44Z</time>
      </trkpt>
      <trkpt lat="45.92865" lon="4.74048">
        <ele>172</ele>
        <time>2017-12-13T09:50:45Z</time>
      </trkpt>
      <trkpt lat="45.92861" lon="4.74053">
        <ele>172</ele>
        <time>2017-12-13T09:50:46Z</time>
      </trkpt>
      <trkpt lat="45.92857" lon="4.74059">
        <ele>172</ele>
        <time>2017-12-13T09:50:47Z</time>
      </trkpt>
      <trkpt lat="45.92852" lon="4.74065">
        <ele>172</ele>
        <time>2017-12-13T09:50:48Z</time>
      </trkpt>
      <trkpt lat="45.92847" lon="4.74071">
        <ele>172</ele>
        <time>2017-12-13T09:50:49Z</time>
      </trkpt>
      <trkpt lat="45.92843" lon="4.74077">
        <ele>172</ele>
        <time>2017-12-13T09:50:50Z</time>
      </trkpt>
      <trkpt lat="45.92838" lon="4.74083">
        <ele>171</ele>
        <time>2017-12-13T09:50:51Z</time>
      </trkpt>
      <trkpt lat="45.92833" lon="4.74088">
        <ele>171</ele>
        <time>2017-12-13T09:50:52Z</time>
      </trkpt>
      <trkpt lat="45.92828" lon="4.74094">
        <ele>171</ele>
        <time>2017-12-13T09:50:53Z</time>
      </trkpt>
      <trkpt lat="45.92824" lon="4.741">
        <ele>171</ele>
        <time>2017-12-13T09:50:54Z</time>
      </trkpt>
      <trkpt lat="45.92819" lon="4.74105">
        <ele>171</ele>
        <time>2017-12-13T09:50:55Z</time>
      </trkpt>
      <trkpt lat="45.92815" lon="4.7411">
        <ele>172</ele>
        <time>2017-12-13T09:50:56Z</time>
      </trkpt>
      <trkpt lat="45.92809" lon="4.74115">
        <ele>172</ele>
        <time>2017-12-13T09:50:57Z</time>
      </trkpt>
      <trkpt lat="45.92804" lon="4.7412">
        <ele>172</ele>
        <time>2017-12-13T09:50:58Z</time>
      </trkpt>
      <trkpt lat="45.928" lon="4.74124">
        <ele>172</ele>
        <time>2017-12-13T09:50:59Z</time>
      </trkpt>
      <trkpt lat="45.92796" lon="4.74129">
        <ele>172</ele>
        <time>2017-12-13T09:51:00Z</time>
      </trkpt>
      <trkpt lat="45.92791" lon="4.74133">
        <ele>172</ele>
        <time>2017-12-13T09:51:01Z</time>
      </trkpt>
      <trkpt lat="45.92787" lon="4.74139">
        <ele>172</ele>
        <time>2017-12-13T09:51:02Z</time>
      </trkpt>
      <trkpt lat="45.92782" lon="4.74144">
        <ele>172</ele>
        <time>2017-12-13T09:51:03Z</time>
      </trkpt>
      <trkpt lat="45.92777" lon="4.74148">
        <ele>172</ele>
        <time>2017-12-13T09:51:04Z</time>
      </trkpt>
      <trkpt lat="45.92772" lon="4.74154">
        <ele>172</ele>
        <time>2017-12-13T09:51:05Z</time>
      </trkpt>
      <trkpt lat="45.92767" lon="4.74159">
        <ele>172</ele>
        <time>2017-12-13T09:51:06Z</time>
      </trkpt>
      <trkpt lat="45.92762" lon="4.74164">
        <ele>172</ele>
        <time>2017-12-13T09:51:07Z</time>
      </trkpt>
      <trkpt lat="45.92758" lon="4.74168">
        <ele>172</ele>
        <time>2017-12-13T09:51:08Z</time>
      </trkpt>
      <trkpt lat="45.92753" lon="4.74173">
        <ele>172</ele>
        <time>2017-12-13T09:51:09Z</time>
      </trkpt>
      <trkpt lat="45.92748" lon="4.74179">
        <ele>172</ele>
        <time>2017-12-13T09:51:10Z</time>
      </trkpt>
      <trkpt lat="45.92745" lon="4.74184">
        <ele>172</ele>
        <time>2017-12-13T09:51:11Z</time>
      </trkpt>
      <trkpt lat="45.92741" lon="4.74189">
        <ele>172</ele>
        <time>2017-12-13T09:51:12Z</time>
      </trkpt>
      <trkpt lat="45.92737" lon="4.74193">
        <ele>171</ele>
        <time>2017-12-13T09:51:13Z</time>
      </trkpt>
      <trkpt lat="45.92733" lon="4.74199">
        <ele>171</ele>
        <time>2017-12-13T09:51:14Z</time>
      </trkpt>
      <trkpt lat="45.92729" lon="4.74204">
        <ele>171</ele>
        <time>2017-12-13T09:51:15Z</time>
      </trkpt>
      <trkpt lat="45.92725" lon="4.74208">
        <ele>171</ele>
        <time>2017-12-13T09:51:16Z</time>
      </trkpt>
      <trkpt lat="45.92721" lon="4.74214">
        <ele>171</ele>
        <time>2017-12-13T09:51:17Z</time>
      </trkpt>
      <trkpt lat="45.92716" lon="4.7422">
        <ele>171</ele>
        <time>2017-12-13T09:51:18Z</time>
      </trkpt>
      <trkpt lat="45.92712" lon="4.74225">
        <ele>171</ele>
        <time>2017-12-13T09:51:19Z</time>
      </trkpt>
      <trkpt lat="45.92708" lon="4.74231">
        <ele>171</ele>
        <time>2017-12-13T09:51:20Z</time>
      </trkpt>
      <trkpt lat="45.92704" lon="4.74238">
        <ele>171</ele>
        <time>2017-12-13T09:51:21Z</time>
      </trkpt>
      <trkpt lat="45.92701" lon="4.74244">
        <ele>171</ele>
        <time>2017-12-13T09:51:22Z</time>
      </trkpt>
      <trkpt lat="45.92697" lon="4.74248">
        <ele>171</ele>
        <time>2017-12-13T09:51:23Z</time>
      </trkpt>
      <trkpt lat="45.92693" lon="4.74255">
        <ele>171</ele>
        <time>2017-12-13T09:51:24Z</time>
      </trkpt>
      <trkpt lat="45.9269" lon="4.74262">
        <ele>171</ele>
        <time>2017-12-13T09:51:25Z</time>
      </trkpt>
      <trkpt lat="45.92686" lon="4.74268">
        <ele>171</ele>
        <time>2017-12-13T09:51:26Z</time>
      </trkpt>
      <trkpt lat="45.92683" lon="4.74276">
        <ele>171</ele>
        <time>2017-12-13T09:51:27Z</time>
      </trkpt>
      <trkpt lat="45.92678" lon="4.74282">
        <ele>171</ele>
        <time>2017-12-13T09:51:28Z</time>
      </trkpt>
      <trkpt lat="45.92675" lon="4.74289">
        <ele>171</ele>
        <time>2017-12-13T09:51:29Z</time>
      </trkpt>
      <trkpt lat="45.9267" lon="4.74295">
        <ele>171</ele>
        <time>2017-12-13T09:51:30Z</time>
      </trkpt>
      <trkpt lat="45.92667" lon="4.74302">
        <ele>171</ele>
        <time>2017-12-13T09:51:31Z</time>
      </trkpt>
      <trkpt lat="45.92663" lon="4.74309">
        <ele>171</ele>
        <time>2017-12-13T09:51:32Z</time>
      </trkpt>
      <trkpt lat="45.92659" lon="4.74316">
        <ele>171</ele>
        <time>2017-12-13T09:51:33Z</time>
      </trkpt>
      <trkpt lat="45.92655" lon="4.74321">
        <ele>171</ele>
        <time>2017-12-13T09:51:34Z</time>
      </trkpt>
      <trkpt lat="45.92651" lon="4.74328">
        <ele>171</ele>
        <time>2017-12-13T09:51:35Z</time>
      </trkpt>
      <trkpt lat="45.92648" lon="4.74334">
        <ele>171</ele>
        <time>2017-12-13T09:51:36Z</time>
      </trkpt>
      <trkpt lat="45.92644" lon="4.74341">
        <ele>171</ele>
        <time>2017-12-13T09:51:37Z</time>
      </trkpt>
      <trkpt lat="45.92641" lon="4.74349">
        <ele>171</ele>
        <time>2017-12-13T09:51:38Z</time>
      </trkpt>
      <trkpt lat="45.92638" lon="4.74355">
        <ele>171</ele>
        <time>2017-12-13T09:51:39Z</time>
      </trkpt>
      <trkpt lat="45.92634" lon="4.74363">
        <ele>171</ele>
        <time>2017-12-13T09:51:40Z</time>
      </trkpt>
      <trkpt lat="45.9263" lon="4.74369">
        <ele>171</ele>
        <time>2017-12-13T09:51:41Z</time>
      </trkpt>
      <trkpt lat="45.92627" lon="4.74377">
        <ele>170</ele>
        <time>2017-12-13T09:51:42Z</time>
      </trkpt>
      <trkpt lat="45.92623" lon="4.74384">
        <ele>170</ele>
        <time>2017-12-13T09:51:43Z</time>
      </trkpt>
      <trkpt lat="45.92619" lon="4.7439">
        <ele>170</ele>
        <time>2017-12-13T09:51:44Z</time>
      </trkpt>
      <trkpt lat="45.92615" lon="4.74398">
        <ele>170</ele>
        <time>2017-12-13T09:51:45Z</time>
      </trkpt>
      <trkpt lat="45.92611" lon="4.74405">
        <ele>170</ele>
        <time>2017-12-13T09:51:46Z</time>
      </trkpt>
      <trkpt lat="45.92607" lon="4.74412">
        <ele>170</ele>
        <time>2017-12-13T09:51:47Z</time>
      </trkpt>
      <trkpt lat="45.92603" lon="4.74419">
        <ele>170</ele>
        <time>2017-12-13T09:51:48Z</time>
      </trkpt>
      <trkpt lat="45.926" lon="4.74427">
        <ele>170</ele>
        <time>2017-12-13T09:51:49Z</time>
      </trkpt>
      <trkpt lat="45.92595" lon="4.74433">
        <ele>170</ele>
        <time>2017-12-13T09:51:50Z</time>
      </trkpt>
      <trkpt lat="45.92592" lon="4.7444">
        <ele>170</ele>
        <time>2017-12-13T09:51:51Z</time>
      </trkpt>
      <trkpt lat="45.92587" lon="4.74446">
        <ele>170</ele>
        <time>2017-12-13T09:51:52Z</time>
      </trkpt>
      <trkpt lat="45.92583" lon="4.74453">
        <ele>170</ele>
        <time>2017-12-13T09:51:53Z</time>
      </trkpt>
      <trkpt lat="45.9258" lon="4.7446">
        <ele>170</ele>
        <time>2017-12-13T09:51:54Z</time>
      </trkpt>
      <trkpt lat="45.92576" lon="4.74466">
        <ele>170</ele>
        <time>2017-12-13T09:51:55Z</time>
      </trkpt>
      <trkpt lat="45.92573" lon="4.74472">
        <ele>170</ele>
        <time>2017-12-13T09:51:56Z</time>
      </trkpt>
      <trkpt lat="45.92569" lon="4.74478">
        <ele>170</ele>
        <time>2017-12-13T09:51:57Z</time>
      </trkpt>
      <trkpt lat="45.92566" lon="4.74485">
        <ele>170</ele>
        <time>2017-12-13T09:51:58Z</time>
      </trkpt>
      <trkpt lat="45.92563" lon="4.74492">
        <ele>170</ele>
        <time>2017-12-13T09:51:59Z</time>
      </trkpt>
      <trkpt lat="45.92559" lon="4.74498">
        <ele>170</ele>
        <time>2017-12-13T09:52:00Z</time>
      </trkpt>
      <trkpt lat="45.92555" lon="4.74506">
        <ele>170</ele>
        <time>2017-12-13T09:52:01Z</time>
      </trkpt>
      <trkpt lat="45.92552" lon="4.74513">
        <ele>170</ele>
        <time>2017-12-13T09:52:02Z</time>
      </trkpt>
      <trkpt lat="45.92549" lon="4.74521">
        <ele>170</ele>
        <time>2017-12-13T09:52:03Z</time>
      </trkpt>
      <trkpt lat="45.92545" lon="4.74528">
        <ele>170</ele>
        <time>2017-12-13T09:52:04Z</time>
      </trkpt>
      <trkpt lat="45.9254" lon="4.74536">
        <ele>171</ele>
        <time>2017-12-13T09:52:05Z</time>
      </trkpt>
      <trkpt lat="45.92536" lon="4.74543">
        <ele>171</ele>
        <time>2017-12-13T09:52:06Z</time>
      </trkpt>
      <trkpt lat="45.92532" lon="4.74549">
        <ele>171</ele>
        <time>2017-12-13T09:52:07Z</time>
      </trkpt>
      <trkpt lat="45.92527" lon="4.74556">
        <ele>171</ele>
        <time>2017-12-13T09:52:08Z</time>
      </trkpt>
      <trkpt lat="45.92523" lon="4.74562">
        <ele>171</ele>
        <time>2017-12-13T09:52:09Z</time>
      </trkpt>
      <trkpt lat="45.92519" lon="4.74569">
        <ele>171</ele>
        <time>2017-12-13T09:52:10Z</time>
      </trkpt>
      <trkpt lat="45.92514" lon="4.74574">
        <ele>171</ele>
        <time>2017-12-13T09:52:11Z</time>
      </trkpt>
      <trkpt lat="45.92508" lon="4.74579">
        <ele>171</ele>
        <time>2017-12-13T09:52:12Z</time>
      </trkpt>
      <trkpt lat="45.92503" lon="4.74585">
        <ele>171</ele>
        <time>2017-12-13T09:52:13Z</time>
      </trkpt>
      <trkpt lat="45.92499" lon="4.7459">
        <ele>171</ele>
        <time>2017-12-13T09:52:14Z</time>
      </trkpt>
      <trkpt lat="45.92493" lon="4.74594">
        <ele>171</ele>
        <time>2017-12-13T09:52:15Z</time>
      </trkpt>
      <trkpt lat="45.92489" lon="4.746">
        <ele>171</ele>
        <time>2017-12-13T09:52:16Z</time>
      </trkpt>
      <trkpt lat="45.92484" lon="4.74605">
        <ele>171</ele>
        <time>2017-12-13T09:52:17Z</time>
      </trkpt>
      <trkpt lat="45.9248" lon="4.74612">
        <ele>171</ele>
        <time>2017-12-13T09:52:18Z</time>
      </trkpt>
      <trkpt lat="45.92475" lon="4.74618">
        <ele>171</ele>
        <time>2017-12-13T09:52:19Z</time>
      </trkpt>
      <trkpt lat="45.9247" lon="4.74625">
        <ele>171</ele>
        <time>2017-12-13T09:52:20Z</time>
      </trkpt>
      <trkpt lat="45.92466" lon="4.74632">
        <ele>171</ele>
        <time>2017-12-13T09:52:21Z</time>
      </trkpt>
      <trkpt lat="45.92461" lon="4.74639">
        <ele>171</ele>
        <time>2017-12-13T09:52:22Z</time>
      </trkpt>
      <trkpt lat="45.92457" lon="4.74646">
        <ele>171</ele>
        <time>2017-12-13T09:52:23Z</time>
      </trkpt>
      <trkpt lat="45.92453" lon="4.74653">
        <ele>171</ele>
        <time>2017-12-13T09:52:24Z</time>
      </trkpt>
      <trkpt lat="45.92449" lon="4.74661">
        <ele>171</ele>
        <time>2017-12-13T09:52:25Z</time>
      </trkpt>
      <trkpt lat="45.92446" lon="4.74668">
        <ele>171</ele>
        <time>2017-12-13T09:52:26Z</time>
      </trkpt>
      <trkpt lat="45.92443" lon="4.74675">
        <ele>171</ele>
        <time>2017-12-13T09:52:27Z</time>
      </trkpt>
      <trkpt lat="45.9244" lon="4.74682">
        <ele>171</ele>
        <time>2017-12-13T09:52:28Z</time>
      </trkpt>
      <trkpt lat="45.92437" lon="4.74689">
        <ele>171</ele>
        <time>2017-12-13T09:52:29Z</time>
      </trkpt>
      <trkpt lat="45.92434" lon="4.74696">
        <ele>171</ele>
        <time>2017-12-13T09:52:30Z</time>
      </trkpt>
      <trkpt lat="45.92431" lon="4.74703">
        <ele>171</ele>
        <time>2017-12-13T09:52:31Z</time>
      </trkpt>
      <trkpt lat="45.92428" lon="4.74709">
        <ele>171</ele>
        <time>2017-12-13T09:52:32Z</time>
      </trkpt>
      <trkpt lat="45.92425" lon="4.74716">
        <ele>171</ele>
        <time>2017-12-13T09:52:33Z</time>
      </trkpt>
      <trkpt lat="45.92422" lon="4.74723">
        <ele>171</ele>
        <time>2017-12-13T09:52:34Z</time>
      </trkpt>
      <trkpt lat="45.92419" lon="4.74731">
        <ele>171</ele>
        <time>2017-12-13T09:52:35Z</time>
      </trkpt>
      <trkpt lat="45.92416" lon="4.74738">
        <ele>172</ele>
        <time>2017-12-13T09:52:36Z</time>
      </trkpt>
      <trkpt lat="45.92413" lon="4.74745">
        <ele>172</ele>
        <time>2017-12-13T09:52:37Z</time>
      </trkpt>
      <trkpt lat="45.92411" lon="4.74754">
        <ele>172</ele>
        <time>2017-12-13T09:52:38Z</time>
      </trkpt>
      <trkpt lat="45.92409" lon="4.74763">
        <ele>172</ele>
        <time>2017-12-13T09:52:39Z</time>
      </trkpt>
      <trkpt lat="45.92407" lon="4.74771">
        <ele>171</ele>
        <time>2017-12-13T09:52:40Z</time>
      </trkpt>
      <trkpt lat="45.92404" lon="4.74779">
        <ele>171</ele>
        <time>2017-12-13T09:52:41Z</time>
      </trkpt>
      <trkpt lat="45.92402" lon="4.74789">
        <ele>171</ele>
        <time>2017-12-13T09:52:42Z</time>
      </trkpt>
      <trkpt lat="45.92401" lon="4.74798">
        <ele>171</ele>
        <time>2017-12-13T09:52:43Z</time>
      </trkpt>
      <trkpt lat="45.924" lon="4.74807">
        <ele>171</ele>
        <time>2017-12-13T09:52:44Z</time>
      </trkpt>
      <trkpt lat="45.92398" lon="4.74817">
        <ele>171</ele>
        <time>2017-12-13T09:52:45Z</time>
      </trkpt>
      <trkpt lat="45.92396" lon="4.74826">
        <ele>171</ele>
        <time>2017-12-13T09:52:46Z</time>
      </trkpt>
      <trkpt lat="45.92394" lon="4.74834">
        <ele>171</ele>
        <time>2017-12-13T09:52:47Z</time>
      </trkpt>
      <trkpt lat="45.92392" lon="4.74843">
        <ele>171</ele>
        <time>2017-12-13T09:52:48Z</time>
      </trkpt>
      <trkpt lat="45.9239" lon="4.74852">
        <ele>171</ele>
        <time>2017-12-13T09:52:49Z</time>
      </trkpt>
      <trkpt lat="45.92387" lon="4.7486">
        <ele>171</ele>
        <time>2017-12-13T09:52:50Z</time>
      </trkpt>
      <trkpt lat="45.92384" lon="4.74868">
        <ele>171</ele>
        <time>2017-12-13T09:52:51Z</time>
      </trkpt>
      <trkpt lat="45.92381" lon="4.74876">
        <ele>171</ele>
        <time>2017-12-13T09:52:52Z</time>
      </trkpt>
      <trkpt lat="45.92377" lon="4.74883">
        <ele>171</ele>
        <time>2017-12-13T09:52:53Z</time>
      </trkpt>
      <trkpt lat="45.92374" lon="4.74892">
        <ele>171</ele>
        <time>2017-12-13T09:52:54Z</time>
      </trkpt>
      <trkpt lat="45.92371" lon="4.74899">
        <ele>171</ele>
        <time>2017-12-13T09:52:55Z</time>
      </trkpt>
      <trkpt lat="45.92368" lon="4.74908">
        <ele>171</ele>
        <time>2017-12-13T09:52:56Z</time>
      </trkpt>
      <trkpt lat="45.92365" lon="4.74917">
        <ele>170</ele>
        <time>2017-12-13T09:52:57Z</time>
      </trkpt>
      <trkpt lat="45.92362" lon="4.74925">
        <ele>170</ele>
        <time>2017-12-13T09:52:58Z</time>
      </trkpt>
      <trkpt lat="45.92359" lon="4.74933">
        <ele>170</ele>
        <time>2017-12-13T09:52:59Z</time>
      </trkpt>
      <trkpt lat="45.92356" lon="4.74942">
        <ele>170</ele>
        <time>2017-12-13T09:53:00Z</time>
      </trkpt>
      <trkpt lat="45.92353" lon="4.74949">
        <ele>170</ele>
        <time>2017-12-13T09:53:01Z</time>
      </trkpt>
      <trkpt lat="45.9235" lon="4.74958">
        <ele>170</ele>
        <time>2017-12-13T09:53:02Z</time>
      </trkpt>
      <trkpt lat="45.92348" lon="4.74965">
        <ele>170</ele>
        <time>2017-12-13T09:53:03Z</time>
      </trkpt>
      <trkpt lat="45.92345" lon="4.74972">
        <ele>170</ele>
        <time>2017-12-13T09:53:04Z</time>
      </trkpt>
      <trkpt lat="45.92342" lon="4.74979">
        <ele>170</ele>
        <time>2017-12-13T09:53:05Z</time>
      </trkpt>
      <trkpt lat="45.9234" lon="4.74987">
        <ele>170</ele>
        <time>2017-12-13T09:53:06Z</time>
      </trkpt>
      <trkpt lat="45.92338" lon="4.74994">
        <ele>170</ele>
        <time>2017-12-13T09:53:07Z</time>
      </trkpt>
      <trkpt lat="45.92335" lon="4.75002">
        <ele>170</ele>
        <time>2017-12-13T09:53:08Z</time>
      </trkpt>
      <trkpt lat="45.92331" lon="4.75008">
        <ele>171</ele>
        <time>2017-12-13T09:53:09Z</time>
      </trkpt>
      <trkpt lat="45.92328" lon="4.75015">
        <ele>171</ele>
        <time>2017-12-13T09:53:10Z</time>
      </trkpt>
      <trkpt lat="45.92325" lon="4.75023">
        <ele>171</ele>
        <time>2017-12-13T09:53:11Z</time>
      </trkpt>
      <trkpt lat="45.92322" lon="4.7503">
        <ele>171</ele>
        <time>2017-12-13T09:53:12Z</time>
      </trkpt>
      <trkpt lat="45.92318" lon="4.75037">
        <ele>171</ele>
        <time>2017-12-13T09:53:13Z</time>
      </trkpt>
      <trkpt lat="45.92314" lon="4.75044">
        <ele>172</ele>
        <time>2017-12-13T09:53:14Z</time>
      </trkpt>
      <trkpt lat="45.9231" lon="4.7505">
        <ele>172</ele>
        <time>2017-12-13T09:53:15Z</time>
      </trkpt>
      <trkpt lat="45.92305" lon="4.75056">
        <ele>172</ele>
        <time>2017-12-13T09:53:16Z</time>
      </trkpt>
      <trkpt lat="45.923" lon="4.75063">
        <ele>172</ele>
        <time>2017-12-13T09:53:17Z</time>
      </trkpt>
      <trkpt lat="45.92296" lon="4.75068">
        <ele>172</ele>
        <time>2017-12-13T09:53:18Z</time>
      </trkpt>
      <trkpt lat="45.92291" lon="4.75074">
        <ele>172</ele>
        <time>2017-12-13T09:53:19Z</time>
      </trkpt>
      <trkpt lat="45.92287" lon="4.75078">
        <ele>172</ele>
        <time>2017-12-13T09:53:20Z</time>
      </trkpt>
      <trkpt lat="45.92282" lon="4.75083">
        <ele>173</ele>
        <time>2017-12-13T09:53:21Z</time>
      </trkpt>
      <trkpt lat="45.92278" lon="4.75088">
        <ele>173</ele>
        <time>2017-12-13T09:53:22Z</time>
      </trkpt>
      <trkpt lat="45.92273" lon="4.75093">
        <ele>173</ele>
        <time>2017-12-13T09:53:23Z</time>
      </trkpt>
      <trkpt lat="45.92268" lon="4.75098">
        <ele>173</ele>
        <time>2017-12-13T09:53:24Z</time>
      </trkpt>
      <trkpt lat="45.92263" lon="4.75103">
        <ele>173</ele>
        <time>2017-12-13T09:53:25Z</time>
      </trkpt>
      <trkpt lat="45.92259" lon="4.75108">
        <ele>174</ele>
        <time>2017-12-13T09:53:26Z</time>
      </trkpt>
      <trkpt lat="45.92255" lon="4.75114">
        <ele>174</ele>
        <time>2017-12-13T09:53:27Z</time>
      </trkpt>
      <trkpt lat="45.9225" lon="4.75119">
        <ele>174</ele>
        <time>2017-12-13T09:53:28Z</time>
      </trkpt>
      <trkpt lat="45.92245" lon="4.75124">
        <ele>174</ele>
        <time>2017-12-13T09:53:29Z</time>
      </trkpt>
      <trkpt lat="45.92241" lon="4.75129">
        <ele>174</ele>
        <time>2017-12-13T09:53:30Z</time>
      </trkpt>
      <trkpt lat="45.92237" lon="4.75135">
        <ele>174</ele>
        <time>2017-12-13T09:53:31Z</time>
      </trkpt>
      <trkpt lat="45.92233" lon="4.75142">
        <ele>174</ele>
        <time>2017-12-13T09:53:32Z</time>
      </trkpt>
      <trkpt lat="45.92229" lon="4.7515">
        <ele>174</ele>
        <time>2017-12-13T09:53:33Z</time>
      </trkpt>
      <trkpt lat="45.92225" lon="4.75156">
        <ele>174</ele>
        <time>2017-12-13T09:53:34Z</time>
      </trkpt>
      <trkpt lat="45.92223" lon="4.75164">
        <ele>174</ele>
        <time>2017-12-13T09:53:35Z</time>
      </trkpt>
      <trkpt lat="45.9222" lon="4.75171">
        <ele>175</ele>
        <time>2017-12-13T09:53:36Z</time>
      </trkpt>
      <trkpt lat="45.92217" lon="4.75178">
        <ele>175</ele>
        <time>2017-12-13T09:53:37Z</time>
      </trkpt>
      <trkpt lat="45.92215" lon="4.75185">
        <ele>175</ele>
        <time>2017-12-13T09:53:38Z</time>
      </trkpt>
      <trkpt lat="45.92213" lon="4.75192">
        <ele>175</ele>
        <time>2017-12-13T09:53:39Z</time>
      </trkpt>
      <trkpt lat="45.92211" lon="4.75201">
        <ele>175</ele>
        <time>2017-12-13T09:53:40Z</time>
      </trkpt>
      <trkpt lat="45.9221" lon="4.75208">
        <ele>175</ele>
        <time>2017-12-13T09:53:41Z</time>
      </trkpt>
      <trkpt lat="45.92209" lon="4.75216">
        <ele>175</ele>
        <time>2017-12-13T09:53:42Z</time>
      </trkpt>
      <trkpt lat="45.92208" lon="4.75224">
        <ele>175</ele>
        <time>2017-12-13T09:53:43Z</time>
      </trkpt>
      <trkpt lat="45.92207" lon="4.75232">
        <ele>175</ele>
        <time>2017-12-13T09:53:44Z</time>
      </trkpt>
      <trkpt lat="45.92208" lon="4.75241">
        <ele>175</ele>
        <time>2017-12-13T09:53:45Z</time>
      </trkpt>
      <trkpt lat="45.92208" lon="4.75248">
        <ele>175</ele>
        <time>2017-12-13T09:53:46Z</time>
      </trkpt>
      <trkpt lat="45.92208" lon="4.75255">
        <ele>175</ele>
        <time>2017-12-13T09:53:47Z</time>
      </trkpt>
      <trkpt lat="45.92208" lon="4.75263">
        <ele>176</ele>
        <time>2017-12-13T09:53:48Z</time>
      </trkpt>
      <trkpt lat="45.92208" lon="4.75271">
        <ele>176</ele>
        <time>2017-12-13T09:53:49Z</time>
      </trkpt>
      <trkpt lat="45.92207" lon="4.75279">
        <ele>176</ele>
        <time>2017-12-13T09:53:50Z</time>
      </trkpt>
      <trkpt lat="45.92207" lon="4.75287">
        <ele>176</ele>
        <time>2017-12-13T09:53:51Z</time>
      </trkpt>
      <trkpt lat="45.92207" lon="4.75296">
        <ele>176</ele>
        <time>2017-12-13T09:53:52Z</time>
      </trkpt>
      <trkpt lat="45.92206" lon="4.75304">
        <ele>176</ele>
        <time>2017-12-13T09:53:53Z</time>
      </trkpt>
      <trkpt lat="45.92206" lon="4.75311">
        <ele>176</ele>
        <time>2017-12-13T09:53:54Z</time>
      </trkpt>
      <trkpt lat="45.92206" lon="4.7532">
        <ele>176</ele>
        <time>2017-12-13T09:53:55Z</time>
      </trkpt>
      <trkpt lat="45.92205" lon="4.75328">
        <ele>176</ele>
        <time>2017-12-13T09:53:56Z</time>
      </trkpt>
      <trkpt lat="45.92204" lon="4.75336">
        <ele>177</ele>
        <time>2017-12-13T09:53:57Z</time>
      </trkpt>
      <trkpt lat="45.92201" lon="4.75341">
        <ele>177</ele>
        <time>2017-12-13T09:53:58Z</time>
      </trkpt>
      <trkpt lat="45.92201" lon="4.75349">
        <ele>177</ele>
        <time>2017-12-13T09:53:59Z</time>
      </trkpt>
      <trkpt lat="45.92199" lon="4.75355">
        <ele>177</ele>
        <time>2017-12-13T09:54:00Z</time>
      </trkpt>
      <trkpt lat="45.92197" lon="4.75362">
        <ele>177</ele>
        <time>2017-12-13T09:54:01Z</time>
      </trkpt>
      <trkpt lat="45.92194" lon="4.75368">
        <ele>177</ele>
        <time>2017-12-13T09:54:02Z</time>
      </trkpt>
      <trkpt lat="45.92193" lon="4.75374">
        <ele>177</ele>
        <time>2017-12-13T09:54:03Z</time>
      </trkpt>
      <trkpt lat="45.9219" lon="4.7538">
        <ele>177</ele>
        <time>2017-12-13T09:54:04Z</time>
      </trkpt>
      <trkpt lat="45.92188" lon="4.75386">
        <ele>177</ele>
        <time>2017-12-13T09:54:05Z</time>
      </trkpt>
      <trkpt lat="45.92185" lon="4.75393">
        <ele>177</ele>
        <time>2017-12-13T09:54:06Z</time>
      </trkpt>
      <trkpt lat="45.92183" lon="4.75401">
        <ele>177</ele>
        <time>2017-12-13T09:54:07Z</time>
      </trkpt>
      <trkpt lat="45.9218" lon="4.75409">
        <ele>177</ele>
        <time>2017-12-13T09:54:08Z</time>
      </trkpt>
      <trkpt lat="45.92178" lon="4.75416">
        <ele>178</ele>
        <time>2017-12-13T09:54:09Z</time>
      </trkpt>
      <trkpt lat="45.92174" lon="4.75423">
        <ele>177</ele>
        <time>2017-12-13T09:54:10Z</time>
      </trkpt>
      <trkpt lat="45.92172" lon="4.7543">
        <ele>177</ele>
        <time>2017-12-13T09:54:11Z</time>
      </trkpt>
      <trkpt lat="45.92169" lon="4.75438">
        <ele>177</ele>
        <time>2017-12-13T09:54:12Z</time>
      </trkpt>
      <trkpt lat="45.92166" lon="4.75446">
        <ele>177</ele>
        <time>2017-12-13T09:54:13Z</time>
      </trkpt>
      <trkpt lat="45.92162" lon="4.75455">
        <ele>176</ele>
        <time>2017-12-13T09:54:14Z</time>
      </trkpt>
      <trkpt lat="45.92159" lon="4.75462">
        <ele>176</ele>
        <time>2017-12-13T09:54:15Z</time>
      </trkpt>
      <trkpt lat="45.92156" lon="4.7547">
        <ele>176</ele>
        <time>2017-12-13T09:54:16Z</time>
      </trkpt>
      <trkpt lat="45.92153" lon="4.75476">
        <ele>176</ele>
        <time>2017-12-13T09:54:17Z</time>
      </trkpt>
      <trkpt lat="45.9215" lon="4.75483">
        <ele>176</ele>
        <time>2017-12-13T09:54:18Z</time>
      </trkpt>
      <trkpt lat="45.92146" lon="4.7549">
        <ele>176</ele>
        <time>2017-12-13T09:54:19Z</time>
      </trkpt>
      <trkpt lat="45.92144" lon="4.75499">
        <ele>175</ele>
        <time>2017-12-13T09:54:20Z</time>
      </trkpt>
      <trkpt lat="45.92139" lon="4.75506">
        <ele>174</ele>
        <time>2017-12-13T09:54:21Z</time>
      </trkpt>
      <trkpt lat="45.92135" lon="4.75513">
        <ele>174</ele>
        <time>2017-12-13T09:54:22Z</time>
      </trkpt>
      <trkpt lat="45.92132" lon="4.7552">
        <ele>174</ele>
        <time>2017-12-13T09:54:23Z</time>
      </trkpt>
      <trkpt lat="45.92127" lon="4.75525">
        <ele>174</ele>
        <time>2017-12-13T09:54:24Z</time>
      </trkpt>
      <trkpt lat="45.92123" lon="4.75531">
        <ele>174</ele>
        <time>2017-12-13T09:54:25Z</time>
      </trkpt>
      <trkpt lat="45.92119" lon="4.75538">
        <ele>174</ele>
        <time>2017-12-13T09:54:26Z</time>
      </trkpt>
      <trkpt lat="45.92115" lon="4.75545">
        <ele>174</ele>
        <time>2017-12-13T09:54:27Z</time>
      </trkpt>
      <trkpt lat="45.92112" lon="4.75553">
        <ele>174</ele>
        <time>2017-12-13T09:54:28Z</time>
      </trkpt>
      <trkpt lat="45.92108" lon="4.75559">
        <ele>174</ele>
        <time>2017-12-13T09:54:29Z</time>
      </trkpt>
      <trkpt lat="45.92104" lon="4.75564">
        <ele>174</ele>
        <time>2017-12-13T09:54:30Z</time>
      </trkpt>
      <trkpt lat="45.921" lon="4.7557">
        <ele>174</ele>
        <time>2017-12-13T09:54:31Z</time>
      </trkpt>
      <trkpt lat="45.92096" lon="4.75576">
        <ele>174</ele>
        <time>2017-12-13T09:54:32Z</time>
      </trkpt>
      <trkpt lat="45.92093" lon="4.75582">
        <ele>174</ele>
        <time>2017-12-13T09:54:33Z</time>
      </trkpt>
      <trkpt lat="45.9209" lon="4.75589">
        <ele>174</ele>
        <time>2017-12-13T09:54:34Z</time>
      </trkpt>
      <trkpt lat="45.92087" lon="4.75596">
        <ele>174</ele>
        <time>2017-12-13T09:54:35Z</time>
      </trkpt>
      <trkpt lat="45.92083" lon="4.75603">
        <ele>175</ele>
        <time>2017-12-13T09:54:36Z</time>
      </trkpt>
      <trkpt lat="45.92079" lon="4.7561">
        <ele>175</ele>
        <time>2017-12-13T09:54:37Z</time>
      </trkpt>
      <trkpt lat="45.92076" lon="4.75616">
        <ele>175</ele>
        <time>2017-12-13T09:54:38Z</time>
      </trkpt>
      <trkpt lat="45.92073" lon="4.75623">
        <ele>175</ele>
        <time>2017-12-13T09:54:39Z</time>
      </trkpt>
      <trkpt lat="45.9207" lon="4.7563">
        <ele>175</ele>
        <time>2017-12-13T09:54:40Z</time>
      </trkpt>
      <trkpt lat="45.92066" lon="4.75636">
        <ele>175</ele>
        <time>2017-12-13T09:54:41Z</time>
      </trkpt>
      <trkpt lat="45.92063" lon="4.75643">
        <ele>175</ele>
        <time>2017-12-13T09:54:42Z</time>
      </trkpt>
      <trkpt lat="45.92059" lon="4.75649">
        <ele>175</ele>
        <time>2017-12-13T09:54:43Z</time>
      </trkpt>
      <trkpt lat="45.92056" lon="4.75656">
        <ele>175</ele>
        <time>2017-12-13T09:54:44Z</time>
      </trkpt>
      <trkpt lat="45.92053" lon="4.75663">
        <ele>175</ele>
        <time>2017-12-13T09:54:45Z</time>
      </trkpt>
      <trkpt lat="45.92049" lon="4.7567">
        <ele>175</ele>
        <time>2017-12-13T09:54:46Z</time>
      </trkpt>
      <trkpt lat="45.92046" lon="4.75676">
        <ele>175</ele>
        <time>2017-12-13T09:54:47Z</time>
      </trkpt>
      <trkpt lat="45.92042" lon="4.75682">
        <ele>175</ele>
        <time>2017-12-13T09:54:48Z</time>
      </trkpt>
      <trkpt lat="45.92039" lon="4.75689">
        <ele>175</ele>
        <time>2017-12-13T09:54:49Z</time>
      </trkpt>
      <trkpt lat="45.92036" lon="4.75696">
        <ele>175</ele>
        <time>2017-12-13T09:54:50Z</time>
      </trkpt>
      <trkpt lat="45.92032" lon="4.75703">
        <ele>175</ele>
        <time>2017-12-13T09:54:51Z</time>
      </trkpt>
      <trkpt lat="45.92028" lon="4.7571">
        <ele>175</ele>
        <time>2017-12-13T09:54:52Z</time>
      </trkpt>
      <trkpt lat="45.92024" lon="4.75717">
        <ele>175</ele>
        <time>2017-12-13T09:54:53Z</time>
      </trkpt>
      <trkpt lat="45.9202" lon="4.75723">
        <ele>175</ele>
        <time>2017-12-13T09:54:54Z</time>
      </trkpt>
      <trkpt lat="45.92017" lon="4.7573">
        <ele>175</ele>
        <time>2017-12-13T09:54:55Z</time>
      </trkpt>
      <trkpt lat="45.92013" lon="4.75737">
        <ele>174</ele>
        <time>2017-12-13T09:54:56Z</time>
      </trkpt>
      <trkpt lat="45.92009" lon="4.75744">
        <ele>174</ele>
        <time>2017-12-13T09:54:57Z</time>
      </trkpt>
      <trkpt lat="45.92005" lon="4.75752">
        <ele>174</ele>
        <time>2017-12-13T09:54:58Z</time>
      </trkpt>
      <trkpt lat="45.92001" lon="4.75756">
        <ele>174</ele>
        <time>2017-12-13T09:54:59Z</time>
      </trkpt>
      <trkpt lat="45.91998" lon="4.75763">
        <ele>174</ele>
        <time>2017-12-13T09:55:00Z</time>
      </trkpt>
      <trkpt lat="45.91994" lon="4.75769">
        <ele>174</ele>
        <time>2017-12-13T09:55:01Z</time>
      </trkpt>
      <trkpt lat="45.91991" lon="4.75775">
        <ele>174</ele>
        <time>2017-12-13T09:55:02Z</time>
      </trkpt>
      <trkpt lat="45.91987" lon="4.75782">
        <ele>174</ele>
        <time>2017-12-13T09:55:03Z</time>
      </trkpt>
      <trkpt lat="45.91984" lon="4.75788">
        <ele>173</ele>
        <time>2017-12-13T09:55:04Z</time>
      </trkpt>
      <trkpt lat="45.9198" lon="4.75793">
        <ele>173</ele>
        <time>2017-12-13T09:55:05Z</time>
      </trkpt>
      <trkpt lat="45.91976" lon="4.75799">
        <ele>173</ele>
        <time>2017-12-13T09:55:06Z</time>
      </trkpt>
      <trkpt lat="45.91974" lon="4.75806">
        <ele>173</ele>
        <time>2017-12-13T09:55:07Z</time>
      </trkpt>
      <trkpt lat="45.91971" lon="4.75811">
        <ele>173</ele>
        <time>2017-12-13T09:55:08Z</time>
      </trkpt>
      <trkpt lat="45.91968" lon="4.75816">
        <ele>173</ele>
        <time>2017-12-13T09:55:09Z</time>
      </trkpt>
      <trkpt lat="45.91963" lon="4.75822">
        <ele>173</ele>
        <time>2017-12-13T09:55:10Z</time>
      </trkpt>
      <trkpt lat="45.9196" lon="4.75827">
        <ele>173</ele>
        <time>2017-12-13T09:55:11Z</time>
      </trkpt>
      <trkpt lat="45.91956" lon="4.75833">
        <ele>173</ele>
        <time>2017-12-13T09:55:12Z</time>
      </trkpt>
      <trkpt lat="45.91952" lon="4.75838">
        <ele>172</ele>
        <time>2017-12-13T09:55:13Z</time>
      </trkpt>
      <trkpt lat="45.91948" lon="4.75844">
        <ele>172</ele>
        <time>2017-12-13T09:55:14Z</time>
      </trkpt>
      <trkpt lat="45.91945" lon="4.75851">
        <ele>172</ele>
        <time>2017-12-13T09:55:15Z</time>
      </trkpt>
      <trkpt lat="45.91942" lon="4.75859">
        <ele>172</ele>
        <time>2017-12-13T09:55:16Z</time>
      </trkpt>
      <trkpt lat="45.91939" lon="4.75865">
        <ele>172</ele>
        <time>2017-12-13T09:55:17Z</time>
      </trkpt>
      <trkpt lat="45.91936" lon="4.75872">
        <ele>172</ele>
        <time>2017-12-13T09:55:18Z</time>
      </trkpt>
      <trkpt lat="45.91932" lon="4.75879">
        <ele>172</ele>
        <time>2017-12-13T09:55:19Z</time>
      </trkpt>
      <trkpt lat="45.9193" lon="4.75885">
        <ele>172</ele>
        <time>2017-12-13T09:55:20Z</time>
      </trkpt>
      <trkpt lat="45.91927" lon="4.75892">
        <ele>172</ele>
        <time>2017-12-13T09:55:21Z</time>
      </trkpt>
      <trkpt lat="45.91925" lon="4.75899">
        <ele>172</ele>
        <time>2017-12-13T09:55:22Z</time>
      </trkpt>
      <trkpt lat="45.91923" lon="4.75906">
        <ele>172</ele>
        <time>2017-12-13T09:55:23Z</time>
      </trkpt>
      <trkpt lat="45.9192" lon="4.75914">
        <ele>172</ele>
        <time>2017-12-13T09:55:24Z</time>
      </trkpt>
      <trkpt lat="45.91919" lon="4.75922">
        <ele>172</ele>
        <time>2017-12-13T09:55:25Z</time>
      </trkpt>
      <trkpt lat="45.91918" lon="4.7593">
        <ele>172</ele>
        <time>2017-12-13T09:55:26Z</time>
      </trkpt>
      <trkpt lat="45.91916" lon="4.75937">
        <ele>173</ele>
        <time>2017-12-13T09:55:27Z</time>
      </trkpt>
      <trkpt lat="45.91913" lon="4.75945">
        <ele>173</ele>
        <time>2017-12-13T09:55:28Z</time>
      </trkpt>
      <trkpt lat="45.91911" lon="4.75954">
        <ele>173</ele>
        <time>2017-12-13T09:55:29Z</time>
      </trkpt>
      <trkpt lat="45.91908" lon="4.75963">
        <ele>173</ele>
        <time>2017-12-13T09:55:30Z</time>
      </trkpt>
      <trkpt lat="45.91906" lon="4.7597">
        <ele>173</ele>
        <time>2017-12-13T09:55:31Z</time>
      </trkpt>
      <trkpt lat="45.91905" lon="4.75978">
        <ele>173</ele>
        <time>2017-12-13T09:55:32Z</time>
      </trkpt>
      <trkpt lat="45.91903" lon="4.75987">
        <ele>173</ele>
        <time>2017-12-13T09:55:33Z</time>
      </trkpt>
      <trkpt lat="45.91901" lon="4.75995">
        <ele>173</ele>
        <time>2017-12-13T09:55:34Z</time>
      </trkpt>
      <trkpt lat="45.91899" lon="4.76003">
        <ele>173</ele>
        <time>2017-12-13T09:55:35Z</time>
      </trkpt>
      <trkpt lat="45.91897" lon="4.7601">
        <ele>173</ele>
        <time>2017-12-13T09:55:36Z</time>
      </trkpt>
      <trkpt lat="45.91894" lon="4.76017">
        <ele>173</ele>
        <time>2017-12-13T09:55:37Z</time>
      </trkpt>
      <trkpt lat="45.91892" lon="4.76024">
        <ele>173</ele>
        <time>2017-12-13T09:55:38Z</time>
      </trkpt>
      <trkpt lat="45.9189" lon="4.76032">
        <ele>173</ele>
        <time>2017-12-13T09:55:39Z</time>
      </trkpt>
      <trkpt lat="45.91887" lon="4.76039">
        <ele>173</ele>
        <time>2017-12-13T09:55:40Z</time>
      </trkpt>
      <trkpt lat="45.91885" lon="4.76046">
        <ele>173</ele>
        <time>2017-12-13T09:55:41Z</time>
      </trkpt>
      <trkpt lat="45.91883" lon="4.76054">
        <ele>173</ele>
        <time>2017-12-13T09:55:42Z</time>
      </trkpt>
      <trkpt lat="45.91882" lon="4.76063">
        <ele>173</ele>
        <time>2017-12-13T09:55:43Z</time>
      </trkpt>
      <trkpt lat="45.91879" lon="4.7607">
        <ele>173</ele>
        <time>2017-12-13T09:55:44Z</time>
      </trkpt>
      <trkpt lat="45.91877" lon="4.76078">
        <ele>173</ele>
        <time>2017-12-13T09:55:45Z</time>
      </trkpt>
      <trkpt lat="45.91875" lon="4.76086">
        <ele>173</ele>
        <time>2017-12-13T09:55:46Z</time>
      </trkpt>
      <trkpt lat="45.91873" lon="4.76093">
        <ele>173</ele>
        <time>2017-12-13T09:55:47Z</time>
      </trkpt>
      <trkpt lat="45.91872" lon="4.761">
        <ele>173</ele>
        <time>2017-12-13T09:55:48Z</time>
      </trkpt>
      <trkpt lat="45.9187" lon="4.76108">
        <ele>173</ele>
        <time>2017-12-13T09:55:49Z</time>
      </trkpt>
      <trkpt lat="45.91867" lon="4.76115">
        <ele>173</ele>
        <time>2017-12-13T09:55:50Z</time>
      </trkpt>
      <trkpt lat="45.91865" lon="4.76122">
        <ele>173</ele>
        <time>2017-12-13T09:55:51Z</time>
      </trkpt>
      <trkpt lat="45.91863" lon="4.7613">
        <ele>173</ele>
        <time>2017-12-13T09:55:52Z</time>
      </trkpt>
      <trkpt lat="45.91861" lon="4.76137">
        <ele>173</ele>
        <time>2017-12-13T09:55:53Z</time>
      </trkpt>
      <trkpt lat="45.91859" lon="4.76144">
        <ele>173</ele>
        <time>2017-12-13T09:55:54Z</time>
      </trkpt>
      <trkpt lat="45.91858" lon="4.76151">
        <ele>173</ele>
        <time>2017-12-13T09:55:55Z</time>
      </trkpt>
      <trkpt lat="45.91856" lon="4.76159">
        <ele>173</ele>
        <time>2017-12-13T09:55:56Z</time>
      </trkpt>
      <trkpt lat="45.91854" lon="4.76167">
        <ele>172</ele>
        <time>2017-12-13T09:55:57Z</time>
      </trkpt>
      <trkpt lat="45.91851" lon="4.76174">
        <ele>172</ele>
        <time>2017-12-13T09:55:58Z</time>
      </trkpt>
      <trkpt lat="45.9185" lon="4.76182">
        <ele>172</ele>
        <time>2017-12-13T09:55:59Z</time>
      </trkpt>
      <trkpt lat="45.91848" lon="4.76188">
        <ele>172</ele>
        <time>2017-12-13T09:56:00Z</time>
      </trkpt>
      <trkpt lat="45.91847" lon="4.76194">
        <ele>172</ele>
        <time>2017-12-13T09:56:01Z</time>
      </trkpt>
      <trkpt lat="45.91845" lon="4.76202">
        <ele>172</ele>
        <time>2017-12-13T09:56:02Z</time>
      </trkpt>
      <trkpt lat="45.91843" lon="4.7621">
        <ele>172</ele>
        <time>2017-12-13T09:56:03Z</time>
      </trkpt>
      <trkpt lat="45.9184" lon="4.76217">
        <ele>172</ele>
        <time>2017-12-13T09:56:04Z</time>
      </trkpt>
      <trkpt lat="45.91839" lon="4.76224">
        <ele>172</ele>
        <time>2017-12-13T09:56:05Z</time>
      </trkpt>
      <trkpt lat="45.91836" lon="4.76232">
        <ele>173</ele>
        <time>2017-12-13T09:56:06Z</time>
      </trkpt>
      <trkpt lat="45.91835" lon="4.7624">
        <ele>173</ele>
        <time>2017-12-13T09:56:07Z</time>
      </trkpt>
      <trkpt lat="45.91833" lon="4.76248">
        <ele>173</ele>
        <time>2017-12-13T09:56:08Z</time>
      </trkpt>
      <trkpt lat="45.91831" lon="4.76256">
        <ele>173</ele>
        <time>2017-12-13T09:56:09Z</time>
      </trkpt>
      <trkpt lat="45.91829" lon="4.76264">
        <ele>174</ele>
        <time>2017-12-13T09:56:10Z</time>
      </trkpt>
      <trkpt lat="45.91827" lon="4.76272">
        <ele>174</ele>
        <time>2017-12-13T09:56:11Z</time>
      </trkpt>
      <trkpt lat="45.91825" lon="4.7628">
        <ele>174</ele>
        <time>2017-12-13T09:56:12Z</time>
      </trkpt>
      <trkpt lat="45.91823" lon="4.76288">
        <ele>174</ele>
        <time>2017-12-13T09:56:13Z</time>
      </trkpt>
      <trkpt lat="45.91822" lon="4.76295">
        <ele>174</ele>
        <time>2017-12-13T09:56:14Z</time>
      </trkpt>
      <trkpt lat="45.91821" lon="4.76303">
        <ele>174</ele>
        <time>2017-12-13T09:56:15Z</time>
      </trkpt>
      <trkpt lat="45.91819" lon="4.76311">
        <ele>174</ele>
        <time>2017-12-13T09:56:16Z</time>
      </trkpt>
      <trkpt lat="45.91817" lon="4.76317">
        <ele>174</ele>
        <time>2017-12-13T09:56:17Z</time>
      </trkpt>
      <trkpt lat="45.91816" lon="4.76323">
        <ele>174</ele>
        <time>2017-12-13T09:56:18Z</time>
      </trkpt>
      <trkpt lat="45.91814" lon="4.76329">
        <ele>174</ele>
        <time>2017-12-13T09:56:19Z</time>
      </trkpt>
      <trkpt lat="45.91814" lon="4.76336">
        <ele>174</ele>
        <time>2017-12-13T09:56:20Z</time>
      </trkpt>
      <trkpt lat="45.91812" lon="4.76343">
        <ele>174</ele>
        <time>2017-12-13T09:56:21Z</time>
      </trkpt>
      <trkpt lat="45.91811" lon="4.7635">
        <ele>174</ele>
        <time>2017-12-13T09:56:22Z</time>
      </trkpt>
      <trkpt lat="45.91811" lon="4.76358">
        <ele>174</ele>
        <time>2017-12-13T09:56:23Z</time>
      </trkpt>
      <trkpt lat="45.9181" lon="4.76366">
        <ele>174</ele>
        <time>2017-12-13T09:56:24Z</time>
      </trkpt>
      <trkpt lat="45.91809" lon="4.76373">
        <ele>174</ele>
        <time>2017-12-13T09:56:25Z</time>
      </trkpt>
      <trkpt lat="45.91809" lon="4.76381">
        <ele>174</ele>
        <time>2017-12-13T09:56:26Z</time>
      </trkpt>
      <trkpt lat="45.91809" lon="4.7639">
        <ele>174</ele>
        <time>2017-12-13T09:56:27Z</time>
      </trkpt>
      <trkpt lat="45.91808" lon="4.76397">
        <ele>173</ele>
        <time>2017-12-13T09:56:28Z</time>
      </trkpt>
      <trkpt lat="45.91807" lon="4.76405">
        <ele>173</ele>
        <time>2017-12-13T09:56:29Z</time>
      </trkpt>
      <trkpt lat="45.91807" lon="4.76414">
        <ele>173</ele>
        <time>2017-12-13T09:56:30Z</time>
      </trkpt>
      <trkpt lat="45.91807" lon="4.76422">
        <ele>173</ele>
        <time>2017-12-13T09:56:31Z</time>
      </trkpt>
      <trkpt lat="45.91806" lon="4.76429">
        <ele>173</ele>
        <time>2017-12-13T09:56:32Z</time>
      </trkpt>
      <trkpt lat="45.91805" lon="4.76437">
        <ele>173</ele>
        <time>2017-12-13T09:56:33Z</time>
      </trkpt>
      <trkpt lat="45.91804" lon="4.76444">
        <ele>173</ele>
        <time>2017-12-13T09:56:34Z</time>
      </trkpt>
      <trkpt lat="45.91803" lon="4.76451">
        <ele>173</ele>
        <time>2017-12-13T09:56:35Z</time>
      </trkpt>
      <trkpt lat="45.91803" lon="4.76458">
        <ele>173</ele>
        <time>2017-12-13T09:56:36Z</time>
      </trkpt>
      <trkpt lat="45.91803" lon="4.76465">
        <ele>173</ele>
        <time>2017-12-13T09:56:37Z</time>
      </trkpt>
      <trkpt lat="45.91803" lon="4.76473">
        <ele>173</ele>
        <time>2017-12-13T09:56:38Z</time>
      </trkpt>
      <trkpt lat="45.91802" lon="4.76481">
        <ele>173</ele>
        <time>2017-12-13T09:56:39Z</time>
      </trkpt>
      <trkpt lat="45.91802" lon="4.76487">
        <ele>173</ele>
        <time>2017-12-13T09:56:40Z</time>
      </trkpt>
      <trkpt lat="45.91801" lon="4.76494">
        <ele>173</ele>
        <time>2017-12-13T09:56:41Z</time>
      </trkpt>
      <trkpt lat="45.91801" lon="4.76503">
        <ele>173</ele>
        <time>2017-12-13T09:56:42Z</time>
      </trkpt>
      <trkpt lat="45.918" lon="4.7651">
        <ele>173</ele>
        <time>2017-12-13T09:56:43Z</time>
      </trkpt>
      <trkpt lat="45.918" lon="4.76518">
        <ele>173</ele>
        <time>2017-12-13T09:56:44Z</time>
      </trkpt>
      <trkpt lat="45.91798" lon="4.76525">
        <ele>173</ele>
        <time>2017-12-13T09:56:45Z</time>
      </trkpt>
      <trkpt lat="45.91797" lon="4.76533">
        <ele>173</ele>
        <time>2017-12-13T09:56:46Z</time>
      </trkpt>
      <trkpt lat="45.91797" lon="4.76541">
        <ele>173</ele>
        <time>2017-12-13T09:56:47Z</time>
      </trkpt>
      <trkpt lat="45.91796" lon="4.76548">
        <ele>173</ele>
        <time>2017-12-13T09:56:48Z</time>
      </trkpt>
      <trkpt lat="45.91795" lon="4.76555">
        <ele>173</ele>
        <time>2017-12-13T09:56:49Z</time>
      </trkpt>
      <trkpt lat="45.91795" lon="4.76562">
        <ele>173</ele>
        <time>2017-12-13T09:56:50Z</time>
      </trkpt>
      <trkpt lat="45.91794" lon="4.7657">
        <ele>173</ele>
        <time>2017-12-13T09:56:51Z</time>
      </trkpt>
      <trkpt lat="45.91794" lon="4.76578">
        <ele>173</ele>
        <time>2017-12-13T09:56:52Z</time>
      </trkpt>
      <trkpt lat="45.91793" lon="4.76585">
        <ele>173</ele>
        <time>2017-12-13T09:56:53Z</time>
      </trkpt>
      <trkpt lat="45.91792" lon="4.76593">
        <ele>173</ele>
        <time>2017-12-13T09:56:54Z</time>
      </trkpt>
      <trkpt lat="45.91791" lon="4.76601">
        <ele>173</ele>
        <time>2017-12-13T09:56:55Z</time>
      </trkpt>
      <trkpt lat="45.9179" lon="4.7661">
        <ele>173</ele>
        <time>2017-12-13T09:56:56Z</time>
      </trkpt>
      <trkpt lat="45.91789" lon="4.76617">
        <ele>173</ele>
        <time>2017-12-13T09:56:57Z</time>
      </trkpt>
      <trkpt lat="45.91789" lon="4.76625">
        <ele>173</ele>
        <time>2017-12-13T09:56:58Z</time>
      </trkpt>
      <trkpt lat="45.91788" lon="4.76633">
        <ele>173</ele>
        <time>2017-12-13T09:56:59Z</time>
      </trkpt>
      <trkpt lat="45.91787" lon="4.7664">
        <ele>173</ele>
        <time>2017-12-13T09:57:00Z</time>
      </trkpt>
      <trkpt lat="45.91786" lon="4.76649">
        <ele>173</ele>
        <time>2017-12-13T09:57:01Z</time>
      </trkpt>
      <trkpt lat="45.91786" lon="4.76656">
        <ele>173</ele>
        <time>2017-12-13T09:57:02Z</time>
      </trkpt>
      <trkpt lat="45.91785" lon="4.76664">
        <ele>173</ele>
        <time>2017-12-13T09:57:03Z</time>
      </trkpt>
      <trkpt lat="45.91784" lon="4.76671">
        <ele>172</ele>
        <time>2017-12-13T09:57:04Z</time>
      </trkpt>
      <trkpt lat="45.91783" lon="4.76678">
        <ele>172</ele>
        <time>2017-12-13T09:57:05Z</time>
      </trkpt>
      <trkpt lat="45.91782" lon="4.76686">
        <ele>172</ele>
        <time>2017-12-13T09:57:06Z</time>
      </trkpt>
      <trkpt lat="45.91782" lon="4.76694">
        <ele>172</ele>
        <time>2017-12-13T09:57:07Z</time>
      </trkpt>
      <trkpt lat="45.91781" lon="4.76702">
        <ele>172</ele>
        <time>2017-12-13T09:57:08Z</time>
      </trkpt>
      <trkpt lat="45.9178" lon="4.7671">
        <ele>172</ele>
        <time>2017-12-13T09:57:09Z</time>
      </trkpt>
      <trkpt lat="45.91779" lon="4.76718">
        <ele>172</ele>
        <time>2017-12-13T09:57:10Z</time>
      </trkpt>
      <trkpt lat="45.91778" lon="4.76727">
        <ele>172</ele>
        <time>2017-12-13T09:57:11Z</time>
      </trkpt>
      <trkpt lat="45.91778" lon="4.76736">
        <ele>172</ele>
        <time>2017-12-13T09:57:12Z</time>
      </trkpt>
      <trkpt lat="45.91778" lon="4.76746">
        <ele>172</ele>
        <time>2017-12-13T09:57:13Z</time>
      </trkpt>
      <trkpt lat="45.91777" lon="4.76755">
        <ele>171</ele>
        <time>2017-12-13T09:57:14Z</time>
      </trkpt>
      <trkpt lat="45.91776" lon="4.76763">
        <ele>171</ele>
        <time>2017-12-13T09:57:15Z</time>
      </trkpt>
      <trkpt lat="45.91775" lon="4.76771">
        <ele>171</ele>
        <time>2017-12-13T09:57:16Z</time>
      </trkpt>
      <trkpt lat="45.91774" lon="4.76781">
        <ele>171</ele>
        <time>2017-12-13T09:57:17Z</time>
      </trkpt>
      <trkpt lat="45.91774" lon="4.76789">
        <ele>171</ele>
        <time>2017-12-13T09:57:18Z</time>
      </trkpt>
      <trkpt lat="45.91773" lon="4.76797">
        <ele>171</ele>
        <time>2017-12-13T09:57:19Z</time>
      </trkpt>
      <trkpt lat="45.91773" lon="4.76804">
        <ele>171</ele>
        <time>2017-12-13T09:57:20Z</time>
      </trkpt>
      <trkpt lat="45.91773" lon="4.76812">
        <ele>171</ele>
        <time>2017-12-13T09:57:21Z</time>
      </trkpt>
      <trkpt lat="45.91773" lon="4.7682">
        <ele>171</ele>
        <time>2017-12-13T09:57:22Z</time>
      </trkpt>
      <trkpt lat="45.91773" lon="4.76829">
        <ele>171</ele>
        <time>2017-12-13T09:57:23Z</time>
      </trkpt>
      <trkpt lat="45.91773" lon="4.76836">
        <ele>171</ele>
        <time>2017-12-13T09:57:24Z</time>
      </trkpt>
      <trkpt lat="45.91773" lon="4.76845">
        <ele>171</ele>
        <time>2017-12-13T09:57:25Z</time>
      </trkpt>
      <trkpt lat="45.91773" lon="4.76853">
        <ele>170</ele>
        <time>2017-12-13T09:57:26Z</time>
      </trkpt>
      <trkpt lat="45.91773" lon="4.76863">
        <ele>170</ele>
        <time>2017-12-13T09:57:27Z</time>
      </trkpt>
      <trkpt lat="45.91773" lon="4.76873">
        <ele>170</ele>
        <time>2017-12-13T09:57:28Z</time>
      </trkpt>
      <trkpt lat="45.91773" lon="4.76882">
        <ele>170</ele>
        <time>2017-12-13T09:57:29Z</time>
      </trkpt>
      <trkpt lat="45.91772" lon="4.76891">
        <ele>170</ele>
        <time>2017-12-13T09:57:30Z</time>
      </trkpt>
      <trkpt lat="45.91772" lon="4.76901">
        <ele>170</ele>
        <time>2017-12-13T09:57:31Z</time>
      </trkpt>
      <trkpt lat="45.91771" lon="4.7691">
        <ele>170</ele>
        <time>2017-12-13T09:57:32Z</time>
      </trkpt>
      <trkpt lat="45.91771" lon="4.76919">
        <ele>170</ele>
        <time>2017-12-13T09:57:33Z</time>
      </trkpt>
      <trkpt lat="45.9177" lon="4.76927">
        <ele>170</ele>
        <time>2017-12-13T09:57:34Z</time>
      </trkpt>
      <trkpt lat="45.91768" lon="4.76937">
        <ele>170</ele>
        <time>2017-12-13T09:57:35Z</time>
      </trkpt>
      <trkpt lat="45.91768" lon="4.76946">
        <ele>169</ele>
        <time>2017-12-13T09:57:36Z</time>
      </trkpt>
      <trkpt lat="45.91766" lon="4.76954">
        <ele>169</ele>
        <time>2017-12-13T09:57:37Z</time>
      </trkpt>
      <trkpt lat="45.91765" lon="4.76962">
        <ele>169</ele>
        <time>2017-12-13T09:57:38Z</time>
      </trkpt>
      <trkpt lat="45.91764" lon="4.7697">
        <ele>169</ele>
        <time>2017-12-13T09:57:39Z</time>
      </trkpt>
      <trkpt lat="45.91764" lon="4.76978">
        <ele>169</ele>
        <time>2017-12-13T09:57:40Z</time>
      </trkpt>
      <trkpt lat="45.91762" lon="4.76987">
        <ele>169</ele>
        <time>2017-12-13T09:57:41Z</time>
      </trkpt>
      <trkpt lat="45.91762" lon="4.76995">
        <ele>169</ele>
        <time>2017-12-13T09:57:42Z</time>
      </trkpt>
      <trkpt lat="45.91761" lon="4.77002">
        <ele>169</ele>
        <time>2017-12-13T09:57:43Z</time>
      </trkpt>
      <trkpt lat="45.91761" lon="4.77011">
        <ele>169</ele>
        <time>2017-12-13T09:57:44Z</time>
      </trkpt>
      <trkpt lat="45.9176" lon="4.77019">
        <ele>169</ele>
        <time>2017-12-13T09:57:45Z</time>
      </trkpt>
      <trkpt lat="45.91758" lon="4.77027">
        <ele>169</ele>
        <time>2017-12-13T09:57:46Z</time>
      </trkpt>
      <trkpt lat="45.91757" lon="4.77035">
        <ele>169</ele>
        <time>2017-12-13T09:57:47Z</time>
      </trkpt>
      <trkpt lat="45.91755" lon="4.77044">
        <ele>169</ele>
        <time>2017-12-13T09:57:48Z</time>
      </trkpt>
      <trkpt lat="45.91754" lon="4.77052">
        <ele>169</ele>
        <time>2017-12-13T09:57:49Z</time>
      </trkpt>
      <trkpt lat="45.91753" lon="4.77059">
        <ele>169</ele>
        <time>2017-12-13T09:57:50Z</time>
      </trkpt>
      <trkpt lat="45.91752" lon="4.77068">
        <ele>169</ele>
        <time>2017-12-13T09:57:51Z</time>
      </trkpt>
      <trkpt lat="45.91751" lon="4.77076">
        <ele>169</ele>
        <time>2017-12-13T09:57:52Z</time>
      </trkpt>
      <trkpt lat="45.91748" lon="4.77084">
        <ele>169</ele>
        <time>2017-12-13T09:57:53Z</time>
      </trkpt>
      <trkpt lat="45.91747" lon="4.77092">
        <ele>169</ele>
        <time>2017-12-13T09:57:54Z</time>
      </trkpt>
      <trkpt lat="45.91745" lon="4.77101">
        <ele>170</ele>
        <time>2017-12-13T09:57:55Z</time>
      </trkpt>
      <trkpt lat="45.91744" lon="4.7711">
        <ele>170</ele>
        <time>2017-12-13T09:57:56Z</time>
      </trkpt>
      <trkpt lat="45.91743" lon="4.77118">
        <ele>170</ele>
        <time>2017-12-13T09:57:57Z</time>
      </trkpt>
      <trkpt lat="45.91742" lon="4.77126">
        <ele>170</ele>
        <time>2017-12-13T09:57:58Z</time>
      </trkpt>
      <trkpt lat="45.91741" lon="4.77134">
        <ele>170</ele>
        <time>2017-12-13T09:57:59Z</time>
      </trkpt>
      <trkpt lat="45.9174" lon="4.77139">
        <ele>170</ele>
        <time>2017-12-13T09:58:00Z</time>
      </trkpt>
      <trkpt lat="45.91738" lon="4.77147">
        <ele>170</ele>
        <time>2017-12-13T09:58:01Z</time>
      </trkpt>
      <trkpt lat="45.91736" lon="4.77153">
        <ele>170</ele>
        <time>2017-12-13T09:58:02Z</time>
      </trkpt>
      <trkpt lat="45.91734" lon="4.77159">
        <ele>170</ele>
        <time>2017-12-13T09:58:03Z</time>
      </trkpt>
      <trkpt lat="45.9173" lon="4.77163">
        <ele>170</ele>
        <time>2017-12-13T09:58:04Z</time>
      </trkpt>
      <trkpt lat="45.91726" lon="4.77168">
        <ele>170</ele>
        <time>2017-12-13T09:58:05Z</time>
      </trkpt>
      <trkpt lat="45.91725" lon="4.77175">
        <ele>170</ele>
        <time>2017-12-13T09:58:06Z</time>
      </trkpt>
      <trkpt lat="45.91724" lon="4.77181">
        <ele>170</ele>
        <time>2017-12-13T09:58:07Z</time>
      </trkpt>
      <trkpt lat="45.91722" lon="4.77187">
        <ele>170</ele>
        <time>2017-12-13T09:58:08Z</time>
      </trkpt>
      <trkpt lat="45.9172" lon="4.77194">
        <ele>170</ele>
        <time>2017-12-13T09:58:09Z</time>
      </trkpt>
      <trkpt lat="45.91718" lon="4.772">
        <ele>170</ele>
        <time>2017-12-13T09:58:10Z</time>
      </trkpt>
      <trkpt lat="45.91715" lon="4.77206">
        <ele>170</ele>
        <time>2017-12-13T09:58:11Z</time>
      </trkpt>
      <trkpt lat="45.91712" lon="4.77213">
        <ele>170</ele>
        <time>2017-12-13T09:58:12Z</time>
      </trkpt>
      <trkpt lat="45.91708" lon="4.77218">
        <ele>170</ele>
        <time>2017-12-13T09:58:13Z</time>
      </trkpt>
      <trkpt lat="45.91704" lon="4.77225">
        <ele>170</ele>
        <time>2017-12-13T09:58:14Z</time>
      </trkpt>
      <trkpt lat="45.91701" lon="4.77232">
        <ele>170</ele>
        <time>2017-12-13T09:58:15Z</time>
      </trkpt>
      <trkpt lat="45.91698" lon="4.77238">
        <ele>170</ele>
        <time>2017-12-13T09:58:16Z</time>
      </trkpt>
      <trkpt lat="45.91697" lon="4.77247">
        <ele>170</ele>
        <time>2017-12-13T09:58:17Z</time>
      </trkpt>
      <trkpt lat="45.91695" lon="4.77254">
        <ele>170</ele>
        <time>2017-12-13T09:58:18Z</time>
      </trkpt>
      <trkpt lat="45.91693" lon="4.77261">
        <ele>170</ele>
        <time>2017-12-13T09:58:19Z</time>
      </trkpt>
      <trkpt lat="45.91691" lon="4.77267">
        <ele>170</ele>
        <time>2017-12-13T09:58:20Z</time>
      </trkpt>
      <trkpt lat="45.91689" lon="4.77276">
        <ele>170</ele>
        <time>2017-12-13T09:58:21Z</time>
      </trkpt>
      <trkpt lat="45.91688" lon="4.77283">
        <ele>170</ele>
        <time>2017-12-13T09:58:22Z</time>
      </trkpt>
      <trkpt lat="45.91685" lon="4.77291">
        <ele>170</ele>
        <time>2017-12-13T09:58:23Z</time>
      </trkpt>
      <trkpt lat="45.91683" lon="4.77297">
        <ele>170</ele>
        <time>2017-12-13T09:58:24Z</time>
      </trkpt>
      <trkpt lat="45.91681" lon="4.77304">
        <ele>170</ele>
        <time>2017-12-13T09:58:25Z</time>
      </trkpt>
      <trkpt lat="45.91678" lon="4.7731">
        <ele>171</ele>
        <time>2017-12-13T09:58:26Z</time>
      </trkpt>
      <trkpt lat="45.91677" lon="4.77317">
        <ele>171</ele>
        <time>2017-12-13T09:58:27Z</time>
      </trkpt>
      <trkpt lat="45.91675" lon="4.77323">
        <ele>171</ele>
        <time>2017-12-13T09:58:28Z</time>
      </trkpt>
      <trkpt lat="45.91672" lon="4.77329">
        <ele>172</ele>
        <time>2017-12-13T09:58:29Z</time>
      </trkpt>
      <trkpt lat="45.9167" lon="4.77335">
        <ele>172</ele>
        <time>2017-12-13T09:58:30Z</time>
      </trkpt>
      <trkpt lat="45.91668" lon="4.77341">
        <ele>172</ele>
        <time>2017-12-13T09:58:31Z</time>
      </trkpt>
      <trkpt lat="45.91665" lon="4.77347">
        <ele>172</ele>
        <time>2017-12-13T09:58:32Z</time>
      </trkpt>
      <trkpt lat="45.91663" lon="4.77353">
        <ele>172</ele>
        <time>2017-12-13T09:58:33Z</time>
      </trkpt>
      <trkpt lat="45.91661" lon="4.77359">
        <ele>172</ele>
        <time>2017-12-13T09:58:34Z</time>
      </trkpt>
      <trkpt lat="45.91659" lon="4.77367">
        <ele>172</ele>
        <time>2017-12-13T09:58:35Z</time>
      </trkpt>
      <trkpt lat="45.91657" lon="4.77374">
        <ele>172</ele>
        <time>2017-12-13T09:58:36Z</time>
      </trkpt>
      <trkpt lat="45.91654" lon="4.77381">
        <ele>172</ele>
        <time>2017-12-13T09:58:37Z</time>
      </trkpt>
      <trkpt lat="45.91652" lon="4.77387">
        <ele>172</ele>
        <time>2017-12-13T09:58:38Z</time>
      </trkpt>
      <trkpt lat="45.9165" lon="4.77394">
        <ele>172</ele>
        <time>2017-12-13T09:58:39Z</time>
      </trkpt>
      <trkpt lat="45.91649" lon="4.77401">
        <ele>172</ele>
        <time>2017-12-13T09:58:40Z</time>
      </trkpt>
      <trkpt lat="45.91648" lon="4.77409">
        <ele>172</ele>
        <time>2017-12-13T09:58:41Z</time>
      </trkpt>
      <trkpt lat="45.91645" lon="4.77416">
        <ele>172</ele>
        <time>2017-12-13T09:58:42Z</time>
      </trkpt>
      <trkpt lat="45.91644" lon="4.77424">
        <ele>172</ele>
        <time>2017-12-13T09:58:43Z</time>
      </trkpt>
      <trkpt lat="45.91642" lon="4.77432">
        <ele>172</ele>
        <time>2017-12-13T09:58:44Z</time>
      </trkpt>
      <trkpt lat="45.9164" lon="4.77439">
        <ele>172</ele>
        <time>2017-12-13T09:58:45Z</time>
      </trkpt>
      <trkpt lat="45.91638" lon="4.77446">
        <ele>172</ele>
        <time>2017-12-13T09:58:46Z</time>
      </trkpt>
      <trkpt lat="45.91636" lon="4.77453">
        <ele>171</ele>
        <time>2017-12-13T09:58:47Z</time>
      </trkpt>
      <trkpt lat="45.91634" lon="4.77459">
        <ele>171</ele>
        <time>2017-12-13T09:58:48Z</time>
      </trkpt>
      <trkpt lat="45.91631" lon="4.77464">
        <ele>171</ele>
        <time>2017-12-13T09:58:49Z</time>
      </trkpt>
      <trkpt lat="45.91628" lon="4.7747">
        <ele>171</ele>
        <time>2017-12-13T09:58:50Z</time>
      </trkpt>
      <trkpt lat="45.91625" lon="4.77478">
        <ele>171</ele>
        <time>2017-12-13T09:58:51Z</time>
      </trkpt>
      <trkpt lat="45.91623" lon="4.77489">
        <ele>171</ele>
        <time>2017-12-13T09:58:53Z</time>
      </trkpt>
      <trkpt lat="45.91623" lon="4.77495">
        <ele>171</ele>
        <time>2017-12-13T09:58:54Z</time>
      </trkpt>
      <trkpt lat="45.91623" lon="4.77502">
        <ele>171</ele>
        <time>2017-12-13T09:58:55Z</time>
      </trkpt>
      <trkpt lat="45.91622" lon="4.77508">
        <ele>171</ele>
        <time>2017-12-13T09:58:56Z</time>
      </trkpt>
      <trkpt lat="45.91619" lon="4.77513">
        <ele>171</ele>
        <time>2017-12-13T09:58:57Z</time>
      </trkpt>
      <trkpt lat="45.91616" lon="4.77518">
        <ele>171</ele>
        <time>2017-12-13T09:58:58Z</time>
      </trkpt>
      <trkpt lat="45.91613" lon="4.77523">
        <ele>171</ele>
        <time>2017-12-13T09:58:59Z</time>
      </trkpt>
      <trkpt lat="45.9161" lon="4.77528">
        <ele>171</ele>
        <time>2017-12-13T09:59:00Z</time>
      </trkpt>
      <trkpt lat="45.91607" lon="4.77535">
        <ele>171</ele>
        <time>2017-12-13T09:59:01Z</time>
      </trkpt>
      <trkpt lat="45.91603" lon="4.7754">
        <ele>171</ele>
        <time>2017-12-13T09:59:02Z</time>
      </trkpt>
      <trkpt lat="45.916" lon="4.77547">
        <ele>171</ele>
        <time>2017-12-13T09:59:03Z</time>
      </trkpt>
      <trkpt lat="45.91597" lon="4.77554">
        <ele>172</ele>
        <time>2017-12-13T09:59:04Z</time>
      </trkpt>
      <trkpt lat="45.91595" lon="4.77559">
        <ele>172</ele>
        <time>2017-12-13T09:59:05Z</time>
      </trkpt>
      <trkpt lat="45.91591" lon="4.77564">
        <ele>172</ele>
        <time>2017-12-13T09:59:06Z</time>
      </trkpt>
      <trkpt lat="45.91588" lon="4.7757">
        <ele>172</ele>
        <time>2017-12-13T09:59:07Z</time>
      </trkpt>
      <trkpt lat="45.91584" lon="4.77576">
        <ele>172</ele>
        <time>2017-12-13T09:59:08Z</time>
      </trkpt>
      <trkpt lat="45.91581" lon="4.77581">
        <ele>173</ele>
        <time>2017-12-13T09:59:09Z</time>
      </trkpt>
      <trkpt lat="45.91578" lon="4.77586">
        <ele>173</ele>
        <time>2017-12-13T09:59:10Z</time>
      </trkpt>
      <trkpt lat="45.91572" lon="4.77596">
        <ele>173</ele>
        <time>2017-12-13T09:59:12Z</time>
      </trkpt>
      <trkpt lat="45.9157" lon="4.77601">
        <ele>174</ele>
        <time>2017-12-13T09:59:13Z</time>
      </trkpt>
      <trkpt lat="45.91567" lon="4.77606">
        <ele>174</ele>
        <time>2017-12-13T09:59:14Z</time>
      </trkpt>
      <trkpt lat="45.91565" lon="4.77612">
        <ele>174</ele>
        <time>2017-12-13T09:59:15Z</time>
      </trkpt>
      <trkpt lat="45.9156" lon="4.7762">
        <ele>174</ele>
        <time>2017-12-13T09:59:17Z</time>
      </trkpt>
      <trkpt lat="45.91557" lon="4.77625">
        <ele>174</ele>
        <time>2017-12-13T09:59:18Z</time>
      </trkpt>
      <trkpt lat="45.91551" lon="4.77634">
        <ele>174</ele>
        <time>2017-12-13T09:59:20Z</time>
      </trkpt>
      <trkpt lat="45.91548" lon="4.77638">
        <ele>174</ele>
        <time>2017-12-13T09:59:21Z</time>
      </trkpt>
      <trkpt lat="45.91543" lon="4.77647">
        <ele>174</ele>
        <time>2017-12-13T09:59:23Z</time>
      </trkpt>
      <trkpt lat="45.9154" lon="4.77652">
        <ele>174</ele>
        <time>2017-12-13T09:59:24Z</time>
      </trkpt>
      <trkpt lat="45.91535" lon="4.77662">
        <ele>174</ele>
        <time>2017-12-13T09:59:26Z</time>
      </trkpt>
      <trkpt lat="45.91532" lon="4.77666">
        <ele>174</ele>
        <time>2017-12-13T09:59:27Z</time>
      </trkpt>
      <trkpt lat="45.91527" lon="4.77674">
        <ele>175</ele>
        <time>2017-12-13T09:59:29Z</time>
      </trkpt>
      <trkpt lat="45.91524" lon="4.77678">
        <ele>175</ele>
        <time>2017-12-13T09:59:30Z</time>
      </trkpt>
      <trkpt lat="45.91519" lon="4.77686">
        <ele>176</ele>
        <time>2017-12-13T09:59:32Z</time>
      </trkpt>
      <trkpt lat="45.91517" lon="4.7769">
        <ele>176</ele>
        <time>2017-12-13T09:59:33Z</time>
      </trkpt>
      <trkpt lat="45.91512" lon="4.77696">
        <ele>176</ele>
        <time>2017-12-13T09:59:35Z</time>
      </trkpt>
      <trkpt lat="45.91509" lon="4.77697">
        <ele>176</ele>
        <time>2017-12-13T09:59:36Z</time>
      </trkpt>
      <trkpt lat="45.91502" lon="4.77697">
        <ele>176</ele>
        <time>2017-12-13T09:59:38Z</time>
      </trkpt>
      <trkpt lat="45.91499" lon="4.77697">
        <ele>177</ele>
        <time>2017-12-13T09:59:39Z</time>
      </trkpt>
      <trkpt lat="45.91492" lon="4.77698">
        <ele>177</ele>
        <time>2017-12-13T09:59:41Z</time>
      </trkpt>
      <trkpt lat="45.91489" lon="4.77698">
        <ele>177</ele>
        <time>2017-12-13T09:59:42Z</time>
      </trkpt>
      <trkpt lat="45.91482" lon="4.77699">
        <ele>177</ele>
        <time>2017-12-13T09:59:44Z</time>
      </trkpt>
      <trkpt lat="45.91479" lon="4.77699">
        <ele>177</ele>
        <time>2017-12-13T09:59:45Z</time>
      </trkpt>
      <trkpt lat="45.91471" lon="4.777">
        <ele>177</ele>
        <time>2017-12-13T09:59:47Z</time>
      </trkpt>
      <trkpt lat="45.91467" lon="4.77701">
        <ele>177</ele>
        <time>2017-12-13T09:59:48Z</time>
      </trkpt>
      <trkpt lat="45.91461" lon="4.77702">
        <ele>177</ele>
        <time>2017-12-13T09:59:49Z</time>
      </trkpt>
      <trkpt lat="45.91456" lon="4.77702">
        <ele>177</ele>
        <time>2017-12-13T09:59:50Z</time>
      </trkpt>
      <trkpt lat="45.91451" lon="4.77704">
        <ele>177</ele>
        <time>2017-12-13T09:59:51Z</time>
      </trkpt>
      <trkpt lat="45.91445" lon="4.77705">
        <ele>177</ele>
        <time>2017-12-13T09:59:52Z</time>
      </trkpt>
      <trkpt lat="45.9144" lon="4.77706">
        <ele>177</ele>
        <time>2017-12-13T09:59:53Z</time>
      </trkpt>
      <trkpt lat="45.91434" lon="4.77707">
        <ele>177</ele>
        <time>2017-12-13T09:59:54Z</time>
      </trkpt>
      <trkpt lat="45.91429" lon="4.77708">
        <ele>177</ele>
        <time>2017-12-13T09:59:55Z</time>
      </trkpt>
      <trkpt lat="45.91425" lon="4.77709">
        <ele>177</ele>
        <time>2017-12-13T09:59:56Z</time>
      </trkpt>
      <trkpt lat="45.91419" lon="4.77711">
        <ele>177</ele>
        <time>2017-12-13T09:59:57Z</time>
      </trkpt>
      <trkpt lat="45.91413" lon="4.77711">
        <ele>177</ele>
        <time>2017-12-13T09:59:58Z</time>
      </trkpt>
      <trkpt lat="45.91404" lon="4.77712">
        <ele>177</ele>
        <time>2017-12-13T10:00:00Z</time>
      </trkpt>
      <trkpt lat="45.91399" lon="4.77713">
        <ele>177</ele>
        <time>2017-12-13T10:00:01Z</time>
      </trkpt>
      <trkpt lat="45.91392" lon="4.77716">
        <ele>177</ele>
        <time>2017-12-13T10:00:02Z</time>
      </trkpt>
      <trkpt lat="45.91388" lon="4.77717">
        <ele>176</ele>
        <time>2017-12-13T10:00:03Z</time>
      </trkpt>
      <trkpt lat="45.91379" lon="4.77716">
        <ele>176</ele>
        <time>2017-12-13T10:00:05Z</time>
      </trkpt>
      <trkpt lat="45.91374" lon="4.77718">
        <ele>176</ele>
        <time>2017-12-13T10:00:06Z</time>
      </trkpt>
      <trkpt lat="45.91371" lon="4.77717">
        <ele>176</ele>
        <time>2017-12-13T10:00:07Z</time>
      </trkpt>
      <trkpt lat="45.91365" lon="4.77717">
        <ele>176</ele>
        <time>2017-12-13T10:00:08Z</time>
      </trkpt>
      <trkpt lat="45.9136" lon="4.77718">
        <ele>176</ele>
        <time>2017-12-13T10:00:09Z</time>
      </trkpt>
      <trkpt lat="45.91355" lon="4.77719">
        <ele>176</ele>
        <time>2017-12-13T10:00:10Z</time>
      </trkpt>
      <trkpt lat="45.91349" lon="4.7772">
        <ele>176</ele>
        <time>2017-12-13T10:00:11Z</time>
      </trkpt>
      <trkpt lat="45.91343" lon="4.77719">
        <ele>176</ele>
        <time>2017-12-13T10:00:12Z</time>
      </trkpt>
      <trkpt lat="45.91337" lon="4.77719">
        <ele>176</ele>
        <time>2017-12-13T10:00:13Z</time>
      </trkpt>
      <trkpt lat="45.91332" lon="4.77718">
        <ele>176</ele>
        <time>2017-12-13T10:00:14Z</time>
      </trkpt>
      <trkpt lat="45.91323" lon="4.77718">
        <ele>176</ele>
        <time>2017-12-13T10:00:16Z</time>
      </trkpt>
      <trkpt lat="45.91318" lon="4.77716">
        <ele>176</ele>
        <time>2017-12-13T10:00:17Z</time>
      </trkpt>
      <trkpt lat="45.91314" lon="4.77714">
        <ele>176</ele>
        <time>2017-12-13T10:00:18Z</time>
      </trkpt>
      <trkpt lat="45.91309" lon="4.77712">
        <ele>176</ele>
        <time>2017-12-13T10:00:19Z</time>
      </trkpt>
      <trkpt lat="45.91305" lon="4.7771">
        <ele>176</ele>
        <time>2017-12-13T10:00:20Z</time>
      </trkpt>
      <trkpt lat="45.913" lon="4.77707">
        <ele>176</ele>
        <time>2017-12-13T10:00:21Z</time>
      </trkpt>
      <trkpt lat="45.91295" lon="4.77704">
        <ele>176</ele>
        <time>2017-12-13T10:00:22Z</time>
      </trkpt>
      <trkpt lat="45.9129" lon="4.77701">
        <ele>176</ele>
        <time>2017-12-13T10:00:23Z</time>
      </trkpt>
      <trkpt lat="45.91285" lon="4.77697">
        <ele>176</ele>
        <time>2017-12-13T10:00:24Z</time>
      </trkpt>
      <trkpt lat="45.91281" lon="4.77694">
        <ele>176</ele>
        <time>2017-12-13T10:00:25Z</time>
      </trkpt>
      <trkpt lat="45.91275" lon="4.77691">
        <ele>176</ele>
        <time>2017-12-13T10:00:26Z</time>
      </trkpt>
      <trkpt lat="45.91271" lon="4.77688">
        <ele>176</ele>
        <time>2017-12-13T10:00:27Z</time>
      </trkpt>
      <trkpt lat="45.91265" lon="4.77684">
        <ele>176</ele>
        <time>2017-12-13T10:00:28Z</time>
      </trkpt>
      <trkpt lat="45.9126" lon="4.77682">
        <ele>176</ele>
        <time>2017-12-13T10:00:29Z</time>
      </trkpt>
      <trkpt lat="45.91254" lon="4.7768">
        <ele>175</ele>
        <time>2017-12-13T10:00:30Z</time>
      </trkpt>
      <trkpt lat="45.91249" lon="4.7768">
        <ele>176</ele>
        <time>2017-12-13T10:00:31Z</time>
      </trkpt>
      <trkpt lat="45.91244" lon="4.7768">
        <ele>176</ele>
        <time>2017-12-13T10:00:32Z</time>
      </trkpt>
      <trkpt lat="45.91239" lon="4.7768">
        <ele>176</ele>
        <time>2017-12-13T10:00:33Z</time>
      </trkpt>
      <trkpt lat="45.91234" lon="4.77681">
        <ele>176</ele>
        <time>2017-12-13T10:00:34Z</time>
      </trkpt>
      <trkpt lat="45.91229" lon="4.77682">
        <ele>176</ele>
        <time>2017-12-13T10:00:35Z</time>
      </trkpt>
      <trkpt lat="45.91225" lon="4.77684">
        <ele>176</ele>
        <time>2017-12-13T10:00:36Z</time>
      </trkpt>
      <trkpt lat="45.9122" lon="4.77687">
        <ele>176</ele>
        <time>2017-12-13T10:00:37Z</time>
      </trkpt>
      <trkpt lat="45.91216" lon="4.7769">
        <ele>176</ele>
        <time>2017-12-13T10:00:38Z</time>
      </trkpt>
      <trkpt lat="45.91211" lon="4.77691">
        <ele>176</ele>
        <time>2017-12-13T10:00:39Z</time>
      </trkpt>
      <trkpt lat="45.91206" lon="4.77692">
        <ele>176</ele>
        <time>2017-12-13T10:00:40Z</time>
      </trkpt>
      <trkpt lat="45.91201" lon="4.77693">
        <ele>176</ele>
        <time>2017-12-13T10:00:41Z</time>
      </trkpt>
      <trkpt lat="45.91196" lon="4.77693">
        <ele>176</ele>
        <time>2017-12-13T10:00:42Z</time>
      </trkpt>
      <trkpt lat="45.91191" lon="4.77695">
        <ele>176</ele>
        <time>2017-12-13T10:00:43Z</time>
      </trkpt>
      <trkpt lat="45.91186" lon="4.77697">
        <ele>176</ele>
        <time>2017-12-13T10:00:44Z</time>
      </trkpt>
      <trkpt lat="45.91181" lon="4.77698">
        <ele>176</ele>
        <time>2017-12-13T10:00:45Z</time>
      </trkpt>
      <trkpt lat="45.91176" lon="4.777">
        <ele>176</ele>
        <time>2017-12-13T10:00:46Z</time>
      </trkpt>
      <trkpt lat="45.9117" lon="4.77702">
        <ele>176</ele>
        <time>2017-12-13T10:00:47Z</time>
      </trkpt>
      <trkpt lat="45.91165" lon="4.77703">
        <ele>177</ele>
        <time>2017-12-13T10:00:48Z</time>
      </trkpt>
      <trkpt lat="45.9116" lon="4.77705">
        <ele>177</ele>
        <time>2017-12-13T10:00:49Z</time>
      </trkpt>
      <trkpt lat="45.91154" lon="4.77708">
        <ele>177</ele>
        <time>2017-12-13T10:00:50Z</time>
      </trkpt>
      <trkpt lat="45.91149" lon="4.7771">
        <ele>177</ele>
        <time>2017-12-13T10:00:51Z</time>
      </trkpt>
      <trkpt lat="45.91144" lon="4.77713">
        <ele>177</ele>
        <time>2017-12-13T10:00:52Z</time>
      </trkpt>
      <trkpt lat="45.91139" lon="4.77714">
        <ele>177</ele>
        <time>2017-12-13T10:00:53Z</time>
      </trkpt>
      <trkpt lat="45.91134" lon="4.77717">
        <ele>177</ele>
        <time>2017-12-13T10:00:54Z</time>
      </trkpt>
      <trkpt lat="45.91128" lon="4.77718">
        <ele>177</ele>
        <time>2017-12-13T10:00:55Z</time>
      </trkpt>
      <trkpt lat="45.91123" lon="4.7772">
        <ele>177</ele>
        <time>2017-12-13T10:00:56Z</time>
      </trkpt>
      <trkpt lat="45.91118" lon="4.77722">
        <ele>178</ele>
        <time>2017-12-13T10:00:57Z</time>
      </trkpt>
      <trkpt lat="45.91113" lon="4.77726">
        <ele>178</ele>
        <time>2017-12-13T10:00:58Z</time>
      </trkpt>
      <trkpt lat="45.91109" lon="4.7773">
        <ele>178</ele>
        <time>2017-12-13T10:00:59Z</time>
      </trkpt>
      <trkpt lat="45.91104" lon="4.77732">
        <ele>178</ele>
        <time>2017-12-13T10:01:00Z</time>
      </trkpt>
      <trkpt lat="45.91099" lon="4.77734">
        <ele>178</ele>
        <time>2017-12-13T10:01:01Z</time>
      </trkpt>
      <trkpt lat="45.91094" lon="4.7774">
        <ele>178</ele>
        <time>2017-12-13T10:01:02Z</time>
      </trkpt>
      <trkpt lat="45.91089" lon="4.77743">
        <ele>178</ele>
        <time>2017-12-13T10:01:03Z</time>
      </trkpt>
      <trkpt lat="45.91084" lon="4.77746">
        <ele>179</ele>
        <time>2017-12-13T10:01:04Z</time>
      </trkpt>
      <trkpt lat="45.91079" lon="4.77749">
        <ele>179</ele>
        <time>2017-12-13T10:01:05Z</time>
      </trkpt>
      <trkpt lat="45.91074" lon="4.77753">
        <ele>179</ele>
        <time>2017-12-13T10:01:06Z</time>
      </trkpt>
      <trkpt lat="45.91067" lon="4.77756">
        <ele>179</ele>
        <time>2017-12-13T10:01:07Z</time>
      </trkpt>
      <trkpt lat="45.91063" lon="4.7776">
        <ele>178</ele>
        <time>2017-12-13T10:01:08Z</time>
      </trkpt>
      <trkpt lat="45.91057" lon="4.77761">
        <ele>178</ele>
        <time>2017-12-13T10:01:09Z</time>
      </trkpt>
      <trkpt lat="45.91052" lon="4.77762">
        <ele>178</ele>
        <time>2017-12-13T10:01:10Z</time>
      </trkpt>
      <trkpt lat="45.91047" lon="4.77763">
        <ele>178</ele>
        <time>2017-12-13T10:01:11Z</time>
      </trkpt>
      <trkpt lat="45.91043" lon="4.77766">
        <ele>178</ele>
        <time>2017-12-13T10:01:12Z</time>
      </trkpt>
      <trkpt lat="45.91038" lon="4.77768">
        <ele>178</ele>
        <time>2017-12-13T10:01:13Z</time>
      </trkpt>
      <trkpt lat="45.91032" lon="4.77771">
        <ele>178</ele>
        <time>2017-12-13T10:01:14Z</time>
      </trkpt>
      <trkpt lat="45.91028" lon="4.77774">
        <ele>178</ele>
        <time>2017-12-13T10:01:15Z</time>
      </trkpt>
      <trkpt lat="45.91022" lon="4.77776">
        <ele>178</ele>
        <time>2017-12-13T10:01:16Z</time>
      </trkpt>
      <trkpt lat="45.91017" lon="4.77777">
        <ele>178</ele>
        <time>2017-12-13T10:01:17Z</time>
      </trkpt>
      <trkpt lat="45.91013" lon="4.77779">
        <ele>178</ele>
        <time>2017-12-13T10:01:18Z</time>
      </trkpt>
      <trkpt lat="45.91007" lon="4.77779">
        <ele>178</ele>
        <time>2017-12-13T10:01:19Z</time>
      </trkpt>
      <trkpt lat="45.91002" lon="4.77781">
        <ele>178</ele>
        <time>2017-12-13T10:01:20Z</time>
      </trkpt>
      <trkpt lat="45.90996" lon="4.77782">
        <ele>177</ele>
        <time>2017-12-13T10:01:21Z</time>
      </trkpt>
      <trkpt lat="45.90992" lon="4.77783">
        <ele>177</ele>
        <time>2017-12-13T10:01:22Z</time>
      </trkpt>
      <trkpt lat="45.90987" lon="4.77784">
        <ele>177</ele>
        <time>2017-12-13T10:01:23Z</time>
      </trkpt>
      <trkpt lat="45.90982" lon="4.77784">
        <ele>177</ele>
        <time>2017-12-13T10:01:24Z</time>
      </trkpt>
      <trkpt lat="45.90977" lon="4.77784">
        <ele>177</ele>
        <time>2017-12-13T10:01:25Z</time>
      </trkpt>
      <trkpt lat="45.90972" lon="4.77785">
        <ele>177</ele>
        <time>2017-12-13T10:01:26Z</time>
      </trkpt>
      <trkpt lat="45.90967" lon="4.77786">
        <ele>177</ele>
        <time>2017-12-13T10:01:27Z</time>
      </trkpt>
      <trkpt lat="45.90959" lon="4.77786">
        <ele>177</ele>
        <time>2017-12-13T10:01:29Z</time>
      </trkpt>
      <trkpt lat="45.90956" lon="4.77784">
        <ele>177</ele>
        <time>2017-12-13T10:01:30Z</time>
      </trkpt>
      <trkpt lat="45.90948" lon="4.77779">
        <ele>177</ele>
        <time>2017-12-13T10:01:32Z</time>
      </trkpt>
      <trkpt lat="45.90944" lon="4.77776">
        <ele>177</ele>
        <time>2017-12-13T10:01:33Z</time>
      </trkpt>
      <trkpt lat="45.90938" lon="4.77772">
        <ele>177</ele>
        <time>2017-12-13T10:01:35Z</time>
      </trkpt>
      <trkpt lat="45.90933" lon="4.77771">
        <ele>177</ele>
        <time>2017-12-13T10:01:36Z</time>
      </trkpt>
      <trkpt lat="45.90926" lon="4.77769">
        <ele>177</ele>
        <time>2017-12-13T10:01:38Z</time>
      </trkpt>
      <trkpt lat="45.90922" lon="4.77768">
        <ele>177</ele>
        <time>2017-12-13T10:01:39Z</time>
      </trkpt>
      <trkpt lat="45.90915" lon="4.77762">
        <ele>176</ele>
        <time>2017-12-13T10:01:41Z</time>
      </trkpt>
      <trkpt lat="45.90912" lon="4.77758">
        <ele>176</ele>
        <time>2017-12-13T10:01:42Z</time>
      </trkpt>
      <trkpt lat="45.90907" lon="4.7775">
        <ele>176</ele>
        <time>2017-12-13T10:01:44Z</time>
      </trkpt>
      <trkpt lat="45.90905" lon="4.77746">
        <ele>177</ele>
        <time>2017-12-13T10:01:45Z</time>
      </trkpt>
      <trkpt lat="45.909" lon="4.77738">
        <ele>177</ele>
        <time>2017-12-13T10:01:47Z</time>
      </trkpt>
      <trkpt lat="45.90896" lon="4.77734">
        <ele>177</ele>
        <time>2017-12-13T10:01:48Z</time>
      </trkpt>
      <trkpt lat="45.9089" lon="4.77727">
        <ele>177</ele>
        <time>2017-12-13T10:01:50Z</time>
      </trkpt>
      <trkpt lat="45.90888" lon="4.77724">
        <ele>177</ele>
        <time>2017-12-13T10:01:51Z</time>
      </trkpt>
      <trkpt lat="45.90883" lon="4.77717">
        <ele>177</ele>
        <time>2017-12-13T10:01:53Z</time>
      </trkpt>
      <trkpt lat="45.9088" lon="4.77713">
        <ele>177</ele>
        <time>2017-12-13T10:01:54Z</time>
      </trkpt>
      <trkpt lat="45.90875" lon="4.77706">
        <ele>177</ele>
        <time>2017-12-13T10:01:56Z</time>
      </trkpt>
      <trkpt lat="45.90872" lon="4.77703">
        <ele>178</ele>
        <time>2017-12-13T10:01:57Z</time>
      </trkpt>
      <trkpt lat="45.90866" lon="4.77698">
        <ele>178</ele>
        <time>2017-12-13T10:01:59Z</time>
      </trkpt>
      <trkpt lat="45.90863" lon="4.77695">
        <ele>178</ele>
        <time>2017-12-13T10:02:00Z</time>
      </trkpt>
      <trkpt lat="45.90858" lon="4.7769">
        <ele>178</ele>
        <time>2017-12-13T10:02:02Z</time>
      </trkpt>
      <trkpt lat="45.90855" lon="4.77687">
        <ele>178</ele>
        <time>2017-12-13T10:02:03Z</time>
      </trkpt>
      <trkpt lat="45.90847" lon="4.77683">
        <ele>178</ele>
        <time>2017-12-13T10:02:05Z</time>
      </trkpt>
      <trkpt lat="45.90844" lon="4.77681">
        <ele>178</ele>
        <time>2017-12-13T10:02:06Z</time>
      </trkpt>
      <trkpt lat="45.90836" lon="4.77678">
        <ele>178</ele>
        <time>2017-12-13T10:02:08Z</time>
      </trkpt>
      <trkpt lat="45.90833" lon="4.77676">
        <ele>179</ele>
        <time>2017-12-13T10:02:09Z</time>
      </trkpt>
      <trkpt lat="45.90825" lon="4.77672">
        <ele>179</ele>
        <time>2017-12-13T10:02:11Z</time>
      </trkpt>
      <trkpt lat="45.90822" lon="4.77671">
        <ele>179</ele>
        <time>2017-12-13T10:02:12Z</time>
      </trkpt>
      <trkpt lat="45.90814" lon="4.7767">
        <ele>179</ele>
        <time>2017-12-13T10:02:14Z</time>
      </trkpt>
      <trkpt lat="45.90811" lon="4.7767">
        <ele>179</ele>
        <time>2017-12-13T10:02:15Z</time>
      </trkpt>
      <trkpt lat="45.90803" lon="4.77668">
        <ele>179</ele>
        <time>2017-12-13T10:02:17Z</time>
      </trkpt>
      <trkpt lat="45.90799" lon="4.77667">
        <ele>179</ele>
        <time>2017-12-13T10:02:18Z</time>
      </trkpt>
      <trkpt lat="45.9079" lon="4.77665">
        <ele>179</ele>
        <time>2017-12-13T10:02:20Z</time>
      </trkpt>
      <trkpt lat="45.90786" lon="4.77664">
        <ele>179</ele>
        <time>2017-12-13T10:02:21Z</time>
      </trkpt>
      <trkpt lat="45.90778" lon="4.77662">
        <ele>180</ele>
        <time>2017-12-13T10:02:23Z</time>
      </trkpt>
      <trkpt lat="45.90774" lon="4.77661">
        <ele>180</ele>
        <time>2017-12-13T10:02:24Z</time>
      </trkpt>
      <trkpt lat="45.90767" lon="4.77658">
        <ele>180</ele>
        <time>2017-12-13T10:02:26Z</time>
      </trkpt>
      <trkpt lat="45.90763" lon="4.77657">
        <ele>180</ele>
        <time>2017-12-13T10:02:27Z</time>
      </trkpt>
      <trkpt lat="45.90757" lon="4.77652">
        <ele>180</ele>
        <time>2017-12-13T10:02:29Z</time>
      </trkpt>
      <trkpt lat="45.90753" lon="4.77649">
        <ele>180</ele>
        <time>2017-12-13T10:02:30Z</time>
      </trkpt>
      <trkpt lat="45.90749" lon="4.77643">
        <ele>180</ele>
        <time>2017-12-13T10:02:31Z</time>
      </trkpt>
      <trkpt lat="45.90745" lon="4.77642">
        <ele>180</ele>
        <time>2017-12-13T10:02:32Z</time>
      </trkpt>
      <trkpt lat="45.9074" lon="4.77642">
        <ele>180</ele>
        <time>2017-12-13T10:02:33Z</time>
      </trkpt>
      <trkpt lat="45.90735" lon="4.77642">
        <ele>180</ele>
        <time>2017-12-13T10:02:34Z</time>
      </trkpt>
      <trkpt lat="45.90731" lon="4.77642">
        <ele>180</ele>
        <time>2017-12-13T10:02:35Z</time>
      </trkpt>
      <trkpt lat="45.90726" lon="4.77642">
        <ele>180</ele>
        <time>2017-12-13T10:02:36Z</time>
      </trkpt>
      <trkpt lat="45.9072" lon="4.77641">
        <ele>180</ele>
        <time>2017-12-13T10:02:37Z</time>
      </trkpt>
      <trkpt lat="45.90716" lon="4.77639">
        <ele>179</ele>
        <time>2017-12-13T10:02:38Z</time>
      </trkpt>
      <trkpt lat="45.90711" lon="4.77639">
        <ele>179</ele>
        <time>2017-12-13T10:02:39Z</time>
      </trkpt>
      <trkpt lat="45.90705" lon="4.77637">
        <ele>179</ele>
        <time>2017-12-13T10:02:40Z</time>
      </trkpt>
      <trkpt lat="45.90699" lon="4.77637">
        <ele>179</ele>
        <time>2017-12-13T10:02:41Z</time>
      </trkpt>
      <trkpt lat="45.90693" lon="4.77634">
        <ele>179</ele>
        <time>2017-12-13T10:02:42Z</time>
      </trkpt>
      <trkpt lat="45.90687" lon="4.77632">
        <ele>179</ele>
        <time>2017-12-13T10:02:43Z</time>
      </trkpt>
      <trkpt lat="45.9068" lon="4.7763">
        <ele>179</ele>
        <time>2017-12-13T10:02:44Z</time>
      </trkpt>
      <trkpt lat="45.90674" lon="4.77629">
        <ele>179</ele>
        <time>2017-12-13T10:02:45Z</time>
      </trkpt>
      <trkpt lat="45.90668" lon="4.77627">
        <ele>179</ele>
        <time>2017-12-13T10:02:46Z</time>
      </trkpt>
      <trkpt lat="45.90663" lon="4.77625">
        <ele>179</ele>
        <time>2017-12-13T10:02:47Z</time>
      </trkpt>
      <trkpt lat="45.90657" lon="4.77624">
        <ele>179</ele>
        <time>2017-12-13T10:02:48Z</time>
      </trkpt>
      <trkpt lat="45.9065" lon="4.77624">
        <ele>179</ele>
        <time>2017-12-13T10:02:49Z</time>
      </trkpt>
      <trkpt lat="45.90643" lon="4.77623">
        <ele>179</ele>
        <time>2017-12-13T10:02:50Z</time>
      </trkpt>
      <trkpt lat="45.90636" lon="4.77623">
        <ele>179</ele>
        <time>2017-12-13T10:02:51Z</time>
      </trkpt>
      <trkpt lat="45.90629" lon="4.77625">
        <ele>179</ele>
        <time>2017-12-13T10:02:52Z</time>
      </trkpt>
      <trkpt lat="45.90623" lon="4.77625">
        <ele>179</ele>
        <time>2017-12-13T10:02:53Z</time>
      </trkpt>
      <trkpt lat="45.90617" lon="4.77625">
        <ele>179</ele>
        <time>2017-12-13T10:02:54Z</time>
      </trkpt>
      <trkpt lat="45.90611" lon="4.77625">
        <ele>179</ele>
        <time>2017-12-13T10:02:55Z</time>
      </trkpt>
      <trkpt lat="45.90605" lon="4.77625">
        <ele>179</ele>
        <time>2017-12-13T10:02:56Z</time>
      </trkpt>
      <trkpt lat="45.90598" lon="4.77625">
        <ele>179</ele>
        <time>2017-12-13T10:02:57Z</time>
      </trkpt>
      <trkpt lat="45.90591" lon="4.77625">
        <ele>179</ele>
        <time>2017-12-13T10:02:58Z</time>
      </trkpt>
      <trkpt lat="45.90585" lon="4.77626">
        <ele>179</ele>
        <time>2017-12-13T10:02:59Z</time>
      </trkpt>
      <trkpt lat="45.90579" lon="4.77628">
        <ele>178</ele>
        <time>2017-12-13T10:03:00Z</time>
      </trkpt>
      <trkpt lat="45.90573" lon="4.7763">
        <ele>178</ele>
        <time>2017-12-13T10:03:01Z</time>
      </trkpt>
      <trkpt lat="45.90567" lon="4.77631">
        <ele>178</ele>
        <time>2017-12-13T10:03:02Z</time>
      </trkpt>
      <trkpt lat="45.90561" lon="4.77633">
        <ele>178</ele>
        <time>2017-12-13T10:03:03Z</time>
      </trkpt>
      <trkpt lat="45.90555" lon="4.77634">
        <ele>178</ele>
        <time>2017-12-13T10:03:04Z</time>
      </trkpt>
      <trkpt lat="45.90549" lon="4.77634">
        <ele>178</ele>
        <time>2017-12-13T10:03:05Z</time>
      </trkpt>
      <trkpt lat="45.90543" lon="4.77636">
        <ele>178</ele>
        <time>2017-12-13T10:03:06Z</time>
      </trkpt>
      <trkpt lat="45.90537" lon="4.77636">
        <ele>178</ele>
        <time>2017-12-13T10:03:07Z</time>
      </trkpt>
      <trkpt lat="45.90532" lon="4.77636">
        <ele>178</ele>
        <time>2017-12-13T10:03:08Z</time>
      </trkpt>
      <trkpt lat="45.90526" lon="4.77638">
        <ele>178</ele>
        <time>2017-12-13T10:03:09Z</time>
      </trkpt>
      <trkpt lat="45.9052" lon="4.77639">
        <ele>178</ele>
        <time>2017-12-13T10:03:10Z</time>
      </trkpt>
      <trkpt lat="45.90513" lon="4.77639">
        <ele>178</ele>
        <time>2017-12-13T10:03:11Z</time>
      </trkpt>
      <trkpt lat="45.90507" lon="4.77641">
        <ele>178</ele>
        <time>2017-12-13T10:03:12Z</time>
      </trkpt>
      <trkpt lat="45.90502" lon="4.77641">
        <ele>178</ele>
        <time>2017-12-13T10:03:13Z</time>
      </trkpt>
      <trkpt lat="45.90496" lon="4.77642">
        <ele>179</ele>
        <time>2017-12-13T10:03:14Z</time>
      </trkpt>
      <trkpt lat="45.9049" lon="4.77643">
        <ele>179</ele>
        <time>2017-12-13T10:03:15Z</time>
      </trkpt>
      <trkpt lat="45.90484" lon="4.77644">
        <ele>179</ele>
        <time>2017-12-13T10:03:16Z</time>
      </trkpt>
      <trkpt lat="45.90478" lon="4.77645">
        <ele>179</ele>
        <time>2017-12-13T10:03:17Z</time>
      </trkpt>
      <trkpt lat="45.90473" lon="4.77647">
        <ele>179</ele>
        <time>2017-12-13T10:03:18Z</time>
      </trkpt>
      <trkpt lat="45.90467" lon="4.77647">
        <ele>179</ele>
        <time>2017-12-13T10:03:19Z</time>
      </trkpt>
      <trkpt lat="45.90461" lon="4.77647">
        <ele>179</ele>
        <time>2017-12-13T10:03:20Z</time>
      </trkpt>
      <trkpt lat="45.90455" lon="4.77649">
        <ele>179</ele>
        <time>2017-12-13T10:03:21Z</time>
      </trkpt>
      <trkpt lat="45.90449" lon="4.77649">
        <ele>179</ele>
        <time>2017-12-13T10:03:22Z</time>
      </trkpt>
      <trkpt lat="45.90444" lon="4.77649">
        <ele>179</ele>
        <time>2017-12-13T10:03:23Z</time>
      </trkpt>
      <trkpt lat="45.90438" lon="4.7765">
        <ele>180</ele>
        <time>2017-12-13T10:03:24Z</time>
      </trkpt>
      <trkpt lat="45.90432" lon="4.77651">
        <ele>180</ele>
        <time>2017-12-13T10:03:25Z</time>
      </trkpt>
      <trkpt lat="45.90426" lon="4.77652">
        <ele>180</ele>
        <time>2017-12-13T10:03:26Z</time>
      </trkpt>
      <trkpt lat="45.90421" lon="4.77652">
        <ele>180</ele>
        <time>2017-12-13T10:03:27Z</time>
      </trkpt>
      <trkpt lat="45.90415" lon="4.77653">
        <ele>181</ele>
        <time>2017-12-13T10:03:28Z</time>
      </trkpt>
      <trkpt lat="45.90409" lon="4.77654">
        <ele>181</ele>
        <time>2017-12-13T10:03:29Z</time>
      </trkpt>
      <trkpt lat="45.90404" lon="4.77655">
        <ele>181</ele>
        <time>2017-12-13T10:03:30Z</time>
      </trkpt>
      <trkpt lat="45.90398" lon="4.77656">
        <ele>181</ele>
        <time>2017-12-13T10:03:31Z</time>
      </trkpt>
      <trkpt lat="45.90392" lon="4.77657">
        <ele>181</ele>
        <time>2017-12-13T10:03:32Z</time>
      </trkpt>
      <trkpt lat="45.90388" lon="4.77657">
        <ele>181</ele>
        <time>2017-12-13T10:03:33Z</time>
      </trkpt>
      <trkpt lat="45.90383" lon="4.77658">
        <ele>181</ele>
        <time>2017-12-13T10:03:34Z</time>
      </trkpt>
      <trkpt lat="45.90378" lon="4.77659">
        <ele>181</ele>
        <time>2017-12-13T10:03:35Z</time>
      </trkpt>
      <trkpt lat="45.90373" lon="4.77659">
        <ele>181</ele>
        <time>2017-12-13T10:03:36Z</time>
      </trkpt>
      <trkpt lat="45.90368" lon="4.77659">
        <ele>181</ele>
        <time>2017-12-13T10:03:37Z</time>
      </trkpt>
      <trkpt lat="45.90363" lon="4.7766">
        <ele>181</ele>
        <time>2017-12-13T10:03:38Z</time>
      </trkpt>
      <trkpt lat="45.90358" lon="4.77662">
        <ele>181</ele>
        <time>2017-12-13T10:03:39Z</time>
      </trkpt>
      <trkpt lat="45.90354" lon="4.77664">
        <ele>181</ele>
        <time>2017-12-13T10:03:40Z</time>
      </trkpt>
      <trkpt lat="45.90349" lon="4.77664">
        <ele>181</ele>
        <time>2017-12-13T10:03:41Z</time>
      </trkpt>
      <trkpt lat="45.90344" lon="4.77664">
        <ele>181</ele>
        <time>2017-12-13T10:03:42Z</time>
      </trkpt>
      <trkpt lat="45.90339" lon="4.77664">
        <ele>182</ele>
        <time>2017-12-13T10:03:43Z</time>
      </trkpt>
      <trkpt lat="45.90333" lon="4.77665">
        <ele>182</ele>
        <time>2017-12-13T10:03:44Z</time>
      </trkpt>
      <trkpt lat="45.90328" lon="4.77666">
        <ele>182</ele>
        <time>2017-12-13T10:03:45Z</time>
      </trkpt>
      <trkpt lat="45.90323" lon="4.77667">
        <ele>182</ele>
        <time>2017-12-13T10:03:46Z</time>
      </trkpt>
      <trkpt lat="45.90317" lon="4.77669">
        <ele>182</ele>
        <time>2017-12-13T10:03:47Z</time>
      </trkpt>
      <trkpt lat="45.90312" lon="4.7767">
        <ele>182</ele>
        <time>2017-12-13T10:03:48Z</time>
      </trkpt>
      <trkpt lat="45.90306" lon="4.77671">
        <ele>182</ele>
        <time>2017-12-13T10:03:49Z</time>
      </trkpt>
      <trkpt lat="45.90301" lon="4.7767">
        <ele>182</ele>
        <time>2017-12-13T10:03:50Z</time>
      </trkpt>
      <trkpt lat="45.90296" lon="4.7767">
        <ele>182</ele>
        <time>2017-12-13T10:03:51Z</time>
      </trkpt>
      <trkpt lat="45.90291" lon="4.77672">
        <ele>182</ele>
        <time>2017-12-13T10:03:52Z</time>
      </trkpt>
      <trkpt lat="45.90286" lon="4.77671">
        <ele>182</ele>
        <time>2017-12-13T10:03:53Z</time>
      </trkpt>
      <trkpt lat="45.90282" lon="4.77672">
        <ele>182</ele>
        <time>2017-12-13T10:03:54Z</time>
      </trkpt>
      <trkpt lat="45.90276" lon="4.77672">
        <ele>182</ele>
        <time>2017-12-13T10:03:55Z</time>
      </trkpt>
      <trkpt lat="45.90272" lon="4.77672">
        <ele>182</ele>
        <time>2017-12-13T10:03:56Z</time>
      </trkpt>
      <trkpt lat="45.90267" lon="4.77672">
        <ele>182</ele>
        <time>2017-12-13T10:03:57Z</time>
      </trkpt>
      <trkpt lat="45.90262" lon="4.77672">
        <ele>182</ele>
        <time>2017-12-13T10:03:58Z</time>
      </trkpt>
      <trkpt lat="45.90256" lon="4.77672">
        <ele>182</ele>
        <time>2017-12-13T10:03:59Z</time>
      </trkpt>
      <trkpt lat="45.90251" lon="4.77671">
        <ele>182</ele>
        <time>2017-12-13T10:04:00Z</time>
      </trkpt>
      <trkpt lat="45.90246" lon="4.77671">
        <ele>182</ele>
        <time>2017-12-13T10:04:01Z</time>
      </trkpt>
      <trkpt lat="45.90241" lon="4.7767">
        <ele>183</ele>
        <time>2017-12-13T10:04:02Z</time>
      </trkpt>
      <trkpt lat="45.90235" lon="4.77671">
        <ele>183</ele>
        <time>2017-12-13T10:04:03Z</time>
      </trkpt>
      <trkpt lat="45.90229" lon="4.77672">
        <ele>183</ele>
        <time>2017-12-13T10:04:04Z</time>
      </trkpt>
      <trkpt lat="45.90225" lon="4.77672">
        <ele>184</ele>
        <time>2017-12-13T10:04:05Z</time>
      </trkpt>
      <trkpt lat="45.9022" lon="4.77672">
        <ele>184</ele>
        <time>2017-12-13T10:04:06Z</time>
      </trkpt>
      <trkpt lat="45.90214" lon="4.77672">
        <ele>184</ele>
        <time>2017-12-13T10:04:07Z</time>
      </trkpt>
      <trkpt lat="45.9021" lon="4.77672">
        <ele>184</ele>
        <time>2017-12-13T10:04:08Z</time>
      </trkpt>
      <trkpt lat="45.90205" lon="4.77672">
        <ele>184</ele>
        <time>2017-12-13T10:04:09Z</time>
      </trkpt>
      <trkpt lat="45.902" lon="4.77673">
        <ele>184</ele>
        <time>2017-12-13T10:04:10Z</time>
      </trkpt>
      <trkpt lat="45.90195" lon="4.77672">
        <ele>184</ele>
        <time>2017-12-13T10:04:11Z</time>
      </trkpt>
      <trkpt lat="45.90191" lon="4.77672">
        <ele>185</ele>
        <time>2017-12-13T10:04:12Z</time>
      </trkpt>
      <trkpt lat="45.90182" lon="4.77672">
        <ele>185</ele>
        <time>2017-12-13T10:04:14Z</time>
      </trkpt>
      <trkpt lat="45.90177" lon="4.77671">
        <ele>185</ele>
        <time>2017-12-13T10:04:15Z</time>
      </trkpt>
      <trkpt lat="45.90168" lon="4.77672">
        <ele>185</ele>
        <time>2017-12-13T10:04:17Z</time>
      </trkpt>
      <trkpt lat="45.90163" lon="4.77672">
        <ele>185</ele>
        <time>2017-12-13T10:04:18Z</time>
      </trkpt>
      <trkpt lat="45.90158" lon="4.77672">
        <ele>185</ele>
        <time>2017-12-13T10:04:19Z</time>
      </trkpt>
      <trkpt lat="45.90152" lon="4.77671">
        <ele>185</ele>
        <time>2017-12-13T10:04:20Z</time>
      </trkpt>
      <trkpt lat="45.90147" lon="4.7767">
        <ele>185</ele>
        <time>2017-12-13T10:04:21Z</time>
      </trkpt>
      <trkpt lat="45.90142" lon="4.7767">
        <ele>185</ele>
        <time>2017-12-13T10:04:22Z</time>
      </trkpt>
      <trkpt lat="45.90136" lon="4.7767">
        <ele>185</ele>
        <time>2017-12-13T10:04:23Z</time>
      </trkpt>
      <trkpt lat="45.90132" lon="4.7767">
        <ele>185</ele>
        <time>2017-12-13T10:04:24Z</time>
      </trkpt>
      <trkpt lat="45.90127" lon="4.77671">
        <ele>185</ele>
        <time>2017-12-13T10:04:25Z</time>
      </trkpt>
      <trkpt lat="45.90123" lon="4.7767">
        <ele>184</ele>
        <time>2017-12-13T10:04:26Z</time>
      </trkpt>
      <trkpt lat="45.90118" lon="4.7767">
        <ele>184</ele>
        <time>2017-12-13T10:04:27Z</time>
      </trkpt>
      <trkpt lat="45.90113" lon="4.77669">
        <ele>184</ele>
        <time>2017-12-13T10:04:28Z</time>
      </trkpt>
      <trkpt lat="45.90109" lon="4.77669">
        <ele>184</ele>
        <time>2017-12-13T10:04:29Z</time>
      </trkpt>
      <trkpt lat="45.90103" lon="4.7767">
        <ele>184</ele>
        <time>2017-12-13T10:04:30Z</time>
      </trkpt>
      <trkpt lat="45.90097" lon="4.7767">
        <ele>184</ele>
        <time>2017-12-13T10:04:31Z</time>
      </trkpt>
      <trkpt lat="45.90092" lon="4.7767">
        <ele>184</ele>
        <time>2017-12-13T10:04:32Z</time>
      </trkpt>
      <trkpt lat="45.90088" lon="4.77671">
        <ele>183</ele>
        <time>2017-12-13T10:04:33Z</time>
      </trkpt>
      <trkpt lat="45.90083" lon="4.77671">
        <ele>183</ele>
        <time>2017-12-13T10:04:34Z</time>
      </trkpt>
      <trkpt lat="45.90078" lon="4.77669">
        <ele>183</ele>
        <time>2017-12-13T10:04:35Z</time>
      </trkpt>
      <trkpt lat="45.90073" lon="4.77669">
        <ele>184</ele>
        <time>2017-12-13T10:04:36Z</time>
      </trkpt>
      <trkpt lat="45.90068" lon="4.77669">
        <ele>184</ele>
        <time>2017-12-13T10:04:37Z</time>
      </trkpt>
      <trkpt lat="45.90063" lon="4.77667">
        <ele>184</ele>
        <time>2017-12-13T10:04:38Z</time>
      </trkpt>
      <trkpt lat="45.90058" lon="4.77667">
        <ele>184</ele>
        <time>2017-12-13T10:04:39Z</time>
      </trkpt>
      <trkpt lat="45.90053" lon="4.77667">
        <ele>184</ele>
        <time>2017-12-13T10:04:40Z</time>
      </trkpt>
      <trkpt lat="45.90049" lon="4.77667">
        <ele>184</ele>
        <time>2017-12-13T10:04:41Z</time>
      </trkpt>
      <trkpt lat="45.90043" lon="4.77667">
        <ele>184</ele>
        <time>2017-12-13T10:04:42Z</time>
      </trkpt>
      <trkpt lat="45.90038" lon="4.77667">
        <ele>185</ele>
        <time>2017-12-13T10:04:43Z</time>
      </trkpt>
      <trkpt lat="45.90033" lon="4.77667">
        <ele>185</ele>
        <time>2017-12-13T10:04:44Z</time>
      </trkpt>
      <trkpt lat="45.90028" lon="4.77668">
        <ele>185</ele>
        <time>2017-12-13T10:04:45Z</time>
      </trkpt>
      <trkpt lat="45.90023" lon="4.77667">
        <ele>185</ele>
        <time>2017-12-13T10:04:46Z</time>
      </trkpt>
      <trkpt lat="45.90018" lon="4.77666">
        <ele>185</ele>
        <time>2017-12-13T10:04:47Z</time>
      </trkpt>
      <trkpt lat="45.90013" lon="4.77664">
        <ele>185</ele>
        <time>2017-12-13T10:04:48Z</time>
      </trkpt>
      <trkpt lat="45.90006" lon="4.77666">
        <ele>185</ele>
        <time>2017-12-13T10:04:49Z</time>
      </trkpt>
      <trkpt lat="45.90002" lon="4.77666">
        <ele>186</ele>
        <time>2017-12-13T10:04:50Z</time>
      </trkpt>
      <trkpt lat="45.89993" lon="4.77665">
        <ele>186</ele>
        <time>2017-12-13T10:04:52Z</time>
      </trkpt>
      <trkpt lat="45.89988" lon="4.77666">
        <ele>185</ele>
        <time>2017-12-13T10:04:53Z</time>
      </trkpt>
      <trkpt lat="45.8998" lon="4.77666">
        <ele>185</ele>
        <time>2017-12-13T10:04:55Z</time>
      </trkpt>
      <trkpt lat="45.89974" lon="4.77666">
        <ele>185</ele>
        <time>2017-12-13T10:04:56Z</time>
      </trkpt>
      <trkpt lat="45.89969" lon="4.77666">
        <ele>185</ele>
        <time>2017-12-13T10:04:57Z</time>
      </trkpt>
      <trkpt lat="45.89965" lon="4.77665">
        <ele>185</ele>
        <time>2017-12-13T10:04:58Z</time>
      </trkpt>
      <trkpt lat="45.8996" lon="4.77664">
        <ele>185</ele>
        <time>2017-12-13T10:04:59Z</time>
      </trkpt>
      <trkpt lat="45.89955" lon="4.77664">
        <ele>185</ele>
        <time>2017-12-13T10:05:00Z</time>
      </trkpt>
      <trkpt lat="45.8995" lon="4.77664">
        <ele>185</ele>
        <time>2017-12-13T10:05:01Z</time>
      </trkpt>
      <trkpt lat="45.89945" lon="4.77664">
        <ele>185</ele>
        <time>2017-12-13T10:05:02Z</time>
      </trkpt>
      <trkpt lat="45.8994" lon="4.77665">
        <ele>186</ele>
        <time>2017-12-13T10:05:03Z</time>
      </trkpt>
      <trkpt lat="45.89935" lon="4.77664">
        <ele>186</ele>
        <time>2017-12-13T10:05:04Z</time>
      </trkpt>
      <trkpt lat="45.89931" lon="4.77664">
        <ele>186</ele>
        <time>2017-12-13T10:05:05Z</time>
      </trkpt>
      <trkpt lat="45.89926" lon="4.77665">
        <ele>186</ele>
        <time>2017-12-13T10:05:06Z</time>
      </trkpt>
      <trkpt lat="45.89918" lon="4.77665">
        <ele>187</ele>
        <time>2017-12-13T10:05:08Z</time>
      </trkpt>
      <trkpt lat="45.89914" lon="4.77664">
        <ele>187</ele>
        <time>2017-12-13T10:05:09Z</time>
      </trkpt>
      <trkpt lat="45.89909" lon="4.77663">
        <ele>187</ele>
        <time>2017-12-13T10:05:10Z</time>
      </trkpt>
      <trkpt lat="45.89904" lon="4.77664">
        <ele>186</ele>
        <time>2017-12-13T10:05:11Z</time>
      </trkpt>
      <trkpt lat="45.89899" lon="4.77664">
        <ele>186</ele>
        <time>2017-12-13T10:05:12Z</time>
      </trkpt>
      <trkpt lat="45.89894" lon="4.77664">
        <ele>186</ele>
        <time>2017-12-13T10:05:13Z</time>
      </trkpt>
      <trkpt lat="45.89885" lon="4.77663">
        <ele>186</ele>
        <time>2017-12-13T10:05:15Z</time>
      </trkpt>
      <trkpt lat="45.89881" lon="4.77664">
        <ele>186</ele>
        <time>2017-12-13T10:05:16Z</time>
      </trkpt>
      <trkpt lat="45.89872" lon="4.77665">
        <ele>186</ele>
        <time>2017-12-13T10:05:18Z</time>
      </trkpt>
      <trkpt lat="45.89868" lon="4.77664">
        <ele>186</ele>
        <time>2017-12-13T10:05:19Z</time>
      </trkpt>
      <trkpt lat="45.8986" lon="4.77664">
        <ele>187</ele>
        <time>2017-12-13T10:05:21Z</time>
      </trkpt>
      <trkpt lat="45.89857" lon="4.77665">
        <ele>187</ele>
        <time>2017-12-13T10:05:22Z</time>
      </trkpt>
      <trkpt lat="45.89849" lon="4.77665">
        <ele>187</ele>
        <time>2017-12-13T10:05:24Z</time>
      </trkpt>
      <trkpt lat="45.89845" lon="4.77664">
        <ele>188</ele>
        <time>2017-12-13T10:05:25Z</time>
      </trkpt>
      <trkpt lat="45.89838" lon="4.77665">
        <ele>188</ele>
        <time>2017-12-13T10:05:27Z</time>
      </trkpt>
      <trkpt lat="45.89834" lon="4.77665">
        <ele>189</ele>
        <time>2017-12-13T10:05:28Z</time>
      </trkpt>
      <trkpt lat="45.89826" lon="4.77664">
        <ele>189</ele>
        <time>2017-12-13T10:05:30Z</time>
      </trkpt>
      <trkpt lat="45.89822" lon="4.77663">
        <ele>189</ele>
        <time>2017-12-13T10:05:31Z</time>
      </trkpt>
      <trkpt lat="45.89818" lon="4.77662">
        <ele>188</ele>
        <time>2017-12-13T10:05:32Z</time>
      </trkpt>
      <trkpt lat="45.89812" lon="4.77661">
        <ele>188</ele>
        <time>2017-12-13T10:05:33Z</time>
      </trkpt>
      <trkpt lat="45.89808" lon="4.77661">
        <ele>188</ele>
        <time>2017-12-13T10:05:34Z</time>
      </trkpt>
      <trkpt lat="45.89802" lon="4.77661">
        <ele>188</ele>
        <time>2017-12-13T10:05:35Z</time>
      </trkpt>
      <trkpt lat="45.89798" lon="4.77662">
        <ele>189</ele>
        <time>2017-12-13T10:05:36Z</time>
      </trkpt>
      <trkpt lat="45.89792" lon="4.77663">
        <ele>189</ele>
        <time>2017-12-13T10:05:37Z</time>
      </trkpt>
      <trkpt lat="45.89784" lon="4.77663">
        <ele>189</ele>
        <time>2017-12-13T10:05:39Z</time>
      </trkpt>
      <trkpt lat="45.8978" lon="4.77663">
        <ele>189</ele>
        <time>2017-12-13T10:05:40Z</time>
      </trkpt>
      <trkpt lat="45.89773" lon="4.77663">
        <ele>190</ele>
        <time>2017-12-13T10:05:42Z</time>
      </trkpt>
      <trkpt lat="45.89769" lon="4.77662">
        <ele>190</ele>
        <time>2017-12-13T10:05:43Z</time>
      </trkpt>
      <trkpt lat="45.89763" lon="4.77662">
        <ele>190</ele>
        <time>2017-12-13T10:05:45Z</time>
      </trkpt>
      <trkpt lat="45.8976" lon="4.77661">
        <ele>191</ele>
        <time>2017-12-13T10:05:46Z</time>
      </trkpt>
      <trkpt lat="45.89752" lon="4.7766">
        <ele>191</ele>
        <time>2017-12-13T10:05:48Z</time>
      </trkpt>
      <trkpt lat="45.89749" lon="4.77659">
        <ele>191</ele>
        <time>2017-12-13T10:05:49Z</time>
      </trkpt>
      <trkpt lat="45.89741" lon="4.77658">
        <ele>191</ele>
        <time>2017-12-13T10:05:51Z</time>
      </trkpt>
      <trkpt lat="45.89736" lon="4.77657">
        <ele>191</ele>
        <time>2017-12-13T10:05:52Z</time>
      </trkpt>
      <trkpt lat="45.89728" lon="4.77655">
        <ele>191</ele>
        <time>2017-12-13T10:05:54Z</time>
      </trkpt>
      <trkpt lat="45.89723" lon="4.77654">
        <ele>190</ele>
        <time>2017-12-13T10:05:55Z</time>
      </trkpt>
      <trkpt lat="45.89718" lon="4.77653">
        <ele>190</ele>
        <time>2017-12-13T10:05:56Z</time>
      </trkpt>
      <trkpt lat="45.89713" lon="4.77652">
        <ele>190</ele>
        <time>2017-12-13T10:05:57Z</time>
      </trkpt>
      <trkpt lat="45.89709" lon="4.77653">
        <ele>190</ele>
        <time>2017-12-13T10:05:58Z</time>
      </trkpt>
      <trkpt lat="45.89704" lon="4.77651">
        <ele>190</ele>
        <time>2017-12-13T10:05:59Z</time>
      </trkpt>
      <trkpt lat="45.89696" lon="4.77649">
        <ele>190</ele>
        <time>2017-12-13T10:06:01Z</time>
      </trkpt>
      <trkpt lat="45.89692" lon="4.77647">
        <ele>190</ele>
        <time>2017-12-13T10:06:02Z</time>
      </trkpt>
      <trkpt lat="45.89684" lon="4.77645">
        <ele>190</ele>
        <time>2017-12-13T10:06:04Z</time>
      </trkpt>
      <trkpt lat="45.8968" lon="4.77644">
        <ele>190</ele>
        <time>2017-12-13T10:06:05Z</time>
      </trkpt>
      <trkpt lat="45.89675" lon="4.77644">
        <ele>190</ele>
        <time>2017-12-13T10:06:06Z</time>
      </trkpt>
      <trkpt lat="45.89671" lon="4.77643">
        <ele>190</ele>
        <time>2017-12-13T10:06:07Z</time>
      </trkpt>
      <trkpt lat="45.89666" lon="4.77642">
        <ele>190</ele>
        <time>2017-12-13T10:06:08Z</time>
      </trkpt>
      <trkpt lat="45.89661" lon="4.77641">
        <ele>190</ele>
        <time>2017-12-13T10:06:09Z</time>
      </trkpt>
      <trkpt lat="45.89656" lon="4.77641">
        <ele>190</ele>
        <time>2017-12-13T10:06:10Z</time>
      </trkpt>
      <trkpt lat="45.8965" lon="4.7764">
        <ele>190</ele>
        <time>2017-12-13T10:06:11Z</time>
      </trkpt>
      <trkpt lat="45.89646" lon="4.77637">
        <ele>190</ele>
        <time>2017-12-13T10:06:12Z</time>
      </trkpt>
      <trkpt lat="45.8964" lon="4.77637">
        <ele>190</ele>
        <time>2017-12-13T10:06:13Z</time>
      </trkpt>
      <trkpt lat="45.89635" lon="4.77635">
        <ele>190</ele>
        <time>2017-12-13T10:06:14Z</time>
      </trkpt>
      <trkpt lat="45.8963" lon="4.77634">
        <ele>190</ele>
        <time>2017-12-13T10:06:15Z</time>
      </trkpt>
      <trkpt lat="45.89621" lon="4.77633">
        <ele>191</ele>
        <time>2017-12-13T10:06:17Z</time>
      </trkpt>
      <trkpt lat="45.89618" lon="4.77633">
        <ele>191</ele>
        <time>2017-12-13T10:06:18Z</time>
      </trkpt>
      <trkpt lat="45.8961" lon="4.77632">
        <ele>191</ele>
        <time>2017-12-13T10:06:20Z</time>
      </trkpt>
      <trkpt lat="45.89606" lon="4.77632">
        <ele>191</ele>
        <time>2017-12-13T10:06:21Z</time>
      </trkpt>
      <trkpt lat="45.89597" lon="4.7763">
        <ele>191</ele>
        <time>2017-12-13T10:06:23Z</time>
      </trkpt>
      <trkpt lat="45.89593" lon="4.77629">
        <ele>191</ele>
        <time>2017-12-13T10:06:24Z</time>
      </trkpt>
      <trkpt lat="45.89588" lon="4.77629">
        <ele>191</ele>
        <time>2017-12-13T10:06:25Z</time>
      </trkpt>
      <trkpt lat="45.89584" lon="4.77629">
        <ele>191</ele>
        <time>2017-12-13T10:06:26Z</time>
      </trkpt>
      <trkpt lat="45.89579" lon="4.77628">
        <ele>192</ele>
        <time>2017-12-13T10:06:27Z</time>
      </trkpt>
      <trkpt lat="45.89574" lon="4.77627">
        <ele>192</ele>
        <time>2017-12-13T10:06:28Z</time>
      </trkpt>
      <trkpt lat="45.89565" lon="4.77625">
        <ele>192</ele>
        <time>2017-12-13T10:06:30Z</time>
      </trkpt>
      <trkpt lat="45.8956" lon="4.77624">
        <ele>192</ele>
        <time>2017-12-13T10:06:31Z</time>
      </trkpt>
      <trkpt lat="45.89555" lon="4.77624">
        <ele>192</ele>
        <time>2017-12-13T10:06:32Z</time>
      </trkpt>
      <trkpt lat="45.8955" lon="4.77622">
        <ele>192</ele>
        <time>2017-12-13T10:06:33Z</time>
      </trkpt>
      <trkpt lat="45.89545" lon="4.77621">
        <ele>192</ele>
        <time>2017-12-13T10:06:34Z</time>
      </trkpt>
      <trkpt lat="45.8954" lon="4.7762">
        <ele>192</ele>
        <time>2017-12-13T10:06:35Z</time>
      </trkpt>
      <trkpt lat="45.89535" lon="4.77619">
        <ele>192</ele>
        <time>2017-12-13T10:06:36Z</time>
      </trkpt>
      <trkpt lat="45.8953" lon="4.77617">
        <ele>192</ele>
        <time>2017-12-13T10:06:37Z</time>
      </trkpt>
      <trkpt lat="45.89524" lon="4.77616">
        <ele>192</ele>
        <time>2017-12-13T10:06:38Z</time>
      </trkpt>
      <trkpt lat="45.89518" lon="4.77614">
        <ele>192</ele>
        <time>2017-12-13T10:06:39Z</time>
      </trkpt>
      <trkpt lat="45.89513" lon="4.77613">
        <ele>192</ele>
        <time>2017-12-13T10:06:40Z</time>
      </trkpt>
      <trkpt lat="45.89508" lon="4.77613">
        <ele>192</ele>
        <time>2017-12-13T10:06:41Z</time>
      </trkpt>
      <trkpt lat="45.89503" lon="4.77611">
        <ele>192</ele>
        <time>2017-12-13T10:06:42Z</time>
      </trkpt>
      <trkpt lat="45.89499" lon="4.77609">
        <ele>193</ele>
        <time>2017-12-13T10:06:43Z</time>
      </trkpt>
      <trkpt lat="45.89494" lon="4.77608">
        <ele>193</ele>
        <time>2017-12-13T10:06:44Z</time>
      </trkpt>
      <trkpt lat="45.89489" lon="4.77607">
        <ele>193</ele>
        <time>2017-12-13T10:06:45Z</time>
      </trkpt>
      <trkpt lat="45.89483" lon="4.77606">
        <ele>193</ele>
        <time>2017-12-13T10:06:46Z</time>
      </trkpt>
      <trkpt lat="45.89477" lon="4.77604">
        <ele>193</ele>
        <time>2017-12-13T10:06:47Z</time>
      </trkpt>
      <trkpt lat="45.89471" lon="4.77602">
        <ele>193</ele>
        <time>2017-12-13T10:06:48Z</time>
      </trkpt>
      <trkpt lat="45.89466" lon="4.776">
        <ele>193</ele>
        <time>2017-12-13T10:06:49Z</time>
      </trkpt>
      <trkpt lat="45.89462" lon="4.77598">
        <ele>193</ele>
        <time>2017-12-13T10:06:50Z</time>
      </trkpt>
      <trkpt lat="45.89456" lon="4.77596">
        <ele>193</ele>
        <time>2017-12-13T10:06:51Z</time>
      </trkpt>
      <trkpt lat="45.89451" lon="4.77594">
        <ele>193</ele>
        <time>2017-12-13T10:06:52Z</time>
      </trkpt>
      <trkpt lat="45.89447" lon="4.77592">
        <ele>193</ele>
        <time>2017-12-13T10:06:53Z</time>
      </trkpt>
      <trkpt lat="45.89442" lon="4.7759">
        <ele>193</ele>
        <time>2017-12-13T10:06:54Z</time>
      </trkpt>
      <trkpt lat="45.89438" lon="4.77589">
        <ele>193</ele>
        <time>2017-12-13T10:06:55Z</time>
      </trkpt>
      <trkpt lat="45.8943" lon="4.77584">
        <ele>194</ele>
        <time>2017-12-13T10:06:57Z</time>
      </trkpt>
      <trkpt lat="45.89424" lon="4.77582">
        <ele>194</ele>
        <time>2017-12-13T10:06:58Z</time>
      </trkpt>
      <trkpt lat="45.8942" lon="4.77579">
        <ele>194</ele>
        <time>2017-12-13T10:06:59Z</time>
      </trkpt>
      <trkpt lat="45.89415" lon="4.77577">
        <ele>194</ele>
        <time>2017-12-13T10:07:00Z</time>
      </trkpt>
      <trkpt lat="45.89409" lon="4.77575">
        <ele>194</ele>
        <time>2017-12-13T10:07:01Z</time>
      </trkpt>
      <trkpt lat="45.89404" lon="4.77574">
        <ele>194</ele>
        <time>2017-12-13T10:07:02Z</time>
      </trkpt>
      <trkpt lat="45.89398" lon="4.7757">
        <ele>194</ele>
        <time>2017-12-13T10:07:03Z</time>
      </trkpt>
      <trkpt lat="45.89392" lon="4.77569">
        <ele>194</ele>
        <time>2017-12-13T10:07:04Z</time>
      </trkpt>
      <trkpt lat="45.89387" lon="4.77566">
        <ele>194</ele>
        <time>2017-12-13T10:07:05Z</time>
      </trkpt>
      <trkpt lat="45.89381" lon="4.77565">
        <ele>194</ele>
        <time>2017-12-13T10:07:06Z</time>
      </trkpt>
      <trkpt lat="45.89375" lon="4.77563">
        <ele>194</ele>
        <time>2017-12-13T10:07:07Z</time>
      </trkpt>
      <trkpt lat="45.89369" lon="4.77561">
        <ele>194</ele>
        <time>2017-12-13T10:07:08Z</time>
      </trkpt>
      <trkpt lat="45.89363" lon="4.77559">
        <ele>194</ele>
        <time>2017-12-13T10:07:09Z</time>
      </trkpt>
      <trkpt lat="45.89359" lon="4.77557">
        <ele>194</ele>
        <time>2017-12-13T10:07:10Z</time>
      </trkpt>
      <trkpt lat="45.89354" lon="4.77555">
        <ele>194</ele>
        <time>2017-12-13T10:07:11Z</time>
      </trkpt>
      <trkpt lat="45.89349" lon="4.77553">
        <ele>194</ele>
        <time>2017-12-13T10:07:12Z</time>
      </trkpt>
      <trkpt lat="45.89344" lon="4.77552">
        <ele>194</ele>
        <time>2017-12-13T10:07:13Z</time>
      </trkpt>
      <trkpt lat="45.89339" lon="4.77549">
        <ele>194</ele>
        <time>2017-12-13T10:07:14Z</time>
      </trkpt>
      <trkpt lat="45.89335" lon="4.77547">
        <ele>194</ele>
        <time>2017-12-13T10:07:15Z</time>
      </trkpt>
      <trkpt lat="45.89329" lon="4.77546">
        <ele>194</ele>
        <time>2017-12-13T10:07:16Z</time>
      </trkpt>
      <trkpt lat="45.89325" lon="4.77543">
        <ele>194</ele>
        <time>2017-12-13T10:07:17Z</time>
      </trkpt>
      <trkpt lat="45.89319" lon="4.77541">
        <ele>194</ele>
        <time>2017-12-13T10:07:18Z</time>
      </trkpt>
      <trkpt lat="45.89314" lon="4.7754">
        <ele>194</ele>
        <time>2017-12-13T10:07:19Z</time>
      </trkpt>
      <trkpt lat="45.89309" lon="4.77537">
        <ele>194</ele>
        <time>2017-12-13T10:07:20Z</time>
      </trkpt>
      <trkpt lat="45.89305" lon="4.77535">
        <ele>194</ele>
        <time>2017-12-13T10:07:21Z</time>
      </trkpt>
      <trkpt lat="45.893" lon="4.77532">
        <ele>194</ele>
        <time>2017-12-13T10:07:22Z</time>
      </trkpt>
      <trkpt lat="45.89295" lon="4.7753">
        <ele>194</ele>
        <time>2017-12-13T10:07:23Z</time>
      </trkpt>
      <trkpt lat="45.89289" lon="4.77528">
        <ele>193</ele>
        <time>2017-12-13T10:07:24Z</time>
      </trkpt>
      <trkpt lat="45.89285" lon="4.77526">
        <ele>193</ele>
        <time>2017-12-13T10:07:25Z</time>
      </trkpt>
      <trkpt lat="45.8928" lon="4.77524">
        <ele>193</ele>
        <time>2017-12-13T10:07:26Z</time>
      </trkpt>
      <trkpt lat="45.89275" lon="4.77522">
        <ele>193</ele>
        <time>2017-12-13T10:07:27Z</time>
      </trkpt>
      <trkpt lat="45.8927" lon="4.7752">
        <ele>193</ele>
        <time>2017-12-13T10:07:28Z</time>
      </trkpt>
      <trkpt lat="45.89266" lon="4.7752">
        <ele>193</ele>
        <time>2017-12-13T10:07:29Z</time>
      </trkpt>
      <trkpt lat="45.8926" lon="4.77521">
        <ele>193</ele>
        <time>2017-12-13T10:07:30Z</time>
      </trkpt>
      <trkpt lat="45.89254" lon="4.77521">
        <ele>193</ele>
        <time>2017-12-13T10:07:31Z</time>
      </trkpt>
      <trkpt lat="45.89249" lon="4.77521">
        <ele>193</ele>
        <time>2017-12-13T10:07:32Z</time>
      </trkpt>
      <trkpt lat="45.89244" lon="4.77522">
        <ele>193</ele>
        <time>2017-12-13T10:07:33Z</time>
      </trkpt>
      <trkpt lat="45.89239" lon="4.77524">
        <ele>193</ele>
        <time>2017-12-13T10:07:34Z</time>
      </trkpt>
      <trkpt lat="45.89234" lon="4.77525">
        <ele>193</ele>
        <time>2017-12-13T10:07:35Z</time>
      </trkpt>
      <trkpt lat="45.89228" lon="4.77527">
        <ele>194</ele>
        <time>2017-12-13T10:07:36Z</time>
      </trkpt>
      <trkpt lat="45.8922" lon="4.77529">
        <ele>194</ele>
        <time>2017-12-13T10:07:38Z</time>
      </trkpt>
      <trkpt lat="45.89216" lon="4.7753">
        <ele>194</ele>
        <time>2017-12-13T10:07:39Z</time>
      </trkpt>
      <trkpt lat="45.89207" lon="4.77532">
        <ele>194</ele>
        <time>2017-12-13T10:07:41Z</time>
      </trkpt>
      <trkpt lat="45.89203" lon="4.77534">
        <ele>194</ele>
        <time>2017-12-13T10:07:42Z</time>
      </trkpt>
      <trkpt lat="45.89194" lon="4.77534">
        <ele>194</ele>
        <time>2017-12-13T10:07:44Z</time>
      </trkpt>
      <trkpt lat="45.89189" lon="4.77536">
        <ele>194</ele>
        <time>2017-12-13T10:07:45Z</time>
      </trkpt>
      <trkpt lat="45.89184" lon="4.77536">
        <ele>194</ele>
        <time>2017-12-13T10:07:46Z</time>
      </trkpt>
      <trkpt lat="45.89179" lon="4.77538">
        <ele>194</ele>
        <time>2017-12-13T10:07:47Z</time>
      </trkpt>
      <trkpt lat="45.89173" lon="4.77539">
        <ele>194</ele>
        <time>2017-12-13T10:07:48Z</time>
      </trkpt>
      <trkpt lat="45.89168" lon="4.7754">
        <ele>194</ele>
        <time>2017-12-13T10:07:49Z</time>
      </trkpt>
      <trkpt lat="45.89162" lon="4.77541">
        <ele>195</ele>
        <time>2017-12-13T10:07:50Z</time>
      </trkpt>
      <trkpt lat="45.89156" lon="4.77542">
        <ele>195</ele>
        <time>2017-12-13T10:07:51Z</time>
      </trkpt>
      <trkpt lat="45.89151" lon="4.77544">
        <ele>195</ele>
        <time>2017-12-13T10:07:52Z</time>
      </trkpt>
      <trkpt lat="45.89144" lon="4.77544">
        <ele>195</ele>
        <time>2017-12-13T10:07:53Z</time>
      </trkpt>
      <trkpt lat="45.89139" lon="4.77545">
        <ele>195</ele>
        <time>2017-12-13T10:07:54Z</time>
      </trkpt>
      <trkpt lat="45.89135" lon="4.77547">
        <ele>195</ele>
        <time>2017-12-13T10:07:55Z</time>
      </trkpt>
      <trkpt lat="45.8913" lon="4.77548">
        <ele>195</ele>
        <time>2017-12-13T10:07:56Z</time>
      </trkpt>
      <trkpt lat="45.89125" lon="4.7755">
        <ele>195</ele>
        <time>2017-12-13T10:07:57Z</time>
      </trkpt>
      <trkpt lat="45.89119" lon="4.77552">
        <ele>195</ele>
        <time>2017-12-13T10:07:58Z</time>
      </trkpt>
      <trkpt lat="45.89113" lon="4.77554">
        <ele>195</ele>
        <time>2017-12-13T10:07:59Z</time>
      </trkpt>
      <trkpt lat="45.89109" lon="4.77556">
        <ele>195</ele>
        <time>2017-12-13T10:08:00Z</time>
      </trkpt>
      <trkpt lat="45.89104" lon="4.77559">
        <ele>195</ele>
        <time>2017-12-13T10:08:01Z</time>
      </trkpt>
      <trkpt lat="45.891" lon="4.77561">
        <ele>196</ele>
        <time>2017-12-13T10:08:02Z</time>
      </trkpt>
      <trkpt lat="45.89095" lon="4.77565">
        <ele>196</ele>
        <time>2017-12-13T10:08:03Z</time>
      </trkpt>
      <trkpt lat="45.89091" lon="4.77568">
        <ele>196</ele>
        <time>2017-12-13T10:08:04Z</time>
      </trkpt>
      <trkpt lat="45.89086" lon="4.77572">
        <ele>196</ele>
        <time>2017-12-13T10:08:05Z</time>
      </trkpt>
      <trkpt lat="45.8908" lon="4.77574">
        <ele>196</ele>
        <time>2017-12-13T10:08:06Z</time>
      </trkpt>
      <trkpt lat="45.89077" lon="4.77578">
        <ele>196</ele>
        <time>2017-12-13T10:08:07Z</time>
      </trkpt>
      <trkpt lat="45.8907" lon="4.77581">
        <ele>196</ele>
        <time>2017-12-13T10:08:08Z</time>
      </trkpt>
      <trkpt lat="45.89066" lon="4.77584">
        <ele>196</ele>
        <time>2017-12-13T10:08:09Z</time>
      </trkpt>
      <trkpt lat="45.89062" lon="4.77588">
        <ele>196</ele>
        <time>2017-12-13T10:08:10Z</time>
      </trkpt>
      <trkpt lat="45.89058" lon="4.77592">
        <ele>197</ele>
        <time>2017-12-13T10:08:11Z</time>
      </trkpt>
      <trkpt lat="45.89054" lon="4.77596">
        <ele>197</ele>
        <time>2017-12-13T10:08:12Z</time>
      </trkpt>
      <trkpt lat="45.89051" lon="4.776">
        <ele>197</ele>
        <time>2017-12-13T10:08:13Z</time>
      </trkpt>
      <trkpt lat="45.89044" lon="4.77606">
        <ele>197</ele>
        <time>2017-12-13T10:08:15Z</time>
      </trkpt>
      <trkpt lat="45.8904" lon="4.7761">
        <ele>197</ele>
        <time>2017-12-13T10:08:16Z</time>
      </trkpt>
      <trkpt lat="45.89036" lon="4.77614">
        <ele>197</ele>
        <time>2017-12-13T10:08:17Z</time>
      </trkpt>
      <trkpt lat="45.89032" lon="4.77617">
        <ele>197</ele>
        <time>2017-12-13T10:08:18Z</time>
      </trkpt>
      <trkpt lat="45.89027" lon="4.77621">
        <ele>197</ele>
        <time>2017-12-13T10:08:19Z</time>
      </trkpt>
      <trkpt lat="45.89023" lon="4.77625">
        <ele>197</ele>
        <time>2017-12-13T10:08:20Z</time>
      </trkpt>
      <trkpt lat="45.89019" lon="4.77628">
        <ele>197</ele>
        <time>2017-12-13T10:08:21Z</time>
      </trkpt>
      <trkpt lat="45.89015" lon="4.77632">
        <ele>197</ele>
        <time>2017-12-13T10:08:22Z</time>
      </trkpt>
      <trkpt lat="45.89011" lon="4.77636">
        <ele>197</ele>
        <time>2017-12-13T10:08:23Z</time>
      </trkpt>
      <trkpt lat="45.89006" lon="4.77639">
        <ele>197</ele>
        <time>2017-12-13T10:08:24Z</time>
      </trkpt>
      <trkpt lat="45.89002" lon="4.77642">
        <ele>197</ele>
        <time>2017-12-13T10:08:25Z</time>
      </trkpt>
      <trkpt lat="45.88998" lon="4.77646">
        <ele>198</ele>
        <time>2017-12-13T10:08:26Z</time>
      </trkpt>
      <trkpt lat="45.8899" lon="4.77653">
        <ele>198</ele>
        <time>2017-12-13T10:08:28Z</time>
      </trkpt>
      <trkpt lat="45.88986" lon="4.77656">
        <ele>198</ele>
        <time>2017-12-13T10:08:29Z</time>
      </trkpt>
      <trkpt lat="45.88979" lon="4.77662">
        <ele>198</ele>
        <time>2017-12-13T10:08:31Z</time>
      </trkpt>
      <trkpt lat="45.88975" lon="4.77666">
        <ele>198</ele>
        <time>2017-12-13T10:08:32Z</time>
      </trkpt>
      <trkpt lat="45.8897" lon="4.77669">
        <ele>198</ele>
        <time>2017-12-13T10:08:33Z</time>
      </trkpt>
      <trkpt lat="45.88966" lon="4.77673">
        <ele>198</ele>
        <time>2017-12-13T10:08:34Z</time>
      </trkpt>
      <trkpt lat="45.88958" lon="4.77677">
        <ele>199</ele>
        <time>2017-12-13T10:08:36Z</time>
      </trkpt>
      <trkpt lat="45.88954" lon="4.77679">
        <ele>199</ele>
        <time>2017-12-13T10:08:37Z</time>
      </trkpt>
      <trkpt lat="45.88949" lon="4.77682">
        <ele>199</ele>
        <time>2017-12-13T10:08:38Z</time>
      </trkpt>
      <trkpt lat="45.88944" lon="4.77684">
        <ele>199</ele>
        <time>2017-12-13T10:08:39Z</time>
      </trkpt>
      <trkpt lat="45.88935" lon="4.77687">
        <ele>199</ele>
        <time>2017-12-13T10:08:41Z</time>
      </trkpt>
      <trkpt lat="45.88931" lon="4.77689">
        <ele>199</ele>
        <time>2017-12-13T10:08:42Z</time>
      </trkpt>
      <trkpt lat="45.88926" lon="4.77691">
        <ele>199</ele>
        <time>2017-12-13T10:08:43Z</time>
      </trkpt>
      <trkpt lat="45.8892" lon="4.77692">
        <ele>199</ele>
        <time>2017-12-13T10:08:44Z</time>
      </trkpt>
      <trkpt lat="45.88914" lon="4.77692">
        <ele>200</ele>
        <time>2017-12-13T10:08:45Z</time>
      </trkpt>
      <trkpt lat="45.88909" lon="4.77693">
        <ele>200</ele>
        <time>2017-12-13T10:08:46Z</time>
      </trkpt>
      <trkpt lat="45.88901" lon="4.77696">
        <ele>200</ele>
        <time>2017-12-13T10:08:48Z</time>
      </trkpt>
      <trkpt lat="45.88897" lon="4.77698">
        <ele>200</ele>
        <time>2017-12-13T10:08:49Z</time>
      </trkpt>
      <trkpt lat="45.88893" lon="4.77699">
        <ele>200</ele>
        <time>2017-12-13T10:08:50Z</time>
      </trkpt>
      <trkpt lat="45.88887" lon="4.777">
        <ele>200</ele>
        <time>2017-12-13T10:08:51Z</time>
      </trkpt>
      <trkpt lat="45.88882" lon="4.777">
        <ele>200</ele>
        <time>2017-12-13T10:08:52Z</time>
      </trkpt>
      <trkpt lat="45.88877" lon="4.77701">
        <ele>200</ele>
        <time>2017-12-13T10:08:53Z</time>
      </trkpt>
      <trkpt lat="45.88869" lon="4.77702">
        <ele>201</ele>
        <time>2017-12-13T10:08:55Z</time>
      </trkpt>
      <trkpt lat="45.88865" lon="4.77702">
        <ele>201</ele>
        <time>2017-12-13T10:08:56Z</time>
      </trkpt>
      <trkpt lat="45.88856" lon="4.77704">
        <ele>201</ele>
        <time>2017-12-13T10:08:58Z</time>
      </trkpt>
      <trkpt lat="45.88852" lon="4.77703">
        <ele>201</ele>
        <time>2017-12-13T10:08:59Z</time>
      </trkpt>
      <trkpt lat="45.88844" lon="4.77703">
        <ele>201</ele>
        <time>2017-12-13T10:09:01Z</time>
      </trkpt>
      <trkpt lat="45.88839" lon="4.77704">
        <ele>201</ele>
        <time>2017-12-13T10:09:02Z</time>
      </trkpt>
      <trkpt lat="45.88835" lon="4.77705">
        <ele>201</ele>
        <time>2017-12-13T10:09:03Z</time>
      </trkpt>
      <trkpt lat="45.88829" lon="4.77705">
        <ele>201</ele>
        <time>2017-12-13T10:09:04Z</time>
      </trkpt>
      <trkpt lat="45.88825" lon="4.77704">
        <ele>201</ele>
        <time>2017-12-13T10:09:05Z</time>
      </trkpt>
      <trkpt lat="45.88817" lon="4.77703">
        <ele>202</ele>
        <time>2017-12-13T10:09:06Z</time>
      </trkpt>
      <trkpt lat="45.88813" lon="4.77705">
        <ele>202</ele>
        <time>2017-12-13T10:09:07Z</time>
      </trkpt>
      <trkpt lat="45.88806" lon="4.77705">
        <ele>202</ele>
        <time>2017-12-13T10:09:08Z</time>
      </trkpt>
      <trkpt lat="45.88801" lon="4.77705">
        <ele>202</ele>
        <time>2017-12-13T10:09:09Z</time>
      </trkpt>
      <trkpt lat="45.88796" lon="4.77705">
        <ele>202</ele>
        <time>2017-12-13T10:09:10Z</time>
      </trkpt>
      <trkpt lat="45.88788" lon="4.77706">
        <ele>202</ele>
        <time>2017-12-13T10:09:12Z</time>
      </trkpt>
      <trkpt lat="45.88783" lon="4.77706">
        <ele>202</ele>
        <time>2017-12-13T10:09:13Z</time>
      </trkpt>
      <trkpt lat="45.88775" lon="4.77707">
        <ele>202</ele>
        <time>2017-12-13T10:09:15Z</time>
      </trkpt>
      <trkpt lat="45.88771" lon="4.77708">
        <ele>202</ele>
        <time>2017-12-13T10:09:16Z</time>
      </trkpt>
      <trkpt lat="45.88762" lon="4.77709">
        <ele>202</ele>
        <time>2017-12-13T10:09:18Z</time>
      </trkpt>
      <trkpt lat="45.88757" lon="4.7771">
        <ele>202</ele>
        <time>2017-12-13T10:09:19Z</time>
      </trkpt>
      <trkpt lat="45.88752" lon="4.7771">
        <ele>202</ele>
        <time>2017-12-13T10:09:20Z</time>
      </trkpt>
      <trkpt lat="45.88747" lon="4.77711">
        <ele>203</ele>
        <time>2017-12-13T10:09:21Z</time>
      </trkpt>
      <trkpt lat="45.88742" lon="4.77711">
        <ele>203</ele>
        <time>2017-12-13T10:09:22Z</time>
      </trkpt>
      <trkpt lat="45.88737" lon="4.77712">
        <ele>203</ele>
        <time>2017-12-13T10:09:23Z</time>
      </trkpt>
      <trkpt lat="45.88732" lon="4.77711">
        <ele>203</ele>
        <time>2017-12-13T10:09:24Z</time>
      </trkpt>
      <trkpt lat="45.88727" lon="4.7771">
        <ele>203</ele>
        <time>2017-12-13T10:09:25Z</time>
      </trkpt>
      <trkpt lat="45.88722" lon="4.77711">
        <ele>203</ele>
        <time>2017-12-13T10:09:26Z</time>
      </trkpt>
      <trkpt lat="45.88716" lon="4.77711">
        <ele>203</ele>
        <time>2017-12-13T10:09:27Z</time>
      </trkpt>
      <trkpt lat="45.88711" lon="4.77711">
        <ele>203</ele>
        <time>2017-12-13T10:09:28Z</time>
      </trkpt>
      <trkpt lat="45.88706" lon="4.77711">
        <ele>203</ele>
        <time>2017-12-13T10:09:29Z</time>
      </trkpt>
      <trkpt lat="45.88697" lon="4.77712">
        <ele>203</ele>
        <time>2017-12-13T10:09:31Z</time>
      </trkpt>
      <trkpt lat="45.88693" lon="4.77711">
        <ele>203</ele>
        <time>2017-12-13T10:09:32Z</time>
      </trkpt>
      <trkpt lat="45.88688" lon="4.77712">
        <ele>203</ele>
        <time>2017-12-13T10:09:33Z</time>
      </trkpt>
      <trkpt lat="45.88683" lon="4.77712">
        <ele>203</ele>
        <time>2017-12-13T10:09:34Z</time>
      </trkpt>
      <trkpt lat="45.88675" lon="4.77712">
        <ele>203</ele>
        <time>2017-12-13T10:09:36Z</time>
      </trkpt>
      <trkpt lat="45.88671" lon="4.77711">
        <ele>203</ele>
        <time>2017-12-13T10:09:37Z</time>
      </trkpt>
      <trkpt lat="45.88663" lon="4.77711">
        <ele>203</ele>
        <time>2017-12-13T10:09:39Z</time>
      </trkpt>
      <trkpt lat="45.88658" lon="4.77712">
        <ele>203</ele>
        <time>2017-12-13T10:09:40Z</time>
      </trkpt>
      <trkpt lat="45.88654" lon="4.77711">
        <ele>203</ele>
        <time>2017-12-13T10:09:41Z</time>
      </trkpt>
      <trkpt lat="45.88649" lon="4.7771">
        <ele>203</ele>
        <time>2017-12-13T10:09:42Z</time>
      </trkpt>
      <trkpt lat="45.88645" lon="4.77709">
        <ele>203</ele>
        <time>2017-12-13T10:09:43Z</time>
      </trkpt>
      <trkpt lat="45.88639" lon="4.7771">
        <ele>203</ele>
        <time>2017-12-13T10:09:44Z</time>
      </trkpt>
      <trkpt lat="45.88635" lon="4.77709">
        <ele>203</ele>
        <time>2017-12-13T10:09:45Z</time>
      </trkpt>
      <trkpt lat="45.8863" lon="4.77708">
        <ele>203</ele>
        <time>2017-12-13T10:09:46Z</time>
      </trkpt>
      <trkpt lat="45.88624" lon="4.77708">
        <ele>203</ele>
        <time>2017-12-13T10:09:47Z</time>
      </trkpt>
      <trkpt lat="45.8862" lon="4.77707">
        <ele>203</ele>
        <time>2017-12-13T10:09:48Z</time>
      </trkpt>
      <trkpt lat="45.88616" lon="4.77708">
        <ele>203</ele>
        <time>2017-12-13T10:09:49Z</time>
      </trkpt>
      <trkpt lat="45.88611" lon="4.77707">
        <ele>203</ele>
        <time>2017-12-13T10:09:50Z</time>
      </trkpt>
      <trkpt lat="45.88602" lon="4.77706">
        <ele>203</ele>
        <time>2017-12-13T10:09:52Z</time>
      </trkpt>
      <trkpt lat="45.88597" lon="4.77704">
        <ele>203</ele>
        <time>2017-12-13T10:09:53Z</time>
      </trkpt>
      <trkpt lat="45.88592" lon="4.77705">
        <ele>203</ele>
        <time>2017-12-13T10:09:54Z</time>
      </trkpt>
      <trkpt lat="45.88587" lon="4.77702">
        <ele>203</ele>
        <time>2017-12-13T10:09:55Z</time>
      </trkpt>
      <trkpt lat="45.88578" lon="4.77701">
        <ele>204</ele>
        <time>2017-12-13T10:09:57Z</time>
      </trkpt>
      <trkpt lat="45.88574" lon="4.777">
        <ele>204</ele>
        <time>2017-12-13T10:09:58Z</time>
      </trkpt>
      <trkpt lat="45.8857" lon="4.77698">
        <ele>204</ele>
        <time>2017-12-13T10:09:59Z</time>
      </trkpt>
      <trkpt lat="45.88565" lon="4.77697">
        <ele>204</ele>
        <time>2017-12-13T10:10:00Z</time>
      </trkpt>
      <trkpt lat="45.88556" lon="4.77695">
        <ele>204</ele>
        <time>2017-12-13T10:10:02Z</time>
      </trkpt>
      <trkpt lat="45.88551" lon="4.77694">
        <ele>204</ele>
        <time>2017-12-13T10:10:03Z</time>
      </trkpt>
      <trkpt lat="45.88545" lon="4.77693">
        <ele>204</ele>
        <time>2017-12-13T10:10:04Z</time>
      </trkpt>
      <trkpt lat="45.88541" lon="4.77692">
        <ele>204</ele>
        <time>2017-12-13T10:10:05Z</time>
      </trkpt>
      <trkpt lat="45.88536" lon="4.7769">
        <ele>204</ele>
        <time>2017-12-13T10:10:06Z</time>
      </trkpt>
      <trkpt lat="45.88532" lon="4.77689">
        <ele>204</ele>
        <time>2017-12-13T10:10:07Z</time>
      </trkpt>
      <trkpt lat="45.88524" lon="4.77687">
        <ele>204</ele>
        <time>2017-12-13T10:10:09Z</time>
      </trkpt>
      <trkpt lat="45.8852" lon="4.77685">
        <ele>204</ele>
        <time>2017-12-13T10:10:10Z</time>
      </trkpt>
      <trkpt lat="45.88511" lon="4.77684">
        <ele>205</ele>
        <time>2017-12-13T10:10:12Z</time>
      </trkpt>
      <trkpt lat="45.88508" lon="4.77682">
        <ele>205</ele>
        <time>2017-12-13T10:10:13Z</time>
      </trkpt>
      <trkpt lat="45.885" lon="4.77681">
        <ele>205</ele>
        <time>2017-12-13T10:10:15Z</time>
      </trkpt>
      <trkpt lat="45.88497" lon="4.7768">
        <ele>205</ele>
        <time>2017-12-13T10:10:16Z</time>
      </trkpt>
      <trkpt lat="45.88493" lon="4.77679">
        <ele>205</ele>
        <time>2017-12-13T10:10:17Z</time>
      </trkpt>
      <trkpt lat="45.88488" lon="4.77678">
        <ele>205</ele>
        <time>2017-12-13T10:10:18Z</time>
      </trkpt>
      <trkpt lat="45.88483" lon="4.77678">
        <ele>206</ele>
        <time>2017-12-13T10:10:19Z</time>
      </trkpt>
      <trkpt lat="45.88479" lon="4.77676">
        <ele>206</ele>
        <time>2017-12-13T10:10:20Z</time>
      </trkpt>
      <trkpt lat="45.88474" lon="4.77676">
        <ele>206</ele>
        <time>2017-12-13T10:10:21Z</time>
      </trkpt>
      <trkpt lat="45.88469" lon="4.77675">
        <ele>206</ele>
        <time>2017-12-13T10:10:22Z</time>
      </trkpt>
      <trkpt lat="45.88463" lon="4.77674">
        <ele>206</ele>
        <time>2017-12-13T10:10:23Z</time>
      </trkpt>
      <trkpt lat="45.88458" lon="4.77672">
        <ele>206</ele>
        <time>2017-12-13T10:10:24Z</time>
      </trkpt>
      <trkpt lat="45.88453" lon="4.77671">
        <ele>206</ele>
        <time>2017-12-13T10:10:25Z</time>
      </trkpt>
      <trkpt lat="45.88449" lon="4.77671">
        <ele>206</ele>
        <time>2017-12-13T10:10:26Z</time>
      </trkpt>
      <trkpt lat="45.8844" lon="4.77667">
        <ele>206</ele>
        <time>2017-12-13T10:10:28Z</time>
      </trkpt>
      <trkpt lat="45.88436" lon="4.77667">
        <ele>206</ele>
        <time>2017-12-13T10:10:29Z</time>
      </trkpt>
      <trkpt lat="45.88428" lon="4.77666">
        <ele>206</ele>
        <time>2017-12-13T10:10:31Z</time>
      </trkpt>
      <trkpt lat="45.88424" lon="4.77665">
        <ele>206</ele>
        <time>2017-12-13T10:10:32Z</time>
      </trkpt>
      <trkpt lat="45.88419" lon="4.77664">
        <ele>206</ele>
        <time>2017-12-13T10:10:33Z</time>
      </trkpt>
      <trkpt lat="45.88414" lon="4.77664">
        <ele>206</ele>
        <time>2017-12-13T10:10:34Z</time>
      </trkpt>
      <trkpt lat="45.88406" lon="4.77662">
        <ele>207</ele>
        <time>2017-12-13T10:10:36Z</time>
      </trkpt>
      <trkpt lat="45.88401" lon="4.77661">
        <ele>207</ele>
        <time>2017-12-13T10:10:37Z</time>
      </trkpt>
      <trkpt lat="45.88392" lon="4.77661">
        <ele>207</ele>
        <time>2017-12-13T10:10:39Z</time>
      </trkpt>
      <trkpt lat="45.88388" lon="4.77661">
        <ele>207</ele>
        <time>2017-12-13T10:10:40Z</time>
      </trkpt>
      <trkpt lat="45.8838" lon="4.77658">
        <ele>207</ele>
        <time>2017-12-13T10:10:42Z</time>
      </trkpt>
      <trkpt lat="45.88376" lon="4.77658">
        <ele>207</ele>
        <time>2017-12-13T10:10:43Z</time>
      </trkpt>
      <trkpt lat="45.88368" lon="4.77657">
        <ele>207</ele>
        <time>2017-12-13T10:10:45Z</time>
      </trkpt>
      <trkpt lat="45.88363" lon="4.77657">
        <ele>207</ele>
        <time>2017-12-13T10:10:46Z</time>
      </trkpt>
      <trkpt lat="45.88355" lon="4.77656">
        <ele>208</ele>
        <time>2017-12-13T10:10:48Z</time>
      </trkpt>
      <trkpt lat="45.8835" lon="4.77656">
        <ele>208</ele>
        <time>2017-12-13T10:10:49Z</time>
      </trkpt>
      <trkpt lat="45.88345" lon="4.77656">
        <ele>208</ele>
        <time>2017-12-13T10:10:50Z</time>
      </trkpt>
      <trkpt lat="45.8834" lon="4.77655">
        <ele>208</ele>
        <time>2017-12-13T10:10:51Z</time>
      </trkpt>
      <trkpt lat="45.88332" lon="4.77655">
        <ele>208</ele>
        <time>2017-12-13T10:10:53Z</time>
      </trkpt>
      <trkpt lat="45.88328" lon="4.77655">
        <ele>209</ele>
        <time>2017-12-13T10:10:54Z</time>
      </trkpt>
      <trkpt lat="45.88319" lon="4.77655">
        <ele>209</ele>
        <time>2017-12-13T10:10:56Z</time>
      </trkpt>
      <trkpt lat="45.88315" lon="4.77654">
        <ele>209</ele>
        <time>2017-12-13T10:10:57Z</time>
      </trkpt>
      <trkpt lat="45.88307" lon="4.77655">
        <ele>209</ele>
        <time>2017-12-13T10:10:59Z</time>
      </trkpt>
      <trkpt lat="45.88303" lon="4.77656">
        <ele>209</ele>
        <time>2017-12-13T10:11:00Z</time>
      </trkpt>
      <trkpt lat="45.88295" lon="4.77656">
        <ele>209</ele>
        <time>2017-12-13T10:11:02Z</time>
      </trkpt>
      <trkpt lat="45.8829" lon="4.77655">
        <ele>209</ele>
        <time>2017-12-13T10:11:03Z</time>
      </trkpt>
      <trkpt lat="45.88282" lon="4.77655">
        <ele>210</ele>
        <time>2017-12-13T10:11:05Z</time>
      </trkpt>
      <trkpt lat="45.88278" lon="4.77655">
        <ele>210</ele>
        <time>2017-12-13T10:11:06Z</time>
      </trkpt>
      <trkpt lat="45.88269" lon="4.77655">
        <ele>210</ele>
        <time>2017-12-13T10:11:08Z</time>
      </trkpt>
      <trkpt lat="45.88265" lon="4.77656">
        <ele>210</ele>
        <time>2017-12-13T10:11:09Z</time>
      </trkpt>
      <trkpt lat="45.88257" lon="4.77656">
        <ele>210</ele>
        <time>2017-12-13T10:11:11Z</time>
      </trkpt>
      <trkpt lat="45.88253" lon="4.77657">
        <ele>210</ele>
        <time>2017-12-13T10:11:12Z</time>
      </trkpt>
      <trkpt lat="45.88245" lon="4.77657">
        <ele>211</ele>
        <time>2017-12-13T10:11:14Z</time>
      </trkpt>
      <trkpt lat="45.88241" lon="4.77657">
        <ele>211</ele>
        <time>2017-12-13T10:11:15Z</time>
      </trkpt>
      <trkpt lat="45.88233" lon="4.77657">
        <ele>211</ele>
        <time>2017-12-13T10:11:17Z</time>
      </trkpt>
      <trkpt lat="45.88228" lon="4.77657">
        <ele>211</ele>
        <time>2017-12-13T10:11:18Z</time>
      </trkpt>
      <trkpt lat="45.88219" lon="4.77658">
        <ele>211</ele>
        <time>2017-12-13T10:11:20Z</time>
      </trkpt>
      <trkpt lat="45.88215" lon="4.77659">
        <ele>211</ele>
        <time>2017-12-13T10:11:21Z</time>
      </trkpt>
      <trkpt lat="45.8821" lon="4.7766">
        <ele>211</ele>
        <time>2017-12-13T10:11:22Z</time>
      </trkpt>
      <trkpt lat="45.88206" lon="4.77661">
        <ele>211</ele>
        <time>2017-12-13T10:11:23Z</time>
      </trkpt>
      <trkpt lat="45.88201" lon="4.77661">
        <ele>211</ele>
        <time>2017-12-13T10:11:24Z</time>
      </trkpt>
      <trkpt lat="45.88196" lon="4.77662">
        <ele>211</ele>
        <time>2017-12-13T10:11:25Z</time>
      </trkpt>
      <trkpt lat="45.88187" lon="4.77662">
        <ele>212</ele>
        <time>2017-12-13T10:11:27Z</time>
      </trkpt>
      <trkpt lat="45.88182" lon="4.77663">
        <ele>212</ele>
        <time>2017-12-13T10:11:28Z</time>
      </trkpt>
      <trkpt lat="45.88174" lon="4.77664">
        <ele>212</ele>
        <time>2017-12-13T10:11:30Z</time>
      </trkpt>
      <trkpt lat="45.8817" lon="4.77666">
        <ele>212</ele>
        <time>2017-12-13T10:11:31Z</time>
      </trkpt>
      <trkpt lat="45.88165" lon="4.77667">
        <ele>212</ele>
        <time>2017-12-13T10:11:32Z</time>
      </trkpt>
      <trkpt lat="45.8816" lon="4.77668">
        <ele>212</ele>
        <time>2017-12-13T10:11:33Z</time>
      </trkpt>
      <trkpt lat="45.88152" lon="4.7767">
        <ele>213</ele>
        <time>2017-12-13T10:11:35Z</time>
      </trkpt>
      <trkpt lat="45.88147" lon="4.77671">
        <ele>213</ele>
        <time>2017-12-13T10:11:36Z</time>
      </trkpt>
      <trkpt lat="45.88142" lon="4.77671">
        <ele>213</ele>
        <time>2017-12-13T10:11:37Z</time>
      </trkpt>
      <trkpt lat="45.88137" lon="4.77673">
        <ele>213</ele>
        <time>2017-12-13T10:11:38Z</time>
      </trkpt>
      <trkpt lat="45.88128" lon="4.77675">
        <ele>214</ele>
        <time>2017-12-13T10:11:40Z</time>
      </trkpt>
      <trkpt lat="45.88123" lon="4.77676">
        <ele>214</ele>
        <time>2017-12-13T10:11:41Z</time>
      </trkpt>
      <trkpt lat="45.88119" lon="4.77677">
        <ele>214</ele>
        <time>2017-12-13T10:11:42Z</time>
      </trkpt>
      <trkpt lat="45.88115" lon="4.77678">
        <ele>214</ele>
        <time>2017-12-13T10:11:43Z</time>
      </trkpt>
      <trkpt lat="45.88106" lon="4.7768">
        <ele>214</ele>
        <time>2017-12-13T10:11:45Z</time>
      </trkpt>
      <trkpt lat="45.88101" lon="4.7768">
        <ele>214</ele>
        <time>2017-12-13T10:11:46Z</time>
      </trkpt>
      <trkpt lat="45.88096" lon="4.7768">
        <ele>214</ele>
        <time>2017-12-13T10:11:47Z</time>
      </trkpt>
      <trkpt lat="45.88091" lon="4.77682">
        <ele>214</ele>
        <time>2017-12-13T10:11:48Z</time>
      </trkpt>
      <trkpt lat="45.88083" lon="4.77685">
        <ele>215</ele>
        <time>2017-12-13T10:11:50Z</time>
      </trkpt>
      <trkpt lat="45.88079" lon="4.77685">
        <ele>215</ele>
        <time>2017-12-13T10:11:51Z</time>
      </trkpt>
      <trkpt lat="45.88075" lon="4.77686">
        <ele>215</ele>
        <time>2017-12-13T10:11:52Z</time>
      </trkpt>
      <trkpt lat="45.8807" lon="4.77687">
        <ele>215</ele>
        <time>2017-12-13T10:11:53Z</time>
      </trkpt>
      <trkpt lat="45.88065" lon="4.77687">
        <ele>216</ele>
        <time>2017-12-13T10:11:54Z</time>
      </trkpt>
      <trkpt lat="45.8806" lon="4.77688">
        <ele>216</ele>
        <time>2017-12-13T10:11:55Z</time>
      </trkpt>
      <trkpt lat="45.88053" lon="4.77688">
        <ele>216</ele>
        <time>2017-12-13T10:11:57Z</time>
      </trkpt>
      <trkpt lat="45.88048" lon="4.7769">
        <ele>216</ele>
        <time>2017-12-13T10:11:58Z</time>
      </trkpt>
      <trkpt lat="45.88044" lon="4.7769">
        <ele>216</ele>
        <time>2017-12-13T10:11:59Z</time>
      </trkpt>
      <trkpt lat="45.88039" lon="4.77691">
        <ele>216</ele>
        <time>2017-12-13T10:12:00Z</time>
      </trkpt>
      <trkpt lat="45.8803" lon="4.77692">
        <ele>216</ele>
        <time>2017-12-13T10:12:02Z</time>
      </trkpt>
      <trkpt lat="45.88026" lon="4.77692">
        <ele>216</ele>
        <time>2017-12-13T10:12:03Z</time>
      </trkpt>
      <trkpt lat="45.88021" lon="4.77693">
        <ele>216</ele>
        <time>2017-12-13T10:12:04Z</time>
      </trkpt>
      <trkpt lat="45.88016" lon="4.77693">
        <ele>216</ele>
        <time>2017-12-13T10:12:05Z</time>
      </trkpt>
      <trkpt lat="45.88007" lon="4.77692">
        <ele>216</ele>
        <time>2017-12-13T10:12:07Z</time>
      </trkpt>
      <trkpt lat="45.88003" lon="4.77692">
        <ele>216</ele>
        <time>2017-12-13T10:12:08Z</time>
      </trkpt>
      <trkpt lat="45.87999" lon="4.77691">
        <ele>217</ele>
        <time>2017-12-13T10:12:09Z</time>
      </trkpt>
      <trkpt lat="45.87994" lon="4.7769">
        <ele>217</ele>
        <time>2017-12-13T10:12:10Z</time>
      </trkpt>
      <trkpt lat="45.8799" lon="4.7769">
        <ele>217</ele>
        <time>2017-12-13T10:12:11Z</time>
      </trkpt>
      <trkpt lat="45.87985" lon="4.77689">
        <ele>217</ele>
        <time>2017-12-13T10:12:12Z</time>
      </trkpt>
      <trkpt lat="45.8798" lon="4.77688">
        <ele>218</ele>
        <time>2017-12-13T10:12:13Z</time>
      </trkpt>
      <trkpt lat="45.87976" lon="4.77687">
        <ele>218</ele>
        <time>2017-12-13T10:12:14Z</time>
      </trkpt>
      <trkpt lat="45.87972" lon="4.77683">
        <ele>218</ele>
        <time>2017-12-13T10:12:15Z</time>
      </trkpt>
      <trkpt lat="45.87968" lon="4.77678">
        <ele>218</ele>
        <time>2017-12-13T10:12:16Z</time>
      </trkpt>
      <trkpt lat="45.87961" lon="4.77671">
        <ele>218</ele>
        <time>2017-12-13T10:12:18Z</time>
      </trkpt>
      <trkpt lat="45.87958" lon="4.77668">
        <ele>218</ele>
        <time>2017-12-13T10:12:19Z</time>
      </trkpt>
      <trkpt lat="45.87951" lon="4.77665">
        <ele>218</ele>
        <time>2017-12-13T10:12:21Z</time>
      </trkpt>
      <trkpt lat="45.87946" lon="4.77663">
        <ele>218</ele>
        <time>2017-12-13T10:12:22Z</time>
      </trkpt>
      <trkpt lat="45.87943" lon="4.7766">
        <ele>219</ele>
        <time>2017-12-13T10:12:23Z</time>
      </trkpt>
      <trkpt lat="45.87938" lon="4.77657">
        <ele>219</ele>
        <time>2017-12-13T10:12:24Z</time>
      </trkpt>
      <trkpt lat="45.87931" lon="4.77649">
        <ele>219</ele>
        <time>2017-12-13T10:12:26Z</time>
      </trkpt>
      <trkpt lat="45.87927" lon="4.77647">
        <ele>219</ele>
        <time>2017-12-13T10:12:27Z</time>
      </trkpt>
      <trkpt lat="45.8792" lon="4.7764">
        <ele>219</ele>
        <time>2017-12-13T10:12:29Z</time>
      </trkpt>
      <trkpt lat="45.87916" lon="4.77636">
        <ele>220</ele>
        <time>2017-12-13T10:12:30Z</time>
      </trkpt>
      <trkpt lat="45.87912" lon="4.77631">
        <ele>221</ele>
        <time>2017-12-13T10:12:31Z</time>
      </trkpt>
      <trkpt lat="45.87909" lon="4.77628">
        <ele>221</ele>
        <time>2017-12-13T10:12:32Z</time>
      </trkpt>
      <trkpt lat="45.87902" lon="4.77621">
        <ele>221</ele>
        <time>2017-12-13T10:12:34Z</time>
      </trkpt>
      <trkpt lat="45.87898" lon="4.77619">
        <ele>221</ele>
        <time>2017-12-13T10:12:35Z</time>
      </trkpt>
      <trkpt lat="45.87891" lon="4.77615">
        <ele>221</ele>
        <time>2017-12-13T10:12:37Z</time>
      </trkpt>
      <trkpt lat="45.87888" lon="4.77611">
        <ele>221</ele>
        <time>2017-12-13T10:12:38Z</time>
      </trkpt>
      <trkpt lat="45.87881" lon="4.77604">
        <ele>221</ele>
        <time>2017-12-13T10:12:40Z</time>
      </trkpt>
      <trkpt lat="45.87878" lon="4.77601">
        <ele>221</ele>
        <time>2017-12-13T10:12:41Z</time>
      </trkpt>
      <trkpt lat="45.87872" lon="4.77595">
        <ele>221</ele>
        <time>2017-12-13T10:12:43Z</time>
      </trkpt>
      <trkpt lat="45.87868" lon="4.77592">
        <ele>221</ele>
        <time>2017-12-13T10:12:44Z</time>
      </trkpt>
      <trkpt lat="45.87863" lon="4.77585">
        <ele>221</ele>
        <time>2017-12-13T10:12:46Z</time>
      </trkpt>
      <trkpt lat="45.8786" lon="4.77582">
        <ele>221</ele>
        <time>2017-12-13T10:12:47Z</time>
      </trkpt>
      <trkpt lat="45.87856" lon="4.77579">
        <ele>221</ele>
        <time>2017-12-13T10:12:48Z</time>
      </trkpt>
      <trkpt lat="45.87851" lon="4.77575">
        <ele>221</ele>
        <time>2017-12-13T10:12:49Z</time>
      </trkpt>
      <trkpt lat="45.87846" lon="4.77572">
        <ele>221</ele>
        <time>2017-12-13T10:12:50Z</time>
      </trkpt>
      <trkpt lat="45.87843" lon="4.77568">
        <ele>221</ele>
        <time>2017-12-13T10:12:51Z</time>
      </trkpt>
      <trkpt lat="45.87835" lon="4.77561">
        <ele>221</ele>
        <time>2017-12-13T10:12:53Z</time>
      </trkpt>
      <trkpt lat="45.87832" lon="4.77558">
        <ele>222</ele>
        <time>2017-12-13T10:12:54Z</time>
      </trkpt>
      <trkpt lat="45.87828" lon="4.77554">
        <ele>223</ele>
        <time>2017-12-13T10:12:55Z</time>
      </trkpt>
      <trkpt lat="45.87824" lon="4.7755">
        <ele>223</ele>
        <time>2017-12-13T10:12:56Z</time>
      </trkpt>
      <trkpt lat="45.87816" lon="4.77544">
        <ele>223</ele>
        <time>2017-12-13T10:12:58Z</time>
      </trkpt>
      <trkpt lat="45.87812" lon="4.77541">
        <ele>223</ele>
        <time>2017-12-13T10:12:59Z</time>
      </trkpt>
      <trkpt lat="45.87804" lon="4.77536">
        <ele>223</ele>
        <time>2017-12-13T10:13:01Z</time>
      </trkpt>
      <trkpt lat="45.878" lon="4.77533">
        <ele>223</ele>
        <time>2017-12-13T10:13:02Z</time>
      </trkpt>
      <trkpt lat="45.87793" lon="4.77529">
        <ele>223</ele>
        <time>2017-12-13T10:13:04Z</time>
      </trkpt>
      <trkpt lat="45.87789" lon="4.77526">
        <ele>223</ele>
        <time>2017-12-13T10:13:05Z</time>
      </trkpt>
      <trkpt lat="45.87782" lon="4.77521">
        <ele>223</ele>
        <time>2017-12-13T10:13:07Z</time>
      </trkpt>
      <trkpt lat="45.87778" lon="4.77519">
        <ele>223</ele>
        <time>2017-12-13T10:13:08Z</time>
      </trkpt>
      <trkpt lat="45.87771" lon="4.77514">
        <ele>223</ele>
        <time>2017-12-13T10:13:10Z</time>
      </trkpt>
      <trkpt lat="45.87768" lon="4.77512">
        <ele>223</ele>
        <time>2017-12-13T10:13:11Z</time>
      </trkpt>
      <trkpt lat="45.87761" lon="4.77508">
        <ele>224</ele>
        <time>2017-12-13T10:13:13Z</time>
      </trkpt>
      <trkpt lat="45.87757" lon="4.77506">
        <ele>224</ele>
        <time>2017-12-13T10:13:14Z</time>
      </trkpt>
      <trkpt lat="45.8775" lon="4.77502">
        <ele>224</ele>
        <time>2017-12-13T10:13:16Z</time>
      </trkpt>
      <trkpt lat="45.87746" lon="4.775">
        <ele>224</ele>
        <time>2017-12-13T10:13:17Z</time>
      </trkpt>
      <trkpt lat="45.87739" lon="4.77496">
        <ele>225</ele>
        <time>2017-12-13T10:13:19Z</time>
      </trkpt>
      <trkpt lat="45.87736" lon="4.77494">
        <ele>225</ele>
        <time>2017-12-13T10:13:20Z</time>
      </trkpt>
      <trkpt lat="45.87729" lon="4.77491">
        <ele>225</ele>
        <time>2017-12-13T10:13:22Z</time>
      </trkpt>
      <trkpt lat="45.87725" lon="4.77489">
        <ele>226</ele>
        <time>2017-12-13T10:13:23Z</time>
      </trkpt>
      <trkpt lat="45.87718" lon="4.77486">
        <ele>226</ele>
        <time>2017-12-13T10:13:25Z</time>
      </trkpt>
      <trkpt lat="45.87715" lon="4.77484">
        <ele>226</ele>
        <time>2017-12-13T10:13:26Z</time>
      </trkpt>
      <trkpt lat="45.87708" lon="4.77483">
        <ele>226</ele>
        <time>2017-12-13T10:13:28Z</time>
      </trkpt>
      <trkpt lat="45.87704" lon="4.77483">
        <ele>226</ele>
        <time>2017-12-13T10:13:29Z</time>
      </trkpt>
      <trkpt lat="45.87696" lon="4.77483">
        <ele>227</ele>
        <time>2017-12-13T10:13:31Z</time>
      </trkpt>
      <trkpt lat="45.87692" lon="4.77484">
        <ele>227</ele>
        <time>2017-12-13T10:13:32Z</time>
      </trkpt>
      <trkpt lat="45.87687" lon="4.77485">
        <ele>227</ele>
        <time>2017-12-13T10:13:33Z</time>
      </trkpt>
      <trkpt lat="45.87683" lon="4.77485">
        <ele>227</ele>
        <time>2017-12-13T10:13:34Z</time>
      </trkpt>
      <trkpt lat="45.87675" lon="4.77486">
        <ele>228</ele>
        <time>2017-12-13T10:13:36Z</time>
      </trkpt>
      <trkpt lat="45.87671" lon="4.77486">
        <ele>228</ele>
        <time>2017-12-13T10:13:37Z</time>
      </trkpt>
      <trkpt lat="45.87665" lon="4.77488">
        <ele>230</ele>
        <time>2017-12-13T10:13:39Z</time>
      </trkpt>
      <trkpt lat="45.87661" lon="4.77489">
        <ele>230</ele>
        <time>2017-12-13T10:13:40Z</time>
      </trkpt>
      <trkpt lat="45.87654" lon="4.77491">
        <ele>230</ele>
        <time>2017-12-13T10:13:42Z</time>
      </trkpt>
      <trkpt lat="45.87651" lon="4.77492">
        <ele>230</ele>
        <time>2017-12-13T10:13:43Z</time>
      </trkpt>
      <trkpt lat="45.87644" lon="4.77494">
        <ele>230</ele>
        <time>2017-12-13T10:13:45Z</time>
      </trkpt>
      <trkpt lat="45.87641" lon="4.77495">
        <ele>230</ele>
        <time>2017-12-13T10:13:46Z</time>
      </trkpt>
      <trkpt lat="45.87635" lon="4.77495">
        <ele>231</ele>
        <time>2017-12-13T10:13:48Z</time>
      </trkpt>
      <trkpt lat="45.87632" lon="4.77495">
        <ele>231</ele>
        <time>2017-12-13T10:13:49Z</time>
      </trkpt>
      <trkpt lat="45.87625" lon="4.77494">
        <ele>231</ele>
        <time>2017-12-13T10:13:51Z</time>
      </trkpt>
      <trkpt lat="45.87622" lon="4.77494">
        <ele>231</ele>
        <time>2017-12-13T10:13:52Z</time>
      </trkpt>
      <trkpt lat="45.87615" lon="4.77496">
        <ele>231</ele>
        <time>2017-12-13T10:13:54Z</time>
      </trkpt>
      <trkpt lat="45.87612" lon="4.77497">
        <ele>231</ele>
        <time>2017-12-13T10:13:55Z</time>
      </trkpt>
      <trkpt lat="45.87605" lon="4.77498">
        <ele>231</ele>
        <time>2017-12-13T10:13:57Z</time>
      </trkpt>
      <trkpt lat="45.87601" lon="4.77498">
        <ele>231</ele>
        <time>2017-12-13T10:13:58Z</time>
      </trkpt>
      <trkpt lat="45.87595" lon="4.77499">
        <ele>232</ele>
        <time>2017-12-13T10:14:00Z</time>
      </trkpt>
      <trkpt lat="45.87592" lon="4.775">
        <ele>231</ele>
        <time>2017-12-13T10:14:01Z</time>
      </trkpt>
      <trkpt lat="45.87585" lon="4.77501">
        <ele>232</ele>
        <time>2017-12-13T10:14:03Z</time>
      </trkpt>
      <trkpt lat="45.87582" lon="4.77502">
        <ele>232</ele>
        <time>2017-12-13T10:14:04Z</time>
      </trkpt>
      <trkpt lat="45.87574" lon="4.77503">
        <ele>232</ele>
        <time>2017-12-13T10:14:06Z</time>
      </trkpt>
      <trkpt lat="45.8757" lon="4.77503">
        <ele>232</ele>
        <time>2017-12-13T10:14:07Z</time>
      </trkpt>
      <trkpt lat="45.87563" lon="4.77501">
        <ele>232</ele>
        <time>2017-12-13T10:14:09Z</time>
      </trkpt>
      <trkpt lat="45.87559" lon="4.77499">
        <ele>233</ele>
        <time>2017-12-13T10:14:10Z</time>
      </trkpt>
      <trkpt lat="45.87553" lon="4.77492">
        <ele>233</ele>
        <time>2017-12-13T10:14:12Z</time>
      </trkpt>
      <trkpt lat="45.87551" lon="4.77488">
        <ele>233</ele>
        <time>2017-12-13T10:14:13Z</time>
      </trkpt>
      <trkpt lat="45.87546" lon="4.7748">
        <ele>233</ele>
        <time>2017-12-13T10:14:15Z</time>
      </trkpt>
      <trkpt lat="45.87544" lon="4.77476">
        <ele>233</ele>
        <time>2017-12-13T10:14:16Z</time>
      </trkpt>
      <trkpt lat="45.8754" lon="4.77469">
        <ele>233</ele>
        <time>2017-12-13T10:14:18Z</time>
      </trkpt>
      <trkpt lat="45.87538" lon="4.77465">
        <ele>233</ele>
        <time>2017-12-13T10:14:19Z</time>
      </trkpt>
      <trkpt lat="45.87534" lon="4.77458">
        <ele>234</ele>
        <time>2017-12-13T10:14:21Z</time>
      </trkpt>
      <trkpt lat="45.87532" lon="4.77455">
        <ele>234</ele>
        <time>2017-12-13T10:14:22Z</time>
      </trkpt>
      <trkpt lat="45.87528" lon="4.77447">
        <ele>234</ele>
        <time>2017-12-13T10:14:24Z</time>
      </trkpt>
      <trkpt lat="45.87525" lon="4.77444">
        <ele>233</ele>
        <time>2017-12-13T10:14:25Z</time>
      </trkpt>
      <trkpt lat="45.87521" lon="4.77436">
        <ele>233</ele>
        <time>2017-12-13T10:14:27Z</time>
      </trkpt>
      <trkpt lat="45.87518" lon="4.77432">
        <ele>233</ele>
        <time>2017-12-13T10:14:28Z</time>
      </trkpt>
      <trkpt lat="45.87514" lon="4.77423">
        <ele>233</ele>
        <time>2017-12-13T10:14:30Z</time>
      </trkpt>
      <trkpt lat="45.87512" lon="4.77419">
        <ele>233</ele>
        <time>2017-12-13T10:14:31Z</time>
      </trkpt>
      <trkpt lat="45.87507" lon="4.77411">
        <ele>233</ele>
        <time>2017-12-13T10:14:33Z</time>
      </trkpt>
      <trkpt lat="45.87504" lon="4.77406">
        <ele>233</ele>
        <time>2017-12-13T10:14:34Z</time>
      </trkpt>
      <trkpt lat="45.87499" lon="4.77397">
        <ele>234</ele>
        <time>2017-12-13T10:14:36Z</time>
      </trkpt>
      <trkpt lat="45.87497" lon="4.77391">
        <ele>235</ele>
        <time>2017-12-13T10:14:37Z</time>
      </trkpt>
      <trkpt lat="45.87493" lon="4.77381">
        <ele>235</ele>
        <time>2017-12-13T10:14:39Z</time>
      </trkpt>
      <trkpt lat="45.87492" lon="4.77376">
        <ele>235</ele>
        <time>2017-12-13T10:14:40Z</time>
      </trkpt>
      <trkpt lat="45.87489" lon="4.77365">
        <ele>235</ele>
        <time>2017-12-13T10:14:42Z</time>
      </trkpt>
      <trkpt lat="45.87489" lon="4.7736">
        <ele>235</ele>
        <time>2017-12-13T10:14:43Z</time>
      </trkpt>
      <trkpt lat="45.87487" lon="4.77349">
        <ele>235</ele>
        <time>2017-12-13T10:14:45Z</time>
      </trkpt>
      <trkpt lat="45.87486" lon="4.77344">
        <ele>234</ele>
        <time>2017-12-13T10:14:46Z</time>
      </trkpt>
      <trkpt lat="45.87484" lon="4.77334">
        <ele>234</ele>
        <time>2017-12-13T10:14:48Z</time>
      </trkpt>
      <trkpt lat="45.87483" lon="4.77329">
        <ele>234</ele>
        <time>2017-12-13T10:14:49Z</time>
      </trkpt>
      <trkpt lat="45.8748" lon="4.77318">
        <ele>235</ele>
        <time>2017-12-13T10:14:51Z</time>
      </trkpt>
      <trkpt lat="45.87479" lon="4.77313">
        <ele>235</ele>
        <time>2017-12-13T10:14:52Z</time>
      </trkpt>
      <trkpt lat="45.87476" lon="4.77302">
        <ele>235</ele>
        <time>2017-12-13T10:14:54Z</time>
      </trkpt>
      <trkpt lat="45.87475" lon="4.77296">
        <ele>235</ele>
        <time>2017-12-13T10:14:55Z</time>
      </trkpt>
      <trkpt lat="45.87471" lon="4.77285">
        <ele>235</ele>
        <time>2017-12-13T10:14:57Z</time>
      </trkpt>
      <trkpt lat="45.87469" lon="4.77279">
        <ele>235</ele>
        <time>2017-12-13T10:14:58Z</time>
      </trkpt>
      <trkpt lat="45.87467" lon="4.7727">
        <ele>235</ele>
        <time>2017-12-13T10:15:00Z</time>
      </trkpt>
      <trkpt lat="45.87465" lon="4.77266">
        <ele>235</ele>
        <time>2017-12-13T10:15:01Z</time>
      </trkpt>
      <trkpt lat="45.87461" lon="4.77257">
        <ele>235</ele>
        <time>2017-12-13T10:15:03Z</time>
      </trkpt>
      <trkpt lat="45.87459" lon="4.77252">
        <ele>235</ele>
        <time>2017-12-13T10:15:04Z</time>
      </trkpt>
      <trkpt lat="45.87453" lon="4.77245">
        <ele>235</ele>
        <time>2017-12-13T10:15:06Z</time>
      </trkpt>
      <trkpt lat="45.8745" lon="4.77241">
        <ele>235</ele>
        <time>2017-12-13T10:15:07Z</time>
      </trkpt>
      <trkpt lat="45.87443" lon="4.77234">
        <ele>235</ele>
        <time>2017-12-13T10:15:09Z</time>
      </trkpt>
      <trkpt lat="45.8744" lon="4.77231">
        <ele>235</ele>
        <time>2017-12-13T10:15:10Z</time>
      </trkpt>
      <trkpt lat="45.87433" lon="4.77226">
        <ele>235</ele>
        <time>2017-12-13T10:15:12Z</time>
      </trkpt>
      <trkpt lat="45.8743" lon="4.77224">
        <ele>235</ele>
        <time>2017-12-13T10:15:13Z</time>
      </trkpt>
      <trkpt lat="45.87423" lon="4.7722">
        <ele>235</ele>
        <time>2017-12-13T10:15:15Z</time>
      </trkpt>
      <trkpt lat="45.87419" lon="4.77218">
        <ele>235</ele>
        <time>2017-12-13T10:15:16Z</time>
      </trkpt>
      <trkpt lat="45.87412" lon="4.77215">
        <ele>238</ele>
        <time>2017-12-13T10:15:18Z</time>
      </trkpt>
      <trkpt lat="45.87408" lon="4.77214">
        <ele>238</ele>
        <time>2017-12-13T10:15:19Z</time>
      </trkpt>
      <trkpt lat="45.874" lon="4.77213">
        <ele>238</ele>
        <time>2017-12-13T10:15:21Z</time>
      </trkpt>
      <trkpt lat="45.87396" lon="4.77212">
        <ele>239</ele>
        <time>2017-12-13T10:15:22Z</time>
      </trkpt>
      <trkpt lat="45.87389" lon="4.77213">
        <ele>239</ele>
        <time>2017-12-13T10:15:24Z</time>
      </trkpt>
      <trkpt lat="45.87385" lon="4.77214">
        <ele>239</ele>
        <time>2017-12-13T10:15:25Z</time>
      </trkpt>
      <trkpt lat="45.87377" lon="4.77213">
        <ele>239</ele>
        <time>2017-12-13T10:15:27Z</time>
      </trkpt>
      <trkpt lat="45.87372" lon="4.77213">
        <ele>239</ele>
        <time>2017-12-13T10:15:28Z</time>
      </trkpt>
      <trkpt lat="45.87364" lon="4.77214">
        <ele>240</ele>
        <time>2017-12-13T10:15:30Z</time>
      </trkpt>
      <trkpt lat="45.8736" lon="4.77215">
        <ele>240</ele>
        <time>2017-12-13T10:15:31Z</time>
      </trkpt>
      <trkpt lat="45.87353" lon="4.77216">
        <ele>240</ele>
        <time>2017-12-13T10:15:33Z</time>
      </trkpt>
      <trkpt lat="45.87349" lon="4.77216">
        <ele>240</ele>
        <time>2017-12-13T10:15:34Z</time>
      </trkpt>
      <trkpt lat="45.87341" lon="4.77217">
        <ele>240</ele>
        <time>2017-12-13T10:15:36Z</time>
      </trkpt>
      <trkpt lat="45.87338" lon="4.77217">
        <ele>240</ele>
        <time>2017-12-13T10:15:37Z</time>
      </trkpt>
      <trkpt lat="45.87331" lon="4.77218">
        <ele>243</ele>
        <time>2017-12-13T10:15:39Z</time>
      </trkpt>
      <trkpt lat="45.87328" lon="4.77218">
        <ele>243</ele>
        <time>2017-12-13T10:15:40Z</time>
      </trkpt>
      <trkpt lat="45.87321" lon="4.77218">
        <ele>244</ele>
        <time>2017-12-13T10:15:42Z</time>
      </trkpt>
      <trkpt lat="45.87317" lon="4.77218">
        <ele>244</ele>
        <time>2017-12-13T10:15:43Z</time>
      </trkpt>
      <trkpt lat="45.8731" lon="4.77217">
        <ele>244</ele>
        <time>2017-12-13T10:15:45Z</time>
      </trkpt>
      <trkpt lat="45.87306" lon="4.77216">
        <ele>244</ele>
        <time>2017-12-13T10:15:46Z</time>
      </trkpt>
      <trkpt lat="45.87298" lon="4.77213">
        <ele>244</ele>
        <time>2017-12-13T10:15:48Z</time>
      </trkpt>
      <trkpt lat="45.87294" lon="4.7721">
        <ele>244</ele>
        <time>2017-12-13T10:15:49Z</time>
      </trkpt>
      <trkpt lat="45.8729" lon="4.77205">
        <ele>244</ele>
        <time>2017-12-13T10:15:50Z</time>
      </trkpt>
      <trkpt lat="45.87287" lon="4.77201">
        <ele>244</ele>
        <time>2017-12-13T10:15:51Z</time>
      </trkpt>
      <trkpt lat="45.87282" lon="4.77191">
        <ele>244</ele>
        <time>2017-12-13T10:15:53Z</time>
      </trkpt>
      <trkpt lat="45.87281" lon="4.77185">
        <ele>244</ele>
        <time>2017-12-13T10:15:54Z</time>
      </trkpt>
      <trkpt lat="45.87279" lon="4.77175">
        <ele>244</ele>
        <time>2017-12-13T10:15:56Z</time>
      </trkpt>
      <trkpt lat="45.87279" lon="4.77168">
        <ele>244</ele>
        <time>2017-12-13T10:15:57Z</time>
      </trkpt>
      <trkpt lat="45.87276" lon="4.77157">
        <ele>242</ele>
        <time>2017-12-13T10:15:59Z</time>
      </trkpt>
      <trkpt lat="45.87276" lon="4.7715">
        <ele>241</ele>
        <time>2017-12-13T10:16:00Z</time>
      </trkpt>
      <trkpt lat="45.87273" lon="4.77139">
        <ele>241</ele>
        <time>2017-12-13T10:16:02Z</time>
      </trkpt>
      <trkpt lat="45.87273" lon="4.77134">
        <ele>241</ele>
        <time>2017-12-13T10:16:03Z</time>
      </trkpt>
      <trkpt lat="45.87274" lon="4.77127">
        <ele>241</ele>
        <time>2017-12-13T10:16:04Z</time>
      </trkpt>
      <trkpt lat="45.87273" lon="4.77121">
        <ele>241</ele>
        <time>2017-12-13T10:16:05Z</time>
      </trkpt>
      <trkpt lat="45.87273" lon="4.77115">
        <ele>240</ele>
        <time>2017-12-13T10:16:06Z</time>
      </trkpt>
      <trkpt lat="45.87274" lon="4.77108">
        <ele>240</ele>
        <time>2017-12-13T10:16:07Z</time>
      </trkpt>
      <trkpt lat="45.87271" lon="4.77097">
        <ele>240</ele>
        <time>2017-12-13T10:16:09Z</time>
      </trkpt>
      <trkpt lat="45.8727" lon="4.77088">
        <ele>240</ele>
        <time>2017-12-13T10:16:10Z</time>
      </trkpt>
      <trkpt lat="45.8727" lon="4.77077">
        <ele>239</ele>
        <time>2017-12-13T10:16:12Z</time>
      </trkpt>
      <trkpt lat="45.87271" lon="4.77069">
        <ele>239</ele>
        <time>2017-12-13T10:16:13Z</time>
      </trkpt>
      <trkpt lat="45.8727" lon="4.77062">
        <ele>239</ele>
        <time>2017-12-13T10:16:14Z</time>
      </trkpt>
      <trkpt lat="45.8727" lon="4.77056">
        <ele>239</ele>
        <time>2017-12-13T10:16:15Z</time>
      </trkpt>
      <trkpt lat="45.87269" lon="4.77046">
        <ele>239</ele>
        <time>2017-12-13T10:16:17Z</time>
      </trkpt>
      <trkpt lat="45.87268" lon="4.77042">
        <ele>239</ele>
        <time>2017-12-13T10:16:18Z</time>
      </trkpt>
      <trkpt lat="45.87268" lon="4.7703">
        <ele>239</ele>
        <time>2017-12-13T10:16:20Z</time>
      </trkpt>
      <trkpt lat="45.87268" lon="4.77024">
        <ele>239</ele>
        <time>2017-12-13T10:16:21Z</time>
      </trkpt>
      <trkpt lat="45.87268" lon="4.77018">
        <ele>239</ele>
        <time>2017-12-13T10:16:22Z</time>
      </trkpt>
      <trkpt lat="45.87269" lon="4.7701">
        <ele>239</ele>
        <time>2017-12-13T10:16:23Z</time>
      </trkpt>
      <trkpt lat="45.87269" lon="4.77002">
        <ele>239</ele>
        <time>2017-12-13T10:16:24Z</time>
      </trkpt>
      <trkpt lat="45.87269" lon="4.76994">
        <ele>240</ele>
        <time>2017-12-13T10:16:25Z</time>
      </trkpt>
      <trkpt lat="45.87269" lon="4.76988">
        <ele>240</ele>
        <time>2017-12-13T10:16:26Z</time>
      </trkpt>
      <trkpt lat="45.8727" lon="4.76981">
        <ele>240</ele>
        <time>2017-12-13T10:16:27Z</time>
      </trkpt>
      <trkpt lat="45.8727" lon="4.76968">
        <ele>240</ele>
        <time>2017-12-13T10:16:29Z</time>
      </trkpt>
      <trkpt lat="45.8727" lon="4.76961">
        <ele>240</ele>
        <time>2017-12-13T10:16:30Z</time>
      </trkpt>
      <trkpt lat="45.87269" lon="4.76949">
        <ele>240</ele>
        <time>2017-12-13T10:16:32Z</time>
      </trkpt>
      <trkpt lat="45.8727" lon="4.76941">
        <ele>241</ele>
        <time>2017-12-13T10:16:33Z</time>
      </trkpt>
      <trkpt lat="45.8727" lon="4.76935">
        <ele>241</ele>
        <time>2017-12-13T10:16:34Z</time>
      </trkpt>
      <trkpt lat="45.87271" lon="4.76925">
        <ele>241</ele>
        <time>2017-12-13T10:16:35Z</time>
      </trkpt>
      <trkpt lat="45.87272" lon="4.76918">
        <ele>241</ele>
        <time>2017-12-13T10:16:36Z</time>
      </trkpt>
      <trkpt lat="45.87271" lon="4.7691">
        <ele>241</ele>
        <time>2017-12-13T10:16:37Z</time>
      </trkpt>
      <trkpt lat="45.87271" lon="4.76902">
        <ele>240</ele>
        <time>2017-12-13T10:16:38Z</time>
      </trkpt>
      <trkpt lat="45.8727" lon="4.76894">
        <ele>240</ele>
        <time>2017-12-13T10:16:39Z</time>
      </trkpt>
      <trkpt lat="45.8727" lon="4.76885">
        <ele>240</ele>
        <time>2017-12-13T10:16:40Z</time>
      </trkpt>
      <trkpt lat="45.87269" lon="4.76877">
        <ele>240</ele>
        <time>2017-12-13T10:16:41Z</time>
      </trkpt>
      <trkpt lat="45.87269" lon="4.76868">
        <ele>239</ele>
        <time>2017-12-13T10:16:42Z</time>
      </trkpt>
      <trkpt lat="45.8727" lon="4.7686">
        <ele>239</ele>
        <time>2017-12-13T10:16:43Z</time>
      </trkpt>
      <trkpt lat="45.8727" lon="4.76852">
        <ele>239</ele>
        <time>2017-12-13T10:16:44Z</time>
      </trkpt>
      <trkpt lat="45.87269" lon="4.76844">
        <ele>239</ele>
        <time>2017-12-13T10:16:45Z</time>
      </trkpt>
      <trkpt lat="45.87269" lon="4.76837">
        <ele>239</ele>
        <time>2017-12-13T10:16:46Z</time>
      </trkpt>
      <trkpt lat="45.87268" lon="4.76828">
        <ele>237</ele>
        <time>2017-12-13T10:16:47Z</time>
      </trkpt>
      <trkpt lat="45.87267" lon="4.76821">
        <ele>237</ele>
        <time>2017-12-13T10:16:48Z</time>
      </trkpt>
      <trkpt lat="45.87268" lon="4.76814">
        <ele>237</ele>
        <time>2017-12-13T10:16:49Z</time>
      </trkpt>
      <trkpt lat="45.87265" lon="4.76805">
        <ele>237</ele>
        <time>2017-12-13T10:16:50Z</time>
      </trkpt>
      <trkpt lat="45.87265" lon="4.76797">
        <ele>236</ele>
        <time>2017-12-13T10:16:51Z</time>
      </trkpt>
      <trkpt lat="45.87264" lon="4.76789">
        <ele>236</ele>
        <time>2017-12-13T10:16:52Z</time>
      </trkpt>
      <trkpt lat="45.87264" lon="4.7678">
        <ele>236</ele>
        <time>2017-12-13T10:16:53Z</time>
      </trkpt>
      <trkpt lat="45.87264" lon="4.7677">
        <ele>236</ele>
        <time>2017-12-13T10:16:54Z</time>
      </trkpt>
      <trkpt lat="45.87264" lon="4.7676">
        <ele>236</ele>
        <time>2017-12-13T10:16:55Z</time>
      </trkpt>
      <trkpt lat="45.87262" lon="4.7675">
        <ele>236</ele>
        <time>2017-12-13T10:16:56Z</time>
      </trkpt>
      <trkpt lat="45.87262" lon="4.76741">
        <ele>235</ele>
        <time>2017-12-13T10:16:57Z</time>
      </trkpt>
      <trkpt lat="45.87262" lon="4.76733">
        <ele>235</ele>
        <time>2017-12-13T10:16:58Z</time>
      </trkpt>
      <trkpt lat="45.87263" lon="4.76725">
        <ele>234</ele>
        <time>2017-12-13T10:16:59Z</time>
      </trkpt>
      <trkpt lat="45.87263" lon="4.76716">
        <ele>234</ele>
        <time>2017-12-13T10:17:00Z</time>
      </trkpt>
      <trkpt lat="45.87262" lon="4.76707">
        <ele>234</ele>
        <time>2017-12-13T10:17:01Z</time>
      </trkpt>
      <trkpt lat="45.87262" lon="4.76699">
        <ele>234</ele>
        <time>2017-12-13T10:17:02Z</time>
      </trkpt>
      <trkpt lat="45.87262" lon="4.76692">
        <ele>234</ele>
        <time>2017-12-13T10:17:03Z</time>
      </trkpt>
      <trkpt lat="45.87262" lon="4.76685">
        <ele>234</ele>
        <time>2017-12-13T10:17:04Z</time>
      </trkpt>
      <trkpt lat="45.87262" lon="4.76677">
        <ele>234</ele>
        <time>2017-12-13T10:17:05Z</time>
      </trkpt>
      <trkpt lat="45.87261" lon="4.7667">
        <ele>234</ele>
        <time>2017-12-13T10:17:06Z</time>
      </trkpt>
      <trkpt lat="45.87262" lon="4.76662">
        <ele>234</ele>
        <time>2017-12-13T10:17:07Z</time>
      </trkpt>
      <trkpt lat="45.87262" lon="4.76655">
        <ele>234</ele>
        <time>2017-12-13T10:17:08Z</time>
      </trkpt>
      <trkpt lat="45.87263" lon="4.76647">
        <ele>234</ele>
        <time>2017-12-13T10:17:09Z</time>
      </trkpt>
      <trkpt lat="45.87263" lon="4.76641">
        <ele>234</ele>
        <time>2017-12-13T10:17:10Z</time>
      </trkpt>
      <trkpt lat="45.87263" lon="4.76633">
        <ele>234</ele>
        <time>2017-12-13T10:17:11Z</time>
      </trkpt>
      <trkpt lat="45.87263" lon="4.76626">
        <ele>234</ele>
        <time>2017-12-13T10:17:12Z</time>
      </trkpt>
      <trkpt lat="45.87262" lon="4.76619">
        <ele>234</ele>
        <time>2017-12-13T10:17:13Z</time>
      </trkpt>
      <trkpt lat="45.87262" lon="4.76613">
        <ele>234</ele>
        <time>2017-12-13T10:17:14Z</time>
      </trkpt>
      <trkpt lat="45.87261" lon="4.76606">
        <ele>235</ele>
        <time>2017-12-13T10:17:15Z</time>
      </trkpt>
      <trkpt lat="45.8726" lon="4.766">
        <ele>235</ele>
        <time>2017-12-13T10:17:16Z</time>
      </trkpt>
      <trkpt lat="45.8726" lon="4.76592">
        <ele>235</ele>
        <time>2017-12-13T10:17:17Z</time>
      </trkpt>
      <trkpt lat="45.8726" lon="4.76585">
        <ele>235</ele>
        <time>2017-12-13T10:17:18Z</time>
      </trkpt>
      <trkpt lat="45.8726" lon="4.76578">
        <ele>236</ele>
        <time>2017-12-13T10:17:19Z</time>
      </trkpt>
      <trkpt lat="45.8726" lon="4.76571">
        <ele>236</ele>
        <time>2017-12-13T10:17:20Z</time>
      </trkpt>
      <trkpt lat="45.87259" lon="4.76563">
        <ele>235</ele>
        <time>2017-12-13T10:17:21Z</time>
      </trkpt>
      <trkpt lat="45.8726" lon="4.76555">
        <ele>235</ele>
        <time>2017-12-13T10:17:22Z</time>
      </trkpt>
      <trkpt lat="45.87258" lon="4.76547">
        <ele>235</ele>
        <time>2017-12-13T10:17:23Z</time>
      </trkpt>
      <trkpt lat="45.87259" lon="4.7654">
        <ele>236</ele>
        <time>2017-12-13T10:17:24Z</time>
      </trkpt>
      <trkpt lat="45.87259" lon="4.76534">
        <ele>236</ele>
        <time>2017-12-13T10:17:25Z</time>
      </trkpt>
      <trkpt lat="45.87258" lon="4.76522">
        <ele>236</ele>
        <time>2017-12-13T10:17:27Z</time>
      </trkpt>
      <trkpt lat="45.87258" lon="4.76516">
        <ele>236</ele>
        <time>2017-12-13T10:17:28Z</time>
      </trkpt>
      <trkpt lat="45.87257" lon="4.76505">
        <ele>236</ele>
        <time>2017-12-13T10:17:30Z</time>
      </trkpt>
      <trkpt lat="45.87257" lon="4.76497">
        <ele>236</ele>
        <time>2017-12-13T10:17:31Z</time>
      </trkpt>
      <trkpt lat="45.87257" lon="4.76491">
        <ele>236</ele>
        <time>2017-12-13T10:17:32Z</time>
      </trkpt>
      <trkpt lat="45.87257" lon="4.76484">
        <ele>236</ele>
        <time>2017-12-13T10:17:33Z</time>
      </trkpt>
      <trkpt lat="45.87257" lon="4.76477">
        <ele>236</ele>
        <time>2017-12-13T10:17:34Z</time>
      </trkpt>
      <trkpt lat="45.87257" lon="4.76471">
        <ele>236</ele>
        <time>2017-12-13T10:17:35Z</time>
      </trkpt>
      <trkpt lat="45.87257" lon="4.76464">
        <ele>235</ele>
        <time>2017-12-13T10:17:36Z</time>
      </trkpt>
      <trkpt lat="45.87257" lon="4.76456">
        <ele>235</ele>
        <time>2017-12-13T10:17:37Z</time>
      </trkpt>
      <trkpt lat="45.87257" lon="4.76448">
        <ele>235</ele>
        <time>2017-12-13T10:17:38Z</time>
      </trkpt>
      <trkpt lat="45.87257" lon="4.7644">
        <ele>235</ele>
        <time>2017-12-13T10:17:39Z</time>
      </trkpt>
      <trkpt lat="45.87257" lon="4.76432">
        <ele>235</ele>
        <time>2017-12-13T10:17:40Z</time>
      </trkpt>
      <trkpt lat="45.87257" lon="4.76424">
        <ele>236</ele>
        <time>2017-12-13T10:17:41Z</time>
      </trkpt>
      <trkpt lat="45.87257" lon="4.76417">
        <ele>236</ele>
        <time>2017-12-13T10:17:42Z</time>
      </trkpt>
      <trkpt lat="45.87256" lon="4.7641">
        <ele>235</ele>
        <time>2017-12-13T10:17:43Z</time>
      </trkpt>
      <trkpt lat="45.87255" lon="4.76403">
        <ele>235</ele>
        <time>2017-12-13T10:17:44Z</time>
      </trkpt>
      <trkpt lat="45.87256" lon="4.76395">
        <ele>234</ele>
        <time>2017-12-13T10:17:45Z</time>
      </trkpt>
      <trkpt lat="45.87255" lon="4.76383">
        <ele>234</ele>
        <time>2017-12-13T10:17:47Z</time>
      </trkpt>
      <trkpt lat="45.87255" lon="4.76376">
        <ele>234</ele>
        <time>2017-12-13T10:17:48Z</time>
      </trkpt>
      <trkpt lat="45.87254" lon="4.7637">
        <ele>234</ele>
        <time>2017-12-13T10:17:49Z</time>
      </trkpt>
      <trkpt lat="45.87254" lon="4.76363">
        <ele>234</ele>
        <time>2017-12-13T10:17:50Z</time>
      </trkpt>
      <trkpt lat="45.87254" lon="4.76356">
        <ele>234</ele>
        <time>2017-12-13T10:17:51Z</time>
      </trkpt>
      <trkpt lat="45.87253" lon="4.76349">
        <ele>234</ele>
        <time>2017-12-13T10:17:52Z</time>
      </trkpt>
      <trkpt lat="45.87253" lon="4.76341">
        <ele>234</ele>
        <time>2017-12-13T10:17:53Z</time>
      </trkpt>
      <trkpt lat="45.87253" lon="4.76335">
        <ele>234</ele>
        <time>2017-12-13T10:17:54Z</time>
      </trkpt>
      <trkpt lat="45.87253" lon="4.76327">
        <ele>234</ele>
        <time>2017-12-13T10:17:55Z</time>
      </trkpt>
      <trkpt lat="45.87252" lon="4.7632">
        <ele>233</ele>
        <time>2017-12-13T10:17:56Z</time>
      </trkpt>
      <trkpt lat="45.87253" lon="4.76313">
        <ele>233</ele>
        <time>2017-12-13T10:17:57Z</time>
      </trkpt>
      <trkpt lat="45.87253" lon="4.76307">
        <ele>233</ele>
        <time>2017-12-13T10:17:58Z</time>
      </trkpt>
      <trkpt lat="45.87253" lon="4.76298">
        <ele>233</ele>
        <time>2017-12-13T10:17:59Z</time>
      </trkpt>
      <trkpt lat="45.87252" lon="4.7629">
        <ele>233</ele>
        <time>2017-12-13T10:18:00Z</time>
      </trkpt>
      <trkpt lat="45.87252" lon="4.76282">
        <ele>233</ele>
        <time>2017-12-13T10:18:01Z</time>
      </trkpt>
      <trkpt lat="45.87252" lon="4.76272">
        <ele>233</ele>
        <time>2017-12-13T10:18:02Z</time>
      </trkpt>
      <trkpt lat="45.87251" lon="4.76265">
        <ele>234</ele>
        <time>2017-12-13T10:18:03Z</time>
      </trkpt>
      <trkpt lat="45.87252" lon="4.76256">
        <ele>234</ele>
        <time>2017-12-13T10:18:04Z</time>
      </trkpt>
      <trkpt lat="45.87252" lon="4.76249">
        <ele>235</ele>
        <time>2017-12-13T10:18:05Z</time>
      </trkpt>
      <trkpt lat="45.87252" lon="4.76242">
        <ele>234</ele>
        <time>2017-12-13T10:18:06Z</time>
      </trkpt>
      <trkpt lat="45.87252" lon="4.76233">
        <ele>233</ele>
        <time>2017-12-13T10:18:07Z</time>
      </trkpt>
      <trkpt lat="45.87252" lon="4.76226">
        <ele>233</ele>
        <time>2017-12-13T10:18:08Z</time>
      </trkpt>
      <trkpt lat="45.8725" lon="4.76218">
        <ele>235</ele>
        <time>2017-12-13T10:18:09Z</time>
      </trkpt>
      <trkpt lat="45.87249" lon="4.76211">
        <ele>234</ele>
        <time>2017-12-13T10:18:10Z</time>
      </trkpt>
      <trkpt lat="45.87248" lon="4.76204">
        <ele>234</ele>
        <time>2017-12-13T10:18:11Z</time>
      </trkpt>
      <trkpt lat="45.87248" lon="4.76195">
        <ele>234</ele>
        <time>2017-12-13T10:18:12Z</time>
      </trkpt>
      <trkpt lat="45.87248" lon="4.76187">
        <ele>234</ele>
        <time>2017-12-13T10:18:13Z</time>
      </trkpt>
      <trkpt lat="45.87247" lon="4.76179">
        <ele>233</ele>
        <time>2017-12-13T10:18:14Z</time>
      </trkpt>
      <trkpt lat="45.87247" lon="4.76172">
        <ele>233</ele>
        <time>2017-12-13T10:18:15Z</time>
      </trkpt>
      <trkpt lat="45.87247" lon="4.76164">
        <ele>232</ele>
        <time>2017-12-13T10:18:16Z</time>
      </trkpt>
      <trkpt lat="45.87246" lon="4.76155">
        <ele>232</ele>
        <time>2017-12-13T10:18:17Z</time>
      </trkpt>
      <trkpt lat="45.87246" lon="4.76147">
        <ele>232</ele>
        <time>2017-12-13T10:18:18Z</time>
      </trkpt>
      <trkpt lat="45.87245" lon="4.76139">
        <ele>232</ele>
        <time>2017-12-13T10:18:19Z</time>
      </trkpt>
      <trkpt lat="45.87245" lon="4.76131">
        <ele>232</ele>
        <time>2017-12-13T10:18:20Z</time>
      </trkpt>
      <trkpt lat="45.87244" lon="4.76123">
        <ele>232</ele>
        <time>2017-12-13T10:18:21Z</time>
      </trkpt>
      <trkpt lat="45.87244" lon="4.76115">
        <ele>232</ele>
        <time>2017-12-13T10:18:22Z</time>
      </trkpt>
      <trkpt lat="45.87243" lon="4.76107">
        <ele>232</ele>
        <time>2017-12-13T10:18:23Z</time>
      </trkpt>
      <trkpt lat="45.87243" lon="4.761">
        <ele>231</ele>
        <time>2017-12-13T10:18:24Z</time>
      </trkpt>
      <trkpt lat="45.87242" lon="4.76093">
        <ele>231</ele>
        <time>2017-12-13T10:18:25Z</time>
      </trkpt>
      <trkpt lat="45.87242" lon="4.76085">
        <ele>231</ele>
        <time>2017-12-13T10:18:26Z</time>
      </trkpt>
      <trkpt lat="45.87241" lon="4.76076">
        <ele>230</ele>
        <time>2017-12-13T10:18:27Z</time>
      </trkpt>
      <trkpt lat="45.87241" lon="4.76069">
        <ele>230</ele>
        <time>2017-12-13T10:18:28Z</time>
      </trkpt>
      <trkpt lat="45.8724" lon="4.76062">
        <ele>230</ele>
        <time>2017-12-13T10:18:29Z</time>
      </trkpt>
      <trkpt lat="45.8724" lon="4.76055">
        <ele>230</ele>
        <time>2017-12-13T10:18:30Z</time>
      </trkpt>
      <trkpt lat="45.8724" lon="4.76043">
        <ele>230</ele>
        <time>2017-12-13T10:18:32Z</time>
      </trkpt>
      <trkpt lat="45.87238" lon="4.76036">
        <ele>230</ele>
        <time>2017-12-13T10:18:33Z</time>
      </trkpt>
      <trkpt lat="45.87237" lon="4.76028">
        <ele>230</ele>
        <time>2017-12-13T10:18:34Z</time>
      </trkpt>
      <trkpt lat="45.87236" lon="4.76019">
        <ele>230</ele>
        <time>2017-12-13T10:18:35Z</time>
      </trkpt>
      <trkpt lat="45.87235" lon="4.76011">
        <ele>229</ele>
        <time>2017-12-13T10:18:36Z</time>
      </trkpt>
      <trkpt lat="45.87234" lon="4.76002">
        <ele>229</ele>
        <time>2017-12-13T10:18:37Z</time>
      </trkpt>
      <trkpt lat="45.87232" lon="4.75993">
        <ele>228</ele>
        <time>2017-12-13T10:18:38Z</time>
      </trkpt>
      <trkpt lat="45.87231" lon="4.75982">
        <ele>228</ele>
        <time>2017-12-13T10:18:39Z</time>
      </trkpt>
      <trkpt lat="45.87229" lon="4.75972">
        <ele>228</ele>
        <time>2017-12-13T10:18:40Z</time>
      </trkpt>
      <trkpt lat="45.87228" lon="4.75962">
        <ele>228</ele>
        <time>2017-12-13T10:18:41Z</time>
      </trkpt>
      <trkpt lat="45.87227" lon="4.75951">
        <ele>228</ele>
        <time>2017-12-13T10:18:42Z</time>
      </trkpt>
      <trkpt lat="45.87226" lon="4.75941">
        <ele>228</ele>
        <time>2017-12-13T10:18:43Z</time>
      </trkpt>
      <trkpt lat="45.87225" lon="4.7593">
        <ele>228</ele>
        <time>2017-12-13T10:18:44Z</time>
      </trkpt>
      <trkpt lat="45.87225" lon="4.75919">
        <ele>228</ele>
        <time>2017-12-13T10:18:45Z</time>
      </trkpt>
      <trkpt lat="45.87223" lon="4.75908">
        <ele>227</ele>
        <time>2017-12-13T10:18:46Z</time>
      </trkpt>
      <trkpt lat="45.87223" lon="4.75898">
        <ele>227</ele>
        <time>2017-12-13T10:18:47Z</time>
      </trkpt>
      <trkpt lat="45.87221" lon="4.75888">
        <ele>227</ele>
        <time>2017-12-13T10:18:48Z</time>
      </trkpt>
      <trkpt lat="45.87221" lon="4.75879">
        <ele>226</ele>
        <time>2017-12-13T10:18:49Z</time>
      </trkpt>
      <trkpt lat="45.87219" lon="4.75868">
        <ele>226</ele>
        <time>2017-12-13T10:18:50Z</time>
      </trkpt>
      <trkpt lat="45.87217" lon="4.75858">
        <ele>226</ele>
        <time>2017-12-13T10:18:51Z</time>
      </trkpt>
      <trkpt lat="45.87216" lon="4.75848">
        <ele>226</ele>
        <time>2017-12-13T10:18:52Z</time>
      </trkpt>
      <trkpt lat="45.87214" lon="4.75837">
        <ele>226</ele>
        <time>2017-12-13T10:18:53Z</time>
      </trkpt>
      <trkpt lat="45.87212" lon="4.75827">
        <ele>225</ele>
        <time>2017-12-13T10:18:54Z</time>
      </trkpt>
      <trkpt lat="45.8721" lon="4.75818">
        <ele>225</ele>
        <time>2017-12-13T10:18:55Z</time>
      </trkpt>
      <trkpt lat="45.87209" lon="4.75809">
        <ele>224</ele>
        <time>2017-12-13T10:18:56Z</time>
      </trkpt>
      <trkpt lat="45.87206" lon="4.75799">
        <ele>224</ele>
        <time>2017-12-13T10:18:57Z</time>
      </trkpt>
      <trkpt lat="45.87204" lon="4.7579">
        <ele>224</ele>
        <time>2017-12-13T10:18:58Z</time>
      </trkpt>
      <trkpt lat="45.87202" lon="4.75781">
        <ele>224</ele>
        <time>2017-12-13T10:18:59Z</time>
      </trkpt>
      <trkpt lat="45.87199" lon="4.75773">
        <ele>224</ele>
        <time>2017-12-13T10:19:00Z</time>
      </trkpt>
      <trkpt lat="45.87196" lon="4.75765">
        <ele>224</ele>
        <time>2017-12-13T10:19:01Z</time>
      </trkpt>
      <trkpt lat="45.87194" lon="4.75757">
        <ele>224</ele>
        <time>2017-12-13T10:19:02Z</time>
      </trkpt>
      <trkpt lat="45.87191" lon="4.75749">
        <ele>223</ele>
        <time>2017-12-13T10:19:03Z</time>
      </trkpt>
      <trkpt lat="45.87189" lon="4.7574">
        <ele>223</ele>
        <time>2017-12-13T10:19:04Z</time>
      </trkpt>
      <trkpt lat="45.87188" lon="4.75733">
        <ele>223</ele>
        <time>2017-12-13T10:19:05Z</time>
      </trkpt>
      <trkpt lat="45.87185" lon="4.75726">
        <ele>223</ele>
        <time>2017-12-13T10:19:06Z</time>
      </trkpt>
      <trkpt lat="45.87184" lon="4.75719">
        <ele>223</ele>
        <time>2017-12-13T10:19:07Z</time>
      </trkpt>
      <trkpt lat="45.87182" lon="4.75711">
        <ele>223</ele>
        <time>2017-12-13T10:19:08Z</time>
      </trkpt>
      <trkpt lat="45.87181" lon="4.75704">
        <ele>223</ele>
        <time>2017-12-13T10:19:09Z</time>
      </trkpt>
      <trkpt lat="45.8718" lon="4.75696">
        <ele>223</ele>
        <time>2017-12-13T10:19:10Z</time>
      </trkpt>
      <trkpt lat="45.87179" lon="4.75689">
        <ele>223</ele>
        <time>2017-12-13T10:19:11Z</time>
      </trkpt>
      <trkpt lat="45.87179" lon="4.75681">
        <ele>223</ele>
        <time>2017-12-13T10:19:12Z</time>
      </trkpt>
      <trkpt lat="45.87178" lon="4.75674">
        <ele>223</ele>
        <time>2017-12-13T10:19:13Z</time>
      </trkpt>
      <trkpt lat="45.87177" lon="4.75665">
        <ele>223</ele>
        <time>2017-12-13T10:19:14Z</time>
      </trkpt>
      <trkpt lat="45.87177" lon="4.75657">
        <ele>222</ele>
        <time>2017-12-13T10:19:15Z</time>
      </trkpt>
      <trkpt lat="45.87177" lon="4.75649">
        <ele>222</ele>
        <time>2017-12-13T10:19:16Z</time>
      </trkpt>
      <trkpt lat="45.87177" lon="4.75642">
        <ele>222</ele>
        <time>2017-12-13T10:19:17Z</time>
      </trkpt>
      <trkpt lat="45.87177" lon="4.75632">
        <ele>222</ele>
        <time>2017-12-13T10:19:18Z</time>
      </trkpt>
      <trkpt lat="45.87177" lon="4.75624">
        <ele>222</ele>
        <time>2017-12-13T10:19:19Z</time>
      </trkpt>
      <trkpt lat="45.87177" lon="4.75617">
        <ele>222</ele>
        <time>2017-12-13T10:19:20Z</time>
      </trkpt>
      <trkpt lat="45.87177" lon="4.75609">
        <ele>222</ele>
        <time>2017-12-13T10:19:21Z</time>
      </trkpt>
      <trkpt lat="45.87177" lon="4.756">
        <ele>222</ele>
        <time>2017-12-13T10:19:22Z</time>
      </trkpt>
      <trkpt lat="45.87178" lon="4.75592">
        <ele>222</ele>
        <time>2017-12-13T10:19:23Z</time>
      </trkpt>
      <trkpt lat="45.87178" lon="4.75582">
        <ele>223</ele>
        <time>2017-12-13T10:19:24Z</time>
      </trkpt>
      <trkpt lat="45.87178" lon="4.75573">
        <ele>222</ele>
        <time>2017-12-13T10:19:25Z</time>
      </trkpt>
      <trkpt lat="45.87178" lon="4.75563">
        <ele>222</ele>
        <time>2017-12-13T10:19:26Z</time>
      </trkpt>
      <trkpt lat="45.87178" lon="4.75554">
        <ele>222</ele>
        <time>2017-12-13T10:19:27Z</time>
      </trkpt>
      <trkpt lat="45.87178" lon="4.75543">
        <ele>222</ele>
        <time>2017-12-13T10:19:28Z</time>
      </trkpt>
      <trkpt lat="45.87178" lon="4.75533">
        <ele>222</ele>
        <time>2017-12-13T10:19:29Z</time>
      </trkpt>
      <trkpt lat="45.87178" lon="4.75524">
        <ele>222</ele>
        <time>2017-12-13T10:19:30Z</time>
      </trkpt>
      <trkpt lat="45.87178" lon="4.75514">
        <ele>222</ele>
        <time>2017-12-13T10:19:31Z</time>
      </trkpt>
      <trkpt lat="45.87178" lon="4.75506">
        <ele>223</ele>
        <time>2017-12-13T10:19:32Z</time>
      </trkpt>
      <trkpt lat="45.87178" lon="4.75496">
        <ele>223</ele>
        <time>2017-12-13T10:19:33Z</time>
      </trkpt>
      <trkpt lat="45.87178" lon="4.75488">
        <ele>223</ele>
        <time>2017-12-13T10:19:34Z</time>
      </trkpt>
      <trkpt lat="45.87178" lon="4.75479">
        <ele>222</ele>
        <time>2017-12-13T10:19:35Z</time>
      </trkpt>
      <trkpt lat="45.87178" lon="4.7547">
        <ele>222</ele>
        <time>2017-12-13T10:19:36Z</time>
      </trkpt>
      <trkpt lat="45.87177" lon="4.75463">
        <ele>222</ele>
        <time>2017-12-13T10:19:37Z</time>
      </trkpt>
      <trkpt lat="45.87177" lon="4.75456">
        <ele>222</ele>
        <time>2017-12-13T10:19:38Z</time>
      </trkpt>
      <trkpt lat="45.87177" lon="4.75448">
        <ele>222</ele>
        <time>2017-12-13T10:19:39Z</time>
      </trkpt>
      <trkpt lat="45.87176" lon="4.75441">
        <ele>222</ele>
        <time>2017-12-13T10:19:40Z</time>
      </trkpt>
      <trkpt lat="45.87177" lon="4.75434">
        <ele>222</ele>
        <time>2017-12-13T10:19:41Z</time>
      </trkpt>
      <trkpt lat="45.87176" lon="4.75427">
        <ele>223</ele>
        <time>2017-12-13T10:19:42Z</time>
      </trkpt>
      <trkpt lat="45.87176" lon="4.75419">
        <ele>223</ele>
        <time>2017-12-13T10:19:43Z</time>
      </trkpt>
      <trkpt lat="45.87175" lon="4.75411">
        <ele>223</ele>
        <time>2017-12-13T10:19:44Z</time>
      </trkpt>
      <trkpt lat="45.87175" lon="4.75403">
        <ele>223</ele>
        <time>2017-12-13T10:19:45Z</time>
      </trkpt>
      <trkpt lat="45.87175" lon="4.75395">
        <ele>223</ele>
        <time>2017-12-13T10:19:46Z</time>
      </trkpt>
      <trkpt lat="45.87175" lon="4.75387">
        <ele>223</ele>
        <time>2017-12-13T10:19:47Z</time>
      </trkpt>
      <trkpt lat="45.87175" lon="4.75378">
        <ele>223</ele>
        <time>2017-12-13T10:19:48Z</time>
      </trkpt>
      <trkpt lat="45.87174" lon="4.7537">
        <ele>223</ele>
        <time>2017-12-13T10:19:49Z</time>
      </trkpt>
      <trkpt lat="45.87174" lon="4.75361">
        <ele>223</ele>
        <time>2017-12-13T10:19:50Z</time>
      </trkpt>
      <trkpt lat="45.87174" lon="4.75354">
        <ele>223</ele>
        <time>2017-12-13T10:19:51Z</time>
      </trkpt>
      <trkpt lat="45.87174" lon="4.75346">
        <ele>223</ele>
        <time>2017-12-13T10:19:52Z</time>
      </trkpt>
      <trkpt lat="45.87173" lon="4.75339">
        <ele>224</ele>
        <time>2017-12-13T10:19:53Z</time>
      </trkpt>
      <trkpt lat="45.87172" lon="4.75331">
        <ele>224</ele>
        <time>2017-12-13T10:19:54Z</time>
      </trkpt>
      <trkpt lat="45.87172" lon="4.75324">
        <ele>224</ele>
        <time>2017-12-13T10:19:55Z</time>
      </trkpt>
      <trkpt lat="45.87172" lon="4.75317">
        <ele>223</ele>
        <time>2017-12-13T10:19:56Z</time>
      </trkpt>
      <trkpt lat="45.87172" lon="4.7531">
        <ele>223</ele>
        <time>2017-12-13T10:19:57Z</time>
      </trkpt>
      <trkpt lat="45.87171" lon="4.75303">
        <ele>223</ele>
        <time>2017-12-13T10:19:58Z</time>
      </trkpt>
      <trkpt lat="45.8717" lon="4.75296">
        <ele>223</ele>
        <time>2017-12-13T10:19:59Z</time>
      </trkpt>
      <trkpt lat="45.87169" lon="4.75289">
        <ele>223</ele>
        <time>2017-12-13T10:20:00Z</time>
      </trkpt>
      <trkpt lat="45.87169" lon="4.75283">
        <ele>223</ele>
        <time>2017-12-13T10:20:01Z</time>
      </trkpt>
      <trkpt lat="45.87169" lon="4.75276">
        <ele>223</ele>
        <time>2017-12-13T10:20:02Z</time>
      </trkpt>
      <trkpt lat="45.87168" lon="4.7527">
        <ele>223</ele>
        <time>2017-12-13T10:20:03Z</time>
      </trkpt>
      <trkpt lat="45.87167" lon="4.75263">
        <ele>223</ele>
        <time>2017-12-13T10:20:04Z</time>
      </trkpt>
      <trkpt lat="45.87166" lon="4.75255">
        <ele>223</ele>
        <time>2017-12-13T10:20:05Z</time>
      </trkpt>
      <trkpt lat="45.87165" lon="4.75249">
        <ele>223</ele>
        <time>2017-12-13T10:20:06Z</time>
      </trkpt>
      <trkpt lat="45.87164" lon="4.75242">
        <ele>224</ele>
        <time>2017-12-13T10:20:07Z</time>
      </trkpt>
      <trkpt lat="45.87162" lon="4.75235">
        <ele>224</ele>
        <time>2017-12-13T10:20:08Z</time>
      </trkpt>
      <trkpt lat="45.8716" lon="4.75229">
        <ele>224</ele>
        <time>2017-12-13T10:20:09Z</time>
      </trkpt>
      <trkpt lat="45.87159" lon="4.75223">
        <ele>224</ele>
        <time>2017-12-13T10:20:10Z</time>
      </trkpt>
      <trkpt lat="45.87157" lon="4.75217">
        <ele>225</ele>
        <time>2017-12-13T10:20:11Z</time>
      </trkpt>
      <trkpt lat="45.87155" lon="4.7521">
        <ele>225</ele>
        <time>2017-12-13T10:20:12Z</time>
      </trkpt>
      <trkpt lat="45.87154" lon="4.75203">
        <ele>225</ele>
        <time>2017-12-13T10:20:13Z</time>
      </trkpt>
      <trkpt lat="45.87152" lon="4.75195">
        <ele>225</ele>
        <time>2017-12-13T10:20:14Z</time>
      </trkpt>
      <trkpt lat="45.8715" lon="4.75188">
        <ele>225</ele>
        <time>2017-12-13T10:20:15Z</time>
      </trkpt>
      <trkpt lat="45.87148" lon="4.75181">
        <ele>225</ele>
        <time>2017-12-13T10:20:16Z</time>
      </trkpt>
      <trkpt lat="45.87147" lon="4.75174">
        <ele>225</ele>
        <time>2017-12-13T10:20:17Z</time>
      </trkpt>
      <trkpt lat="45.87146" lon="4.75167">
        <ele>225</ele>
        <time>2017-12-13T10:20:18Z</time>
      </trkpt>
      <trkpt lat="45.87144" lon="4.7516">
        <ele>225</ele>
        <time>2017-12-13T10:20:19Z</time>
      </trkpt>
      <trkpt lat="45.87144" lon="4.75153">
        <ele>225</ele>
        <time>2017-12-13T10:20:20Z</time>
      </trkpt>
      <trkpt lat="45.87142" lon="4.75147">
        <ele>225</ele>
        <time>2017-12-13T10:20:21Z</time>
      </trkpt>
      <trkpt lat="45.87141" lon="4.7514">
        <ele>225</ele>
        <time>2017-12-13T10:20:22Z</time>
      </trkpt>
      <trkpt lat="45.8714" lon="4.75134">
        <ele>225</ele>
        <time>2017-12-13T10:20:23Z</time>
      </trkpt>
      <trkpt lat="45.87139" lon="4.75128">
        <ele>225</ele>
        <time>2017-12-13T10:20:24Z</time>
      </trkpt>
      <trkpt lat="45.87138" lon="4.75121">
        <ele>225</ele>
        <time>2017-12-13T10:20:25Z</time>
      </trkpt>
      <trkpt lat="45.87136" lon="4.75108">
        <ele>225</ele>
        <time>2017-12-13T10:20:27Z</time>
      </trkpt>
      <trkpt lat="45.87135" lon="4.75103">
        <ele>225</ele>
        <time>2017-12-13T10:20:28Z</time>
      </trkpt>
      <trkpt lat="45.87134" lon="4.75091">
        <ele>225</ele>
        <time>2017-12-13T10:20:30Z</time>
      </trkpt>
      <trkpt lat="45.87133" lon="4.75084">
        <ele>225</ele>
        <time>2017-12-13T10:20:31Z</time>
      </trkpt>
      <trkpt lat="45.87132" lon="4.75077">
        <ele>225</ele>
        <time>2017-12-13T10:20:32Z</time>
      </trkpt>
      <trkpt lat="45.8713" lon="4.7507">
        <ele>225</ele>
        <time>2017-12-13T10:20:33Z</time>
      </trkpt>
      <trkpt lat="45.8713" lon="4.75064">
        <ele>225</ele>
        <time>2017-12-13T10:20:34Z</time>
      </trkpt>
      <trkpt lat="45.87129" lon="4.75057">
        <ele>225</ele>
        <time>2017-12-13T10:20:35Z</time>
      </trkpt>
      <trkpt lat="45.87128" lon="4.7505">
        <ele>225</ele>
        <time>2017-12-13T10:20:36Z</time>
      </trkpt>
      <trkpt lat="45.87128" lon="4.75043">
        <ele>225</ele>
        <time>2017-12-13T10:20:37Z</time>
      </trkpt>
      <trkpt lat="45.87127" lon="4.75037">
        <ele>226</ele>
        <time>2017-12-13T10:20:38Z</time>
      </trkpt>
      <trkpt lat="45.87127" lon="4.7503">
        <ele>226</ele>
        <time>2017-12-13T10:20:39Z</time>
      </trkpt>
      <trkpt lat="45.87127" lon="4.75017">
        <ele>226</ele>
        <time>2017-12-13T10:20:41Z</time>
      </trkpt>
      <trkpt lat="45.87128" lon="4.75012">
        <ele>226</ele>
        <time>2017-12-13T10:20:42Z</time>
      </trkpt>
      <trkpt lat="45.87128" lon="4.75005">
        <ele>226</ele>
        <time>2017-12-13T10:20:43Z</time>
      </trkpt>
      <trkpt lat="45.87128" lon="4.74998">
        <ele>226</ele>
        <time>2017-12-13T10:20:44Z</time>
      </trkpt>
      <trkpt lat="45.87128" lon="4.74991">
        <ele>226</ele>
        <time>2017-12-13T10:20:45Z</time>
      </trkpt>
      <trkpt lat="45.87129" lon="4.74985">
        <ele>226</ele>
        <time>2017-12-13T10:20:46Z</time>
      </trkpt>
      <trkpt lat="45.87131" lon="4.74978">
        <ele>226</ele>
        <time>2017-12-13T10:20:47Z</time>
      </trkpt>
      <trkpt lat="45.87131" lon="4.7497">
        <ele>226</ele>
        <time>2017-12-13T10:20:48Z</time>
      </trkpt>
      <trkpt lat="45.87131" lon="4.74962">
        <ele>226</ele>
        <time>2017-12-13T10:20:49Z</time>
      </trkpt>
      <trkpt lat="45.87132" lon="4.74956">
        <ele>226</ele>
        <time>2017-12-13T10:20:50Z</time>
      </trkpt>
      <trkpt lat="45.87135" lon="4.74949">
        <ele>226</ele>
        <time>2017-12-13T10:20:51Z</time>
      </trkpt>
      <trkpt lat="45.87139" lon="4.74943">
        <ele>226</ele>
        <time>2017-12-13T10:20:52Z</time>
      </trkpt>
      <trkpt lat="45.87143" lon="4.74934">
        <ele>226</ele>
        <time>2017-12-13T10:20:53Z</time>
      </trkpt>
      <trkpt lat="45.87146" lon="4.74926">
        <ele>226</ele>
        <time>2017-12-13T10:20:54Z</time>
      </trkpt>
      <trkpt lat="45.87147" lon="4.74918">
        <ele>226</ele>
        <time>2017-12-13T10:20:55Z</time>
      </trkpt>
      <trkpt lat="45.87145" lon="4.7491">
        <ele>225</ele>
        <time>2017-12-13T10:20:56Z</time>
      </trkpt>
      <trkpt lat="45.87143" lon="4.74902">
        <ele>225</ele>
        <time>2017-12-13T10:20:57Z</time>
      </trkpt>
      <trkpt lat="45.8714" lon="4.74895">
        <ele>225</ele>
        <time>2017-12-13T10:20:58Z</time>
      </trkpt>
      <trkpt lat="45.87137" lon="4.74887">
        <ele>225</ele>
        <time>2017-12-13T10:20:59Z</time>
      </trkpt>
      <trkpt lat="45.87136" lon="4.74879">
        <ele>225</ele>
        <time>2017-12-13T10:21:00Z</time>
      </trkpt>
      <trkpt lat="45.87136" lon="4.74872">
        <ele>225</ele>
        <time>2017-12-13T10:21:01Z</time>
      </trkpt>
      <trkpt lat="45.87135" lon="4.74864">
        <ele>225</ele>
        <time>2017-12-13T10:21:02Z</time>
      </trkpt>
      <trkpt lat="45.87133" lon="4.74856">
        <ele>224</ele>
        <time>2017-12-13T10:21:03Z</time>
      </trkpt>
      <trkpt lat="45.87133" lon="4.74847">
        <ele>224</ele>
        <time>2017-12-13T10:21:04Z</time>
      </trkpt>
      <trkpt lat="45.87133" lon="4.74839">
        <ele>224</ele>
        <time>2017-12-13T10:21:05Z</time>
      </trkpt>
      <trkpt lat="45.87133" lon="4.7483">
        <ele>223</ele>
        <time>2017-12-13T10:21:06Z</time>
      </trkpt>
      <trkpt lat="45.87132" lon="4.74822">
        <ele>223</ele>
        <time>2017-12-13T10:21:07Z</time>
      </trkpt>
      <trkpt lat="45.87132" lon="4.74813">
        <ele>223</ele>
        <time>2017-12-13T10:21:08Z</time>
      </trkpt>
      <trkpt lat="45.8713" lon="4.74805">
        <ele>222</ele>
        <time>2017-12-13T10:21:09Z</time>
      </trkpt>
      <trkpt lat="45.8713" lon="4.74796">
        <ele>222</ele>
        <time>2017-12-13T10:21:10Z</time>
      </trkpt>
      <trkpt lat="45.8713" lon="4.74787">
        <ele>222</ele>
        <time>2017-12-13T10:21:11Z</time>
      </trkpt>
      <trkpt lat="45.8713" lon="4.74779">
        <ele>222</ele>
        <time>2017-12-13T10:21:12Z</time>
      </trkpt>
      <trkpt lat="45.87131" lon="4.74769">
        <ele>222</ele>
        <time>2017-12-13T10:21:13Z</time>
      </trkpt>
      <trkpt lat="45.87131" lon="4.74761">
        <ele>222</ele>
        <time>2017-12-13T10:21:14Z</time>
      </trkpt>
      <trkpt lat="45.8713" lon="4.74753">
        <ele>222</ele>
        <time>2017-12-13T10:21:15Z</time>
      </trkpt>
      <trkpt lat="45.8713" lon="4.74743">
        <ele>221</ele>
        <time>2017-12-13T10:21:16Z</time>
      </trkpt>
      <trkpt lat="45.87129" lon="4.74734">
        <ele>221</ele>
        <time>2017-12-13T10:21:17Z</time>
      </trkpt>
      <trkpt lat="45.87128" lon="4.74724">
        <ele>221</ele>
        <time>2017-12-13T10:21:18Z</time>
      </trkpt>
      <trkpt lat="45.87127" lon="4.74715">
        <ele>221</ele>
        <time>2017-12-13T10:21:19Z</time>
      </trkpt>
      <trkpt lat="45.87127" lon="4.74707">
        <ele>221</ele>
        <time>2017-12-13T10:21:20Z</time>
      </trkpt>
      <trkpt lat="45.87126" lon="4.74698">
        <ele>221</ele>
        <time>2017-12-13T10:21:21Z</time>
      </trkpt>
      <trkpt lat="45.87126" lon="4.74688">
        <ele>221</ele>
        <time>2017-12-13T10:21:22Z</time>
      </trkpt>
      <trkpt lat="45.87124" lon="4.74679">
        <ele>221</ele>
        <time>2017-12-13T10:21:23Z</time>
      </trkpt>
      <trkpt lat="45.87124" lon="4.74671">
        <ele>221</ele>
        <time>2017-12-13T10:21:24Z</time>
      </trkpt>
      <trkpt lat="45.87123" lon="4.74661">
        <ele>222</ele>
        <time>2017-12-13T10:21:25Z</time>
      </trkpt>
      <trkpt lat="45.87123" lon="4.74653">
        <ele>222</ele>
        <time>2017-12-13T10:21:26Z</time>
      </trkpt>
      <trkpt lat="45.87123" lon="4.74644">
        <ele>222</ele>
        <time>2017-12-13T10:21:27Z</time>
      </trkpt>
      <trkpt lat="45.87122" lon="4.74635">
        <ele>222</ele>
        <time>2017-12-13T10:21:28Z</time>
      </trkpt>
      <trkpt lat="45.87121" lon="4.74627">
        <ele>222</ele>
        <time>2017-12-13T10:21:29Z</time>
      </trkpt>
      <trkpt lat="45.87121" lon="4.74618">
        <ele>222</ele>
        <time>2017-12-13T10:21:30Z</time>
      </trkpt>
      <trkpt lat="45.87121" lon="4.74608">
        <ele>222</ele>
        <time>2017-12-13T10:21:31Z</time>
      </trkpt>
      <trkpt lat="45.8712" lon="4.746">
        <ele>222</ele>
        <time>2017-12-13T10:21:32Z</time>
      </trkpt>
      <trkpt lat="45.87119" lon="4.74589">
        <ele>222</ele>
        <time>2017-12-13T10:21:33Z</time>
      </trkpt>
      <trkpt lat="45.87117" lon="4.7458">
        <ele>221</ele>
        <time>2017-12-13T10:21:34Z</time>
      </trkpt>
      <trkpt lat="45.87115" lon="4.74573">
        <ele>220</ele>
        <time>2017-12-13T10:21:35Z</time>
      </trkpt>
      <trkpt lat="45.87113" lon="4.74564">
        <ele>220</ele>
        <time>2017-12-13T10:21:36Z</time>
      </trkpt>
      <trkpt lat="45.8711" lon="4.74557">
        <ele>220</ele>
        <time>2017-12-13T10:21:37Z</time>
      </trkpt>
      <trkpt lat="45.87108" lon="4.7455">
        <ele>220</ele>
        <time>2017-12-13T10:21:38Z</time>
      </trkpt>
      <trkpt lat="45.87107" lon="4.74539">
        <ele>220</ele>
        <time>2017-12-13T10:21:40Z</time>
      </trkpt>
      <trkpt lat="45.87108" lon="4.74535">
        <ele>220</ele>
        <time>2017-12-13T10:21:41Z</time>
      </trkpt>
      <trkpt lat="45.87112" lon="4.74527">
        <ele>220</ele>
        <time>2017-12-13T10:21:43Z</time>
      </trkpt>
      <trkpt lat="45.87114" lon="4.74522">
        <ele>219</ele>
        <time>2017-12-13T10:21:44Z</time>
      </trkpt>
      <trkpt lat="45.87118" lon="4.74513">
        <ele>219</ele>
        <time>2017-12-13T10:21:46Z</time>
      </trkpt>
      <trkpt lat="45.87119" lon="4.74507">
        <ele>219</ele>
        <time>2017-12-13T10:21:47Z</time>
      </trkpt>
      <trkpt lat="45.87119" lon="4.745">
        <ele>218</ele>
        <time>2017-12-13T10:21:48Z</time>
      </trkpt>
      <trkpt lat="45.87118" lon="4.74493">
        <ele>218</ele>
        <time>2017-12-13T10:21:49Z</time>
      </trkpt>
      <trkpt lat="45.87116" lon="4.74487">
        <ele>218</ele>
        <time>2017-12-13T10:21:50Z</time>
      </trkpt>
      <trkpt lat="45.87114" lon="4.74481">
        <ele>218</ele>
        <time>2017-12-13T10:21:51Z</time>
      </trkpt>
      <trkpt lat="45.8711" lon="4.7447">
        <ele>218</ele>
        <time>2017-12-13T10:21:53Z</time>
      </trkpt>
      <trkpt lat="45.87108" lon="4.74464">
        <ele>218</ele>
        <time>2017-12-13T10:21:54Z</time>
      </trkpt>
      <trkpt lat="45.87107" lon="4.74457">
        <ele>218</ele>
        <time>2017-12-13T10:21:55Z</time>
      </trkpt>
      <trkpt lat="45.87105" lon="4.7445">
        <ele>218</ele>
        <time>2017-12-13T10:21:56Z</time>
      </trkpt>
      <trkpt lat="45.87104" lon="4.74442">
        <ele>218</ele>
        <time>2017-12-13T10:21:57Z</time>
      </trkpt>
      <trkpt lat="45.87102" lon="4.74434">
        <ele>218</ele>
        <time>2017-12-13T10:21:58Z</time>
      </trkpt>
      <trkpt lat="45.871" lon="4.74426">
        <ele>218</ele>
        <time>2017-12-13T10:21:59Z</time>
      </trkpt>
      <trkpt lat="45.87099" lon="4.74418">
        <ele>218</ele>
        <time>2017-12-13T10:22:00Z</time>
      </trkpt>
      <trkpt lat="45.87098" lon="4.74411">
        <ele>218</ele>
        <time>2017-12-13T10:22:01Z</time>
      </trkpt>
      <trkpt lat="45.87097" lon="4.74404">
        <ele>218</ele>
        <time>2017-12-13T10:22:02Z</time>
      </trkpt>
      <trkpt lat="45.87096" lon="4.74397">
        <ele>218</ele>
        <time>2017-12-13T10:22:03Z</time>
      </trkpt>
      <trkpt lat="45.87095" lon="4.74388">
        <ele>218</ele>
        <time>2017-12-13T10:22:04Z</time>
      </trkpt>
      <trkpt lat="45.87093" lon="4.7438">
        <ele>218</ele>
        <time>2017-12-13T10:22:05Z</time>
      </trkpt>
      <trkpt lat="45.87092" lon="4.74372">
        <ele>218</ele>
        <time>2017-12-13T10:22:06Z</time>
      </trkpt>
      <trkpt lat="45.87091" lon="4.74365">
        <ele>218</ele>
        <time>2017-12-13T10:22:07Z</time>
      </trkpt>
      <trkpt lat="45.87089" lon="4.74357">
        <ele>218</ele>
        <time>2017-12-13T10:22:08Z</time>
      </trkpt>
      <trkpt lat="45.87088" lon="4.74351">
        <ele>218</ele>
        <time>2017-12-13T10:22:09Z</time>
      </trkpt>
      <trkpt lat="45.87087" lon="4.74343">
        <ele>219</ele>
        <time>2017-12-13T10:22:10Z</time>
      </trkpt>
      <trkpt lat="45.87086" lon="4.74336">
        <ele>219</ele>
        <time>2017-12-13T10:22:11Z</time>
      </trkpt>
      <trkpt lat="45.87085" lon="4.74329">
        <ele>218</ele>
        <time>2017-12-13T10:22:12Z</time>
      </trkpt>
      <trkpt lat="45.87084" lon="4.74321">
        <ele>218</ele>
        <time>2017-12-13T10:22:13Z</time>
      </trkpt>
      <trkpt lat="45.87082" lon="4.74313">
        <ele>218</ele>
        <time>2017-12-13T10:22:14Z</time>
      </trkpt>
      <trkpt lat="45.87081" lon="4.74304">
        <ele>218</ele>
        <time>2017-12-13T10:22:15Z</time>
      </trkpt>
      <trkpt lat="45.8708" lon="4.74295">
        <ele>217</ele>
        <time>2017-12-13T10:22:16Z</time>
      </trkpt>
      <trkpt lat="45.87079" lon="4.74287">
        <ele>217</ele>
        <time>2017-12-13T10:22:17Z</time>
      </trkpt>
      <trkpt lat="45.87079" lon="4.74278">
        <ele>217</ele>
        <time>2017-12-13T10:22:18Z</time>
      </trkpt>
      <trkpt lat="45.87078" lon="4.74269">
        <ele>216</ele>
        <time>2017-12-13T10:22:19Z</time>
      </trkpt>
      <trkpt lat="45.87077" lon="4.7426">
        <ele>215</ele>
        <time>2017-12-13T10:22:20Z</time>
      </trkpt>
      <trkpt lat="45.87075" lon="4.74251">
        <ele>215</ele>
        <time>2017-12-13T10:22:21Z</time>
      </trkpt>
      <trkpt lat="45.87075" lon="4.74242">
        <ele>214</ele>
        <time>2017-12-13T10:22:22Z</time>
      </trkpt>
      <trkpt lat="45.87074" lon="4.74231">
        <ele>214</ele>
        <time>2017-12-13T10:22:23Z</time>
      </trkpt>
      <trkpt lat="45.87074" lon="4.74222">
        <ele>214</ele>
        <time>2017-12-13T10:22:24Z</time>
      </trkpt>
      <trkpt lat="45.87074" lon="4.74213">
        <ele>214</ele>
        <time>2017-12-13T10:22:25Z</time>
      </trkpt>
      <trkpt lat="45.87073" lon="4.74201">
        <ele>213</ele>
        <time>2017-12-13T10:22:26Z</time>
      </trkpt>
      <trkpt lat="45.87073" lon="4.74191">
        <ele>213</ele>
        <time>2017-12-13T10:22:27Z</time>
      </trkpt>
      <trkpt lat="45.87074" lon="4.74179">
        <ele>212</ele>
        <time>2017-12-13T10:22:28Z</time>
      </trkpt>
      <trkpt lat="45.87072" lon="4.74168">
        <ele>212</ele>
        <time>2017-12-13T10:22:29Z</time>
      </trkpt>
      <trkpt lat="45.87072" lon="4.74159">
        <ele>212</ele>
        <time>2017-12-13T10:22:30Z</time>
      </trkpt>
      <trkpt lat="45.87073" lon="4.7415">
        <ele>212</ele>
        <time>2017-12-13T10:22:31Z</time>
      </trkpt>
      <trkpt lat="45.87074" lon="4.74142">
        <ele>212</ele>
        <time>2017-12-13T10:22:32Z</time>
      </trkpt>
      <trkpt lat="45.87074" lon="4.74132">
        <ele>212</ele>
        <time>2017-12-13T10:22:33Z</time>
      </trkpt>
      <trkpt lat="45.87075" lon="4.74125">
        <ele>212</ele>
        <time>2017-12-13T10:22:34Z</time>
      </trkpt>
      <trkpt lat="45.87075" lon="4.74117">
        <ele>212</ele>
        <time>2017-12-13T10:22:35Z</time>
      </trkpt>
      <trkpt lat="45.87075" lon="4.7411">
        <ele>212</ele>
        <time>2017-12-13T10:22:36Z</time>
      </trkpt>
      <trkpt lat="45.87075" lon="4.74097">
        <ele>212</ele>
        <time>2017-12-13T10:22:38Z</time>
      </trkpt>
      <trkpt lat="45.87076" lon="4.7409">
        <ele>212</ele>
        <time>2017-12-13T10:22:39Z</time>
      </trkpt>
      <trkpt lat="45.87076" lon="4.74082">
        <ele>213</ele>
        <time>2017-12-13T10:22:40Z</time>
      </trkpt>
      <trkpt lat="45.87075" lon="4.74076">
        <ele>213</ele>
        <time>2017-12-13T10:22:41Z</time>
      </trkpt>
      <trkpt lat="45.87075" lon="4.7407">
        <ele>213</ele>
        <time>2017-12-13T10:22:42Z</time>
      </trkpt>
      <trkpt lat="45.87075" lon="4.74063">
        <ele>214</ele>
        <time>2017-12-13T10:22:43Z</time>
      </trkpt>
      <trkpt lat="45.87075" lon="4.74057">
        <ele>214</ele>
        <time>2017-12-13T10:22:44Z</time>
      </trkpt>
      <trkpt lat="45.87074" lon="4.7405">
        <ele>214</ele>
        <time>2017-12-13T10:22:45Z</time>
      </trkpt>
      <trkpt lat="45.87075" lon="4.74044">
        <ele>215</ele>
        <time>2017-12-13T10:22:46Z</time>
      </trkpt>
      <trkpt lat="45.87076" lon="4.74037">
        <ele>215</ele>
        <time>2017-12-13T10:22:47Z</time>
      </trkpt>
      <trkpt lat="45.87075" lon="4.74031">
        <ele>215</ele>
        <time>2017-12-13T10:22:48Z</time>
      </trkpt>
      <trkpt lat="45.87075" lon="4.74022">
        <ele>215</ele>
        <time>2017-12-13T10:22:49Z</time>
      </trkpt>
      <trkpt lat="45.87074" lon="4.74015">
        <ele>215</ele>
        <time>2017-12-13T10:22:50Z</time>
      </trkpt>
      <trkpt lat="45.87074" lon="4.74009">
        <ele>216</ele>
        <time>2017-12-13T10:22:51Z</time>
      </trkpt>
      <trkpt lat="45.87074" lon="4.73996">
        <ele>217</ele>
        <time>2017-12-13T10:22:53Z</time>
      </trkpt>
      <trkpt lat="45.87075" lon="4.7399">
        <ele>217</ele>
        <time>2017-12-13T10:22:54Z</time>
      </trkpt>
      <trkpt lat="45.87075" lon="4.73978">
        <ele>217</ele>
        <time>2017-12-13T10:22:56Z</time>
      </trkpt>
      <trkpt lat="45.87075" lon="4.73973">
        <ele>217</ele>
        <time>2017-12-13T10:22:57Z</time>
      </trkpt>
      <trkpt lat="45.87074" lon="4.73962">
        <ele>217</ele>
        <time>2017-12-13T10:22:59Z</time>
      </trkpt>
      <trkpt lat="45.87075" lon="4.73954">
        <ele>218</ele>
        <time>2017-12-13T10:23:00Z</time>
      </trkpt>
      <trkpt lat="45.87075" lon="4.73943">
        <ele>218</ele>
        <time>2017-12-13T10:23:02Z</time>
      </trkpt>
      <trkpt lat="45.87075" lon="4.73936">
        <ele>218</ele>
        <time>2017-12-13T10:23:03Z</time>
      </trkpt>
      <trkpt lat="45.87075" lon="4.73925">
        <ele>218</ele>
        <time>2017-12-13T10:23:05Z</time>
      </trkpt>
      <trkpt lat="45.87075" lon="4.73919">
        <ele>218</ele>
        <time>2017-12-13T10:23:06Z</time>
      </trkpt>
      <trkpt lat="45.87075" lon="4.73912">
        <ele>218</ele>
        <time>2017-12-13T10:23:07Z</time>
      </trkpt>
      <trkpt lat="45.87076" lon="4.73905">
        <ele>218</ele>
        <time>2017-12-13T10:23:08Z</time>
      </trkpt>
      <trkpt lat="45.87075" lon="4.73897">
        <ele>218</ele>
        <time>2017-12-13T10:23:09Z</time>
      </trkpt>
      <trkpt lat="45.87075" lon="4.7389">
        <ele>218</ele>
        <time>2017-12-13T10:23:10Z</time>
      </trkpt>
      <trkpt lat="45.87075" lon="4.73883">
        <ele>218</ele>
        <time>2017-12-13T10:23:11Z</time>
      </trkpt>
      <trkpt lat="45.87075" lon="4.73875">
        <ele>218</ele>
        <time>2017-12-13T10:23:12Z</time>
      </trkpt>
      <trkpt lat="45.87075" lon="4.73868">
        <ele>218</ele>
        <time>2017-12-13T10:23:13Z</time>
      </trkpt>
      <trkpt lat="45.87075" lon="4.73861">
        <ele>218</ele>
        <time>2017-12-13T10:23:14Z</time>
      </trkpt>
      <trkpt lat="45.87074" lon="4.73854">
        <ele>218</ele>
        <time>2017-12-13T10:23:15Z</time>
      </trkpt>
      <trkpt lat="45.87074" lon="4.73845">
        <ele>218</ele>
        <time>2017-12-13T10:23:16Z</time>
      </trkpt>
      <trkpt lat="45.87075" lon="4.73837">
        <ele>217</ele>
        <time>2017-12-13T10:23:17Z</time>
      </trkpt>
      <trkpt lat="45.87075" lon="4.7383">
        <ele>217</ele>
        <time>2017-12-13T10:23:18Z</time>
      </trkpt>
      <trkpt lat="45.87074" lon="4.73822">
        <ele>217</ele>
        <time>2017-12-13T10:23:19Z</time>
      </trkpt>
      <trkpt lat="45.87074" lon="4.73814">
        <ele>217</ele>
        <time>2017-12-13T10:23:20Z</time>
      </trkpt>
      <trkpt lat="45.87073" lon="4.73806">
        <ele>217</ele>
        <time>2017-12-13T10:23:21Z</time>
      </trkpt>
      <trkpt lat="45.87073" lon="4.73799">
        <ele>217</ele>
        <time>2017-12-13T10:23:22Z</time>
      </trkpt>
      <trkpt lat="45.87074" lon="4.7379">
        <ele>217</ele>
        <time>2017-12-13T10:23:23Z</time>
      </trkpt>
      <trkpt lat="45.87074" lon="4.73782">
        <ele>217</ele>
        <time>2017-12-13T10:23:24Z</time>
      </trkpt>
      <trkpt lat="45.87075" lon="4.73773">
        <ele>217</ele>
        <time>2017-12-13T10:23:25Z</time>
      </trkpt>
      <trkpt lat="45.87077" lon="4.73765">
        <ele>216</ele>
        <time>2017-12-13T10:23:26Z</time>
      </trkpt>
      <trkpt lat="45.87077" lon="4.73756">
        <ele>216</ele>
        <time>2017-12-13T10:23:27Z</time>
      </trkpt>
      <trkpt lat="45.87077" lon="4.73747">
        <ele>216</ele>
        <time>2017-12-13T10:23:28Z</time>
      </trkpt>
      <trkpt lat="45.87078" lon="4.73737">
        <ele>216</ele>
        <time>2017-12-13T10:23:29Z</time>
      </trkpt>
      <trkpt lat="45.87079" lon="4.73728">
        <ele>216</ele>
        <time>2017-12-13T10:23:30Z</time>
      </trkpt>
      <trkpt lat="45.8708" lon="4.73719">
        <ele>217</ele>
        <time>2017-12-13T10:23:31Z</time>
      </trkpt>
      <trkpt lat="45.87082" lon="4.7371">
        <ele>217</ele>
        <time>2017-12-13T10:23:32Z</time>
      </trkpt>
      <trkpt lat="45.87083" lon="4.73702">
        <ele>217</ele>
        <time>2017-12-13T10:23:33Z</time>
      </trkpt>
      <trkpt lat="45.87084" lon="4.73693">
        <ele>215</ele>
        <time>2017-12-13T10:23:34Z</time>
      </trkpt>
      <trkpt lat="45.87084" lon="4.73685">
        <ele>215</ele>
        <time>2017-12-13T10:23:35Z</time>
      </trkpt>
      <trkpt lat="45.87085" lon="4.73676">
        <ele>215</ele>
        <time>2017-12-13T10:23:36Z</time>
      </trkpt>
      <trkpt lat="45.87086" lon="4.73666">
        <ele>216</ele>
        <time>2017-12-13T10:23:37Z</time>
      </trkpt>
      <trkpt lat="45.87087" lon="4.73657">
        <ele>215</ele>
        <time>2017-12-13T10:23:38Z</time>
      </trkpt>
      <trkpt lat="45.87088" lon="4.73648">
        <ele>214</ele>
        <time>2017-12-13T10:23:39Z</time>
      </trkpt>
      <trkpt lat="45.8709" lon="4.73639">
        <ele>214</ele>
        <time>2017-12-13T10:23:40Z</time>
      </trkpt>
      <trkpt lat="45.87091" lon="4.73631">
        <ele>214</ele>
        <time>2017-12-13T10:23:41Z</time>
      </trkpt>
      <trkpt lat="45.87092" lon="4.73621">
        <ele>214</ele>
        <time>2017-12-13T10:23:42Z</time>
      </trkpt>
      <trkpt lat="45.87093" lon="4.73612">
        <ele>214</ele>
        <time>2017-12-13T10:23:43Z</time>
      </trkpt>
      <trkpt lat="45.87094" lon="4.73604">
        <ele>214</ele>
        <time>2017-12-13T10:23:44Z</time>
      </trkpt>
      <trkpt lat="45.87095" lon="4.73595">
        <ele>214</ele>
        <time>2017-12-13T10:23:45Z</time>
      </trkpt>
      <trkpt lat="45.87096" lon="4.73586">
        <ele>214</ele>
        <time>2017-12-13T10:23:46Z</time>
      </trkpt>
      <trkpt lat="45.87096" lon="4.73577">
        <ele>214</ele>
        <time>2017-12-13T10:23:47Z</time>
      </trkpt>
      <trkpt lat="45.87097" lon="4.73569">
        <ele>213</ele>
        <time>2017-12-13T10:23:48Z</time>
      </trkpt>
      <trkpt lat="45.87099" lon="4.73559">
        <ele>213</ele>
        <time>2017-12-13T10:23:49Z</time>
      </trkpt>
      <trkpt lat="45.871" lon="4.73551">
        <ele>213</ele>
        <time>2017-12-13T10:23:50Z</time>
      </trkpt>
      <trkpt lat="45.871" lon="4.73542">
        <ele>213</ele>
        <time>2017-12-13T10:23:51Z</time>
      </trkpt>
      <trkpt lat="45.87101" lon="4.73535">
        <ele>213</ele>
        <time>2017-12-13T10:23:52Z</time>
      </trkpt>
      <trkpt lat="45.87101" lon="4.73526">
        <ele>213</ele>
        <time>2017-12-13T10:23:53Z</time>
      </trkpt>
      <trkpt lat="45.87101" lon="4.73517">
        <ele>213</ele>
        <time>2017-12-13T10:23:54Z</time>
      </trkpt>
      <trkpt lat="45.87102" lon="4.73508">
        <ele>213</ele>
        <time>2017-12-13T10:23:55Z</time>
      </trkpt>
      <trkpt lat="45.87102" lon="4.735">
        <ele>213</ele>
        <time>2017-12-13T10:23:56Z</time>
      </trkpt>
      <trkpt lat="45.87102" lon="4.73492">
        <ele>213</ele>
        <time>2017-12-13T10:23:57Z</time>
      </trkpt>
      <trkpt lat="45.87103" lon="4.73484">
        <ele>212</ele>
        <time>2017-12-13T10:23:58Z</time>
      </trkpt>
      <trkpt lat="45.87103" lon="4.73475">
        <ele>212</ele>
        <time>2017-12-13T10:23:59Z</time>
      </trkpt>
      <trkpt lat="45.87103" lon="4.73467">
        <ele>212</ele>
        <time>2017-12-13T10:24:00Z</time>
      </trkpt>
      <trkpt lat="45.87104" lon="4.73458">
        <ele>212</ele>
        <time>2017-12-13T10:24:01Z</time>
      </trkpt>
      <trkpt lat="45.87104" lon="4.73448">
        <ele>212</ele>
        <time>2017-12-13T10:24:02Z</time>
      </trkpt>
      <trkpt lat="45.87104" lon="4.73438">
        <ele>212</ele>
        <time>2017-12-13T10:24:03Z</time>
      </trkpt>
      <trkpt lat="45.87104" lon="4.73429">
        <ele>212</ele>
        <time>2017-12-13T10:24:04Z</time>
      </trkpt>
      <trkpt lat="45.87104" lon="4.7342">
        <ele>213</ele>
        <time>2017-12-13T10:24:05Z</time>
      </trkpt>
      <trkpt lat="45.87104" lon="4.7341">
        <ele>212</ele>
        <time>2017-12-13T10:24:06Z</time>
      </trkpt>
      <trkpt lat="45.87105" lon="4.734">
        <ele>211</ele>
        <time>2017-12-13T10:24:07Z</time>
      </trkpt>
      <trkpt lat="45.87105" lon="4.73392">
        <ele>211</ele>
        <time>2017-12-13T10:24:08Z</time>
      </trkpt>
      <trkpt lat="45.87106" lon="4.73383">
        <ele>211</ele>
        <time>2017-12-13T10:24:09Z</time>
      </trkpt>
      <trkpt lat="45.87106" lon="4.73374">
        <ele>211</ele>
        <time>2017-12-13T10:24:10Z</time>
      </trkpt>
      <trkpt lat="45.87108" lon="4.73363">
        <ele>211</ele>
        <time>2017-12-13T10:24:11Z</time>
      </trkpt>
      <trkpt lat="45.87109" lon="4.73353">
        <ele>211</ele>
        <time>2017-12-13T10:24:12Z</time>
      </trkpt>
      <trkpt lat="45.8711" lon="4.73343">
        <ele>211</ele>
        <time>2017-12-13T10:24:13Z</time>
      </trkpt>
      <trkpt lat="45.87112" lon="4.73334">
        <ele>210</ele>
        <time>2017-12-13T10:24:14Z</time>
      </trkpt>
      <trkpt lat="45.87113" lon="4.73324">
        <ele>209</ele>
        <time>2017-12-13T10:24:15Z</time>
      </trkpt>
      <trkpt lat="45.87114" lon="4.73314">
        <ele>209</ele>
        <time>2017-12-13T10:24:16Z</time>
      </trkpt>
      <trkpt lat="45.87116" lon="4.73304">
        <ele>209</ele>
        <time>2017-12-13T10:24:17Z</time>
      </trkpt>
      <trkpt lat="45.87117" lon="4.73293">
        <ele>208</ele>
        <time>2017-12-13T10:24:18Z</time>
      </trkpt>
      <trkpt lat="45.87119" lon="4.73283">
        <ele>208</ele>
        <time>2017-12-13T10:24:19Z</time>
      </trkpt>
      <trkpt lat="45.87121" lon="4.73272">
        <ele>208</ele>
        <time>2017-12-13T10:24:20Z</time>
      </trkpt>
      <trkpt lat="45.87123" lon="4.73263">
        <ele>208</ele>
        <time>2017-12-13T10:24:21Z</time>
      </trkpt>
      <trkpt lat="45.87126" lon="4.73254">
        <ele>208</ele>
        <time>2017-12-13T10:24:22Z</time>
      </trkpt>
      <trkpt lat="45.87128" lon="4.73244">
        <ele>206</ele>
        <time>2017-12-13T10:24:23Z</time>
      </trkpt>
      <trkpt lat="45.87131" lon="4.73235">
        <ele>206</ele>
        <time>2017-12-13T10:24:24Z</time>
      </trkpt>
      <trkpt lat="45.87134" lon="4.73226">
        <ele>206</ele>
        <time>2017-12-13T10:24:25Z</time>
      </trkpt>
      <trkpt lat="45.87138" lon="4.73218">
        <ele>206</ele>
        <time>2017-12-13T10:24:26Z</time>
      </trkpt>
      <trkpt lat="45.87142" lon="4.73209">
        <ele>206</ele>
        <time>2017-12-13T10:24:27Z</time>
      </trkpt>
      <trkpt lat="45.87145" lon="4.73199">
        <ele>205</ele>
        <time>2017-12-13T10:24:28Z</time>
      </trkpt>
      <trkpt lat="45.87149" lon="4.7319">
        <ele>205</ele>
        <time>2017-12-13T10:24:29Z</time>
      </trkpt>
      <trkpt lat="45.87153" lon="4.73181">
        <ele>205</ele>
        <time>2017-12-13T10:24:30Z</time>
      </trkpt>
      <trkpt lat="45.87156" lon="4.73172">
        <ele>204</ele>
        <time>2017-12-13T10:24:31Z</time>
      </trkpt>
      <trkpt lat="45.87159" lon="4.73163">
        <ele>204</ele>
        <time>2017-12-13T10:24:32Z</time>
      </trkpt>
      <trkpt lat="45.87162" lon="4.73153">
        <ele>204</ele>
        <time>2017-12-13T10:24:33Z</time>
      </trkpt>
      <trkpt lat="45.87165" lon="4.73142">
        <ele>204</ele>
        <time>2017-12-13T10:24:34Z</time>
      </trkpt>
      <trkpt lat="45.87167" lon="4.73132">
        <ele>202</ele>
        <time>2017-12-13T10:24:35Z</time>
      </trkpt>
      <trkpt lat="45.87168" lon="4.73121">
        <ele>202</ele>
        <time>2017-12-13T10:24:36Z</time>
      </trkpt>
      <trkpt lat="45.87168" lon="4.73109">
        <ele>202</ele>
        <time>2017-12-13T10:24:37Z</time>
      </trkpt>
      <trkpt lat="45.87169" lon="4.73098">
        <ele>202</ele>
        <time>2017-12-13T10:24:38Z</time>
      </trkpt>
      <trkpt lat="45.8717" lon="4.73088">
        <ele>203</ele>
        <time>2017-12-13T10:24:39Z</time>
      </trkpt>
      <trkpt lat="45.8717" lon="4.73078">
        <ele>202</ele>
        <time>2017-12-13T10:24:40Z</time>
      </trkpt>
      <trkpt lat="45.8717" lon="4.73067">
        <ele>202</ele>
        <time>2017-12-13T10:24:41Z</time>
      </trkpt>
      <trkpt lat="45.8717" lon="4.73058">
        <ele>201</ele>
        <time>2017-12-13T10:24:42Z</time>
      </trkpt>
      <trkpt lat="45.8717" lon="4.73048">
        <ele>201</ele>
        <time>2017-12-13T10:24:43Z</time>
      </trkpt>
      <trkpt lat="45.8717" lon="4.73039">
        <ele>201</ele>
        <time>2017-12-13T10:24:44Z</time>
      </trkpt>
      <trkpt lat="45.8717" lon="4.73031">
        <ele>201</ele>
        <time>2017-12-13T10:24:45Z</time>
      </trkpt>
      <trkpt lat="45.8717" lon="4.73022">
        <ele>202</ele>
        <time>2017-12-13T10:24:46Z</time>
      </trkpt>
      <trkpt lat="45.8717" lon="4.73014">
        <ele>202</ele>
        <time>2017-12-13T10:24:47Z</time>
      </trkpt>
      <trkpt lat="45.8717" lon="4.73004">
        <ele>203</ele>
        <time>2017-12-13T10:24:48Z</time>
      </trkpt>
      <trkpt lat="45.8717" lon="4.72993">
        <ele>203</ele>
        <time>2017-12-13T10:24:49Z</time>
      </trkpt>
      <trkpt lat="45.87171" lon="4.72984">
        <ele>202</ele>
        <time>2017-12-13T10:24:50Z</time>
      </trkpt>
      <trkpt lat="45.8717" lon="4.72975">
        <ele>202</ele>
        <time>2017-12-13T10:24:51Z</time>
      </trkpt>
      <trkpt lat="45.8717" lon="4.72966">
        <ele>202</ele>
        <time>2017-12-13T10:24:52Z</time>
      </trkpt>
      <trkpt lat="45.87171" lon="4.72956">
        <ele>201</ele>
        <time>2017-12-13T10:24:53Z</time>
      </trkpt>
      <trkpt lat="45.8717" lon="4.72948">
        <ele>202</ele>
        <time>2017-12-13T10:24:54Z</time>
      </trkpt>
      <trkpt lat="45.8717" lon="4.72939">
        <ele>202</ele>
        <time>2017-12-13T10:24:55Z</time>
      </trkpt>
      <trkpt lat="45.8717" lon="4.7293">
        <ele>202</ele>
        <time>2017-12-13T10:24:56Z</time>
      </trkpt>
      <trkpt lat="45.87171" lon="4.72922">
        <ele>203</ele>
        <time>2017-12-13T10:24:57Z</time>
      </trkpt>
      <trkpt lat="45.87171" lon="4.72913">
        <ele>203</ele>
        <time>2017-12-13T10:24:58Z</time>
      </trkpt>
      <trkpt lat="45.8717" lon="4.72903">
        <ele>202</ele>
        <time>2017-12-13T10:24:59Z</time>
      </trkpt>
      <trkpt lat="45.87172" lon="4.72893">
        <ele>201</ele>
        <time>2017-12-13T10:25:00Z</time>
      </trkpt>
      <trkpt lat="45.87171" lon="4.72884">
        <ele>201</ele>
        <time>2017-12-13T10:25:01Z</time>
      </trkpt>
      <trkpt lat="45.87171" lon="4.72874">
        <ele>200</ele>
        <time>2017-12-13T10:25:02Z</time>
      </trkpt>
      <trkpt lat="45.87171" lon="4.72864">
        <ele>200</ele>
        <time>2017-12-13T10:25:03Z</time>
      </trkpt>
      <trkpt lat="45.87171" lon="4.72853">
        <ele>200</ele>
        <time>2017-12-13T10:25:04Z</time>
      </trkpt>
      <trkpt lat="45.87171" lon="4.72842">
        <ele>201</ele>
        <time>2017-12-13T10:25:05Z</time>
      </trkpt>
      <trkpt lat="45.87172" lon="4.72832">
        <ele>201</ele>
        <time>2017-12-13T10:25:06Z</time>
      </trkpt>
      <trkpt lat="45.87172" lon="4.72822">
        <ele>200</ele>
        <time>2017-12-13T10:25:07Z</time>
      </trkpt>
      <trkpt lat="45.87172" lon="4.72812">
        <ele>200</ele>
        <time>2017-12-13T10:25:08Z</time>
      </trkpt>
      <trkpt lat="45.87172" lon="4.72802">
        <ele>199</ele>
        <time>2017-12-13T10:25:09Z</time>
      </trkpt>
      <trkpt lat="45.87173" lon="4.72792">
        <ele>199</ele>
        <time>2017-12-13T10:25:10Z</time>
      </trkpt>
      <trkpt lat="45.87173" lon="4.72782">
        <ele>199</ele>
        <time>2017-12-13T10:25:11Z</time>
      </trkpt>
      <trkpt lat="45.87173" lon="4.72772">
        <ele>199</ele>
        <time>2017-12-13T10:25:12Z</time>
      </trkpt>
      <trkpt lat="45.87173" lon="4.72762">
        <ele>200</ele>
        <time>2017-12-13T10:25:13Z</time>
      </trkpt>
      <trkpt lat="45.87172" lon="4.72754">
        <ele>200</ele>
        <time>2017-12-13T10:25:14Z</time>
      </trkpt>
      <trkpt lat="45.87172" lon="4.72745">
        <ele>200</ele>
        <time>2017-12-13T10:25:15Z</time>
      </trkpt>
      <trkpt lat="45.87173" lon="4.72735">
        <ele>200</ele>
        <time>2017-12-13T10:25:16Z</time>
      </trkpt>
      <trkpt lat="45.87176" lon="4.72725">
        <ele>199</ele>
        <time>2017-12-13T10:25:17Z</time>
      </trkpt>
      <trkpt lat="45.87178" lon="4.72715">
        <ele>199</ele>
        <time>2017-12-13T10:25:18Z</time>
      </trkpt>
      <trkpt lat="45.87181" lon="4.72704">
        <ele>199</ele>
        <time>2017-12-13T10:25:19Z</time>
      </trkpt>
      <trkpt lat="45.87183" lon="4.72694">
        <ele>199</ele>
        <time>2017-12-13T10:25:20Z</time>
      </trkpt>
      <trkpt lat="45.87186" lon="4.72685">
        <ele>199</ele>
        <time>2017-12-13T10:25:21Z</time>
      </trkpt>
      <trkpt lat="45.87188" lon="4.72675">
        <ele>199</ele>
        <time>2017-12-13T10:25:22Z</time>
      </trkpt>
      <trkpt lat="45.87191" lon="4.72665">
        <ele>199</ele>
        <time>2017-12-13T10:25:23Z</time>
      </trkpt>
      <trkpt lat="45.87194" lon="4.72654">
        <ele>199</ele>
        <time>2017-12-13T10:25:24Z</time>
      </trkpt>
      <trkpt lat="45.87196" lon="4.72644">
        <ele>199</ele>
        <time>2017-12-13T10:25:25Z</time>
      </trkpt>
      <trkpt lat="45.87199" lon="4.72634">
        <ele>199</ele>
        <time>2017-12-13T10:25:26Z</time>
      </trkpt>
      <trkpt lat="45.872" lon="4.72624">
        <ele>199</ele>
        <time>2017-12-13T10:25:27Z</time>
      </trkpt>
      <trkpt lat="45.87203" lon="4.72612">
        <ele>199</ele>
        <time>2017-12-13T10:25:28Z</time>
      </trkpt>
      <trkpt lat="45.87205" lon="4.72602">
        <ele>199</ele>
        <time>2017-12-13T10:25:29Z</time>
      </trkpt>
      <trkpt lat="45.87208" lon="4.72591">
        <ele>199</ele>
        <time>2017-12-13T10:25:30Z</time>
      </trkpt>
      <trkpt lat="45.87209" lon="4.7258">
        <ele>199</ele>
        <time>2017-12-13T10:25:31Z</time>
      </trkpt>
      <trkpt lat="45.8721" lon="4.72569">
        <ele>199</ele>
        <time>2017-12-13T10:25:32Z</time>
      </trkpt>
      <trkpt lat="45.87211" lon="4.72558">
        <ele>198</ele>
        <time>2017-12-13T10:25:33Z</time>
      </trkpt>
      <trkpt lat="45.87211" lon="4.72547">
        <ele>198</ele>
        <time>2017-12-13T10:25:34Z</time>
      </trkpt>
      <trkpt lat="45.8721" lon="4.72535">
        <ele>198</ele>
        <time>2017-12-13T10:25:35Z</time>
      </trkpt>
      <trkpt lat="45.87209" lon="4.72524">
        <ele>198</ele>
        <time>2017-12-13T10:25:36Z</time>
      </trkpt>
      <trkpt lat="45.87208" lon="4.72513">
        <ele>198</ele>
        <time>2017-12-13T10:25:37Z</time>
      </trkpt>
      <trkpt lat="45.87206" lon="4.72502">
        <ele>198</ele>
        <time>2017-12-13T10:25:38Z</time>
      </trkpt>
      <trkpt lat="45.87204" lon="4.72491">
        <ele>195</ele>
        <time>2017-12-13T10:25:39Z</time>
      </trkpt>
      <trkpt lat="45.87201" lon="4.72481">
        <ele>195</ele>
        <time>2017-12-13T10:25:40Z</time>
      </trkpt>
      <trkpt lat="45.87197" lon="4.7247">
        <ele>195</ele>
        <time>2017-12-13T10:25:41Z</time>
      </trkpt>
      <trkpt lat="45.87193" lon="4.72461">
        <ele>195</ele>
        <time>2017-12-13T10:25:42Z</time>
      </trkpt>
      <trkpt lat="45.8719" lon="4.72452">
        <ele>194</ele>
        <time>2017-12-13T10:25:43Z</time>
      </trkpt>
      <trkpt lat="45.87186" lon="4.72444">
        <ele>194</ele>
        <time>2017-12-13T10:25:44Z</time>
      </trkpt>
      <trkpt lat="45.87182" lon="4.72435">
        <ele>194</ele>
        <time>2017-12-13T10:25:45Z</time>
      </trkpt>
      <trkpt lat="45.87179" lon="4.72428">
        <ele>194</ele>
        <time>2017-12-13T10:25:46Z</time>
      </trkpt>
      <trkpt lat="45.87176" lon="4.72419">
        <ele>194</ele>
        <time>2017-12-13T10:25:47Z</time>
      </trkpt>
      <trkpt lat="45.87173" lon="4.72413">
        <ele>193</ele>
        <time>2017-12-13T10:25:48Z</time>
      </trkpt>
      <trkpt lat="45.8717" lon="4.72405">
        <ele>192</ele>
        <time>2017-12-13T10:25:49Z</time>
      </trkpt>
      <trkpt lat="45.87167" lon="4.72398">
        <ele>196</ele>
        <time>2017-12-13T10:25:50Z</time>
      </trkpt>
      <trkpt lat="45.87164" lon="4.7239">
        <ele>197</ele>
        <time>2017-12-13T10:25:51Z</time>
      </trkpt>
      <trkpt lat="45.8716" lon="4.72382">
        <ele>197</ele>
        <time>2017-12-13T10:25:52Z</time>
      </trkpt>
      <trkpt lat="45.87157" lon="4.72374">
        <ele>197</ele>
        <time>2017-12-13T10:25:53Z</time>
      </trkpt>
      <trkpt lat="45.87154" lon="4.72367">
        <ele>197</ele>
        <time>2017-12-13T10:25:54Z</time>
      </trkpt>
      <trkpt lat="45.87151" lon="4.7236">
        <ele>196</ele>
        <time>2017-12-13T10:25:55Z</time>
      </trkpt>
      <trkpt lat="45.87148" lon="4.72352">
        <ele>196</ele>
        <time>2017-12-13T10:25:56Z</time>
      </trkpt>
      <trkpt lat="45.87144" lon="4.72344">
        <ele>196</ele>
        <time>2017-12-13T10:25:57Z</time>
      </trkpt>
      <trkpt lat="45.8714" lon="4.72335">
        <ele>196</ele>
        <time>2017-12-13T10:25:58Z</time>
      </trkpt>
      <trkpt lat="45.87137" lon="4.72327">
        <ele>195</ele>
        <time>2017-12-13T10:25:59Z</time>
      </trkpt>
      <trkpt lat="45.87133" lon="4.7232">
        <ele>195</ele>
        <time>2017-12-13T10:26:00Z</time>
      </trkpt>
      <trkpt lat="45.8713" lon="4.72312">
        <ele>196</ele>
        <time>2017-12-13T10:26:01Z</time>
      </trkpt>
      <trkpt lat="45.87127" lon="4.72305">
        <ele>196</ele>
        <time>2017-12-13T10:26:02Z</time>
      </trkpt>
      <trkpt lat="45.87123" lon="4.72298">
        <ele>196</ele>
        <time>2017-12-13T10:26:03Z</time>
      </trkpt>
      <trkpt lat="45.8712" lon="4.72291">
        <ele>196</ele>
        <time>2017-12-13T10:26:04Z</time>
      </trkpt>
      <trkpt lat="45.87116" lon="4.72285">
        <ele>197</ele>
        <time>2017-12-13T10:26:05Z</time>
      </trkpt>
      <trkpt lat="45.87112" lon="4.72279">
        <ele>197</ele>
        <time>2017-12-13T10:26:06Z</time>
      </trkpt>
      <trkpt lat="45.87107" lon="4.72273">
        <ele>197</ele>
        <time>2017-12-13T10:26:07Z</time>
      </trkpt>
      <trkpt lat="45.87103" lon="4.72268">
        <ele>197</ele>
        <time>2017-12-13T10:26:08Z</time>
      </trkpt>
      <trkpt lat="45.87098" lon="4.72261">
        <ele>198</ele>
        <time>2017-12-13T10:26:09Z</time>
      </trkpt>
      <trkpt lat="45.87093" lon="4.72256">
        <ele>198</ele>
        <time>2017-12-13T10:26:10Z</time>
      </trkpt>
      <trkpt lat="45.87088" lon="4.7225">
        <ele>199</ele>
        <time>2017-12-13T10:26:11Z</time>
      </trkpt>
      <trkpt lat="45.87083" lon="4.72244">
        <ele>199</ele>
        <time>2017-12-13T10:26:12Z</time>
      </trkpt>
      <trkpt lat="45.87078" lon="4.72238">
        <ele>200</ele>
        <time>2017-12-13T10:26:13Z</time>
      </trkpt>
      <trkpt lat="45.87074" lon="4.72233">
        <ele>200</ele>
        <time>2017-12-13T10:26:14Z</time>
      </trkpt>
      <trkpt lat="45.87069" lon="4.72228">
        <ele>200</ele>
        <time>2017-12-13T10:26:15Z</time>
      </trkpt>
      <trkpt lat="45.87064" lon="4.72224">
        <ele>200</ele>
        <time>2017-12-13T10:26:16Z</time>
      </trkpt>
      <trkpt lat="45.87059" lon="4.7222">
        <ele>200</ele>
        <time>2017-12-13T10:26:17Z</time>
      </trkpt>
      <trkpt lat="45.87055" lon="4.72217">
        <ele>200</ele>
        <time>2017-12-13T10:26:18Z</time>
      </trkpt>
      <trkpt lat="45.8705" lon="4.72213">
        <ele>200</ele>
        <time>2017-12-13T10:26:19Z</time>
      </trkpt>
      <trkpt lat="45.87046" lon="4.7221">
        <ele>201</ele>
        <time>2017-12-13T10:26:20Z</time>
      </trkpt>
      <trkpt lat="45.87041" lon="4.72207">
        <ele>201</ele>
        <time>2017-12-13T10:26:21Z</time>
      </trkpt>
      <trkpt lat="45.87035" lon="4.72203">
        <ele>201</ele>
        <time>2017-12-13T10:26:22Z</time>
      </trkpt>
      <trkpt lat="45.87032" lon="4.72199">
        <ele>201</ele>
        <time>2017-12-13T10:26:23Z</time>
      </trkpt>
      <trkpt lat="45.87027" lon="4.72195">
        <ele>201</ele>
        <time>2017-12-13T10:26:24Z</time>
      </trkpt>
      <trkpt lat="45.87022" lon="4.72191">
        <ele>201</ele>
        <time>2017-12-13T10:26:25Z</time>
      </trkpt>
      <trkpt lat="45.87017" lon="4.72187">
        <ele>201</ele>
        <time>2017-12-13T10:26:26Z</time>
      </trkpt>
      <trkpt lat="45.87011" lon="4.72183">
        <ele>201</ele>
        <time>2017-12-13T10:26:27Z</time>
      </trkpt>
      <trkpt lat="45.87006" lon="4.72179">
        <ele>201</ele>
        <time>2017-12-13T10:26:28Z</time>
      </trkpt>
      <trkpt lat="45.87001" lon="4.72175">
        <ele>201</ele>
        <time>2017-12-13T10:26:29Z</time>
      </trkpt>
      <trkpt lat="45.86995" lon="4.72172">
        <ele>204</ele>
        <time>2017-12-13T10:26:30Z</time>
      </trkpt>
      <trkpt lat="45.86991" lon="4.7217">
        <ele>205</ele>
        <time>2017-12-13T10:26:31Z</time>
      </trkpt>
      <trkpt lat="45.86987" lon="4.72166">
        <ele>201</ele>
        <time>2017-12-13T10:26:32Z</time>
      </trkpt>
      <trkpt lat="45.86982" lon="4.72163">
        <ele>201</ele>
        <time>2017-12-13T10:26:33Z</time>
      </trkpt>
      <trkpt lat="45.86976" lon="4.72159">
        <ele>201</ele>
        <time>2017-12-13T10:26:34Z</time>
      </trkpt>
      <trkpt lat="45.8697" lon="4.72155">
        <ele>201</ele>
        <time>2017-12-13T10:26:35Z</time>
      </trkpt>
      <trkpt lat="45.86965" lon="4.72151">
        <ele>201</ele>
        <time>2017-12-13T10:26:36Z</time>
      </trkpt>
      <trkpt lat="45.86959" lon="4.72148">
        <ele>201</ele>
        <time>2017-12-13T10:26:37Z</time>
      </trkpt>
      <trkpt lat="45.86954" lon="4.72145">
        <ele>201</ele>
        <time>2017-12-13T10:26:38Z</time>
      </trkpt>
      <trkpt lat="45.86949" lon="4.72142">
        <ele>201</ele>
        <time>2017-12-13T10:26:39Z</time>
      </trkpt>
      <trkpt lat="45.86945" lon="4.72139">
        <ele>201</ele>
        <time>2017-12-13T10:26:40Z</time>
      </trkpt>
      <trkpt lat="45.8694" lon="4.72136">
        <ele>201</ele>
        <time>2017-12-13T10:26:41Z</time>
      </trkpt>
      <trkpt lat="45.86934" lon="4.72132">
        <ele>201</ele>
        <time>2017-12-13T10:26:42Z</time>
      </trkpt>
      <trkpt lat="45.86929" lon="4.7213">
        <ele>201</ele>
        <time>2017-12-13T10:26:43Z</time>
      </trkpt>
      <trkpt lat="45.86924" lon="4.72127">
        <ele>200</ele>
        <time>2017-12-13T10:26:44Z</time>
      </trkpt>
      <trkpt lat="45.86918" lon="4.72124">
        <ele>200</ele>
        <time>2017-12-13T10:26:45Z</time>
      </trkpt>
      <trkpt lat="45.86912" lon="4.72122">
        <ele>202</ele>
        <time>2017-12-13T10:26:46Z</time>
      </trkpt>
      <trkpt lat="45.86907" lon="4.7212">
        <ele>201</ele>
        <time>2017-12-13T10:26:47Z</time>
      </trkpt>
      <trkpt lat="45.86901" lon="4.72118">
        <ele>201</ele>
        <time>2017-12-13T10:26:48Z</time>
      </trkpt>
      <trkpt lat="45.86895" lon="4.72116">
        <ele>201</ele>
        <time>2017-12-13T10:26:49Z</time>
      </trkpt>
      <trkpt lat="45.8689" lon="4.72113">
        <ele>201</ele>
        <time>2017-12-13T10:26:50Z</time>
      </trkpt>
      <trkpt lat="45.86884" lon="4.7211">
        <ele>201</ele>
        <time>2017-12-13T10:26:51Z</time>
      </trkpt>
      <trkpt lat="45.86879" lon="4.72108">
        <ele>201</ele>
        <time>2017-12-13T10:26:52Z</time>
      </trkpt>
      <trkpt lat="45.86874" lon="4.72106">
        <ele>200</ele>
        <time>2017-12-13T10:26:53Z</time>
      </trkpt>
      <trkpt lat="45.86869" lon="4.72104">
        <ele>200</ele>
        <time>2017-12-13T10:26:54Z</time>
      </trkpt>
      <trkpt lat="45.86864" lon="4.72102">
        <ele>200</ele>
        <time>2017-12-13T10:26:55Z</time>
      </trkpt>
      <trkpt lat="45.86859" lon="4.72099">
        <ele>200</ele>
        <time>2017-12-13T10:26:56Z</time>
      </trkpt>
      <trkpt lat="45.86854" lon="4.72098">
        <ele>199</ele>
        <time>2017-12-13T10:26:57Z</time>
      </trkpt>
      <trkpt lat="45.86848" lon="4.72096">
        <ele>198</ele>
        <time>2017-12-13T10:26:58Z</time>
      </trkpt>
      <trkpt lat="45.86843" lon="4.72094">
        <ele>197</ele>
        <time>2017-12-13T10:26:59Z</time>
      </trkpt>
      <trkpt lat="45.86838" lon="4.72091">
        <ele>196</ele>
        <time>2017-12-13T10:27:00Z</time>
      </trkpt>
      <trkpt lat="45.86833" lon="4.72089">
        <ele>196</ele>
        <time>2017-12-13T10:27:01Z</time>
      </trkpt>
      <trkpt lat="45.86828" lon="4.72086">
        <ele>196</ele>
        <time>2017-12-13T10:27:02Z</time>
      </trkpt>
      <trkpt lat="45.86823" lon="4.72084">
        <ele>197</ele>
        <time>2017-12-13T10:27:03Z</time>
      </trkpt>
      <trkpt lat="45.86817" lon="4.72082">
        <ele>194</ele>
        <time>2017-12-13T10:27:04Z</time>
      </trkpt>
      <trkpt lat="45.86812" lon="4.7208">
        <ele>194</ele>
        <time>2017-12-13T10:27:05Z</time>
      </trkpt>
      <trkpt lat="45.86806" lon="4.72079">
        <ele>194</ele>
        <time>2017-12-13T10:27:06Z</time>
      </trkpt>
      <trkpt lat="45.86801" lon="4.72077">
        <ele>194</ele>
        <time>2017-12-13T10:27:07Z</time>
      </trkpt>
      <trkpt lat="45.86795" lon="4.72075">
        <ele>194</ele>
        <time>2017-12-13T10:27:08Z</time>
      </trkpt>
      <trkpt lat="45.8679" lon="4.72073">
        <ele>194</ele>
        <time>2017-12-13T10:27:09Z</time>
      </trkpt>
      <trkpt lat="45.86785" lon="4.72072">
        <ele>194</ele>
        <time>2017-12-13T10:27:10Z</time>
      </trkpt>
      <trkpt lat="45.8678" lon="4.72071">
        <ele>194</ele>
        <time>2017-12-13T10:27:11Z</time>
      </trkpt>
      <trkpt lat="45.86775" lon="4.72069">
        <ele>195</ele>
        <time>2017-12-13T10:27:12Z</time>
      </trkpt>
      <trkpt lat="45.86771" lon="4.72067">
        <ele>195</ele>
        <time>2017-12-13T10:27:13Z</time>
      </trkpt>
      <trkpt lat="45.86767" lon="4.72065">
        <ele>195</ele>
        <time>2017-12-13T10:27:14Z</time>
      </trkpt>
      <trkpt lat="45.86762" lon="4.72063">
        <ele>195</ele>
        <time>2017-12-13T10:27:15Z</time>
      </trkpt>
      <trkpt lat="45.86757" lon="4.72061">
        <ele>195</ele>
        <time>2017-12-13T10:27:16Z</time>
      </trkpt>
      <trkpt lat="45.86753" lon="4.72058">
        <ele>195</ele>
        <time>2017-12-13T10:27:17Z</time>
      </trkpt>
      <trkpt lat="45.86748" lon="4.72056">
        <ele>197</ele>
        <time>2017-12-13T10:27:18Z</time>
      </trkpt>
      <trkpt lat="45.8674" lon="4.72052">
        <ele>197</ele>
        <time>2017-12-13T10:27:20Z</time>
      </trkpt>
      <trkpt lat="45.86736" lon="4.7205">
        <ele>197</ele>
        <time>2017-12-13T10:27:21Z</time>
      </trkpt>
      <trkpt lat="45.86728" lon="4.72046">
        <ele>197</ele>
        <time>2017-12-13T10:27:23Z</time>
      </trkpt>
      <trkpt lat="45.86724" lon="4.72043">
        <ele>197</ele>
        <time>2017-12-13T10:27:24Z</time>
      </trkpt>
      <trkpt lat="45.86716" lon="4.72038">
        <ele>197</ele>
        <time>2017-12-13T10:27:26Z</time>
      </trkpt>
      <trkpt lat="45.86711" lon="4.72036">
        <ele>197</ele>
        <time>2017-12-13T10:27:27Z</time>
      </trkpt>
      <trkpt lat="45.86705" lon="4.72031">
        <ele>197</ele>
        <time>2017-12-13T10:27:29Z</time>
      </trkpt>
      <trkpt lat="45.86701" lon="4.72027">
        <ele>197</ele>
        <time>2017-12-13T10:27:30Z</time>
      </trkpt>
      <trkpt lat="45.86697" lon="4.72024">
        <ele>197</ele>
        <time>2017-12-13T10:27:31Z</time>
      </trkpt>
      <trkpt lat="45.86693" lon="4.72021">
        <ele>197</ele>
        <time>2017-12-13T10:27:32Z</time>
      </trkpt>
      <trkpt lat="45.86685" lon="4.72015">
        <ele>196</ele>
        <time>2017-12-13T10:27:34Z</time>
      </trkpt>
      <trkpt lat="45.86681" lon="4.72011">
        <ele>196</ele>
        <time>2017-12-13T10:27:35Z</time>
      </trkpt>
      <trkpt lat="45.86677" lon="4.72008">
        <ele>196</ele>
        <time>2017-12-13T10:27:36Z</time>
      </trkpt>
      <trkpt lat="45.86673" lon="4.72004">
        <ele>196</ele>
        <time>2017-12-13T10:27:37Z</time>
      </trkpt>
      <trkpt lat="45.86668" lon="4.72001">
        <ele>195</ele>
        <time>2017-12-13T10:27:38Z</time>
      </trkpt>
      <trkpt lat="45.86664" lon="4.71997">
        <ele>195</ele>
        <time>2017-12-13T10:27:39Z</time>
      </trkpt>
      <trkpt lat="45.8666" lon="4.71994">
        <ele>195</ele>
        <time>2017-12-13T10:27:40Z</time>
      </trkpt>
      <trkpt lat="45.86656" lon="4.71992">
        <ele>195</ele>
        <time>2017-12-13T10:27:41Z</time>
      </trkpt>
      <trkpt lat="45.86649" lon="4.71985">
        <ele>195</ele>
        <time>2017-12-13T10:27:43Z</time>
      </trkpt>
      <trkpt lat="45.86645" lon="4.71981">
        <ele>195</ele>
        <time>2017-12-13T10:27:44Z</time>
      </trkpt>
      <trkpt lat="45.86641" lon="4.71978">
        <ele>195</ele>
        <time>2017-12-13T10:27:45Z</time>
      </trkpt>
      <trkpt lat="45.86637" lon="4.71975">
        <ele>195</ele>
        <time>2017-12-13T10:27:46Z</time>
      </trkpt>
      <trkpt lat="45.8663" lon="4.71969">
        <ele>195</ele>
        <time>2017-12-13T10:27:48Z</time>
      </trkpt>
      <trkpt lat="45.86626" lon="4.71964">
        <ele>195</ele>
        <time>2017-12-13T10:27:49Z</time>
      </trkpt>
      <trkpt lat="45.86619" lon="4.71958">
        <ele>194</ele>
        <time>2017-12-13T10:27:51Z</time>
      </trkpt>
      <trkpt lat="45.86615" lon="4.71955">
        <ele>194</ele>
        <time>2017-12-13T10:27:52Z</time>
      </trkpt>
      <trkpt lat="45.86607" lon="4.71949">
        <ele>194</ele>
        <time>2017-12-13T10:27:54Z</time>
      </trkpt>
      <trkpt lat="45.86603" lon="4.71945">
        <ele>194</ele>
        <time>2017-12-13T10:27:55Z</time>
      </trkpt>
      <trkpt lat="45.86595" lon="4.7194">
        <ele>194</ele>
        <time>2017-12-13T10:27:57Z</time>
      </trkpt>
      <trkpt lat="45.86591" lon="4.71935">
        <ele>194</ele>
        <time>2017-12-13T10:27:58Z</time>
      </trkpt>
      <trkpt lat="45.86587" lon="4.71932">
        <ele>194</ele>
        <time>2017-12-13T10:27:59Z</time>
      </trkpt>
      <trkpt lat="45.86582" lon="4.71927">
        <ele>195</ele>
        <time>2017-12-13T10:28:00Z</time>
      </trkpt>
      <trkpt lat="45.86575" lon="4.71922">
        <ele>195</ele>
        <time>2017-12-13T10:28:02Z</time>
      </trkpt>
      <trkpt lat="45.86571" lon="4.71919">
        <ele>195</ele>
        <time>2017-12-13T10:28:03Z</time>
      </trkpt>
      <trkpt lat="45.86563" lon="4.71913">
        <ele>195</ele>
        <time>2017-12-13T10:28:05Z</time>
      </trkpt>
      <trkpt lat="45.86559" lon="4.7191">
        <ele>195</ele>
        <time>2017-12-13T10:28:06Z</time>
      </trkpt>
      <trkpt lat="45.86555" lon="4.71906">
        <ele>195</ele>
        <time>2017-12-13T10:28:07Z</time>
      </trkpt>
      <trkpt lat="45.86551" lon="4.71902">
        <ele>195</ele>
        <time>2017-12-13T10:28:08Z</time>
      </trkpt>
      <trkpt lat="45.86546" lon="4.71898">
        <ele>195</ele>
        <time>2017-12-13T10:28:09Z</time>
      </trkpt>
      <trkpt lat="45.86542" lon="4.71894">
        <ele>195</ele>
        <time>2017-12-13T10:28:10Z</time>
      </trkpt>
      <trkpt lat="45.86534" lon="4.71889">
        <ele>195</ele>
        <time>2017-12-13T10:28:12Z</time>
      </trkpt>
      <trkpt lat="45.8653" lon="4.71887">
        <ele>195</ele>
        <time>2017-12-13T10:28:13Z</time>
      </trkpt>
      <trkpt lat="45.86522" lon="4.7188">
        <ele>195</ele>
        <time>2017-12-13T10:28:15Z</time>
      </trkpt>
      <trkpt lat="45.86518" lon="4.71878">
        <ele>195</ele>
        <time>2017-12-13T10:28:16Z</time>
      </trkpt>
      <trkpt lat="45.8651" lon="4.71873">
        <ele>195</ele>
        <time>2017-12-13T10:28:18Z</time>
      </trkpt>
      <trkpt lat="45.86506" lon="4.7187">
        <ele>195</ele>
        <time>2017-12-13T10:28:19Z</time>
      </trkpt>
      <trkpt lat="45.86502" lon="4.71866">
        <ele>195</ele>
        <time>2017-12-13T10:28:20Z</time>
      </trkpt>
      <trkpt lat="45.86498" lon="4.71863">
        <ele>198</ele>
        <time>2017-12-13T10:28:21Z</time>
      </trkpt>
      <trkpt lat="45.86491" lon="4.71856">
        <ele>198</ele>
        <time>2017-12-13T10:28:23Z</time>
      </trkpt>
      <trkpt lat="45.86488" lon="4.71852">
        <ele>198</ele>
        <time>2017-12-13T10:28:24Z</time>
      </trkpt>
      <trkpt lat="45.86483" lon="4.71849">
        <ele>198</ele>
        <time>2017-12-13T10:28:25Z</time>
      </trkpt>
      <trkpt lat="45.86479" lon="4.71845">
        <ele>198</ele>
        <time>2017-12-13T10:28:26Z</time>
      </trkpt>
      <trkpt lat="45.86475" lon="4.71841">
        <ele>198</ele>
        <time>2017-12-13T10:28:27Z</time>
      </trkpt>
      <trkpt lat="45.8647" lon="4.71839">
        <ele>199</ele>
        <time>2017-12-13T10:28:28Z</time>
      </trkpt>
      <trkpt lat="45.86465" lon="4.71835">
        <ele>199</ele>
        <time>2017-12-13T10:28:29Z</time>
      </trkpt>
      <trkpt lat="45.86461" lon="4.71831">
        <ele>196</ele>
        <time>2017-12-13T10:28:30Z</time>
      </trkpt>
      <trkpt lat="45.86456" lon="4.71827">
        <ele>197</ele>
        <time>2017-12-13T10:28:31Z</time>
      </trkpt>
      <trkpt lat="45.86452" lon="4.71823">
        <ele>197</ele>
        <time>2017-12-13T10:28:32Z</time>
      </trkpt>
      <trkpt lat="45.86448" lon="4.7182">
        <ele>197</ele>
        <time>2017-12-13T10:28:33Z</time>
      </trkpt>
      <trkpt lat="45.86443" lon="4.71817">
        <ele>197</ele>
        <time>2017-12-13T10:28:34Z</time>
      </trkpt>
      <trkpt lat="45.86439" lon="4.71814">
        <ele>197</ele>
        <time>2017-12-13T10:28:35Z</time>
      </trkpt>
      <trkpt lat="45.86434" lon="4.71811">
        <ele>197</ele>
        <time>2017-12-13T10:28:36Z</time>
      </trkpt>
      <trkpt lat="45.8643" lon="4.71807">
        <ele>197</ele>
        <time>2017-12-13T10:28:37Z</time>
      </trkpt>
      <trkpt lat="45.86426" lon="4.71804">
        <ele>197</ele>
        <time>2017-12-13T10:28:38Z</time>
      </trkpt>
      <trkpt lat="45.86422" lon="4.71801">
        <ele>197</ele>
        <time>2017-12-13T10:28:39Z</time>
      </trkpt>
      <trkpt lat="45.86417" lon="4.71798">
        <ele>197</ele>
        <time>2017-12-13T10:28:40Z</time>
      </trkpt>
      <trkpt lat="45.86413" lon="4.71796">
        <ele>199</ele>
        <time>2017-12-13T10:28:41Z</time>
      </trkpt>
      <trkpt lat="45.86408" lon="4.71792">
        <ele>199</ele>
        <time>2017-12-13T10:28:42Z</time>
      </trkpt>
      <trkpt lat="45.864" lon="4.71787">
        <ele>198</ele>
        <time>2017-12-13T10:28:44Z</time>
      </trkpt>
      <trkpt lat="45.86393" lon="4.71785">
        <ele>198</ele>
        <time>2017-12-13T10:28:45Z</time>
      </trkpt>
      <trkpt lat="45.86386" lon="4.71778">
        <ele>198</ele>
        <time>2017-12-13T10:28:47Z</time>
      </trkpt>
      <trkpt lat="45.86384" lon="4.71776">
        <ele>198</ele>
        <time>2017-12-13T10:28:48Z</time>
      </trkpt>
      <trkpt lat="45.86379" lon="4.71772">
        <ele>198</ele>
        <time>2017-12-13T10:28:49Z</time>
      </trkpt>
      <trkpt lat="45.86375" lon="4.71769">
        <ele>198</ele>
        <time>2017-12-13T10:28:50Z</time>
      </trkpt>
      <trkpt lat="45.86371" lon="4.71766">
        <ele>198</ele>
        <time>2017-12-13T10:28:51Z</time>
      </trkpt>
      <trkpt lat="45.86367" lon="4.71764">
        <ele>198</ele>
        <time>2017-12-13T10:28:52Z</time>
      </trkpt>
      <trkpt lat="45.86359" lon="4.71757">
        <ele>198</ele>
        <time>2017-12-13T10:28:54Z</time>
      </trkpt>
      <trkpt lat="45.86356" lon="4.71754">
        <ele>197</ele>
        <time>2017-12-13T10:28:55Z</time>
      </trkpt>
      <trkpt lat="45.86352" lon="4.71752">
        <ele>197</ele>
        <time>2017-12-13T10:28:56Z</time>
      </trkpt>
      <trkpt lat="45.86348" lon="4.71748">
        <ele>195</ele>
        <time>2017-12-13T10:28:57Z</time>
      </trkpt>
      <trkpt lat="45.86344" lon="4.71745">
        <ele>195</ele>
        <time>2017-12-13T10:28:58Z</time>
      </trkpt>
      <trkpt lat="45.8634" lon="4.71742">
        <ele>195</ele>
        <time>2017-12-13T10:28:59Z</time>
      </trkpt>
      <trkpt lat="45.86332" lon="4.71737">
        <ele>196</ele>
        <time>2017-12-13T10:29:01Z</time>
      </trkpt>
      <trkpt lat="45.86329" lon="4.71733">
        <ele>196</ele>
        <time>2017-12-13T10:29:02Z</time>
      </trkpt>
      <trkpt lat="45.86325" lon="4.71729">
        <ele>196</ele>
        <time>2017-12-13T10:29:03Z</time>
      </trkpt>
      <trkpt lat="45.8632" lon="4.71725">
        <ele>196</ele>
        <time>2017-12-13T10:29:04Z</time>
      </trkpt>
      <trkpt lat="45.86313" lon="4.7172">
        <ele>196</ele>
        <time>2017-12-13T10:29:06Z</time>
      </trkpt>
      <trkpt lat="45.86308" lon="4.71716">
        <ele>196</ele>
        <time>2017-12-13T10:29:07Z</time>
      </trkpt>
      <trkpt lat="45.86303" lon="4.71712">
        <ele>195</ele>
        <time>2017-12-13T10:29:08Z</time>
      </trkpt>
      <trkpt lat="45.86299" lon="4.71708">
        <ele>195</ele>
        <time>2017-12-13T10:29:09Z</time>
      </trkpt>
      <trkpt lat="45.86295" lon="4.71705">
        <ele>195</ele>
        <time>2017-12-13T10:29:10Z</time>
      </trkpt>
      <trkpt lat="45.86291" lon="4.71701">
        <ele>195</ele>
        <time>2017-12-13T10:29:11Z</time>
      </trkpt>
      <trkpt lat="45.86283" lon="4.71695">
        <ele>195</ele>
        <time>2017-12-13T10:29:13Z</time>
      </trkpt>
      <trkpt lat="45.86279" lon="4.71692">
        <ele>195</ele>
        <time>2017-12-13T10:29:14Z</time>
      </trkpt>
      <trkpt lat="45.86275" lon="4.71689">
        <ele>195</ele>
        <time>2017-12-13T10:29:15Z</time>
      </trkpt>
      <trkpt lat="45.86269" lon="4.71685">
        <ele>195</ele>
        <time>2017-12-13T10:29:16Z</time>
      </trkpt>
      <trkpt lat="45.86265" lon="4.71681">
        <ele>195</ele>
        <time>2017-12-13T10:29:17Z</time>
      </trkpt>
      <trkpt lat="45.8626" lon="4.71676">
        <ele>195</ele>
        <time>2017-12-13T10:29:18Z</time>
      </trkpt>
      <trkpt lat="45.86256" lon="4.71673">
        <ele>195</ele>
        <time>2017-12-13T10:29:19Z</time>
      </trkpt>
      <trkpt lat="45.86252" lon="4.71669">
        <ele>195</ele>
        <time>2017-12-13T10:29:20Z</time>
      </trkpt>
      <trkpt lat="45.86248" lon="4.71665">
        <ele>195</ele>
        <time>2017-12-13T10:29:21Z</time>
      </trkpt>
      <trkpt lat="45.86244" lon="4.71661">
        <ele>195</ele>
        <time>2017-12-13T10:29:22Z</time>
      </trkpt>
      <trkpt lat="45.8624" lon="4.71657">
        <ele>195</ele>
        <time>2017-12-13T10:29:23Z</time>
      </trkpt>
      <trkpt lat="45.86236" lon="4.71654">
        <ele>195</ele>
        <time>2017-12-13T10:29:24Z</time>
      </trkpt>
      <trkpt lat="45.86231" lon="4.71652">
        <ele>195</ele>
        <time>2017-12-13T10:29:25Z</time>
      </trkpt>
      <trkpt lat="45.86227" lon="4.71649">
        <ele>195</ele>
        <time>2017-12-13T10:29:26Z</time>
      </trkpt>
      <trkpt lat="45.8622" lon="4.71643">
        <ele>195</ele>
        <time>2017-12-13T10:29:28Z</time>
      </trkpt>
      <trkpt lat="45.86217" lon="4.71638">
        <ele>195</ele>
        <time>2017-12-13T10:29:29Z</time>
      </trkpt>
      <trkpt lat="45.86215" lon="4.71632">
        <ele>195</ele>
        <time>2017-12-13T10:29:30Z</time>
      </trkpt>
      <trkpt lat="45.86212" lon="4.71625">
        <ele>195</ele>
        <time>2017-12-13T10:29:31Z</time>
      </trkpt>
      <trkpt lat="45.8621" lon="4.71617">
        <ele>195</ele>
        <time>2017-12-13T10:29:32Z</time>
      </trkpt>
      <trkpt lat="45.86209" lon="4.71611">
        <ele>195</ele>
        <time>2017-12-13T10:29:33Z</time>
      </trkpt>
      <trkpt lat="45.86207" lon="4.71605">
        <ele>195</ele>
        <time>2017-12-13T10:29:34Z</time>
      </trkpt>
      <trkpt lat="45.86204" lon="4.71599">
        <ele>195</ele>
        <time>2017-12-13T10:29:35Z</time>
      </trkpt>
      <trkpt lat="45.86198" lon="4.71591">
        <ele>195</ele>
        <time>2017-12-13T10:29:37Z</time>
      </trkpt>
      <trkpt lat="45.86194" lon="4.71587">
        <ele>195</ele>
        <time>2017-12-13T10:29:38Z</time>
      </trkpt>
      <trkpt lat="45.86191" lon="4.71582">
        <ele>195</ele>
        <time>2017-12-13T10:29:39Z</time>
      </trkpt>
      <trkpt lat="45.86186" lon="4.71577">
        <ele>195</ele>
        <time>2017-12-13T10:29:40Z</time>
      </trkpt>
      <trkpt lat="45.86181" lon="4.71568">
        <ele>195</ele>
        <time>2017-12-13T10:29:42Z</time>
      </trkpt>
      <trkpt lat="45.86178" lon="4.71562">
        <ele>195</ele>
        <time>2017-12-13T10:29:43Z</time>
      </trkpt>
      <trkpt lat="45.86175" lon="4.71556">
        <ele>195</ele>
        <time>2017-12-13T10:29:44Z</time>
      </trkpt>
      <trkpt lat="45.86173" lon="4.71551">
        <ele>195</ele>
        <time>2017-12-13T10:29:45Z</time>
      </trkpt>
      <trkpt lat="45.86167" lon="4.7154">
        <ele>195</ele>
        <time>2017-12-13T10:29:47Z</time>
      </trkpt>
      <trkpt lat="45.86164" lon="4.71535">
        <ele>195</ele>
        <time>2017-12-13T10:29:48Z</time>
      </trkpt>
      <trkpt lat="45.86162" lon="4.7153">
        <ele>195</ele>
        <time>2017-12-13T10:29:49Z</time>
      </trkpt>
      <trkpt lat="45.86159" lon="4.71524">
        <ele>195</ele>
        <time>2017-12-13T10:29:50Z</time>
      </trkpt>
      <trkpt lat="45.86156" lon="4.71519">
        <ele>195</ele>
        <time>2017-12-13T10:29:51Z</time>
      </trkpt>
      <trkpt lat="45.86153" lon="4.71513">
        <ele>195</ele>
        <time>2017-12-13T10:29:52Z</time>
      </trkpt>
      <trkpt lat="45.8615" lon="4.71504">
        <ele>195</ele>
        <time>2017-12-13T10:29:53Z</time>
      </trkpt>
      <trkpt lat="45.86147" lon="4.71498">
        <ele>195</ele>
        <time>2017-12-13T10:29:54Z</time>
      </trkpt>
      <trkpt lat="45.86144" lon="4.71492">
        <ele>195</ele>
        <time>2017-12-13T10:29:55Z</time>
      </trkpt>
      <trkpt lat="45.86142" lon="4.71487">
        <ele>195</ele>
        <time>2017-12-13T10:29:56Z</time>
      </trkpt>
      <trkpt lat="45.86139" lon="4.71481">
        <ele>195</ele>
        <time>2017-12-13T10:29:57Z</time>
      </trkpt>
      <trkpt lat="45.86137" lon="4.71474">
        <ele>195</ele>
        <time>2017-12-13T10:29:58Z</time>
      </trkpt>
      <trkpt lat="45.86134" lon="4.71469">
        <ele>195</ele>
        <time>2017-12-13T10:29:59Z</time>
      </trkpt>
      <trkpt lat="45.86132" lon="4.71463">
        <ele>195</ele>
        <time>2017-12-13T10:30:00Z</time>
      </trkpt>
      <trkpt lat="45.8613" lon="4.71457">
        <ele>195</ele>
        <time>2017-12-13T10:30:01Z</time>
      </trkpt>
      <trkpt lat="45.86128" lon="4.71449">
        <ele>195</ele>
        <time>2017-12-13T10:30:02Z</time>
      </trkpt>
      <trkpt lat="45.86126" lon="4.71443">
        <ele>195</ele>
        <time>2017-12-13T10:30:03Z</time>
      </trkpt>
      <trkpt lat="45.86125" lon="4.71436">
        <ele>195</ele>
        <time>2017-12-13T10:30:04Z</time>
      </trkpt>
      <trkpt lat="45.86124" lon="4.71431">
        <ele>195</ele>
        <time>2017-12-13T10:30:05Z</time>
      </trkpt>
      <trkpt lat="45.86123" lon="4.71423">
        <ele>195</ele>
        <time>2017-12-13T10:30:06Z</time>
      </trkpt>
      <trkpt lat="45.86121" lon="4.71414">
        <ele>196</ele>
        <time>2017-12-13T10:30:07Z</time>
      </trkpt>
      <trkpt lat="45.86121" lon="4.71406">
        <ele>196</ele>
        <time>2017-12-13T10:30:08Z</time>
      </trkpt>
      <trkpt lat="45.86119" lon="4.71398">
        <ele>196</ele>
        <time>2017-12-13T10:30:09Z</time>
      </trkpt>
      <trkpt lat="45.86118" lon="4.71391">
        <ele>196</ele>
        <time>2017-12-13T10:30:10Z</time>
      </trkpt>
      <trkpt lat="45.86118" lon="4.71385">
        <ele>196</ele>
        <time>2017-12-13T10:30:11Z</time>
      </trkpt>
      <trkpt lat="45.86118" lon="4.71377">
        <ele>196</ele>
        <time>2017-12-13T10:30:12Z</time>
      </trkpt>
      <trkpt lat="45.86117" lon="4.7137">
        <ele>196</ele>
        <time>2017-12-13T10:30:13Z</time>
      </trkpt>
      <trkpt lat="45.86116" lon="4.71362">
        <ele>196</ele>
        <time>2017-12-13T10:30:14Z</time>
      </trkpt>
      <trkpt lat="45.86116" lon="4.71354">
        <ele>196</ele>
        <time>2017-12-13T10:30:15Z</time>
      </trkpt>
      <trkpt lat="45.86115" lon="4.71347">
        <ele>196</ele>
        <time>2017-12-13T10:30:16Z</time>
      </trkpt>
      <trkpt lat="45.86114" lon="4.71339">
        <ele>196</ele>
        <time>2017-12-13T10:30:17Z</time>
      </trkpt>
      <trkpt lat="45.86112" lon="4.71332">
        <ele>196</ele>
        <time>2017-12-13T10:30:18Z</time>
      </trkpt>
      <trkpt lat="45.8611" lon="4.71323">
        <ele>196</ele>
        <time>2017-12-13T10:30:19Z</time>
      </trkpt>
      <trkpt lat="45.86109" lon="4.71317">
        <ele>196</ele>
        <time>2017-12-13T10:30:20Z</time>
      </trkpt>
      <trkpt lat="45.86108" lon="4.7131">
        <ele>196</ele>
        <time>2017-12-13T10:30:21Z</time>
      </trkpt>
      <trkpt lat="45.86107" lon="4.71302">
        <ele>196</ele>
        <time>2017-12-13T10:30:22Z</time>
      </trkpt>
      <trkpt lat="45.86105" lon="4.71295">
        <ele>197</ele>
        <time>2017-12-13T10:30:23Z</time>
      </trkpt>
      <trkpt lat="45.86104" lon="4.71288">
        <ele>197</ele>
        <time>2017-12-13T10:30:24Z</time>
      </trkpt>
      <trkpt lat="45.86102" lon="4.71281">
        <ele>197</ele>
        <time>2017-12-13T10:30:25Z</time>
      </trkpt>
      <trkpt lat="45.861" lon="4.71275">
        <ele>197</ele>
        <time>2017-12-13T10:30:26Z</time>
      </trkpt>
      <trkpt lat="45.86097" lon="4.71264">
        <ele>197</ele>
        <time>2017-12-13T10:30:28Z</time>
      </trkpt>
      <trkpt lat="45.86094" lon="4.71261">
        <ele>197</ele>
        <time>2017-12-13T10:30:29Z</time>
      </trkpt>
      <trkpt lat="45.8609" lon="4.71254">
        <ele>198</ele>
        <time>2017-12-13T10:30:31Z</time>
      </trkpt>
      <trkpt lat="45.86087" lon="4.71251">
        <ele>198</ele>
        <time>2017-12-13T10:30:32Z</time>
      </trkpt>
      <trkpt lat="45.86085" lon="4.7124">
        <ele>198</ele>
        <time>2017-12-13T10:30:34Z</time>
      </trkpt>
      <trkpt lat="45.86085" lon="4.71233">
        <ele>197</ele>
        <time>2017-12-13T10:30:35Z</time>
      </trkpt>
      <trkpt lat="45.86086" lon="4.7122">
        <ele>197</ele>
        <time>2017-12-13T10:30:37Z</time>
      </trkpt>
      <trkpt lat="45.86086" lon="4.71215">
        <ele>197</ele>
        <time>2017-12-13T10:30:38Z</time>
      </trkpt>
      <trkpt lat="45.86087" lon="4.71205">
        <ele>197</ele>
        <time>2017-12-13T10:30:40Z</time>
      </trkpt>
      <trkpt lat="45.86087" lon="4.712">
        <ele>197</ele>
        <time>2017-12-13T10:30:41Z</time>
      </trkpt>
      <trkpt lat="45.8609" lon="4.71188">
        <ele>197</ele>
        <time>2017-12-13T10:30:43Z</time>
      </trkpt>
      <trkpt lat="45.86091" lon="4.71183">
        <ele>197</ele>
        <time>2017-12-13T10:30:44Z</time>
      </trkpt>
      <trkpt lat="45.86093" lon="4.71171">
        <ele>197</ele>
        <time>2017-12-13T10:30:46Z</time>
      </trkpt>
      <trkpt lat="45.86091" lon="4.71166">
        <ele>197</ele>
        <time>2017-12-13T10:30:47Z</time>
      </trkpt>
      <trkpt lat="45.86094" lon="4.71156">
        <ele>197</ele>
        <time>2017-12-13T10:30:49Z</time>
      </trkpt>
      <trkpt lat="45.86092" lon="4.71151">
        <ele>197</ele>
        <time>2017-12-13T10:30:50Z</time>
      </trkpt>
      <trkpt lat="45.86092" lon="4.71143">
        <ele>197</ele>
        <time>2017-12-13T10:30:51Z</time>
      </trkpt>
      <trkpt lat="45.86088" lon="4.71139">
        <ele>197</ele>
        <time>2017-12-13T10:30:52Z</time>
      </trkpt>
      <trkpt lat="45.86083" lon="4.71135">
        <ele>197</ele>
        <time>2017-12-13T10:30:53Z</time>
      </trkpt>
      <trkpt lat="45.86079" lon="4.71132">
        <ele>197</ele>
        <time>2017-12-13T10:30:54Z</time>
      </trkpt>
      <trkpt lat="45.86074" lon="4.71129">
        <ele>197</ele>
        <time>2017-12-13T10:30:55Z</time>
      </trkpt>
      <trkpt lat="45.8607" lon="4.71125">
        <ele>197</ele>
        <time>2017-12-13T10:30:56Z</time>
      </trkpt>
      <trkpt lat="45.86063" lon="4.71117">
        <ele>197</ele>
        <time>2017-12-13T10:30:58Z</time>
      </trkpt>
      <trkpt lat="45.8606" lon="4.71114">
        <ele>197</ele>
        <time>2017-12-13T10:30:59Z</time>
      </trkpt>
      <trkpt lat="45.86055" lon="4.71109">
        <ele>197</ele>
        <time>2017-12-13T10:31:00Z</time>
      </trkpt>
      <trkpt lat="45.86052" lon="4.71104">
        <ele>197</ele>
        <time>2017-12-13T10:31:01Z</time>
      </trkpt>
      <trkpt lat="45.86048" lon="4.711">
        <ele>197</ele>
        <time>2017-12-13T10:31:02Z</time>
      </trkpt>
      <trkpt lat="45.86045" lon="4.71094">
        <ele>197</ele>
        <time>2017-12-13T10:31:03Z</time>
      </trkpt>
      <trkpt lat="45.86043" lon="4.71088">
        <ele>197</ele>
        <time>2017-12-13T10:31:04Z</time>
      </trkpt>
      <trkpt lat="45.86041" lon="4.71082">
        <ele>197</ele>
        <time>2017-12-13T10:31:05Z</time>
      </trkpt>
      <trkpt lat="45.86039" lon="4.71075">
        <ele>197</ele>
        <time>2017-12-13T10:31:06Z</time>
      </trkpt>
      <trkpt lat="45.86037" lon="4.71068">
        <ele>197</ele>
        <time>2017-12-13T10:31:07Z</time>
      </trkpt>
      <trkpt lat="45.86036" lon="4.71061">
        <ele>197</ele>
        <time>2017-12-13T10:31:08Z</time>
      </trkpt>
      <trkpt lat="45.86034" lon="4.71054">
        <ele>197</ele>
        <time>2017-12-13T10:31:09Z</time>
      </trkpt>
      <trkpt lat="45.86034" lon="4.71048">
        <ele>197</ele>
        <time>2017-12-13T10:31:10Z</time>
      </trkpt>
      <trkpt lat="45.86032" lon="4.7104">
        <ele>197</ele>
        <time>2017-12-13T10:31:11Z</time>
      </trkpt>
      <trkpt lat="45.86029" lon="4.7103">
        <ele>197</ele>
        <time>2017-12-13T10:31:13Z</time>
      </trkpt>
      <trkpt lat="45.86028" lon="4.71025">
        <ele>197</ele>
        <time>2017-12-13T10:31:14Z</time>
      </trkpt>
      <trkpt lat="45.86025" lon="4.71015">
        <ele>197</ele>
        <time>2017-12-13T10:31:16Z</time>
      </trkpt>
      <trkpt lat="45.86022" lon="4.7101">
        <ele>197</ele>
        <time>2017-12-13T10:31:17Z</time>
      </trkpt>
      <trkpt lat="45.86016" lon="4.71">
        <ele>197</ele>
        <time>2017-12-13T10:31:19Z</time>
      </trkpt>
      <trkpt lat="45.86013" lon="4.70997">
        <ele>197</ele>
        <time>2017-12-13T10:31:20Z</time>
      </trkpt>
      <trkpt lat="45.86009" lon="4.70993">
        <ele>197</ele>
        <time>2017-12-13T10:31:21Z</time>
      </trkpt>
      <trkpt lat="45.86005" lon="4.70988">
        <ele>197</ele>
        <time>2017-12-13T10:31:22Z</time>
      </trkpt>
      <trkpt lat="45.86" lon="4.70985">
        <ele>197</ele>
        <time>2017-12-13T10:31:23Z</time>
      </trkpt>
      <trkpt lat="45.85996" lon="4.70981">
        <ele>197</ele>
        <time>2017-12-13T10:31:24Z</time>
      </trkpt>
      <trkpt lat="45.85991" lon="4.70978">
        <ele>197</ele>
        <time>2017-12-13T10:31:25Z</time>
      </trkpt>
      <trkpt lat="45.85987" lon="4.70975">
        <ele>197</ele>
        <time>2017-12-13T10:31:26Z</time>
      </trkpt>
      <trkpt lat="45.85979" lon="4.70972">
        <ele>197</ele>
        <time>2017-12-13T10:31:28Z</time>
      </trkpt>
      <trkpt lat="45.85974" lon="4.70971">
        <ele>197</ele>
        <time>2017-12-13T10:31:29Z</time>
      </trkpt>
      <trkpt lat="45.85969" lon="4.7097">
        <ele>197</ele>
        <time>2017-12-13T10:31:30Z</time>
      </trkpt>
      <trkpt lat="45.85965" lon="4.7097">
        <ele>197</ele>
        <time>2017-12-13T10:31:31Z</time>
      </trkpt>
      <trkpt lat="45.8596" lon="4.7097">
        <ele>197</ele>
        <time>2017-12-13T10:31:32Z</time>
      </trkpt>
      <trkpt lat="45.85955" lon="4.70968">
        <ele>197</ele>
        <time>2017-12-13T10:31:33Z</time>
      </trkpt>
      <trkpt lat="45.85947" lon="4.70966">
        <ele>197</ele>
        <time>2017-12-13T10:31:35Z</time>
      </trkpt>
      <trkpt lat="45.85944" lon="4.70964">
        <ele>197</ele>
        <time>2017-12-13T10:31:36Z</time>
      </trkpt>
      <trkpt lat="45.85939" lon="4.70956">
        <ele>197</ele>
        <time>2017-12-13T10:31:38Z</time>
      </trkpt>
      <trkpt lat="45.85939" lon="4.70951">
        <ele>197</ele>
        <time>2017-12-13T10:31:39Z</time>
      </trkpt>
      <trkpt lat="45.85943" lon="4.70941">
        <ele>197</ele>
        <time>2017-12-13T10:31:41Z</time>
      </trkpt>
      <trkpt lat="45.85944" lon="4.70936">
        <ele>197</ele>
        <time>2017-12-13T10:31:42Z</time>
      </trkpt>
      <trkpt lat="45.85947" lon="4.70925">
        <ele>197</ele>
        <time>2017-12-13T10:31:44Z</time>
      </trkpt>
      <trkpt lat="45.85948" lon="4.70919">
        <ele>197</ele>
        <time>2017-12-13T10:31:45Z</time>
      </trkpt>
      <trkpt lat="45.8595" lon="4.70912">
        <ele>197</ele>
        <time>2017-12-13T10:31:46Z</time>
      </trkpt>
      <trkpt lat="45.85951" lon="4.70905">
        <ele>197</ele>
        <time>2017-12-13T10:31:47Z</time>
      </trkpt>
      <trkpt lat="45.85953" lon="4.70898">
        <ele>197</ele>
        <time>2017-12-13T10:31:48Z</time>
      </trkpt>
      <trkpt lat="45.85955" lon="4.70891">
        <ele>197</ele>
        <time>2017-12-13T10:31:49Z</time>
      </trkpt>
      <trkpt lat="45.85956" lon="4.70884">
        <ele>197</ele>
        <time>2017-12-13T10:31:50Z</time>
      </trkpt>
      <trkpt lat="45.85958" lon="4.70876">
        <ele>197</ele>
        <time>2017-12-13T10:31:51Z</time>
      </trkpt>
      <trkpt lat="45.8596" lon="4.70868">
        <ele>196</ele>
        <time>2017-12-13T10:31:52Z</time>
      </trkpt>
      <trkpt lat="45.85961" lon="4.70861">
        <ele>196</ele>
        <time>2017-12-13T10:31:53Z</time>
      </trkpt>
      <trkpt lat="45.85962" lon="4.70854">
        <ele>196</ele>
        <time>2017-12-13T10:31:54Z</time>
      </trkpt>
      <trkpt lat="45.85963" lon="4.70846">
        <ele>196</ele>
        <time>2017-12-13T10:31:55Z</time>
      </trkpt>
      <trkpt lat="45.85962" lon="4.70838">
        <ele>196</ele>
        <time>2017-12-13T10:31:56Z</time>
      </trkpt>
      <trkpt lat="45.85961" lon="4.7083">
        <ele>196</ele>
        <time>2017-12-13T10:31:57Z</time>
      </trkpt>
      <trkpt lat="45.8596" lon="4.70822">
        <ele>195</ele>
        <time>2017-12-13T10:31:58Z</time>
      </trkpt>
      <trkpt lat="45.85959" lon="4.70815">
        <ele>195</ele>
        <time>2017-12-13T10:31:59Z</time>
      </trkpt>
      <trkpt lat="45.85958" lon="4.70809">
        <ele>195</ele>
        <time>2017-12-13T10:32:00Z</time>
      </trkpt>
      <trkpt lat="45.85957" lon="4.70802">
        <ele>195</ele>
        <time>2017-12-13T10:32:01Z</time>
      </trkpt>
      <trkpt lat="45.85956" lon="4.70795">
        <ele>195</ele>
        <time>2017-12-13T10:32:02Z</time>
      </trkpt>
      <trkpt lat="45.85955" lon="4.70788">
        <ele>195</ele>
        <time>2017-12-13T10:32:03Z</time>
      </trkpt>
      <trkpt lat="45.85956" lon="4.70782">
        <ele>195</ele>
        <time>2017-12-13T10:32:04Z</time>
      </trkpt>
      <trkpt lat="45.85956" lon="4.70774">
        <ele>195</ele>
        <time>2017-12-13T10:32:05Z</time>
      </trkpt>
      <trkpt lat="45.85957" lon="4.70767">
        <ele>195</ele>
        <time>2017-12-13T10:32:06Z</time>
      </trkpt>
      <trkpt lat="45.85958" lon="4.70761">
        <ele>195</ele>
        <time>2017-12-13T10:32:07Z</time>
      </trkpt>
      <trkpt lat="45.85959" lon="4.70754">
        <ele>195</ele>
        <time>2017-12-13T10:32:08Z</time>
      </trkpt>
      <trkpt lat="45.85959" lon="4.70747">
        <ele>194</ele>
        <time>2017-12-13T10:32:09Z</time>
      </trkpt>
      <trkpt lat="45.8596" lon="4.70739">
        <ele>194</ele>
        <time>2017-12-13T10:32:10Z</time>
      </trkpt>
      <trkpt lat="45.85961" lon="4.70732">
        <ele>194</ele>
        <time>2017-12-13T10:32:11Z</time>
      </trkpt>
      <trkpt lat="45.85961" lon="4.70724">
        <ele>194</ele>
        <time>2017-12-13T10:32:12Z</time>
      </trkpt>
      <trkpt lat="45.85961" lon="4.70717">
        <ele>194</ele>
        <time>2017-12-13T10:32:13Z</time>
      </trkpt>
      <trkpt lat="45.85963" lon="4.7071">
        <ele>194</ele>
        <time>2017-12-13T10:32:14Z</time>
      </trkpt>
      <trkpt lat="45.85964" lon="4.70704">
        <ele>194</ele>
        <time>2017-12-13T10:32:15Z</time>
      </trkpt>
      <trkpt lat="45.85963" lon="4.70691">
        <ele>194</ele>
        <time>2017-12-13T10:32:17Z</time>
      </trkpt>
      <trkpt lat="45.85962" lon="4.70684">
        <ele>194</ele>
        <time>2017-12-13T10:32:18Z</time>
      </trkpt>
      <trkpt lat="45.85961" lon="4.70676">
        <ele>194</ele>
        <time>2017-12-13T10:32:19Z</time>
      </trkpt>
      <trkpt lat="45.85958" lon="4.7067">
        <ele>194</ele>
        <time>2017-12-13T10:32:20Z</time>
      </trkpt>
      <trkpt lat="45.85955" lon="4.70662">
        <ele>194</ele>
        <time>2017-12-13T10:32:21Z</time>
      </trkpt>
      <trkpt lat="45.85952" lon="4.70655">
        <ele>194</ele>
        <time>2017-12-13T10:32:22Z</time>
      </trkpt>
      <trkpt lat="45.85949" lon="4.70649">
        <ele>194</ele>
        <time>2017-12-13T10:32:23Z</time>
      </trkpt>
      <trkpt lat="45.85945" lon="4.70644">
        <ele>194</ele>
        <time>2017-12-13T10:32:24Z</time>
      </trkpt>
      <trkpt lat="45.85941" lon="4.70637">
        <ele>194</ele>
        <time>2017-12-13T10:32:25Z</time>
      </trkpt>
      <trkpt lat="45.85938" lon="4.70632">
        <ele>194</ele>
        <time>2017-12-13T10:32:26Z</time>
      </trkpt>
      <trkpt lat="45.85934" lon="4.70626">
        <ele>194</ele>
        <time>2017-12-13T10:32:27Z</time>
      </trkpt>
      <trkpt lat="45.85931" lon="4.70619">
        <ele>194</ele>
        <time>2017-12-13T10:32:28Z</time>
      </trkpt>
      <trkpt lat="45.85925" lon="4.70614">
        <ele>194</ele>
        <time>2017-12-13T10:32:29Z</time>
      </trkpt>
      <trkpt lat="45.85922" lon="4.70608">
        <ele>194</ele>
        <time>2017-12-13T10:32:30Z</time>
      </trkpt>
      <trkpt lat="45.85919" lon="4.70603">
        <ele>194</ele>
        <time>2017-12-13T10:32:31Z</time>
      </trkpt>
      <trkpt lat="45.85915" lon="4.70597">
        <ele>195</ele>
        <time>2017-12-13T10:32:32Z</time>
      </trkpt>
      <trkpt lat="45.85911" lon="4.70592">
        <ele>195</ele>
        <time>2017-12-13T10:32:33Z</time>
      </trkpt>
      <trkpt lat="45.85908" lon="4.70588">
        <ele>195</ele>
        <time>2017-12-13T10:32:34Z</time>
      </trkpt>
      <trkpt lat="45.85901" lon="4.70581">
        <ele>195</ele>
        <time>2017-12-13T10:32:36Z</time>
      </trkpt>
      <trkpt lat="45.85897" lon="4.70578">
        <ele>195</ele>
        <time>2017-12-13T10:32:37Z</time>
      </trkpt>
      <trkpt lat="45.85892" lon="4.70576">
        <ele>195</ele>
        <time>2017-12-13T10:32:38Z</time>
      </trkpt>
      <trkpt lat="45.85886" lon="4.70575">
        <ele>195</ele>
        <time>2017-12-13T10:32:39Z</time>
      </trkpt>
      <trkpt lat="45.85882" lon="4.70574">
        <ele>195</ele>
        <time>2017-12-13T10:32:40Z</time>
      </trkpt>
      <trkpt lat="45.85877" lon="4.70573">
        <ele>195</ele>
        <time>2017-12-13T10:32:41Z</time>
      </trkpt>
      <trkpt lat="45.8587" lon="4.7057">
        <ele>195</ele>
        <time>2017-12-13T10:32:43Z</time>
      </trkpt>
      <trkpt lat="45.85867" lon="4.70569">
        <ele>195</ele>
        <time>2017-12-13T10:32:44Z</time>
      </trkpt>
      <trkpt lat="45.85858" lon="4.70567">
        <ele>195</ele>
        <time>2017-12-13T10:32:46Z</time>
      </trkpt>
      <trkpt lat="45.85854" lon="4.70565">
        <ele>195</ele>
        <time>2017-12-13T10:32:47Z</time>
      </trkpt>
      <trkpt lat="45.85849" lon="4.70564">
        <ele>195</ele>
        <time>2017-12-13T10:32:48Z</time>
      </trkpt>
      <trkpt lat="45.85844" lon="4.70561">
        <ele>195</ele>
        <time>2017-12-13T10:32:49Z</time>
      </trkpt>
      <trkpt lat="45.85839" lon="4.70559">
        <ele>195</ele>
        <time>2017-12-13T10:32:50Z</time>
      </trkpt>
      <trkpt lat="45.85834" lon="4.70558">
        <ele>195</ele>
        <time>2017-12-13T10:32:51Z</time>
      </trkpt>
      <trkpt lat="45.85826" lon="4.70554">
        <ele>195</ele>
        <time>2017-12-13T10:32:53Z</time>
      </trkpt>
      <trkpt lat="45.85821" lon="4.7055">
        <ele>195</ele>
        <time>2017-12-13T10:32:54Z</time>
      </trkpt>
      <trkpt lat="45.85817" lon="4.70548">
        <ele>195</ele>
        <time>2017-12-13T10:32:55Z</time>
      </trkpt>
      <trkpt lat="45.85811" lon="4.70545">
        <ele>195</ele>
        <time>2017-12-13T10:32:56Z</time>
      </trkpt>
      <trkpt lat="45.85803" lon="4.70543">
        <ele>195</ele>
        <time>2017-12-13T10:32:58Z</time>
      </trkpt>
      <trkpt lat="45.85799" lon="4.70542">
        <ele>195</ele>
        <time>2017-12-13T10:32:59Z</time>
      </trkpt>
      <trkpt lat="45.8579" lon="4.70538">
        <ele>196</ele>
        <time>2017-12-13T10:33:01Z</time>
      </trkpt>
      <trkpt lat="45.85786" lon="4.70536">
        <ele>196</ele>
        <time>2017-12-13T10:33:02Z</time>
      </trkpt>
      <trkpt lat="45.85779" lon="4.70531">
        <ele>196</ele>
        <time>2017-12-13T10:33:04Z</time>
      </trkpt>
      <trkpt lat="45.85776" lon="4.70529">
        <ele>196</ele>
        <time>2017-12-13T10:33:05Z</time>
      </trkpt>
      <trkpt lat="45.8577" lon="4.70525">
        <ele>196</ele>
        <time>2017-12-13T10:33:07Z</time>
      </trkpt>
      <trkpt lat="45.85766" lon="4.70522">
        <ele>196</ele>
        <time>2017-12-13T10:33:08Z</time>
      </trkpt>
      <trkpt lat="45.8576" lon="4.70515">
        <ele>196</ele>
        <time>2017-12-13T10:33:10Z</time>
      </trkpt>
      <trkpt lat="45.85757" lon="4.70512">
        <ele>196</ele>
        <time>2017-12-13T10:33:11Z</time>
      </trkpt>
      <trkpt lat="45.8575" lon="4.70507">
        <ele>196</ele>
        <time>2017-12-13T10:33:13Z</time>
      </trkpt>
      <trkpt lat="45.85747" lon="4.70504">
        <ele>196</ele>
        <time>2017-12-13T10:33:14Z</time>
      </trkpt>
      <trkpt lat="45.85739" lon="4.70498">
        <ele>196</ele>
        <time>2017-12-13T10:33:16Z</time>
      </trkpt>
      <trkpt lat="45.85736" lon="4.70494">
        <ele>196</ele>
        <time>2017-12-13T10:33:17Z</time>
      </trkpt>
      <trkpt lat="45.85734" lon="4.70487">
        <ele>196</ele>
        <time>2017-12-13T10:33:18Z</time>
      </trkpt>
      <trkpt lat="45.85732" lon="4.70482">
        <ele>196</ele>
        <time>2017-12-13T10:33:19Z</time>
      </trkpt>
      <trkpt lat="45.8573" lon="4.70475">
        <ele>196</ele>
        <time>2017-12-13T10:33:20Z</time>
      </trkpt>
      <trkpt lat="45.85728" lon="4.70469">
        <ele>196</ele>
        <time>2017-12-13T10:33:21Z</time>
      </trkpt>
      <trkpt lat="45.85725" lon="4.70463">
        <ele>196</ele>
        <time>2017-12-13T10:33:22Z</time>
      </trkpt>
      <trkpt lat="45.85725" lon="4.70456">
        <ele>196</ele>
        <time>2017-12-13T10:33:23Z</time>
      </trkpt>
      <trkpt lat="45.85725" lon="4.70448">
        <ele>196</ele>
        <time>2017-12-13T10:33:24Z</time>
      </trkpt>
      <trkpt lat="45.85724" lon="4.70441">
        <ele>196</ele>
        <time>2017-12-13T10:33:25Z</time>
      </trkpt>
      <trkpt lat="45.85723" lon="4.70433">
        <ele>196</ele>
        <time>2017-12-13T10:33:26Z</time>
      </trkpt>
      <trkpt lat="45.85722" lon="4.70426">
        <ele>196</ele>
        <time>2017-12-13T10:33:27Z</time>
      </trkpt>
      <trkpt lat="45.85722" lon="4.70413">
        <ele>196</ele>
        <time>2017-12-13T10:33:29Z</time>
      </trkpt>
      <trkpt lat="45.85721" lon="4.70407">
        <ele>196</ele>
        <time>2017-12-13T10:33:30Z</time>
      </trkpt>
      <trkpt lat="45.85719" lon="4.704">
        <ele>196</ele>
        <time>2017-12-13T10:33:31Z</time>
      </trkpt>
      <trkpt lat="45.85718" lon="4.70393">
        <ele>196</ele>
        <time>2017-12-13T10:33:32Z</time>
      </trkpt>
      <trkpt lat="45.85716" lon="4.70386">
        <ele>196</ele>
        <time>2017-12-13T10:33:33Z</time>
      </trkpt>
      <trkpt lat="45.85715" lon="4.70378">
        <ele>196</ele>
        <time>2017-12-13T10:33:34Z</time>
      </trkpt>
      <trkpt lat="45.85714" lon="4.7037">
        <ele>196</ele>
        <time>2017-12-13T10:33:35Z</time>
      </trkpt>
      <trkpt lat="45.85714" lon="4.70362">
        <ele>196</ele>
        <time>2017-12-13T10:33:36Z</time>
      </trkpt>
      <trkpt lat="45.85713" lon="4.70355">
        <ele>196</ele>
        <time>2017-12-13T10:33:37Z</time>
      </trkpt>
      <trkpt lat="45.85712" lon="4.70348">
        <ele>196</ele>
        <time>2017-12-13T10:33:38Z</time>
      </trkpt>
      <trkpt lat="45.85711" lon="4.70342">
        <ele>196</ele>
        <time>2017-12-13T10:33:39Z</time>
      </trkpt>
      <trkpt lat="45.8571" lon="4.70334">
        <ele>196</ele>
        <time>2017-12-13T10:33:40Z</time>
      </trkpt>
      <trkpt lat="45.85708" lon="4.70325">
        <ele>197</ele>
        <time>2017-12-13T10:33:41Z</time>
      </trkpt>
      <trkpt lat="45.85707" lon="4.70317">
        <ele>197</ele>
        <time>2017-12-13T10:33:42Z</time>
      </trkpt>
      <trkpt lat="45.85705" lon="4.70308">
        <ele>197</ele>
        <time>2017-12-13T10:33:43Z</time>
      </trkpt>
      <trkpt lat="45.85704" lon="4.70301">
        <ele>197</ele>
        <time>2017-12-13T10:33:44Z</time>
      </trkpt>
      <trkpt lat="45.85705" lon="4.70293">
        <ele>197</ele>
        <time>2017-12-13T10:33:45Z</time>
      </trkpt>
      <trkpt lat="45.85704" lon="4.70286">
        <ele>197</ele>
        <time>2017-12-13T10:33:46Z</time>
      </trkpt>
      <trkpt lat="45.85703" lon="4.70279">
        <ele>197</ele>
        <time>2017-12-13T10:33:47Z</time>
      </trkpt>
      <trkpt lat="45.85703" lon="4.70271">
        <ele>197</ele>
        <time>2017-12-13T10:33:48Z</time>
      </trkpt>
      <trkpt lat="45.85702" lon="4.70263">
        <ele>197</ele>
        <time>2017-12-13T10:33:49Z</time>
      </trkpt>
      <trkpt lat="45.85701" lon="4.70257">
        <ele>197</ele>
        <time>2017-12-13T10:33:50Z</time>
      </trkpt>
      <trkpt lat="45.857" lon="4.70249">
        <ele>197</ele>
        <time>2017-12-13T10:33:51Z</time>
      </trkpt>
      <trkpt lat="45.857" lon="4.70241">
        <ele>197</ele>
        <time>2017-12-13T10:33:52Z</time>
      </trkpt>
      <trkpt lat="45.85698" lon="4.70235">
        <ele>197</ele>
        <time>2017-12-13T10:33:53Z</time>
      </trkpt>
      <trkpt lat="45.85697" lon="4.70228">
        <ele>197</ele>
        <time>2017-12-13T10:33:54Z</time>
      </trkpt>
      <trkpt lat="45.85696" lon="4.70222">
        <ele>197</ele>
        <time>2017-12-13T10:33:55Z</time>
      </trkpt>
      <trkpt lat="45.85694" lon="4.70216">
        <ele>197</ele>
        <time>2017-12-13T10:33:56Z</time>
      </trkpt>
      <trkpt lat="45.85694" lon="4.7021">
        <ele>197</ele>
        <time>2017-12-13T10:33:57Z</time>
      </trkpt>
      <trkpt lat="45.85692" lon="4.70203">
        <ele>197</ele>
        <time>2017-12-13T10:33:58Z</time>
      </trkpt>
      <trkpt lat="45.85691" lon="4.70197">
        <ele>197</ele>
        <time>2017-12-13T10:33:59Z</time>
      </trkpt>
      <trkpt lat="45.8569" lon="4.7019">
        <ele>197</ele>
        <time>2017-12-13T10:34:00Z</time>
      </trkpt>
      <trkpt lat="45.85689" lon="4.70183">
        <ele>197</ele>
        <time>2017-12-13T10:34:01Z</time>
      </trkpt>
      <trkpt lat="45.85688" lon="4.70177">
        <ele>197</ele>
        <time>2017-12-13T10:34:02Z</time>
      </trkpt>
      <trkpt lat="45.85686" lon="4.70169">
        <ele>197</ele>
        <time>2017-12-13T10:34:03Z</time>
      </trkpt>
      <trkpt lat="45.85684" lon="4.70162">
        <ele>197</ele>
        <time>2017-12-13T10:34:04Z</time>
      </trkpt>
      <trkpt lat="45.85683" lon="4.70156">
        <ele>197</ele>
        <time>2017-12-13T10:34:05Z</time>
      </trkpt>
      <trkpt lat="45.85682" lon="4.70148">
        <ele>197</ele>
        <time>2017-12-13T10:34:06Z</time>
      </trkpt>
      <trkpt lat="45.85681" lon="4.7014">
        <ele>197</ele>
        <time>2017-12-13T10:34:07Z</time>
      </trkpt>
      <trkpt lat="45.8568" lon="4.70133">
        <ele>197</ele>
        <time>2017-12-13T10:34:08Z</time>
      </trkpt>
      <trkpt lat="45.85679" lon="4.70125">
        <ele>197</ele>
        <time>2017-12-13T10:34:09Z</time>
      </trkpt>
      <trkpt lat="45.85679" lon="4.70118">
        <ele>197</ele>
        <time>2017-12-13T10:34:10Z</time>
      </trkpt>
      <trkpt lat="45.85678" lon="4.7011">
        <ele>197</ele>
        <time>2017-12-13T10:34:11Z</time>
      </trkpt>
      <trkpt lat="45.85677" lon="4.70103">
        <ele>196</ele>
        <time>2017-12-13T10:34:12Z</time>
      </trkpt>
      <trkpt lat="45.85678" lon="4.70091">
        <ele>196</ele>
        <time>2017-12-13T10:34:14Z</time>
      </trkpt>
      <trkpt lat="45.85679" lon="4.70085">
        <ele>196</ele>
        <time>2017-12-13T10:34:15Z</time>
      </trkpt>
      <trkpt lat="45.8568" lon="4.70078">
        <ele>196</ele>
        <time>2017-12-13T10:34:16Z</time>
      </trkpt>
      <trkpt lat="45.85681" lon="4.70073">
        <ele>196</ele>
        <time>2017-12-13T10:34:17Z</time>
      </trkpt>
      <trkpt lat="45.85683" lon="4.70063">
        <ele>196</ele>
        <time>2017-12-13T10:34:19Z</time>
      </trkpt>
      <trkpt lat="45.85684" lon="4.70057">
        <ele>195</ele>
        <time>2017-12-13T10:34:20Z</time>
      </trkpt>
      <trkpt lat="45.85686" lon="4.70046">
        <ele>195</ele>
        <time>2017-12-13T10:34:22Z</time>
      </trkpt>
      <trkpt lat="45.85687" lon="4.7004">
        <ele>195</ele>
        <time>2017-12-13T10:34:23Z</time>
      </trkpt>
      <trkpt lat="45.85688" lon="4.70034">
        <ele>195</ele>
        <time>2017-12-13T10:34:24Z</time>
      </trkpt>
      <trkpt lat="45.85688" lon="4.70026">
        <ele>195</ele>
        <time>2017-12-13T10:34:25Z</time>
      </trkpt>
      <trkpt lat="45.85688" lon="4.70019">
        <ele>195</ele>
        <time>2017-12-13T10:34:26Z</time>
      </trkpt>
      <trkpt lat="45.8569" lon="4.70013">
        <ele>195</ele>
        <time>2017-12-13T10:34:27Z</time>
      </trkpt>
      <trkpt lat="45.85691" lon="4.70006">
        <ele>195</ele>
        <time>2017-12-13T10:34:28Z</time>
      </trkpt>
      <trkpt lat="45.85692" lon="4.69999">
        <ele>195</ele>
        <time>2017-12-13T10:34:29Z</time>
      </trkpt>
      <trkpt lat="45.85692" lon="4.69991">
        <ele>195</ele>
        <time>2017-12-13T10:34:30Z</time>
      </trkpt>
      <trkpt lat="45.85691" lon="4.69982">
        <ele>195</ele>
        <time>2017-12-13T10:34:31Z</time>
      </trkpt>
      <trkpt lat="45.8569" lon="4.69974">
        <ele>195</ele>
        <time>2017-12-13T10:34:32Z</time>
      </trkpt>
      <trkpt lat="45.85689" lon="4.69966">
        <ele>195</ele>
        <time>2017-12-13T10:34:33Z</time>
      </trkpt>
      <trkpt lat="45.85686" lon="4.69959">
        <ele>195</ele>
        <time>2017-12-13T10:34:34Z</time>
      </trkpt>
      <trkpt lat="45.85685" lon="4.69953">
        <ele>195</ele>
        <time>2017-12-13T10:34:35Z</time>
      </trkpt>
      <trkpt lat="45.85683" lon="4.69945">
        <ele>195</ele>
        <time>2017-12-13T10:34:36Z</time>
      </trkpt>
      <trkpt lat="45.85681" lon="4.69938">
        <ele>195</ele>
        <time>2017-12-13T10:34:37Z</time>
      </trkpt>
      <trkpt lat="45.85679" lon="4.6993">
        <ele>195</ele>
        <time>2017-12-13T10:34:38Z</time>
      </trkpt>
      <trkpt lat="45.85677" lon="4.69923">
        <ele>195</ele>
        <time>2017-12-13T10:34:39Z</time>
      </trkpt>
      <trkpt lat="45.85675" lon="4.69916">
        <ele>195</ele>
        <time>2017-12-13T10:34:40Z</time>
      </trkpt>
      <trkpt lat="45.85673" lon="4.69909">
        <ele>195</ele>
        <time>2017-12-13T10:34:41Z</time>
      </trkpt>
      <trkpt lat="45.85671" lon="4.69902">
        <ele>195</ele>
        <time>2017-12-13T10:34:42Z</time>
      </trkpt>
      <trkpt lat="45.8567" lon="4.69896">
        <ele>195</ele>
        <time>2017-12-13T10:34:43Z</time>
      </trkpt>
      <trkpt lat="45.85669" lon="4.6989">
        <ele>195</ele>
        <time>2017-12-13T10:34:44Z</time>
      </trkpt>
      <trkpt lat="45.85667" lon="4.69883">
        <ele>195</ele>
        <time>2017-12-13T10:34:45Z</time>
      </trkpt>
      <trkpt lat="45.85666" lon="4.69877">
        <ele>195</ele>
        <time>2017-12-13T10:34:46Z</time>
      </trkpt>
      <trkpt lat="45.85665" lon="4.6987">
        <ele>195</ele>
        <time>2017-12-13T10:34:47Z</time>
      </trkpt>
      <trkpt lat="45.85665" lon="4.69863">
        <ele>195</ele>
        <time>2017-12-13T10:34:48Z</time>
      </trkpt>
      <trkpt lat="45.85665" lon="4.69855">
        <ele>195</ele>
        <time>2017-12-13T10:34:49Z</time>
      </trkpt>
      <trkpt lat="45.85664" lon="4.69847">
        <ele>195</ele>
        <time>2017-12-13T10:34:50Z</time>
      </trkpt>
      <trkpt lat="45.85663" lon="4.69839">
        <ele>195</ele>
        <time>2017-12-13T10:34:51Z</time>
      </trkpt>
      <trkpt lat="45.85663" lon="4.69831">
        <ele>195</ele>
        <time>2017-12-13T10:34:52Z</time>
      </trkpt>
      <trkpt lat="45.85663" lon="4.69824">
        <ele>195</ele>
        <time>2017-12-13T10:34:53Z</time>
      </trkpt>
      <trkpt lat="45.85662" lon="4.69817">
        <ele>195</ele>
        <time>2017-12-13T10:34:54Z</time>
      </trkpt>
      <trkpt lat="45.85662" lon="4.6981">
        <ele>195</ele>
        <time>2017-12-13T10:34:55Z</time>
      </trkpt>
      <trkpt lat="45.85661" lon="4.69804">
        <ele>195</ele>
        <time>2017-12-13T10:34:56Z</time>
      </trkpt>
      <trkpt lat="45.8566" lon="4.69797">
        <ele>195</ele>
        <time>2017-12-13T10:34:57Z</time>
      </trkpt>
      <trkpt lat="45.85659" lon="4.6979">
        <ele>195</ele>
        <time>2017-12-13T10:34:58Z</time>
      </trkpt>
      <trkpt lat="45.85658" lon="4.69783">
        <ele>195</ele>
        <time>2017-12-13T10:34:59Z</time>
      </trkpt>
      <trkpt lat="45.85657" lon="4.69776">
        <ele>195</ele>
        <time>2017-12-13T10:35:00Z</time>
      </trkpt>
      <trkpt lat="45.85657" lon="4.69769">
        <ele>195</ele>
        <time>2017-12-13T10:35:01Z</time>
      </trkpt>
      <trkpt lat="45.85655" lon="4.69761">
        <ele>195</ele>
        <time>2017-12-13T10:35:02Z</time>
      </trkpt>
      <trkpt lat="45.85655" lon="4.69753">
        <ele>195</ele>
        <time>2017-12-13T10:35:03Z</time>
      </trkpt>
      <trkpt lat="45.85654" lon="4.69745">
        <ele>195</ele>
        <time>2017-12-13T10:35:04Z</time>
      </trkpt>
      <trkpt lat="45.85654" lon="4.69737">
        <ele>195</ele>
        <time>2017-12-13T10:35:05Z</time>
      </trkpt>
      <trkpt lat="45.85653" lon="4.6973">
        <ele>195</ele>
        <time>2017-12-13T10:35:06Z</time>
      </trkpt>
      <trkpt lat="45.85653" lon="4.69722">
        <ele>195</ele>
        <time>2017-12-13T10:35:07Z</time>
      </trkpt>
      <trkpt lat="45.85652" lon="4.69714">
        <ele>196</ele>
        <time>2017-12-13T10:35:08Z</time>
      </trkpt>
      <trkpt lat="45.85651" lon="4.69707">
        <ele>196</ele>
        <time>2017-12-13T10:35:09Z</time>
      </trkpt>
      <trkpt lat="45.8565" lon="4.69694">
        <ele>196</ele>
        <time>2017-12-13T10:35:11Z</time>
      </trkpt>
      <trkpt lat="45.85649" lon="4.69687">
        <ele>196</ele>
        <time>2017-12-13T10:35:12Z</time>
      </trkpt>
      <trkpt lat="45.85648" lon="4.69681">
        <ele>196</ele>
        <time>2017-12-13T10:35:13Z</time>
      </trkpt>
      <trkpt lat="45.85647" lon="4.69673">
        <ele>196</ele>
        <time>2017-12-13T10:35:14Z</time>
      </trkpt>
      <trkpt lat="45.85646" lon="4.69666">
        <ele>197</ele>
        <time>2017-12-13T10:35:15Z</time>
      </trkpt>
      <trkpt lat="45.85646" lon="4.69659">
        <ele>197</ele>
        <time>2017-12-13T10:35:16Z</time>
      </trkpt>
      <trkpt lat="45.85645" lon="4.69651">
        <ele>197</ele>
        <time>2017-12-13T10:35:17Z</time>
      </trkpt>
      <trkpt lat="45.85645" lon="4.69643">
        <ele>197</ele>
        <time>2017-12-13T10:35:18Z</time>
      </trkpt>
      <trkpt lat="45.85644" lon="4.69634">
        <ele>197</ele>
        <time>2017-12-13T10:35:19Z</time>
      </trkpt>
      <trkpt lat="45.85643" lon="4.69627">
        <ele>197</ele>
        <time>2017-12-13T10:35:20Z</time>
      </trkpt>
      <trkpt lat="45.85643" lon="4.69619">
        <ele>197</ele>
        <time>2017-12-13T10:35:21Z</time>
      </trkpt>
      <trkpt lat="45.85642" lon="4.69612">
        <ele>197</ele>
        <time>2017-12-13T10:35:22Z</time>
      </trkpt>
      <trkpt lat="45.85641" lon="4.69606">
        <ele>197</ele>
        <time>2017-12-13T10:35:23Z</time>
      </trkpt>
      <trkpt lat="45.8564" lon="4.69599">
        <ele>197</ele>
        <time>2017-12-13T10:35:24Z</time>
      </trkpt>
      <trkpt lat="45.85641" lon="4.69592">
        <ele>197</ele>
        <time>2017-12-13T10:35:25Z</time>
      </trkpt>
      <trkpt lat="45.8564" lon="4.69585">
        <ele>197</ele>
        <time>2017-12-13T10:35:26Z</time>
      </trkpt>
      <trkpt lat="45.85639" lon="4.69577">
        <ele>198</ele>
        <time>2017-12-13T10:35:27Z</time>
      </trkpt>
      <trkpt lat="45.85639" lon="4.69569">
        <ele>198</ele>
        <time>2017-12-13T10:35:28Z</time>
      </trkpt>
      <trkpt lat="45.85639" lon="4.69557">
        <ele>198</ele>
        <time>2017-12-13T10:35:30Z</time>
      </trkpt>
      <trkpt lat="45.85638" lon="4.6955">
        <ele>198</ele>
        <time>2017-12-13T10:35:31Z</time>
      </trkpt>
      <trkpt lat="45.85638" lon="4.69543">
        <ele>198</ele>
        <time>2017-12-13T10:35:32Z</time>
      </trkpt>
      <trkpt lat="45.85638" lon="4.69536">
        <ele>198</ele>
        <time>2017-12-13T10:35:33Z</time>
      </trkpt>
      <trkpt lat="45.85637" lon="4.69528">
        <ele>198</ele>
        <time>2017-12-13T10:35:34Z</time>
      </trkpt>
      <trkpt lat="45.85636" lon="4.6952">
        <ele>198</ele>
        <time>2017-12-13T10:35:35Z</time>
      </trkpt>
      <trkpt lat="45.85636" lon="4.69514">
        <ele>198</ele>
        <time>2017-12-13T10:35:36Z</time>
      </trkpt>
      <trkpt lat="45.85634" lon="4.69507">
        <ele>198</ele>
        <time>2017-12-13T10:35:37Z</time>
      </trkpt>
      <trkpt lat="45.85633" lon="4.695">
        <ele>198</ele>
        <time>2017-12-13T10:35:38Z</time>
      </trkpt>
      <trkpt lat="45.85632" lon="4.69494">
        <ele>198</ele>
        <time>2017-12-13T10:35:39Z</time>
      </trkpt>
      <trkpt lat="45.85632" lon="4.69481">
        <ele>198</ele>
        <time>2017-12-13T10:35:41Z</time>
      </trkpt>
      <trkpt lat="45.85631" lon="4.69475">
        <ele>198</ele>
        <time>2017-12-13T10:35:42Z</time>
      </trkpt>
      <trkpt lat="45.8563" lon="4.69463">
        <ele>198</ele>
        <time>2017-12-13T10:35:44Z</time>
      </trkpt>
      <trkpt lat="45.85629" lon="4.69456">
        <ele>198</ele>
        <time>2017-12-13T10:35:45Z</time>
      </trkpt>
      <trkpt lat="45.85628" lon="4.69449">
        <ele>198</ele>
        <time>2017-12-13T10:35:46Z</time>
      </trkpt>
      <trkpt lat="45.85627" lon="4.69443">
        <ele>198</ele>
        <time>2017-12-13T10:35:47Z</time>
      </trkpt>
      <trkpt lat="45.85627" lon="4.69436">
        <ele>198</ele>
        <time>2017-12-13T10:35:48Z</time>
      </trkpt>
      <trkpt lat="45.85626" lon="4.69428">
        <ele>198</ele>
        <time>2017-12-13T10:35:49Z</time>
      </trkpt>
      <trkpt lat="45.85624" lon="4.69416">
        <ele>198</ele>
        <time>2017-12-13T10:35:51Z</time>
      </trkpt>
      <trkpt lat="45.85624" lon="4.6941">
        <ele>198</ele>
        <time>2017-12-13T10:35:52Z</time>
      </trkpt>
      <trkpt lat="45.85622" lon="4.69403">
        <ele>198</ele>
        <time>2017-12-13T10:35:53Z</time>
      </trkpt>
      <trkpt lat="45.8562" lon="4.69394">
        <ele>198</ele>
        <time>2017-12-13T10:35:54Z</time>
      </trkpt>
      <trkpt lat="45.8562" lon="4.69388">
        <ele>198</ele>
        <time>2017-12-13T10:35:55Z</time>
      </trkpt>
      <trkpt lat="45.8562" lon="4.69381">
        <ele>198</ele>
        <time>2017-12-13T10:35:56Z</time>
      </trkpt>
      <trkpt lat="45.85619" lon="4.69373">
        <ele>198</ele>
        <time>2017-12-13T10:35:57Z</time>
      </trkpt>
      <trkpt lat="45.85618" lon="4.69366">
        <ele>198</ele>
        <time>2017-12-13T10:35:58Z</time>
      </trkpt>
      <trkpt lat="45.85618" lon="4.69359">
        <ele>198</ele>
        <time>2017-12-13T10:35:59Z</time>
      </trkpt>
      <trkpt lat="45.85617" lon="4.69353">
        <ele>198</ele>
        <time>2017-12-13T10:36:00Z</time>
      </trkpt>
      <trkpt lat="45.85616" lon="4.69345">
        <ele>198</ele>
        <time>2017-12-13T10:36:01Z</time>
      </trkpt>
      <trkpt lat="45.85615" lon="4.69337">
        <ele>198</ele>
        <time>2017-12-13T10:36:02Z</time>
      </trkpt>
      <trkpt lat="45.85614" lon="4.6933">
        <ele>198</ele>
        <time>2017-12-13T10:36:03Z</time>
      </trkpt>
      <trkpt lat="45.85614" lon="4.69323">
        <ele>198</ele>
        <time>2017-12-13T10:36:04Z</time>
      </trkpt>
      <trkpt lat="45.85613" lon="4.69316">
        <ele>198</ele>
        <time>2017-12-13T10:36:05Z</time>
      </trkpt>
      <trkpt lat="45.85613" lon="4.69309">
        <ele>198</ele>
        <time>2017-12-13T10:36:06Z</time>
      </trkpt>
      <trkpt lat="45.85611" lon="4.69297">
        <ele>198</ele>
        <time>2017-12-13T10:36:08Z</time>
      </trkpt>
      <trkpt lat="45.8561" lon="4.69291">
        <ele>198</ele>
        <time>2017-12-13T10:36:09Z</time>
      </trkpt>
      <trkpt lat="45.8561" lon="4.69282">
        <ele>198</ele>
        <time>2017-12-13T10:36:11Z</time>
      </trkpt>
      <trkpt lat="45.8561" lon="4.69278">
        <ele>198</ele>
        <time>2017-12-13T10:36:12Z</time>
      </trkpt>
      <trkpt lat="45.85614" lon="4.69268">
        <ele>198</ele>
        <time>2017-12-13T10:36:15Z</time>
      </trkpt>
      <trkpt lat="45.85615" lon="4.69263">
        <ele>198</ele>
        <time>2017-12-13T10:36:16Z</time>
      </trkpt>
      <trkpt lat="45.85615" lon="4.69253">
        <ele>198</ele>
        <time>2017-12-13T10:36:18Z</time>
      </trkpt>
      <trkpt lat="45.85614" lon="4.69248">
        <ele>199</ele>
        <time>2017-12-13T10:36:19Z</time>
      </trkpt>
      <trkpt lat="45.8561" lon="4.69237">
        <ele>199</ele>
        <time>2017-12-13T10:36:21Z</time>
      </trkpt>
      <trkpt lat="45.85608" lon="4.69231">
        <ele>199</ele>
        <time>2017-12-13T10:36:22Z</time>
      </trkpt>
      <trkpt lat="45.85607" lon="4.69222">
        <ele>199</ele>
        <time>2017-12-13T10:36:23Z</time>
      </trkpt>
      <trkpt lat="45.85606" lon="4.69216">
        <ele>199</ele>
        <time>2017-12-13T10:36:24Z</time>
      </trkpt>
      <trkpt lat="45.85605" lon="4.69208">
        <ele>199</ele>
        <time>2017-12-13T10:36:25Z</time>
      </trkpt>
      <trkpt lat="45.85605" lon="4.69199">
        <ele>199</ele>
        <time>2017-12-13T10:36:26Z</time>
      </trkpt>
      <trkpt lat="45.85604" lon="4.69192">
        <ele>199</ele>
        <time>2017-12-13T10:36:27Z</time>
      </trkpt>
      <trkpt lat="45.85604" lon="4.69184">
        <ele>199</ele>
        <time>2017-12-13T10:36:28Z</time>
      </trkpt>
      <trkpt lat="45.85604" lon="4.69177">
        <ele>199</ele>
        <time>2017-12-13T10:36:29Z</time>
      </trkpt>
      <trkpt lat="45.85603" lon="4.6917">
        <ele>199</ele>
        <time>2017-12-13T10:36:30Z</time>
      </trkpt>
      <trkpt lat="45.85602" lon="4.69158">
        <ele>199</ele>
        <time>2017-12-13T10:36:32Z</time>
      </trkpt>
      <trkpt lat="45.85601" lon="4.69152">
        <ele>199</ele>
        <time>2017-12-13T10:36:33Z</time>
      </trkpt>
      <trkpt lat="45.85599" lon="4.69139">
        <ele>199</ele>
        <time>2017-12-13T10:36:35Z</time>
      </trkpt>
      <trkpt lat="45.85599" lon="4.69134">
        <ele>198</ele>
        <time>2017-12-13T10:36:36Z</time>
      </trkpt>
      <trkpt lat="45.85599" lon="4.69127">
        <ele>198</ele>
        <time>2017-12-13T10:36:37Z</time>
      </trkpt>
      <trkpt lat="45.85597" lon="4.6912">
        <ele>198</ele>
        <time>2017-12-13T10:36:38Z</time>
      </trkpt>
      <trkpt lat="45.85597" lon="4.69114">
        <ele>198</ele>
        <time>2017-12-13T10:36:39Z</time>
      </trkpt>
      <trkpt lat="45.85596" lon="4.69107">
        <ele>199</ele>
        <time>2017-12-13T10:36:40Z</time>
      </trkpt>
      <trkpt lat="45.85595" lon="4.691">
        <ele>199</ele>
        <time>2017-12-13T10:36:41Z</time>
      </trkpt>
      <trkpt lat="45.85595" lon="4.69093">
        <ele>199</ele>
        <time>2017-12-13T10:36:42Z</time>
      </trkpt>
      <trkpt lat="45.85595" lon="4.69087">
        <ele>199</ele>
        <time>2017-12-13T10:36:43Z</time>
      </trkpt>
      <trkpt lat="45.85594" lon="4.6908">
        <ele>199</ele>
        <time>2017-12-13T10:36:44Z</time>
      </trkpt>
      <trkpt lat="45.85593" lon="4.69072">
        <ele>199</ele>
        <time>2017-12-13T10:36:45Z</time>
      </trkpt>
      <trkpt lat="45.85593" lon="4.69066">
        <ele>199</ele>
        <time>2017-12-13T10:36:46Z</time>
      </trkpt>
      <trkpt lat="45.85592" lon="4.69059">
        <ele>199</ele>
        <time>2017-12-13T10:36:47Z</time>
      </trkpt>
      <trkpt lat="45.85591" lon="4.69053">
        <ele>199</ele>
        <time>2017-12-13T10:36:48Z</time>
      </trkpt>
      <trkpt lat="45.85591" lon="4.69046">
        <ele>199</ele>
        <time>2017-12-13T10:36:49Z</time>
      </trkpt>
      <trkpt lat="45.85591" lon="4.6904">
        <ele>199</ele>
        <time>2017-12-13T10:36:50Z</time>
      </trkpt>
      <trkpt lat="45.8559" lon="4.69033">
        <ele>199</ele>
        <time>2017-12-13T10:36:51Z</time>
      </trkpt>
      <trkpt lat="45.85588" lon="4.69024">
        <ele>199</ele>
        <time>2017-12-13T10:36:52Z</time>
      </trkpt>
      <trkpt lat="45.85588" lon="4.69017">
        <ele>199</ele>
        <time>2017-12-13T10:36:53Z</time>
      </trkpt>
      <trkpt lat="45.85587" lon="4.6901">
        <ele>200</ele>
        <time>2017-12-13T10:36:54Z</time>
      </trkpt>
      <trkpt lat="45.85587" lon="4.69003">
        <ele>200</ele>
        <time>2017-12-13T10:36:55Z</time>
      </trkpt>
      <trkpt lat="45.85586" lon="4.68996">
        <ele>200</ele>
        <time>2017-12-13T10:36:56Z</time>
      </trkpt>
      <trkpt lat="45.85585" lon="4.68988">
        <ele>200</ele>
        <time>2017-12-13T10:36:57Z</time>
      </trkpt>
      <trkpt lat="45.85584" lon="4.68982">
        <ele>200</ele>
        <time>2017-12-13T10:36:58Z</time>
      </trkpt>
      <trkpt lat="45.85583" lon="4.68974">
        <ele>200</ele>
        <time>2017-12-13T10:36:59Z</time>
      </trkpt>
      <trkpt lat="45.85583" lon="4.68967">
        <ele>200</ele>
        <time>2017-12-13T10:37:00Z</time>
      </trkpt>
      <trkpt lat="45.85582" lon="4.68959">
        <ele>200</ele>
        <time>2017-12-13T10:37:01Z</time>
      </trkpt>
      <trkpt lat="45.85582" lon="4.6895">
        <ele>200</ele>
        <time>2017-12-13T10:37:02Z</time>
      </trkpt>
      <trkpt lat="45.85581" lon="4.68943">
        <ele>200</ele>
        <time>2017-12-13T10:37:03Z</time>
      </trkpt>
      <trkpt lat="45.85579" lon="4.68936">
        <ele>200</ele>
        <time>2017-12-13T10:37:04Z</time>
      </trkpt>
      <trkpt lat="45.85578" lon="4.6893">
        <ele>200</ele>
        <time>2017-12-13T10:37:05Z</time>
      </trkpt>
      <trkpt lat="45.85578" lon="4.68923">
        <ele>200</ele>
        <time>2017-12-13T10:37:06Z</time>
      </trkpt>
      <trkpt lat="45.85578" lon="4.68916">
        <ele>200</ele>
        <time>2017-12-13T10:37:07Z</time>
      </trkpt>
      <trkpt lat="45.85577" lon="4.68908">
        <ele>200</ele>
        <time>2017-12-13T10:37:08Z</time>
      </trkpt>
      <trkpt lat="45.85577" lon="4.68896">
        <ele>200</ele>
        <time>2017-12-13T10:37:10Z</time>
      </trkpt>
      <trkpt lat="45.85576" lon="4.6889">
        <ele>200</ele>
        <time>2017-12-13T10:37:11Z</time>
      </trkpt>
      <trkpt lat="45.85575" lon="4.68878">
        <ele>200</ele>
        <time>2017-12-13T10:37:13Z</time>
      </trkpt>
      <trkpt lat="45.85574" lon="4.68873">
        <ele>200</ele>
        <time>2017-12-13T10:37:14Z</time>
      </trkpt>
      <trkpt lat="45.85574" lon="4.68861">
        <ele>200</ele>
        <time>2017-12-13T10:37:17Z</time>
      </trkpt>
      <trkpt lat="45.85574" lon="4.68858">
        <ele>200</ele>
        <time>2017-12-13T10:37:18Z</time>
      </trkpt>
      <trkpt lat="45.85573" lon="4.68846">
        <ele>200</ele>
        <time>2017-12-13T10:37:24Z</time>
      </trkpt>
      <trkpt lat="45.85573" lon="4.68842">
        <ele>200</ele>
        <time>2017-12-13T10:37:25Z</time>
      </trkpt>
      <trkpt lat="45.85572" lon="4.68833">
        <ele>200</ele>
        <time>2017-12-13T10:37:27Z</time>
      </trkpt>
      <trkpt lat="45.8557" lon="4.68827">
        <ele>200</ele>
        <time>2017-12-13T10:37:28Z</time>
      </trkpt>
      <trkpt lat="45.85569" lon="4.6882">
        <ele>200</ele>
        <time>2017-12-13T10:37:29Z</time>
      </trkpt>
      <trkpt lat="45.85569" lon="4.68813">
        <ele>200</ele>
        <time>2017-12-13T10:37:30Z</time>
      </trkpt>
      <trkpt lat="45.85568" lon="4.68807">
        <ele>200</ele>
        <time>2017-12-13T10:37:31Z</time>
      </trkpt>
      <trkpt lat="45.85567" lon="4.68798">
        <ele>200</ele>
        <time>2017-12-13T10:37:32Z</time>
      </trkpt>
      <trkpt lat="45.85567" lon="4.68791">
        <ele>200</ele>
        <time>2017-12-13T10:37:33Z</time>
      </trkpt>
      <trkpt lat="45.85566" lon="4.68782">
        <ele>200</ele>
        <time>2017-12-13T10:37:34Z</time>
      </trkpt>
      <trkpt lat="45.85566" lon="4.68774">
        <ele>200</ele>
        <time>2017-12-13T10:37:35Z</time>
      </trkpt>
      <trkpt lat="45.85566" lon="4.68764">
        <ele>200</ele>
        <time>2017-12-13T10:37:36Z</time>
      </trkpt>
      <trkpt lat="45.85567" lon="4.68756">
        <ele>200</ele>
        <time>2017-12-13T10:37:37Z</time>
      </trkpt>
      <trkpt lat="45.85566" lon="4.68747">
        <ele>200</ele>
        <time>2017-12-13T10:37:38Z</time>
      </trkpt>
      <trkpt lat="45.85564" lon="4.68738">
        <ele>200</ele>
        <time>2017-12-13T10:37:39Z</time>
      </trkpt>
      <trkpt lat="45.85563" lon="4.68729">
        <ele>200</ele>
        <time>2017-12-13T10:37:40Z</time>
      </trkpt>
      <trkpt lat="45.85562" lon="4.6872">
        <ele>200</ele>
        <time>2017-12-13T10:37:41Z</time>
      </trkpt>
      <trkpt lat="45.85561" lon="4.68711">
        <ele>200</ele>
        <time>2017-12-13T10:37:42Z</time>
      </trkpt>
      <trkpt lat="45.8556" lon="4.68702">
        <ele>200</ele>
        <time>2017-12-13T10:37:43Z</time>
      </trkpt>
      <trkpt lat="45.85559" lon="4.68692">
        <ele>200</ele>
        <time>2017-12-13T10:37:44Z</time>
      </trkpt>
      <trkpt lat="45.85558" lon="4.68683">
        <ele>200</ele>
        <time>2017-12-13T10:37:45Z</time>
      </trkpt>
      <trkpt lat="45.85557" lon="4.68674">
        <ele>200</ele>
        <time>2017-12-13T10:37:46Z</time>
      </trkpt>
      <trkpt lat="45.85556" lon="4.68666">
        <ele>200</ele>
        <time>2017-12-13T10:37:47Z</time>
      </trkpt>
      <trkpt lat="45.85556" lon="4.68656">
        <ele>200</ele>
        <time>2017-12-13T10:37:48Z</time>
      </trkpt>
      <trkpt lat="45.85555" lon="4.68647">
        <ele>201</ele>
        <time>2017-12-13T10:37:49Z</time>
      </trkpt>
      <trkpt lat="45.85554" lon="4.68638">
        <ele>201</ele>
        <time>2017-12-13T10:37:50Z</time>
      </trkpt>
      <trkpt lat="45.85554" lon="4.6863">
        <ele>201</ele>
        <time>2017-12-13T10:37:51Z</time>
      </trkpt>
      <trkpt lat="45.85553" lon="4.68622">
        <ele>201</ele>
        <time>2017-12-13T10:37:52Z</time>
      </trkpt>
      <trkpt lat="45.85552" lon="4.68613">
        <ele>201</ele>
        <time>2017-12-13T10:37:53Z</time>
      </trkpt>
      <trkpt lat="45.85551" lon="4.68603">
        <ele>201</ele>
        <time>2017-12-13T10:37:54Z</time>
      </trkpt>
      <trkpt lat="45.85551" lon="4.68596">
        <ele>201</ele>
        <time>2017-12-13T10:37:55Z</time>
      </trkpt>
      <trkpt lat="45.8555" lon="4.68587">
        <ele>201</ele>
        <time>2017-12-13T10:37:56Z</time>
      </trkpt>
      <trkpt lat="45.8555" lon="4.68576">
        <ele>201</ele>
        <time>2017-12-13T10:37:57Z</time>
      </trkpt>
      <trkpt lat="45.85549" lon="4.68568">
        <ele>201</ele>
        <time>2017-12-13T10:37:58Z</time>
      </trkpt>
      <trkpt lat="45.85548" lon="4.68561">
        <ele>201</ele>
        <time>2017-12-13T10:37:59Z</time>
      </trkpt>
      <trkpt lat="45.85547" lon="4.68554">
        <ele>201</ele>
        <time>2017-12-13T10:38:00Z</time>
      </trkpt>
      <trkpt lat="45.85546" lon="4.68547">
        <ele>201</ele>
        <time>2017-12-13T10:38:01Z</time>
      </trkpt>
      <trkpt lat="45.85545" lon="4.6854">
        <ele>201</ele>
        <time>2017-12-13T10:38:02Z</time>
      </trkpt>
      <trkpt lat="45.85544" lon="4.68533">
        <ele>201</ele>
        <time>2017-12-13T10:38:03Z</time>
      </trkpt>
      <trkpt lat="45.85544" lon="4.68526">
        <ele>201</ele>
        <time>2017-12-13T10:38:04Z</time>
      </trkpt>
      <trkpt lat="45.85543" lon="4.68518">
        <ele>201</ele>
        <time>2017-12-13T10:38:05Z</time>
      </trkpt>
      <trkpt lat="45.85543" lon="4.68511">
        <ele>201</ele>
        <time>2017-12-13T10:38:06Z</time>
      </trkpt>
      <trkpt lat="45.85543" lon="4.68505">
        <ele>201</ele>
        <time>2017-12-13T10:38:07Z</time>
      </trkpt>
      <trkpt lat="45.85543" lon="4.68497">
        <ele>200</ele>
        <time>2017-12-13T10:38:08Z</time>
      </trkpt>
      <trkpt lat="45.85541" lon="4.6849">
        <ele>200</ele>
        <time>2017-12-13T10:38:09Z</time>
      </trkpt>
      <trkpt lat="45.85539" lon="4.68484">
        <ele>200</ele>
        <time>2017-12-13T10:38:10Z</time>
      </trkpt>
      <trkpt lat="45.85538" lon="4.68476">
        <ele>200</ele>
        <time>2017-12-13T10:38:11Z</time>
      </trkpt>
      <trkpt lat="45.85537" lon="4.68468">
        <ele>200</ele>
        <time>2017-12-13T10:38:12Z</time>
      </trkpt>
      <trkpt lat="45.85536" lon="4.6846">
        <ele>200</ele>
        <time>2017-12-13T10:38:13Z</time>
      </trkpt>
      <trkpt lat="45.85534" lon="4.68451">
        <ele>200</ele>
        <time>2017-12-13T10:38:14Z</time>
      </trkpt>
      <trkpt lat="45.85533" lon="4.68442">
        <ele>200</ele>
        <time>2017-12-13T10:38:15Z</time>
      </trkpt>
      <trkpt lat="45.85532" lon="4.68434">
        <ele>200</ele>
        <time>2017-12-13T10:38:16Z</time>
      </trkpt>
      <trkpt lat="45.85531" lon="4.68427">
        <ele>200</ele>
        <time>2017-12-13T10:38:17Z</time>
      </trkpt>
      <trkpt lat="45.85531" lon="4.68419">
        <ele>200</ele>
        <time>2017-12-13T10:38:18Z</time>
      </trkpt>
      <trkpt lat="45.8553" lon="4.68412">
        <ele>200</ele>
        <time>2017-12-13T10:38:19Z</time>
      </trkpt>
      <trkpt lat="45.8553" lon="4.68405">
        <ele>200</ele>
        <time>2017-12-13T10:38:20Z</time>
      </trkpt>
      <trkpt lat="45.8553" lon="4.68398">
        <ele>200</ele>
        <time>2017-12-13T10:38:21Z</time>
      </trkpt>
      <trkpt lat="45.85529" lon="4.68391">
        <ele>200</ele>
        <time>2017-12-13T10:38:22Z</time>
      </trkpt>
      <trkpt lat="45.85528" lon="4.68384">
        <ele>200</ele>
        <time>2017-12-13T10:38:23Z</time>
      </trkpt>
      <trkpt lat="45.85527" lon="4.68375">
        <ele>201</ele>
        <time>2017-12-13T10:38:24Z</time>
      </trkpt>
      <trkpt lat="45.85527" lon="4.68367">
        <ele>201</ele>
        <time>2017-12-13T10:38:25Z</time>
      </trkpt>
      <trkpt lat="45.85526" lon="4.6836">
        <ele>201</ele>
        <time>2017-12-13T10:38:26Z</time>
      </trkpt>
      <trkpt lat="45.85526" lon="4.68352">
        <ele>201</ele>
        <time>2017-12-13T10:38:27Z</time>
      </trkpt>
      <trkpt lat="45.85525" lon="4.68346">
        <ele>201</ele>
        <time>2017-12-13T10:38:28Z</time>
      </trkpt>
      <trkpt lat="45.85524" lon="4.6834">
        <ele>201</ele>
        <time>2017-12-13T10:38:29Z</time>
      </trkpt>
      <trkpt lat="45.85524" lon="4.68333">
        <ele>202</ele>
        <time>2017-12-13T10:38:30Z</time>
      </trkpt>
      <trkpt lat="45.85523" lon="4.68326">
        <ele>202</ele>
        <time>2017-12-13T10:38:31Z</time>
      </trkpt>
      <trkpt lat="45.85522" lon="4.68319">
        <ele>202</ele>
        <time>2017-12-13T10:38:32Z</time>
      </trkpt>
      <trkpt lat="45.8552" lon="4.68312">
        <ele>202</ele>
        <time>2017-12-13T10:38:33Z</time>
      </trkpt>
      <trkpt lat="45.85519" lon="4.68305">
        <ele>202</ele>
        <time>2017-12-13T10:38:34Z</time>
      </trkpt>
      <trkpt lat="45.85517" lon="4.68293">
        <ele>202</ele>
        <time>2017-12-13T10:38:36Z</time>
      </trkpt>
      <trkpt lat="45.85516" lon="4.68287">
        <ele>202</ele>
        <time>2017-12-13T10:38:37Z</time>
      </trkpt>
      <trkpt lat="45.85515" lon="4.68275">
        <ele>202</ele>
        <time>2017-12-13T10:38:39Z</time>
      </trkpt>
      <trkpt lat="45.85514" lon="4.68268">
        <ele>202</ele>
        <time>2017-12-13T10:38:40Z</time>
      </trkpt>
      <trkpt lat="45.85513" lon="4.68262">
        <ele>202</ele>
        <time>2017-12-13T10:38:41Z</time>
      </trkpt>
      <trkpt lat="45.85512" lon="4.68254">
        <ele>203</ele>
        <time>2017-12-13T10:38:42Z</time>
      </trkpt>
      <trkpt lat="45.85512" lon="4.68247">
        <ele>203</ele>
        <time>2017-12-13T10:38:43Z</time>
      </trkpt>
      <trkpt lat="45.85511" lon="4.6824">
        <ele>203</ele>
        <time>2017-12-13T10:38:44Z</time>
      </trkpt>
      <trkpt lat="45.85512" lon="4.68228">
        <ele>203</ele>
        <time>2017-12-13T10:38:46Z</time>
      </trkpt>
      <trkpt lat="45.85512" lon="4.68222">
        <ele>203</ele>
        <time>2017-12-13T10:38:47Z</time>
      </trkpt>
      <trkpt lat="45.85513" lon="4.68215">
        <ele>203</ele>
        <time>2017-12-13T10:38:48Z</time>
      </trkpt>
      <trkpt lat="45.85513" lon="4.68208">
        <ele>203</ele>
        <time>2017-12-13T10:38:49Z</time>
      </trkpt>
      <trkpt lat="45.85512" lon="4.68201">
        <ele>203</ele>
        <time>2017-12-13T10:38:50Z</time>
      </trkpt>
      <trkpt lat="45.85511" lon="4.68194">
        <ele>203</ele>
        <time>2017-12-13T10:38:51Z</time>
      </trkpt>
      <trkpt lat="45.8551" lon="4.68186">
        <ele>203</ele>
        <time>2017-12-13T10:38:52Z</time>
      </trkpt>
      <trkpt lat="45.85509" lon="4.68179">
        <ele>204</ele>
        <time>2017-12-13T10:38:53Z</time>
      </trkpt>
      <trkpt lat="45.85508" lon="4.6817">
        <ele>204</ele>
        <time>2017-12-13T10:38:54Z</time>
      </trkpt>
      <trkpt lat="45.85507" lon="4.68163">
        <ele>204</ele>
        <time>2017-12-13T10:38:55Z</time>
      </trkpt>
      <trkpt lat="45.85506" lon="4.68156">
        <ele>203</ele>
        <time>2017-12-13T10:38:56Z</time>
      </trkpt>
      <trkpt lat="45.85506" lon="4.68149">
        <ele>203</ele>
        <time>2017-12-13T10:38:57Z</time>
      </trkpt>
      <trkpt lat="45.85504" lon="4.68141">
        <ele>203</ele>
        <time>2017-12-13T10:38:58Z</time>
      </trkpt>
      <trkpt lat="45.85504" lon="4.68133">
        <ele>203</ele>
        <time>2017-12-13T10:38:59Z</time>
      </trkpt>
      <trkpt lat="45.85503" lon="4.68127">
        <ele>203</ele>
        <time>2017-12-13T10:39:00Z</time>
      </trkpt>
      <trkpt lat="45.85503" lon="4.6812">
        <ele>203</ele>
        <time>2017-12-13T10:39:01Z</time>
      </trkpt>
      <trkpt lat="45.85503" lon="4.68113">
        <ele>203</ele>
        <time>2017-12-13T10:39:02Z</time>
      </trkpt>
      <trkpt lat="45.85502" lon="4.68105">
        <ele>203</ele>
        <time>2017-12-13T10:39:03Z</time>
      </trkpt>
      <trkpt lat="45.85501" lon="4.68092">
        <ele>204</ele>
        <time>2017-12-13T10:39:05Z</time>
      </trkpt>
      <trkpt lat="45.855" lon="4.68087">
        <ele>204</ele>
        <time>2017-12-13T10:39:06Z</time>
      </trkpt>
      <trkpt lat="45.85497" lon="4.68078">
        <ele>205</ele>
        <time>2017-12-13T10:39:08Z</time>
      </trkpt>
      <trkpt lat="45.85497" lon="4.68074">
        <ele>205</ele>
        <time>2017-12-13T10:39:09Z</time>
      </trkpt>
      <trkpt lat="45.85497" lon="4.68062">
        <ele>206</ele>
        <time>2017-12-13T10:39:11Z</time>
      </trkpt>
      <trkpt lat="45.85496" lon="4.68056">
        <ele>206</ele>
        <time>2017-12-13T10:39:12Z</time>
      </trkpt>
      <trkpt lat="45.85495" lon="4.68046">
        <ele>206</ele>
        <time>2017-12-13T10:39:14Z</time>
      </trkpt>
      <trkpt lat="45.85495" lon="4.68041">
        <ele>206</ele>
        <time>2017-12-13T10:39:15Z</time>
      </trkpt>
      <trkpt lat="45.85494" lon="4.68031">
        <ele>207</ele>
        <time>2017-12-13T10:39:17Z</time>
      </trkpt>
      <trkpt lat="45.85494" lon="4.68027">
        <ele>207</ele>
        <time>2017-12-13T10:39:18Z</time>
      </trkpt>
      <trkpt lat="45.85495" lon="4.68014">
        <ele>207</ele>
        <time>2017-12-13T10:39:21Z</time>
      </trkpt>
      <trkpt lat="45.85496" lon="4.6801">
        <ele>206</ele>
        <time>2017-12-13T10:39:22Z</time>
      </trkpt>
      <trkpt lat="45.855" lon="4.68001">
        <ele>206</ele>
        <time>2017-12-13T10:39:24Z</time>
      </trkpt>
      <trkpt lat="45.85503" lon="4.67997">
        <ele>206</ele>
        <time>2017-12-13T10:39:25Z</time>
      </trkpt>
      <trkpt lat="45.85509" lon="4.67988">
        <ele>206</ele>
        <time>2017-12-13T10:39:27Z</time>
      </trkpt>
      <trkpt lat="45.85513" lon="4.67985">
        <ele>206</ele>
        <time>2017-12-13T10:39:28Z</time>
      </trkpt>
      <trkpt lat="45.85517" lon="4.6798">
        <ele>206</ele>
        <time>2017-12-13T10:39:29Z</time>
      </trkpt>
      <trkpt lat="45.85521" lon="4.67976">
        <ele>206</ele>
        <time>2017-12-13T10:39:30Z</time>
      </trkpt>
      <trkpt lat="45.85525" lon="4.67972">
        <ele>205</ele>
        <time>2017-12-13T10:39:31Z</time>
      </trkpt>
      <trkpt lat="45.8553" lon="4.67969">
        <ele>205</ele>
        <time>2017-12-13T10:39:32Z</time>
      </trkpt>
      <trkpt lat="45.85534" lon="4.67965">
        <ele>205</ele>
        <time>2017-12-13T10:39:33Z</time>
      </trkpt>
      <trkpt lat="45.85538" lon="4.67959">
        <ele>205</ele>
        <time>2017-12-13T10:39:34Z</time>
      </trkpt>
      <trkpt lat="45.85542" lon="4.67955">
        <ele>205</ele>
        <time>2017-12-13T10:39:35Z</time>
      </trkpt>
      <trkpt lat="45.85546" lon="4.67951">
        <ele>205</ele>
        <time>2017-12-13T10:39:36Z</time>
      </trkpt>
      <trkpt lat="45.85552" lon="4.67945">
        <ele>205</ele>
        <time>2017-12-13T10:39:38Z</time>
      </trkpt>
      <trkpt lat="45.85555" lon="4.67942">
        <ele>205</ele>
        <time>2017-12-13T10:39:39Z</time>
      </trkpt>
      <trkpt lat="45.8556" lon="4.67935">
        <ele>205</ele>
        <time>2017-12-13T10:39:42Z</time>
      </trkpt>
      <trkpt lat="45.85561" lon="4.67933">
        <ele>205</ele>
        <time>2017-12-13T10:39:43Z</time>
      </trkpt>
      <trkpt lat="45.85569" lon="4.67929">
        <ele>205</ele>
        <time>2017-12-13T10:39:47Z</time>
      </trkpt>
      <trkpt lat="45.85572" lon="4.67928">
        <ele>205</ele>
        <time>2017-12-13T10:39:48Z</time>
      </trkpt>
      <trkpt lat="45.85579" lon="4.67933">
        <ele>205</ele>
        <time>2017-12-13T10:39:50Z</time>
      </trkpt>
      <trkpt lat="45.85582" lon="4.67937">
        <ele>204</ele>
        <time>2017-12-13T10:39:51Z</time>
      </trkpt>
      <trkpt lat="45.85583" lon="4.67945">
        <ele>204</ele>
        <time>2017-12-13T10:39:52Z</time>
      </trkpt>
      <trkpt lat="45.85585" lon="4.67952">
        <ele>203</ele>
        <time>2017-12-13T10:39:53Z</time>
      </trkpt>
      <trkpt lat="45.85587" lon="4.67958">
        <ele>203</ele>
        <time>2017-12-13T10:39:54Z</time>
      </trkpt>
      <trkpt lat="45.8559" lon="4.67964">
        <ele>203</ele>
        <time>2017-12-13T10:39:55Z</time>
      </trkpt>
      <trkpt lat="45.85593" lon="4.6797">
        <ele>203</ele>
        <time>2017-12-13T10:39:56Z</time>
      </trkpt>
      <trkpt lat="45.85595" lon="4.67976">
        <ele>203</ele>
        <time>2017-12-13T10:39:57Z</time>
      </trkpt>
      <trkpt lat="45.85598" lon="4.67982">
        <ele>203</ele>
        <time>2017-12-13T10:39:58Z</time>
      </trkpt>
      <trkpt lat="45.85601" lon="4.67988">
        <ele>202</ele>
        <time>2017-12-13T10:39:59Z</time>
      </trkpt>
      <trkpt lat="45.85603" lon="4.67994">
        <ele>202</ele>
        <time>2017-12-13T10:40:00Z</time>
      </trkpt>
      <trkpt lat="45.85606" lon="4.67999">
        <ele>202</ele>
        <time>2017-12-13T10:40:01Z</time>
      </trkpt>
      <trkpt lat="45.85608" lon="4.6801">
        <ele>201</ele>
        <time>2017-12-13T10:40:03Z</time>
      </trkpt>
      <trkpt lat="45.85609" lon="4.68014">
        <ele>201</ele>
        <time>2017-12-13T10:40:04Z</time>
      </trkpt>
      <trkpt lat="45.85611" lon="4.68027">
        <ele>201</ele>
        <time>2017-12-13T10:40:08Z</time>
      </trkpt>
      <trkpt lat="45.85611" lon="4.68027">
        <ele>201</ele>
        <time>2017-12-13T10:40:09Z</time>
      </trkpt>
      <trkpt lat="45.85611" lon="4.68028">
        <ele>201</ele>
        <time>2017-12-13T10:40:10Z</time>
      </trkpt>
      <trkpt lat="45.85611" lon="4.68028">
        <ele>201</ele>
        <time>2017-12-13T10:40:11Z</time>
      </trkpt>
      <trkpt lat="45.85611" lon="4.68029">
        <ele>201</ele>
        <time>2017-12-13T10:40:12Z</time>
      </trkpt>
      <trkpt lat="45.85612" lon="4.6803">
        <ele>201</ele>
        <time>2017-12-13T10:40:13Z</time>
      </trkpt>
      <trkpt lat="45.85612" lon="4.68029">
        <ele>201</ele>
        <time>2017-12-13T10:45:32Z</time>
      </trkpt>
      <trkpt lat="45.85612" lon="4.6803">
        <ele>201</ele>
        <time>2017-12-13T10:45:33Z</time>
      </trkpt>
      <trkpt lat="45.85614" lon="4.68036">
        <ele>201</ele>
        <time>2017-12-13T10:47:06Z</time>
      </trkpt>
      <trkpt lat="45.85613" lon="4.68036">
        <ele>201</ele>
        <time>2017-12-13T10:47:07Z</time>
      </trkpt>
      <trkpt lat="45.85621" lon="4.68039">
        <ele>201</ele>
        <time>2017-12-13T10:52:35Z</time>
      </trkpt>
      <trkpt lat="45.85623" lon="4.6804">
        <ele>201</ele>
        <time>2017-12-13T10:52:36Z</time>
      </trkpt>
      <trkpt lat="45.85629" lon="4.68048">
        <ele>200</ele>
        <time>2017-12-13T10:52:41Z</time>
      </trkpt>
      <trkpt lat="45.8563" lon="4.6805">
        <ele>200</ele>
        <time>2017-12-13T10:52:42Z</time>
      </trkpt>
      <trkpt lat="45.85634" lon="4.68058">
        <ele>200</ele>
        <time>2017-12-13T10:52:45Z</time>
      </trkpt>
      <trkpt lat="45.85636" lon="4.68061">
        <ele>200</ele>
        <time>2017-12-13T10:52:46Z</time>
      </trkpt>
      <trkpt lat="45.85641" lon="4.68069">
        <ele>200</ele>
        <time>2017-12-13T10:52:48Z</time>
      </trkpt>
      <trkpt lat="45.85643" lon="4.68074">
        <ele>200</ele>
        <time>2017-12-13T10:52:49Z</time>
      </trkpt>
      <trkpt lat="45.85649" lon="4.68082">
        <ele>200</ele>
        <time>2017-12-13T10:52:51Z</time>
      </trkpt>
      <trkpt lat="45.85652" lon="4.68086">
        <ele>200</ele>
        <time>2017-12-13T10:52:52Z</time>
      </trkpt>
      <trkpt lat="45.85659" lon="4.68093">
        <ele>200</ele>
        <time>2017-12-13T10:52:54Z</time>
      </trkpt>
      <trkpt lat="45.85664" lon="4.68098">
        <ele>200</ele>
        <time>2017-12-13T10:52:55Z</time>
      </trkpt>
      <trkpt lat="45.85667" lon="4.68103">
        <ele>200</ele>
        <time>2017-12-13T10:52:56Z</time>
      </trkpt>
      <trkpt lat="45.85671" lon="4.68108">
        <ele>200</ele>
        <time>2017-12-13T10:52:57Z</time>
      </trkpt>
      <trkpt lat="45.85675" lon="4.68113">
        <ele>200</ele>
        <time>2017-12-13T10:52:58Z</time>
      </trkpt>
      <trkpt lat="45.85679" lon="4.68119">
        <ele>200</ele>
        <time>2017-12-13T10:52:59Z</time>
      </trkpt>
      <trkpt lat="45.85683" lon="4.68123">
        <ele>200</ele>
        <time>2017-12-13T10:53:00Z</time>
      </trkpt>
      <trkpt lat="45.85686" lon="4.68127">
        <ele>200</ele>
        <time>2017-12-13T10:53:01Z</time>
      </trkpt>
      <trkpt lat="45.8569" lon="4.68131">
        <ele>200</ele>
        <time>2017-12-13T10:53:02Z</time>
      </trkpt>
      <trkpt lat="45.85693" lon="4.68136">
        <ele>200</ele>
        <time>2017-12-13T10:53:03Z</time>
      </trkpt>
      <trkpt lat="45.85699" lon="4.6814">
        <ele>200</ele>
        <time>2017-12-13T10:53:04Z</time>
      </trkpt>
      <trkpt lat="45.85703" lon="4.68145">
        <ele>200</ele>
        <time>2017-12-13T10:53:05Z</time>
      </trkpt>
      <trkpt lat="45.85708" lon="4.68149">
        <ele>200</ele>
        <time>2017-12-13T10:53:06Z</time>
      </trkpt>
      <trkpt lat="45.85711" lon="4.68154">
        <ele>200</ele>
        <time>2017-12-13T10:53:07Z</time>
      </trkpt>
      <trkpt lat="45.85714" lon="4.68158">
        <ele>200</ele>
        <time>2017-12-13T10:53:08Z</time>
      </trkpt>
      <trkpt lat="45.85718" lon="4.68163">
        <ele>200</ele>
        <time>2017-12-13T10:53:09Z</time>
      </trkpt>
      <trkpt lat="45.85722" lon="4.68168">
        <ele>199</ele>
        <time>2017-12-13T10:53:10Z</time>
      </trkpt>
      <trkpt lat="45.85726" lon="4.68173">
        <ele>199</ele>
        <time>2017-12-13T10:53:11Z</time>
      </trkpt>
      <trkpt lat="45.85729" lon="4.68179">
        <ele>199</ele>
        <time>2017-12-13T10:53:12Z</time>
      </trkpt>
      <trkpt lat="45.85733" lon="4.68183">
        <ele>199</ele>
        <time>2017-12-13T10:53:13Z</time>
      </trkpt>
      <trkpt lat="45.85737" lon="4.68187">
        <ele>199</ele>
        <time>2017-12-13T10:53:14Z</time>
      </trkpt>
      <trkpt lat="45.85742" lon="4.68193">
        <ele>199</ele>
        <time>2017-12-13T10:53:15Z</time>
      </trkpt>
      <trkpt lat="45.85746" lon="4.68197">
        <ele>199</ele>
        <time>2017-12-13T10:53:16Z</time>
      </trkpt>
      <trkpt lat="45.85749" lon="4.68201">
        <ele>199</ele>
        <time>2017-12-13T10:53:17Z</time>
      </trkpt>
      <trkpt lat="45.85754" lon="4.68206">
        <ele>202</ele>
        <time>2017-12-13T10:53:18Z</time>
      </trkpt>
      <trkpt lat="45.85758" lon="4.68211">
        <ele>202</ele>
        <time>2017-12-13T10:53:19Z</time>
      </trkpt>
      <trkpt lat="45.85762" lon="4.68217">
        <ele>202</ele>
        <time>2017-12-13T10:53:20Z</time>
      </trkpt>
      <trkpt lat="45.85766" lon="4.68222">
        <ele>202</ele>
        <time>2017-12-13T10:53:21Z</time>
      </trkpt>
      <trkpt lat="45.85769" lon="4.68227">
        <ele>201</ele>
        <time>2017-12-13T10:53:22Z</time>
      </trkpt>
      <trkpt lat="45.85773" lon="4.68233">
        <ele>201</ele>
        <time>2017-12-13T10:53:23Z</time>
      </trkpt>
      <trkpt lat="45.85779" lon="4.68242">
        <ele>201</ele>
        <time>2017-12-13T10:53:25Z</time>
      </trkpt>
      <trkpt lat="45.85782" lon="4.68248">
        <ele>202</ele>
        <time>2017-12-13T10:53:26Z</time>
      </trkpt>
      <trkpt lat="45.85785" lon="4.68253">
        <ele>200</ele>
        <time>2017-12-13T10:53:27Z</time>
      </trkpt>
      <trkpt lat="45.85788" lon="4.68258">
        <ele>200</ele>
        <time>2017-12-13T10:53:28Z</time>
      </trkpt>
      <trkpt lat="45.85792" lon="4.68264">
        <ele>201</ele>
        <time>2017-12-13T10:53:29Z</time>
      </trkpt>
      <trkpt lat="45.85795" lon="4.68267">
        <ele>201</ele>
        <time>2017-12-13T10:53:30Z</time>
      </trkpt>
      <trkpt lat="45.85799" lon="4.68271">
        <ele>201</ele>
        <time>2017-12-13T10:53:31Z</time>
      </trkpt>
      <trkpt lat="45.85802" lon="4.68276">
        <ele>201</ele>
        <time>2017-12-13T10:53:32Z</time>
      </trkpt>
      <trkpt lat="45.85806" lon="4.68281">
        <ele>201</ele>
        <time>2017-12-13T10:53:33Z</time>
      </trkpt>
      <trkpt lat="45.85809" lon="4.68287">
        <ele>201</ele>
        <time>2017-12-13T10:53:34Z</time>
      </trkpt>
      <trkpt lat="45.85812" lon="4.68293">
        <ele>201</ele>
        <time>2017-12-13T10:53:35Z</time>
      </trkpt>
      <trkpt lat="45.85815" lon="4.68299">
        <ele>201</ele>
        <time>2017-12-13T10:53:36Z</time>
      </trkpt>
      <trkpt lat="45.85818" lon="4.68305">
        <ele>201</ele>
        <time>2017-12-13T10:53:37Z</time>
      </trkpt>
      <trkpt lat="45.85821" lon="4.6831">
        <ele>200</ele>
        <time>2017-12-13T10:53:38Z</time>
      </trkpt>
      <trkpt lat="45.85825" lon="4.68316">
        <ele>200</ele>
        <time>2017-12-13T10:53:39Z</time>
      </trkpt>
      <trkpt lat="45.85829" lon="4.68324">
        <ele>200</ele>
        <time>2017-12-13T10:53:40Z</time>
      </trkpt>
      <trkpt lat="45.85833" lon="4.68335">
        <ele>200</ele>
        <time>2017-12-13T10:53:42Z</time>
      </trkpt>
      <trkpt lat="45.85834" lon="4.68342">
        <ele>200</ele>
        <time>2017-12-13T10:53:43Z</time>
      </trkpt>
      <trkpt lat="45.85837" lon="4.68347">
        <ele>201</ele>
        <time>2017-12-13T10:53:44Z</time>
      </trkpt>
      <trkpt lat="45.8584" lon="4.68353">
        <ele>201</ele>
        <time>2017-12-13T10:53:45Z</time>
      </trkpt>
      <trkpt lat="45.85841" lon="4.68361">
        <ele>201</ele>
        <time>2017-12-13T10:53:46Z</time>
      </trkpt>
      <trkpt lat="45.85843" lon="4.68368">
        <ele>201</ele>
        <time>2017-12-13T10:53:47Z</time>
      </trkpt>
      <trkpt lat="45.85846" lon="4.68375">
        <ele>201</ele>
        <time>2017-12-13T10:53:48Z</time>
      </trkpt>
      <trkpt lat="45.85848" lon="4.68381">
        <ele>201</ele>
        <time>2017-12-13T10:53:49Z</time>
      </trkpt>
      <trkpt lat="45.85851" lon="4.68388">
        <ele>201</ele>
        <time>2017-12-13T10:53:50Z</time>
      </trkpt>
      <trkpt lat="45.85853" lon="4.68395">
        <ele>201</ele>
        <time>2017-12-13T10:53:51Z</time>
      </trkpt>
      <trkpt lat="45.85855" lon="4.68403">
        <ele>200</ele>
        <time>2017-12-13T10:53:52Z</time>
      </trkpt>
      <trkpt lat="45.85857" lon="4.6841">
        <ele>200</ele>
        <time>2017-12-13T10:53:53Z</time>
      </trkpt>
      <trkpt lat="45.85859" lon="4.68418">
        <ele>200</ele>
        <time>2017-12-13T10:53:54Z</time>
      </trkpt>
      <trkpt lat="45.85861" lon="4.68426">
        <ele>200</ele>
        <time>2017-12-13T10:53:55Z</time>
      </trkpt>
      <trkpt lat="45.85863" lon="4.68433">
        <ele>200</ele>
        <time>2017-12-13T10:53:56Z</time>
      </trkpt>
      <trkpt lat="45.85864" lon="4.68439">
        <ele>200</ele>
        <time>2017-12-13T10:53:57Z</time>
      </trkpt>
      <trkpt lat="45.85865" lon="4.68446">
        <ele>200</ele>
        <time>2017-12-13T10:53:58Z</time>
      </trkpt>
      <trkpt lat="45.85867" lon="4.68452">
        <ele>200</ele>
        <time>2017-12-13T10:53:59Z</time>
      </trkpt>
      <trkpt lat="45.85869" lon="4.68459">
        <ele>200</ele>
        <time>2017-12-13T10:54:00Z</time>
      </trkpt>
      <trkpt lat="45.8587" lon="4.68466">
        <ele>200</ele>
        <time>2017-12-13T10:54:01Z</time>
      </trkpt>
      <trkpt lat="45.85872" lon="4.68473">
        <ele>200</ele>
        <time>2017-12-13T10:54:02Z</time>
      </trkpt>
      <trkpt lat="45.85873" lon="4.6848">
        <ele>200</ele>
        <time>2017-12-13T10:54:03Z</time>
      </trkpt>
      <trkpt lat="45.85874" lon="4.68487">
        <ele>200</ele>
        <time>2017-12-13T10:54:04Z</time>
      </trkpt>
      <trkpt lat="45.85874" lon="4.68494">
        <ele>200</ele>
        <time>2017-12-13T10:54:05Z</time>
      </trkpt>
      <trkpt lat="45.85876" lon="4.68506">
        <ele>200</ele>
        <time>2017-12-13T10:54:07Z</time>
      </trkpt>
      <trkpt lat="45.85876" lon="4.68514">
        <ele>200</ele>
        <time>2017-12-13T10:54:08Z</time>
      </trkpt>
      <trkpt lat="45.85877" lon="4.68522">
        <ele>200</ele>
        <time>2017-12-13T10:54:09Z</time>
      </trkpt>
      <trkpt lat="45.85878" lon="4.68529">
        <ele>200</ele>
        <time>2017-12-13T10:54:10Z</time>
      </trkpt>
      <trkpt lat="45.85879" lon="4.68536">
        <ele>200</ele>
        <time>2017-12-13T10:54:11Z</time>
      </trkpt>
      <trkpt lat="45.85879" lon="4.68543">
        <ele>200</ele>
        <time>2017-12-13T10:54:12Z</time>
      </trkpt>
      <trkpt lat="45.8588" lon="4.6855">
        <ele>200</ele>
        <time>2017-12-13T10:54:13Z</time>
      </trkpt>
      <trkpt lat="45.8588" lon="4.68558">
        <ele>200</ele>
        <time>2017-12-13T10:54:14Z</time>
      </trkpt>
      <trkpt lat="45.85881" lon="4.68566">
        <ele>200</ele>
        <time>2017-12-13T10:54:15Z</time>
      </trkpt>
      <trkpt lat="45.85882" lon="4.68574">
        <ele>199</ele>
        <time>2017-12-13T10:54:16Z</time>
      </trkpt>
      <trkpt lat="45.85883" lon="4.68582">
        <ele>199</ele>
        <time>2017-12-13T10:54:17Z</time>
      </trkpt>
      <trkpt lat="45.85884" lon="4.6859">
        <ele>199</ele>
        <time>2017-12-13T10:54:18Z</time>
      </trkpt>
      <trkpt lat="45.85886" lon="4.68598">
        <ele>199</ele>
        <time>2017-12-13T10:54:19Z</time>
      </trkpt>
      <trkpt lat="45.85886" lon="4.68606">
        <ele>199</ele>
        <time>2017-12-13T10:54:20Z</time>
      </trkpt>
      <trkpt lat="45.85886" lon="4.68613">
        <ele>199</ele>
        <time>2017-12-13T10:54:21Z</time>
      </trkpt>
      <trkpt lat="45.85886" lon="4.68622">
        <ele>199</ele>
        <time>2017-12-13T10:54:22Z</time>
      </trkpt>
      <trkpt lat="45.85886" lon="4.6863">
        <ele>198</ele>
        <time>2017-12-13T10:54:23Z</time>
      </trkpt>
      <trkpt lat="45.85887" lon="4.68639">
        <ele>198</ele>
        <time>2017-12-13T10:54:24Z</time>
      </trkpt>
      <trkpt lat="45.85887" lon="4.68646">
        <ele>198</ele>
        <time>2017-12-13T10:54:25Z</time>
      </trkpt>
      <trkpt lat="45.85887" lon="4.68655">
        <ele>198</ele>
        <time>2017-12-13T10:54:26Z</time>
      </trkpt>
      <trkpt lat="45.85886" lon="4.68664">
        <ele>198</ele>
        <time>2017-12-13T10:54:27Z</time>
      </trkpt>
      <trkpt lat="45.85886" lon="4.68672">
        <ele>198</ele>
        <time>2017-12-13T10:54:28Z</time>
      </trkpt>
      <trkpt lat="45.85886" lon="4.68681">
        <ele>198</ele>
        <time>2017-12-13T10:54:29Z</time>
      </trkpt>
      <trkpt lat="45.85885" lon="4.68688">
        <ele>198</ele>
        <time>2017-12-13T10:54:30Z</time>
      </trkpt>
      <trkpt lat="45.85885" lon="4.68697">
        <ele>198</ele>
        <time>2017-12-13T10:54:31Z</time>
      </trkpt>
      <trkpt lat="45.85884" lon="4.68704">
        <ele>198</ele>
        <time>2017-12-13T10:54:32Z</time>
      </trkpt>
      <trkpt lat="45.85883" lon="4.68712">
        <ele>198</ele>
        <time>2017-12-13T10:54:33Z</time>
      </trkpt>
      <trkpt lat="45.85881" lon="4.68718">
        <ele>198</ele>
        <time>2017-12-13T10:54:34Z</time>
      </trkpt>
      <trkpt lat="45.8588" lon="4.68726">
        <ele>198</ele>
        <time>2017-12-13T10:54:35Z</time>
      </trkpt>
      <trkpt lat="45.85879" lon="4.68733">
        <ele>198</ele>
        <time>2017-12-13T10:54:36Z</time>
      </trkpt>
      <trkpt lat="45.85879" lon="4.68745">
        <ele>198</ele>
        <time>2017-12-13T10:54:38Z</time>
      </trkpt>
      <trkpt lat="45.85878" lon="4.68752">
        <ele>198</ele>
        <time>2017-12-13T10:54:39Z</time>
      </trkpt>
      <trkpt lat="45.85877" lon="4.6876">
        <ele>198</ele>
        <time>2017-12-13T10:54:40Z</time>
      </trkpt>
      <trkpt lat="45.85875" lon="4.68767">
        <ele>198</ele>
        <time>2017-12-13T10:54:41Z</time>
      </trkpt>
      <trkpt lat="45.85874" lon="4.68774">
        <ele>198</ele>
        <time>2017-12-13T10:54:42Z</time>
      </trkpt>
      <trkpt lat="45.85874" lon="4.68782">
        <ele>198</ele>
        <time>2017-12-13T10:54:43Z</time>
      </trkpt>
      <trkpt lat="45.85872" lon="4.68788">
        <ele>198</ele>
        <time>2017-12-13T10:54:44Z</time>
      </trkpt>
      <trkpt lat="45.85872" lon="4.68796">
        <ele>198</ele>
        <time>2017-12-13T10:54:45Z</time>
      </trkpt>
      <trkpt lat="45.85871" lon="4.68803">
        <ele>198</ele>
        <time>2017-12-13T10:54:46Z</time>
      </trkpt>
      <trkpt lat="45.8587" lon="4.68812">
        <ele>198</ele>
        <time>2017-12-13T10:54:47Z</time>
      </trkpt>
      <trkpt lat="45.85869" lon="4.6882">
        <ele>198</ele>
        <time>2017-12-13T10:54:48Z</time>
      </trkpt>
      <trkpt lat="45.85868" lon="4.68829">
        <ele>198</ele>
        <time>2017-12-13T10:54:49Z</time>
      </trkpt>
      <trkpt lat="45.85868" lon="4.68838">
        <ele>198</ele>
        <time>2017-12-13T10:54:50Z</time>
      </trkpt>
      <trkpt lat="45.85867" lon="4.68847">
        <ele>198</ele>
        <time>2017-12-13T10:54:51Z</time>
      </trkpt>
      <trkpt lat="45.85866" lon="4.68855">
        <ele>198</ele>
        <time>2017-12-13T10:54:52Z</time>
      </trkpt>
      <trkpt lat="45.85865" lon="4.68863">
        <ele>198</ele>
        <time>2017-12-13T10:54:53Z</time>
      </trkpt>
      <trkpt lat="45.85865" lon="4.68871">
        <ele>198</ele>
        <time>2017-12-13T10:54:54Z</time>
      </trkpt>
      <trkpt lat="45.85864" lon="4.68879">
        <ele>197</ele>
        <time>2017-12-13T10:54:55Z</time>
      </trkpt>
      <trkpt lat="45.85863" lon="4.68887">
        <ele>197</ele>
        <time>2017-12-13T10:54:56Z</time>
      </trkpt>
      <trkpt lat="45.85863" lon="4.68893">
        <ele>197</ele>
        <time>2017-12-13T10:54:57Z</time>
      </trkpt>
      <trkpt lat="45.85863" lon="4.68901">
        <ele>197</ele>
        <time>2017-12-13T10:54:58Z</time>
      </trkpt>
      <trkpt lat="45.85861" lon="4.68909">
        <ele>197</ele>
        <time>2017-12-13T10:54:59Z</time>
      </trkpt>
      <trkpt lat="45.85861" lon="4.68917">
        <ele>197</ele>
        <time>2017-12-13T10:55:00Z</time>
      </trkpt>
      <trkpt lat="45.8586" lon="4.68925">
        <ele>197</ele>
        <time>2017-12-13T10:55:01Z</time>
      </trkpt>
      <trkpt lat="45.85859" lon="4.68932">
        <ele>197</ele>
        <time>2017-12-13T10:55:02Z</time>
      </trkpt>
      <trkpt lat="45.8586" lon="4.6894">
        <ele>197</ele>
        <time>2017-12-13T10:55:03Z</time>
      </trkpt>
      <trkpt lat="45.8586" lon="4.68948">
        <ele>197</ele>
        <time>2017-12-13T10:55:04Z</time>
      </trkpt>
      <trkpt lat="45.85859" lon="4.68957">
        <ele>197</ele>
        <time>2017-12-13T10:55:05Z</time>
      </trkpt>
      <trkpt lat="45.8586" lon="4.68965">
        <ele>197</ele>
        <time>2017-12-13T10:55:06Z</time>
      </trkpt>
      <trkpt lat="45.8586" lon="4.68973">
        <ele>197</ele>
        <time>2017-12-13T10:55:07Z</time>
      </trkpt>
      <trkpt lat="45.85861" lon="4.68982">
        <ele>197</ele>
        <time>2017-12-13T10:55:08Z</time>
      </trkpt>
      <trkpt lat="45.85864" lon="4.68991">
        <ele>197</ele>
        <time>2017-12-13T10:55:09Z</time>
      </trkpt>
      <trkpt lat="45.85865" lon="4.69">
        <ele>197</ele>
        <time>2017-12-13T10:55:10Z</time>
      </trkpt>
      <trkpt lat="45.85867" lon="4.69008">
        <ele>197</ele>
        <time>2017-12-13T10:55:11Z</time>
      </trkpt>
      <trkpt lat="45.85871" lon="4.69016">
        <ele>197</ele>
        <time>2017-12-13T10:55:12Z</time>
      </trkpt>
      <trkpt lat="45.85873" lon="4.69025">
        <ele>197</ele>
        <time>2017-12-13T10:55:13Z</time>
      </trkpt>
      <trkpt lat="45.85877" lon="4.69033">
        <ele>198</ele>
        <time>2017-12-13T10:55:14Z</time>
      </trkpt>
      <trkpt lat="45.8588" lon="4.69041">
        <ele>198</ele>
        <time>2017-12-13T10:55:15Z</time>
      </trkpt>
      <trkpt lat="45.85884" lon="4.69046">
        <ele>198</ele>
        <time>2017-12-13T10:55:16Z</time>
      </trkpt>
      <trkpt lat="45.85887" lon="4.69053">
        <ele>198</ele>
        <time>2017-12-13T10:55:17Z</time>
      </trkpt>
      <trkpt lat="45.8589" lon="4.69058">
        <ele>198</ele>
        <time>2017-12-13T10:55:18Z</time>
      </trkpt>
      <trkpt lat="45.85893" lon="4.69064">
        <ele>198</ele>
        <time>2017-12-13T10:55:19Z</time>
      </trkpt>
      <trkpt lat="45.85897" lon="4.6907">
        <ele>198</ele>
        <time>2017-12-13T10:55:20Z</time>
      </trkpt>
      <trkpt lat="45.85902" lon="4.69075">
        <ele>198</ele>
        <time>2017-12-13T10:55:21Z</time>
      </trkpt>
      <trkpt lat="45.85907" lon="4.69079">
        <ele>198</ele>
        <time>2017-12-13T10:55:22Z</time>
      </trkpt>
      <trkpt lat="45.85912" lon="4.69083">
        <ele>198</ele>
        <time>2017-12-13T10:55:23Z</time>
      </trkpt>
      <trkpt lat="45.85917" lon="4.69086">
        <ele>198</ele>
        <time>2017-12-13T10:55:24Z</time>
      </trkpt>
      <trkpt lat="45.85923" lon="4.6909">
        <ele>198</ele>
        <time>2017-12-13T10:55:25Z</time>
      </trkpt>
      <trkpt lat="45.85928" lon="4.69092">
        <ele>198</ele>
        <time>2017-12-13T10:55:26Z</time>
      </trkpt>
      <trkpt lat="45.85934" lon="4.69094">
        <ele>197</ele>
        <time>2017-12-13T10:55:27Z</time>
      </trkpt>
      <trkpt lat="45.8594" lon="4.69096">
        <ele>197</ele>
        <time>2017-12-13T10:55:28Z</time>
      </trkpt>
      <trkpt lat="45.85946" lon="4.69097">
        <ele>197</ele>
        <time>2017-12-13T10:55:29Z</time>
      </trkpt>
      <trkpt lat="45.85952" lon="4.69098">
        <ele>197</ele>
        <time>2017-12-13T10:55:30Z</time>
      </trkpt>
      <trkpt lat="45.85959" lon="4.69098">
        <ele>197</ele>
        <time>2017-12-13T10:55:31Z</time>
      </trkpt>
      <trkpt lat="45.85965" lon="4.69098">
        <ele>197</ele>
        <time>2017-12-13T10:55:32Z</time>
      </trkpt>
      <trkpt lat="45.85971" lon="4.69098">
        <ele>197</ele>
        <time>2017-12-13T10:55:33Z</time>
      </trkpt>
      <trkpt lat="45.85977" lon="4.69098">
        <ele>197</ele>
        <time>2017-12-13T10:55:34Z</time>
      </trkpt>
      <trkpt lat="45.85984" lon="4.69097">
        <ele>197</ele>
        <time>2017-12-13T10:55:35Z</time>
      </trkpt>
      <trkpt lat="45.85989" lon="4.69096">
        <ele>196</ele>
        <time>2017-12-13T10:55:36Z</time>
      </trkpt>
      <trkpt lat="45.85996" lon="4.69096">
        <ele>196</ele>
        <time>2017-12-13T10:55:37Z</time>
      </trkpt>
      <trkpt lat="45.86002" lon="4.69095">
        <ele>196</ele>
        <time>2017-12-13T10:55:38Z</time>
      </trkpt>
      <trkpt lat="45.86009" lon="4.69095">
        <ele>197</ele>
        <time>2017-12-13T10:55:39Z</time>
      </trkpt>
      <trkpt lat="45.86016" lon="4.69095">
        <ele>197</ele>
        <time>2017-12-13T10:55:40Z</time>
      </trkpt>
      <trkpt lat="45.86025" lon="4.69095">
        <ele>197</ele>
        <time>2017-12-13T10:55:41Z</time>
      </trkpt>
      <trkpt lat="45.86031" lon="4.69094">
        <ele>197</ele>
        <time>2017-12-13T10:55:42Z</time>
      </trkpt>
      <trkpt lat="45.86038" lon="4.69093">
        <ele>197</ele>
        <time>2017-12-13T10:55:43Z</time>
      </trkpt>
      <trkpt lat="45.86044" lon="4.69091">
        <ele>197</ele>
        <time>2017-12-13T10:55:44Z</time>
      </trkpt>
      <trkpt lat="45.86051" lon="4.6909">
        <ele>197</ele>
        <time>2017-12-13T10:55:45Z</time>
      </trkpt>
      <trkpt lat="45.86058" lon="4.6909">
        <ele>197</ele>
        <time>2017-12-13T10:55:46Z</time>
      </trkpt>
      <trkpt lat="45.86063" lon="4.69089">
        <ele>198</ele>
        <time>2017-12-13T10:55:47Z</time>
      </trkpt>
      <trkpt lat="45.86069" lon="4.69088">
        <ele>198</ele>
        <time>2017-12-13T10:55:48Z</time>
      </trkpt>
      <trkpt lat="45.86075" lon="4.69088">
        <ele>198</ele>
        <time>2017-12-13T10:55:49Z</time>
      </trkpt>
      <trkpt lat="45.8608" lon="4.69088">
        <ele>198</ele>
        <time>2017-12-13T10:55:50Z</time>
      </trkpt>
      <trkpt lat="45.86086" lon="4.69088">
        <ele>199</ele>
        <time>2017-12-13T10:55:51Z</time>
      </trkpt>
      <trkpt lat="45.86091" lon="4.69088">
        <ele>199</ele>
        <time>2017-12-13T10:55:52Z</time>
      </trkpt>
      <trkpt lat="45.86096" lon="4.69088">
        <ele>199</ele>
        <time>2017-12-13T10:55:53Z</time>
      </trkpt>
      <trkpt lat="45.86101" lon="4.69087">
        <ele>200</ele>
        <time>2017-12-13T10:55:54Z</time>
      </trkpt>
      <trkpt lat="45.86107" lon="4.69087">
        <ele>200</ele>
        <time>2017-12-13T10:55:55Z</time>
      </trkpt>
      <trkpt lat="45.86112" lon="4.69084">
        <ele>201</ele>
        <time>2017-12-13T10:55:56Z</time>
      </trkpt>
      <trkpt lat="45.86117" lon="4.69083">
        <ele>202</ele>
        <time>2017-12-13T10:55:57Z</time>
      </trkpt>
      <trkpt lat="45.86123" lon="4.69081">
        <ele>202</ele>
        <time>2017-12-13T10:55:58Z</time>
      </trkpt>
      <trkpt lat="45.86128" lon="4.69081">
        <ele>203</ele>
        <time>2017-12-13T10:55:59Z</time>
      </trkpt>
      <trkpt lat="45.86136" lon="4.69081">
        <ele>203</ele>
        <time>2017-12-13T10:56:01Z</time>
      </trkpt>
      <trkpt lat="45.8614" lon="4.69081">
        <ele>203</ele>
        <time>2017-12-13T10:56:02Z</time>
      </trkpt>
      <trkpt lat="45.86148" lon="4.69081">
        <ele>204</ele>
        <time>2017-12-13T10:56:04Z</time>
      </trkpt>
      <trkpt lat="45.86152" lon="4.69081">
        <ele>204</ele>
        <time>2017-12-13T10:56:05Z</time>
      </trkpt>
      <trkpt lat="45.8616" lon="4.6908">
        <ele>205</ele>
        <time>2017-12-13T10:56:07Z</time>
      </trkpt>
      <trkpt lat="45.86164" lon="4.69079">
        <ele>205</ele>
        <time>2017-12-13T10:56:08Z</time>
      </trkpt>
      <trkpt lat="45.8617" lon="4.69079">
        <ele>206</ele>
        <time>2017-12-13T10:56:10Z</time>
      </trkpt>
      <trkpt lat="45.86173" lon="4.6908">
        <ele>206</ele>
        <time>2017-12-13T10:56:11Z</time>
      </trkpt>
      <trkpt lat="45.86181" lon="4.69079">
        <ele>207</ele>
        <time>2017-12-13T10:56:13Z</time>
      </trkpt>
      <trkpt lat="45.86185" lon="4.69078">
        <ele>208</ele>
        <time>2017-12-13T10:56:14Z</time>
      </trkpt>
      <trkpt lat="45.86189" lon="4.69078">
        <ele>208</ele>
        <time>2017-12-13T10:56:15Z</time>
      </trkpt>
      <trkpt lat="45.86195" lon="4.69075">
        <ele>209</ele>
        <time>2017-12-13T10:56:16Z</time>
      </trkpt>
      <trkpt lat="45.86203" lon="4.69074">
        <ele>209</ele>
        <time>2017-12-13T10:56:19Z</time>
      </trkpt>
      <trkpt lat="45.86207" lon="4.69074">
        <ele>210</ele>
        <time>2017-12-13T10:56:20Z</time>
      </trkpt>
      <trkpt lat="45.86215" lon="4.69073">
        <ele>210</ele>
        <time>2017-12-13T10:56:22Z</time>
      </trkpt>
      <trkpt lat="45.86218" lon="4.69073">
        <ele>210</ele>
        <time>2017-12-13T10:56:23Z</time>
      </trkpt>
      <trkpt lat="45.86226" lon="4.69074">
        <ele>210</ele>
        <time>2017-12-13T10:56:26Z</time>
      </trkpt>
      <trkpt lat="45.86229" lon="4.69075">
        <ele>211</ele>
        <time>2017-12-13T10:56:27Z</time>
      </trkpt>
      <trkpt lat="45.86235" lon="4.69076">
        <ele>211</ele>
        <time>2017-12-13T10:56:29Z</time>
      </trkpt>
      <trkpt lat="45.86239" lon="4.69076">
        <ele>211</ele>
        <time>2017-12-13T10:56:30Z</time>
      </trkpt>
      <trkpt lat="45.86247" lon="4.69079">
        <ele>211</ele>
        <time>2017-12-13T10:56:33Z</time>
      </trkpt>
      <trkpt lat="45.8625" lon="4.6908">
        <ele>211</ele>
        <time>2017-12-13T10:56:34Z</time>
      </trkpt>
      <trkpt lat="45.86256" lon="4.69082">
        <ele>212</ele>
        <time>2017-12-13T10:56:36Z</time>
      </trkpt>
      <trkpt lat="45.86259" lon="4.69083">
        <ele>212</ele>
        <time>2017-12-13T10:56:37Z</time>
      </trkpt>
      <trkpt lat="45.86267" lon="4.69087">
        <ele>212</ele>
        <time>2017-12-13T10:56:40Z</time>
      </trkpt>
      <trkpt lat="45.86269" lon="4.69088">
        <ele>213</ele>
        <time>2017-12-13T10:56:41Z</time>
      </trkpt>
      <trkpt lat="45.86277" lon="4.69092">
        <ele>213</ele>
        <time>2017-12-13T10:56:44Z</time>
      </trkpt>
      <trkpt lat="45.8628" lon="4.69093">
        <ele>213</ele>
        <time>2017-12-13T10:56:45Z</time>
      </trkpt>
      <trkpt lat="45.86286" lon="4.69097">
        <ele>213</ele>
        <time>2017-12-13T10:56:47Z</time>
      </trkpt>
      <trkpt lat="45.86289" lon="4.69099">
        <ele>213</ele>
        <time>2017-12-13T10:56:48Z</time>
      </trkpt>
      <trkpt lat="45.86295" lon="4.69103">
        <ele>214</ele>
        <time>2017-12-13T10:56:50Z</time>
      </trkpt>
      <trkpt lat="45.86298" lon="4.69105">
        <ele>214</ele>
        <time>2017-12-13T10:56:51Z</time>
      </trkpt>
      <trkpt lat="45.86305" lon="4.69112">
        <ele>214</ele>
        <time>2017-12-13T10:56:54Z</time>
      </trkpt>
      <trkpt lat="45.86307" lon="4.69114">
        <ele>214</ele>
        <time>2017-12-13T10:56:55Z</time>
      </trkpt>
      <trkpt lat="45.86312" lon="4.69119">
        <ele>214</ele>
        <time>2017-12-13T10:56:57Z</time>
      </trkpt>
      <trkpt lat="45.86315" lon="4.69123">
        <ele>214</ele>
        <time>2017-12-13T10:56:58Z</time>
      </trkpt>
      <trkpt lat="45.86319" lon="4.69129">
        <ele>214</ele>
        <time>2017-12-13T10:57:00Z</time>
      </trkpt>
      <trkpt lat="45.86321" lon="4.69133">
        <ele>215</ele>
        <time>2017-12-13T10:57:01Z</time>
      </trkpt>
      <trkpt lat="45.86326" lon="4.69139">
        <ele>215</ele>
        <time>2017-12-13T10:57:03Z</time>
      </trkpt>
      <trkpt lat="45.86328" lon="4.69143">
        <ele>215</ele>
        <time>2017-12-13T10:57:04Z</time>
      </trkpt>
      <trkpt lat="45.86333" lon="4.6915">
        <ele>215</ele>
        <time>2017-12-13T10:57:06Z</time>
      </trkpt>
      <trkpt lat="45.86336" lon="4.69153">
        <ele>217</ele>
        <time>2017-12-13T10:57:07Z</time>
      </trkpt>
      <trkpt lat="45.8634" lon="4.6916">
        <ele>217</ele>
        <time>2017-12-13T10:57:09Z</time>
      </trkpt>
      <trkpt lat="45.86342" lon="4.69163">
        <ele>217</ele>
        <time>2017-12-13T10:57:10Z</time>
      </trkpt>
      <trkpt lat="45.86346" lon="4.6917">
        <ele>218</ele>
        <time>2017-12-13T10:57:12Z</time>
      </trkpt>
      <trkpt lat="45.86348" lon="4.69174">
        <ele>218</ele>
        <time>2017-12-13T10:57:13Z</time>
      </trkpt>
      <trkpt lat="45.86352" lon="4.69181">
        <ele>218</ele>
        <time>2017-12-13T10:57:15Z</time>
      </trkpt>
      <trkpt lat="45.86354" lon="4.69184">
        <ele>218</ele>
        <time>2017-12-13T10:57:16Z</time>
      </trkpt>
      <trkpt lat="45.86357" lon="4.69192">
        <ele>218</ele>
        <time>2017-12-13T10:57:18Z</time>
      </trkpt>
      <trkpt lat="45.86358" lon="4.69196">
        <ele>218</ele>
        <time>2017-12-13T10:57:19Z</time>
      </trkpt>
      <trkpt lat="45.86361" lon="4.69204">
        <ele>219</ele>
        <time>2017-12-13T10:57:21Z</time>
      </trkpt>
      <trkpt lat="45.86363" lon="4.69207">
        <ele>219</ele>
        <time>2017-12-13T10:57:22Z</time>
      </trkpt>
      <trkpt lat="45.86367" lon="4.69215">
        <ele>219</ele>
        <time>2017-12-13T10:57:24Z</time>
      </trkpt>
      <trkpt lat="45.86369" lon="4.69219">
        <ele>219</ele>
        <time>2017-12-13T10:57:25Z</time>
      </trkpt>
      <trkpt lat="45.86373" lon="4.69227">
        <ele>219</ele>
        <time>2017-12-13T10:57:27Z</time>
      </trkpt>
      <trkpt lat="45.86374" lon="4.69231">
        <ele>219</ele>
        <time>2017-12-13T10:57:28Z</time>
      </trkpt>
      <trkpt lat="45.86378" lon="4.69239">
        <ele>219</ele>
        <time>2017-12-13T10:57:30Z</time>
      </trkpt>
      <trkpt lat="45.8638" lon="4.69244">
        <ele>219</ele>
        <time>2017-12-13T10:57:31Z</time>
      </trkpt>
      <trkpt lat="45.86383" lon="4.69252">
        <ele>219</ele>
        <time>2017-12-13T10:57:33Z</time>
      </trkpt>
      <trkpt lat="45.86385" lon="4.69256">
        <ele>219</ele>
        <time>2017-12-13T10:57:34Z</time>
      </trkpt>
      <trkpt lat="45.8639" lon="4.69264">
        <ele>219</ele>
        <time>2017-12-13T10:57:36Z</time>
      </trkpt>
      <trkpt lat="45.86392" lon="4.69268">
        <ele>219</ele>
        <time>2017-12-13T10:57:37Z</time>
      </trkpt>
      <trkpt lat="45.86396" lon="4.69278">
        <ele>219</ele>
        <time>2017-12-13T10:57:39Z</time>
      </trkpt>
      <trkpt lat="45.86398" lon="4.69283">
        <ele>219</ele>
        <time>2017-12-13T10:57:40Z</time>
      </trkpt>
      <trkpt lat="45.86403" lon="4.69294">
        <ele>219</ele>
        <time>2017-12-13T10:57:42Z</time>
      </trkpt>
      <trkpt lat="45.86406" lon="4.69299">
        <ele>219</ele>
        <time>2017-12-13T10:57:43Z</time>
      </trkpt>
      <trkpt lat="45.86409" lon="4.69304">
        <ele>219</ele>
        <time>2017-12-13T10:57:44Z</time>
      </trkpt>
      <trkpt lat="45.86411" lon="4.6931">
        <ele>219</ele>
        <time>2017-12-13T10:57:45Z</time>
      </trkpt>
      <trkpt lat="45.86414" lon="4.69315">
        <ele>219</ele>
        <time>2017-12-13T10:57:46Z</time>
      </trkpt>
      <trkpt lat="45.86417" lon="4.6932">
        <ele>219</ele>
        <time>2017-12-13T10:57:47Z</time>
      </trkpt>
      <trkpt lat="45.86419" lon="4.69327">
        <ele>219</ele>
        <time>2017-12-13T10:57:48Z</time>
      </trkpt>
      <trkpt lat="45.86422" lon="4.69333">
        <ele>219</ele>
        <time>2017-12-13T10:57:49Z</time>
      </trkpt>
      <trkpt lat="45.86424" lon="4.6934">
        <ele>219</ele>
        <time>2017-12-13T10:57:50Z</time>
      </trkpt>
      <trkpt lat="45.86427" lon="4.69349">
        <ele>219</ele>
        <time>2017-12-13T10:57:51Z</time>
      </trkpt>
      <trkpt lat="45.8643" lon="4.69355">
        <ele>219</ele>
        <time>2017-12-13T10:57:52Z</time>
      </trkpt>
      <trkpt lat="45.86432" lon="4.69362">
        <ele>219</ele>
        <time>2017-12-13T10:57:53Z</time>
      </trkpt>
      <trkpt lat="45.86436" lon="4.69369">
        <ele>219</ele>
        <time>2017-12-13T10:57:54Z</time>
      </trkpt>
      <trkpt lat="45.86438" lon="4.69373">
        <ele>219</ele>
        <time>2017-12-13T10:57:55Z</time>
      </trkpt>
      <trkpt lat="45.86442" lon="4.69379">
        <ele>219</ele>
        <time>2017-12-13T10:57:56Z</time>
      </trkpt>
      <trkpt lat="45.86445" lon="4.69385">
        <ele>219</ele>
        <time>2017-12-13T10:57:57Z</time>
      </trkpt>
      <trkpt lat="45.86449" lon="4.69389">
        <ele>219</ele>
        <time>2017-12-13T10:57:58Z</time>
      </trkpt>
      <trkpt lat="45.86452" lon="4.69396">
        <ele>219</ele>
        <time>2017-12-13T10:57:59Z</time>
      </trkpt>
      <trkpt lat="45.86456" lon="4.69402">
        <ele>219</ele>
        <time>2017-12-13T10:58:00Z</time>
      </trkpt>
      <trkpt lat="45.86459" lon="4.69408">
        <ele>219</ele>
        <time>2017-12-13T10:58:01Z</time>
      </trkpt>
      <trkpt lat="45.86463" lon="4.69413">
        <ele>219</ele>
        <time>2017-12-13T10:58:02Z</time>
      </trkpt>
      <trkpt lat="45.86466" lon="4.69418">
        <ele>218</ele>
        <time>2017-12-13T10:58:03Z</time>
      </trkpt>
      <trkpt lat="45.8647" lon="4.69424">
        <ele>218</ele>
        <time>2017-12-13T10:58:04Z</time>
      </trkpt>
      <trkpt lat="45.86474" lon="4.6943">
        <ele>218</ele>
        <time>2017-12-13T10:58:05Z</time>
      </trkpt>
      <trkpt lat="45.86477" lon="4.69435">
        <ele>218</ele>
        <time>2017-12-13T10:58:06Z</time>
      </trkpt>
      <trkpt lat="45.86481" lon="4.6944">
        <ele>218</ele>
        <time>2017-12-13T10:58:07Z</time>
      </trkpt>
      <trkpt lat="45.86485" lon="4.69447">
        <ele>218</ele>
        <time>2017-12-13T10:58:08Z</time>
      </trkpt>
      <trkpt lat="45.86489" lon="4.69451">
        <ele>218</ele>
        <time>2017-12-13T10:58:09Z</time>
      </trkpt>
      <trkpt lat="45.86493" lon="4.69457">
        <ele>218</ele>
        <time>2017-12-13T10:58:10Z</time>
      </trkpt>
      <trkpt lat="45.86496" lon="4.69461">
        <ele>218</ele>
        <time>2017-12-13T10:58:11Z</time>
      </trkpt>
      <trkpt lat="45.86499" lon="4.69469">
        <ele>218</ele>
        <time>2017-12-13T10:58:12Z</time>
      </trkpt>
      <trkpt lat="45.86503" lon="4.69474">
        <ele>219</ele>
        <time>2017-12-13T10:58:13Z</time>
      </trkpt>
      <trkpt lat="45.86506" lon="4.69479">
        <ele>219</ele>
        <time>2017-12-13T10:58:14Z</time>
      </trkpt>
      <trkpt lat="45.8651" lon="4.69485">
        <ele>219</ele>
        <time>2017-12-13T10:58:15Z</time>
      </trkpt>
      <trkpt lat="45.86513" lon="4.69492">
        <ele>219</ele>
        <time>2017-12-13T10:58:16Z</time>
      </trkpt>
      <trkpt lat="45.86517" lon="4.69499">
        <ele>219</ele>
        <time>2017-12-13T10:58:17Z</time>
      </trkpt>
      <trkpt lat="45.86521" lon="4.69504">
        <ele>219</ele>
        <time>2017-12-13T10:58:18Z</time>
      </trkpt>
      <trkpt lat="45.86524" lon="4.6951">
        <ele>219</ele>
        <time>2017-12-13T10:58:19Z</time>
      </trkpt>
      <trkpt lat="45.86528" lon="4.69516">
        <ele>219</ele>
        <time>2017-12-13T10:58:20Z</time>
      </trkpt>
      <trkpt lat="45.86532" lon="4.69522">
        <ele>219</ele>
        <time>2017-12-13T10:58:21Z</time>
      </trkpt>
      <trkpt lat="45.86535" lon="4.69528">
        <ele>219</ele>
        <time>2017-12-13T10:58:22Z</time>
      </trkpt>
      <trkpt lat="45.86539" lon="4.69535">
        <ele>219</ele>
        <time>2017-12-13T10:58:23Z</time>
      </trkpt>
      <trkpt lat="45.86543" lon="4.69541">
        <ele>219</ele>
        <time>2017-12-13T10:58:24Z</time>
      </trkpt>
      <trkpt lat="45.86547" lon="4.69546">
        <ele>219</ele>
        <time>2017-12-13T10:58:25Z</time>
      </trkpt>
      <trkpt lat="45.86551" lon="4.69552">
        <ele>219</ele>
        <time>2017-12-13T10:58:26Z</time>
      </trkpt>
      <trkpt lat="45.86555" lon="4.69559">
        <ele>219</ele>
        <time>2017-12-13T10:58:27Z</time>
      </trkpt>
      <trkpt lat="45.86559" lon="4.69565">
        <ele>219</ele>
        <time>2017-12-13T10:58:28Z</time>
      </trkpt>
      <trkpt lat="45.86564" lon="4.69573">
        <ele>219</ele>
        <time>2017-12-13T10:58:29Z</time>
      </trkpt>
      <trkpt lat="45.86568" lon="4.69579">
        <ele>219</ele>
        <time>2017-12-13T10:58:30Z</time>
      </trkpt>
      <trkpt lat="45.86572" lon="4.69587">
        <ele>219</ele>
        <time>2017-12-13T10:58:31Z</time>
      </trkpt>
      <trkpt lat="45.86577" lon="4.69593">
        <ele>219</ele>
        <time>2017-12-13T10:58:32Z</time>
      </trkpt>
      <trkpt lat="45.86581" lon="4.696">
        <ele>219</ele>
        <time>2017-12-13T10:58:33Z</time>
      </trkpt>
      <trkpt lat="45.86585" lon="4.69607">
        <ele>219</ele>
        <time>2017-12-13T10:58:34Z</time>
      </trkpt>
      <trkpt lat="45.8659" lon="4.69614">
        <ele>219</ele>
        <time>2017-12-13T10:58:35Z</time>
      </trkpt>
      <trkpt lat="45.86595" lon="4.69621">
        <ele>219</ele>
        <time>2017-12-13T10:58:36Z</time>
      </trkpt>
      <trkpt lat="45.866" lon="4.69627">
        <ele>219</ele>
        <time>2017-12-13T10:58:37Z</time>
      </trkpt>
      <trkpt lat="45.86604" lon="4.69633">
        <ele>219</ele>
        <time>2017-12-13T10:58:38Z</time>
      </trkpt>
      <trkpt lat="45.86609" lon="4.6964">
        <ele>219</ele>
        <time>2017-12-13T10:58:39Z</time>
      </trkpt>
      <trkpt lat="45.86613" lon="4.69647">
        <ele>219</ele>
        <time>2017-12-13T10:58:40Z</time>
      </trkpt>
      <trkpt lat="45.86617" lon="4.69654">
        <ele>219</ele>
        <time>2017-12-13T10:58:41Z</time>
      </trkpt>
      <trkpt lat="45.86622" lon="4.6966">
        <ele>219</ele>
        <time>2017-12-13T10:58:42Z</time>
      </trkpt>
      <trkpt lat="45.86627" lon="4.69667">
        <ele>218</ele>
        <time>2017-12-13T10:58:43Z</time>
      </trkpt>
      <trkpt lat="45.86631" lon="4.69674">
        <ele>218</ele>
        <time>2017-12-13T10:58:44Z</time>
      </trkpt>
      <trkpt lat="45.86636" lon="4.6968">
        <ele>218</ele>
        <time>2017-12-13T10:58:45Z</time>
      </trkpt>
      <trkpt lat="45.86641" lon="4.69685">
        <ele>218</ele>
        <time>2017-12-13T10:58:46Z</time>
      </trkpt>
      <trkpt lat="45.86648" lon="4.69691">
        <ele>218</ele>
        <time>2017-12-13T10:58:47Z</time>
      </trkpt>
      <trkpt lat="45.86654" lon="4.69696">
        <ele>218</ele>
        <time>2017-12-13T10:58:48Z</time>
      </trkpt>
      <trkpt lat="45.8666" lon="4.69701">
        <ele>218</ele>
        <time>2017-12-13T10:58:49Z</time>
      </trkpt>
      <trkpt lat="45.86665" lon="4.69707">
        <ele>218</ele>
        <time>2017-12-13T10:58:50Z</time>
      </trkpt>
      <trkpt lat="45.8667" lon="4.69712">
        <ele>217</ele>
        <time>2017-12-13T10:58:51Z</time>
      </trkpt>
      <trkpt lat="45.86675" lon="4.69717">
        <ele>217</ele>
        <time>2017-12-13T10:58:52Z</time>
      </trkpt>
      <trkpt lat="45.86681" lon="4.69722">
        <ele>217</ele>
        <time>2017-12-13T10:58:53Z</time>
      </trkpt>
      <trkpt lat="45.86687" lon="4.69726">
        <ele>217</ele>
        <time>2017-12-13T10:58:54Z</time>
      </trkpt>
      <trkpt lat="45.86692" lon="4.69732">
        <ele>217</ele>
        <time>2017-12-13T10:58:55Z</time>
      </trkpt>
      <trkpt lat="45.86698" lon="4.69736">
        <ele>217</ele>
        <time>2017-12-13T10:58:56Z</time>
      </trkpt>
      <trkpt lat="45.86703" lon="4.6974">
        <ele>217</ele>
        <time>2017-12-13T10:58:57Z</time>
      </trkpt>
      <trkpt lat="45.86708" lon="4.69746">
        <ele>217</ele>
        <time>2017-12-13T10:58:58Z</time>
      </trkpt>
      <trkpt lat="45.86713" lon="4.69751">
        <ele>217</ele>
        <time>2017-12-13T10:58:59Z</time>
      </trkpt>
      <trkpt lat="45.86718" lon="4.69756">
        <ele>217</ele>
        <time>2017-12-13T10:59:00Z</time>
      </trkpt>
      <trkpt lat="45.86724" lon="4.69762">
        <ele>217</ele>
        <time>2017-12-13T10:59:01Z</time>
      </trkpt>
      <trkpt lat="45.86729" lon="4.69767">
        <ele>217</ele>
        <time>2017-12-13T10:59:02Z</time>
      </trkpt>
      <trkpt lat="45.86734" lon="4.69772">
        <ele>217</ele>
        <time>2017-12-13T10:59:03Z</time>
      </trkpt>
      <trkpt lat="45.86739" lon="4.69777">
        <ele>217</ele>
        <time>2017-12-13T10:59:04Z</time>
      </trkpt>
      <trkpt lat="45.86745" lon="4.69781">
        <ele>217</ele>
        <time>2017-12-13T10:59:05Z</time>
      </trkpt>
      <trkpt lat="45.8675" lon="4.69787">
        <ele>217</ele>
        <time>2017-12-13T10:59:06Z</time>
      </trkpt>
      <trkpt lat="45.86756" lon="4.69791">
        <ele>217</ele>
        <time>2017-12-13T10:59:07Z</time>
      </trkpt>
      <trkpt lat="45.86762" lon="4.69796">
        <ele>217</ele>
        <time>2017-12-13T10:59:08Z</time>
      </trkpt>
      <trkpt lat="45.86768" lon="4.69801">
        <ele>217</ele>
        <time>2017-12-13T10:59:09Z</time>
      </trkpt>
      <trkpt lat="45.86773" lon="4.69807">
        <ele>217</ele>
        <time>2017-12-13T10:59:10Z</time>
      </trkpt>
      <trkpt lat="45.86778" lon="4.69812">
        <ele>217</ele>
        <time>2017-12-13T10:59:11Z</time>
      </trkpt>
      <trkpt lat="45.86783" lon="4.69817">
        <ele>217</ele>
        <time>2017-12-13T10:59:12Z</time>
      </trkpt>
      <trkpt lat="45.86789" lon="4.69822">
        <ele>217</ele>
        <time>2017-12-13T10:59:13Z</time>
      </trkpt>
      <trkpt lat="45.86794" lon="4.69828">
        <ele>217</ele>
        <time>2017-12-13T10:59:14Z</time>
      </trkpt>
      <trkpt lat="45.868" lon="4.69834">
        <ele>217</ele>
        <time>2017-12-13T10:59:15Z</time>
      </trkpt>
      <trkpt lat="45.86806" lon="4.69841">
        <ele>217</ele>
        <time>2017-12-13T10:59:16Z</time>
      </trkpt>
      <trkpt lat="45.86813" lon="4.69846">
        <ele>217</ele>
        <time>2017-12-13T10:59:17Z</time>
      </trkpt>
      <trkpt lat="45.86819" lon="4.69853">
        <ele>217</ele>
        <time>2017-12-13T10:59:18Z</time>
      </trkpt>
      <trkpt lat="45.86827" lon="4.69857">
        <ele>217</ele>
        <time>2017-12-13T10:59:19Z</time>
      </trkpt>
      <trkpt lat="45.86833" lon="4.69863">
        <ele>216</ele>
        <time>2017-12-13T10:59:20Z</time>
      </trkpt>
      <trkpt lat="45.8684" lon="4.69869">
        <ele>217</ele>
        <time>2017-12-13T10:59:21Z</time>
      </trkpt>
      <trkpt lat="45.86847" lon="4.69875">
        <ele>217</ele>
        <time>2017-12-13T10:59:22Z</time>
      </trkpt>
      <trkpt lat="45.86853" lon="4.6988">
        <ele>217</ele>
        <time>2017-12-13T10:59:23Z</time>
      </trkpt>
      <trkpt lat="45.86858" lon="4.69884">
        <ele>217</ele>
        <time>2017-12-13T10:59:24Z</time>
      </trkpt>
      <trkpt lat="45.86865" lon="4.6989">
        <ele>217</ele>
        <time>2017-12-13T10:59:25Z</time>
      </trkpt>
      <trkpt lat="45.86871" lon="4.69896">
        <ele>217</ele>
        <time>2017-12-13T10:59:26Z</time>
      </trkpt>
      <trkpt lat="45.86877" lon="4.699">
        <ele>217</ele>
        <time>2017-12-13T10:59:27Z</time>
      </trkpt>
      <trkpt lat="45.86883" lon="4.69905">
        <ele>217</ele>
        <time>2017-12-13T10:59:28Z</time>
      </trkpt>
      <trkpt lat="45.86889" lon="4.69908">
        <ele>217</ele>
        <time>2017-12-13T10:59:29Z</time>
      </trkpt>
      <trkpt lat="45.86895" lon="4.69914">
        <ele>217</ele>
        <time>2017-12-13T10:59:30Z</time>
      </trkpt>
      <trkpt lat="45.86901" lon="4.69918">
        <ele>217</ele>
        <time>2017-12-13T10:59:31Z</time>
      </trkpt>
      <trkpt lat="45.86906" lon="4.69923">
        <ele>217</ele>
        <time>2017-12-13T10:59:32Z</time>
      </trkpt>
      <trkpt lat="45.86912" lon="4.69926">
        <ele>217</ele>
        <time>2017-12-13T10:59:33Z</time>
      </trkpt>
      <trkpt lat="45.86917" lon="4.69931">
        <ele>217</ele>
        <time>2017-12-13T10:59:34Z</time>
      </trkpt>
      <trkpt lat="45.86923" lon="4.69936">
        <ele>217</ele>
        <time>2017-12-13T10:59:35Z</time>
      </trkpt>
      <trkpt lat="45.86929" lon="4.69941">
        <ele>217</ele>
        <time>2017-12-13T10:59:36Z</time>
      </trkpt>
      <trkpt lat="45.86936" lon="4.69946">
        <ele>217</ele>
        <time>2017-12-13T10:59:37Z</time>
      </trkpt>
      <trkpt lat="45.86942" lon="4.69948">
        <ele>217</ele>
        <time>2017-12-13T10:59:38Z</time>
      </trkpt>
      <trkpt lat="45.86947" lon="4.69953">
        <ele>217</ele>
        <time>2017-12-13T10:59:39Z</time>
      </trkpt>
      <trkpt lat="45.86952" lon="4.69958">
        <ele>217</ele>
        <time>2017-12-13T10:59:40Z</time>
      </trkpt>
      <trkpt lat="45.86957" lon="4.69963">
        <ele>217</ele>
        <time>2017-12-13T10:59:41Z</time>
      </trkpt>
      <trkpt lat="45.86962" lon="4.69968">
        <ele>217</ele>
        <time>2017-12-13T10:59:42Z</time>
      </trkpt>
      <trkpt lat="45.86967" lon="4.69973">
        <ele>217</ele>
        <time>2017-12-13T10:59:43Z</time>
      </trkpt>
      <trkpt lat="45.8697" lon="4.69978">
        <ele>217</ele>
        <time>2017-12-13T10:59:44Z</time>
      </trkpt>
      <trkpt lat="45.86972" lon="4.69986">
        <ele>217</ele>
        <time>2017-12-13T10:59:45Z</time>
      </trkpt>
      <trkpt lat="45.86974" lon="4.69992">
        <ele>217</ele>
        <time>2017-12-13T10:59:46Z</time>
      </trkpt>
      <trkpt lat="45.86978" lon="4.69998">
        <ele>217</ele>
        <time>2017-12-13T10:59:47Z</time>
      </trkpt>
      <trkpt lat="45.86981" lon="4.70002">
        <ele>217</ele>
        <time>2017-12-13T10:59:48Z</time>
      </trkpt>
      <trkpt lat="45.86987" lon="4.70005">
        <ele>217</ele>
        <time>2017-12-13T10:59:49Z</time>
      </trkpt>
      <trkpt lat="45.86992" lon="4.70006">
        <ele>217</ele>
        <time>2017-12-13T10:59:50Z</time>
      </trkpt>
      <trkpt lat="45.86999" lon="4.70007">
        <ele>217</ele>
        <time>2017-12-13T10:59:51Z</time>
      </trkpt>
      <trkpt lat="45.87005" lon="4.70007">
        <ele>217</ele>
        <time>2017-12-13T10:59:52Z</time>
      </trkpt>
      <trkpt lat="45.87011" lon="4.70008">
        <ele>217</ele>
        <time>2017-12-13T10:59:53Z</time>
      </trkpt>
      <trkpt lat="45.87017" lon="4.70011">
        <ele>217</ele>
        <time>2017-12-13T10:59:54Z</time>
      </trkpt>
      <trkpt lat="45.87022" lon="4.70014">
        <ele>217</ele>
        <time>2017-12-13T10:59:55Z</time>
      </trkpt>
      <trkpt lat="45.87026" lon="4.7002">
        <ele>217</ele>
        <time>2017-12-13T10:59:56Z</time>
      </trkpt>
      <trkpt lat="45.87032" lon="4.70026">
        <ele>217</ele>
        <time>2017-12-13T10:59:57Z</time>
      </trkpt>
      <trkpt lat="45.87036" lon="4.70032">
        <ele>217</ele>
        <time>2017-12-13T10:59:58Z</time>
      </trkpt>
      <trkpt lat="45.8704" lon="4.7004">
        <ele>217</ele>
        <time>2017-12-13T10:59:59Z</time>
      </trkpt>
      <trkpt lat="45.87049" lon="4.70057">
        <ele>217</ele>
        <time>2017-12-13T11:00:01Z</time>
      </trkpt>
      <trkpt lat="45.87052" lon="4.70065">
        <ele>217</ele>
        <time>2017-12-13T11:00:02Z</time>
      </trkpt>
      <trkpt lat="45.87056" lon="4.70072">
        <ele>217</ele>
        <time>2017-12-13T11:00:03Z</time>
      </trkpt>
      <trkpt lat="45.8706" lon="4.7008">
        <ele>217</ele>
        <time>2017-12-13T11:00:04Z</time>
      </trkpt>
      <trkpt lat="45.87063" lon="4.70085">
        <ele>217</ele>
        <time>2017-12-13T11:00:05Z</time>
      </trkpt>
      <trkpt lat="45.87067" lon="4.70092">
        <ele>217</ele>
        <time>2017-12-13T11:00:06Z</time>
      </trkpt>
      <trkpt lat="45.87071" lon="4.701">
        <ele>217</ele>
        <time>2017-12-13T11:00:07Z</time>
      </trkpt>
      <trkpt lat="45.87074" lon="4.70106">
        <ele>217</ele>
        <time>2017-12-13T11:00:08Z</time>
      </trkpt>
      <trkpt lat="45.87078" lon="4.70113">
        <ele>217</ele>
        <time>2017-12-13T11:00:09Z</time>
      </trkpt>
      <trkpt lat="45.87082" lon="4.7012">
        <ele>217</ele>
        <time>2017-12-13T11:00:10Z</time>
      </trkpt>
      <trkpt lat="45.87085" lon="4.70127">
        <ele>217</ele>
        <time>2017-12-13T11:00:11Z</time>
      </trkpt>
      <trkpt lat="45.8709" lon="4.70135">
        <ele>217</ele>
        <time>2017-12-13T11:00:12Z</time>
      </trkpt>
      <trkpt lat="45.87095" lon="4.70142">
        <ele>217</ele>
        <time>2017-12-13T11:00:13Z</time>
      </trkpt>
      <trkpt lat="45.87099" lon="4.7015">
        <ele>217</ele>
        <time>2017-12-13T11:00:14Z</time>
      </trkpt>
      <trkpt lat="45.87103" lon="4.70157">
        <ele>217</ele>
        <time>2017-12-13T11:00:15Z</time>
      </trkpt>
      <trkpt lat="45.87108" lon="4.70164">
        <ele>217</ele>
        <time>2017-12-13T11:00:16Z</time>
      </trkpt>
      <trkpt lat="45.87112" lon="4.70171">
        <ele>216</ele>
        <time>2017-12-13T11:00:17Z</time>
      </trkpt>
      <trkpt lat="45.87116" lon="4.70177">
        <ele>216</ele>
        <time>2017-12-13T11:00:18Z</time>
      </trkpt>
      <trkpt lat="45.87121" lon="4.70184">
        <ele>216</ele>
        <time>2017-12-13T11:00:19Z</time>
      </trkpt>
      <trkpt lat="45.87126" lon="4.70191">
        <ele>216</ele>
        <time>2017-12-13T11:00:20Z</time>
      </trkpt>
      <trkpt lat="45.8713" lon="4.70197">
        <ele>216</ele>
        <time>2017-12-13T11:00:21Z</time>
      </trkpt>
      <trkpt lat="45.87135" lon="4.70203">
        <ele>216</ele>
        <time>2017-12-13T11:00:22Z</time>
      </trkpt>
      <trkpt lat="45.87138" lon="4.7021">
        <ele>216</ele>
        <time>2017-12-13T11:00:23Z</time>
      </trkpt>
      <trkpt lat="45.87142" lon="4.70214">
        <ele>216</ele>
        <time>2017-12-13T11:00:24Z</time>
      </trkpt>
      <trkpt lat="45.87145" lon="4.7022">
        <ele>216</ele>
        <time>2017-12-13T11:00:25Z</time>
      </trkpt>
      <trkpt lat="45.87151" lon="4.70226">
        <ele>216</ele>
        <time>2017-12-13T11:00:26Z</time>
      </trkpt>
      <trkpt lat="45.87155" lon="4.70233">
        <ele>216</ele>
        <time>2017-12-13T11:00:27Z</time>
      </trkpt>
      <trkpt lat="45.8716" lon="4.70239">
        <ele>216</ele>
        <time>2017-12-13T11:00:28Z</time>
      </trkpt>
      <trkpt lat="45.87166" lon="4.70245">
        <ele>216</ele>
        <time>2017-12-13T11:00:29Z</time>
      </trkpt>
      <trkpt lat="45.87171" lon="4.70252">
        <ele>216</ele>
        <time>2017-12-13T11:00:30Z</time>
      </trkpt>
      <trkpt lat="45.87175" lon="4.70258">
        <ele>216</ele>
        <time>2017-12-13T11:00:31Z</time>
      </trkpt>
      <trkpt lat="45.87181" lon="4.70264">
        <ele>216</ele>
        <time>2017-12-13T11:00:32Z</time>
      </trkpt>
      <trkpt lat="45.87186" lon="4.70271">
        <ele>217</ele>
        <time>2017-12-13T11:00:33Z</time>
      </trkpt>
      <trkpt lat="45.87191" lon="4.70278">
        <ele>217</ele>
        <time>2017-12-13T11:00:34Z</time>
      </trkpt>
      <trkpt lat="45.87196" lon="4.70286">
        <ele>217</ele>
        <time>2017-12-13T11:00:35Z</time>
      </trkpt>
      <trkpt lat="45.87202" lon="4.70294">
        <ele>217</ele>
        <time>2017-12-13T11:00:36Z</time>
      </trkpt>
      <trkpt lat="45.87207" lon="4.70301">
        <ele>217</ele>
        <time>2017-12-13T11:00:37Z</time>
      </trkpt>
      <trkpt lat="45.87213" lon="4.70308">
        <ele>217</ele>
        <time>2017-12-13T11:00:38Z</time>
      </trkpt>
      <trkpt lat="45.87218" lon="4.70316">
        <ele>217</ele>
        <time>2017-12-13T11:00:39Z</time>
      </trkpt>
      <trkpt lat="45.87223" lon="4.70323">
        <ele>217</ele>
        <time>2017-12-13T11:00:40Z</time>
      </trkpt>
      <trkpt lat="45.87229" lon="4.70329">
        <ele>217</ele>
        <time>2017-12-13T11:00:41Z</time>
      </trkpt>
      <trkpt lat="45.87233" lon="4.70335">
        <ele>217</ele>
        <time>2017-12-13T11:00:42Z</time>
      </trkpt>
      <trkpt lat="45.87239" lon="4.70342">
        <ele>217</ele>
        <time>2017-12-13T11:00:43Z</time>
      </trkpt>
      <trkpt lat="45.87244" lon="4.70349">
        <ele>217</ele>
        <time>2017-12-13T11:00:44Z</time>
      </trkpt>
      <trkpt lat="45.87248" lon="4.70358">
        <ele>217</ele>
        <time>2017-12-13T11:00:45Z</time>
      </trkpt>
      <trkpt lat="45.87253" lon="4.70364">
        <ele>216</ele>
        <time>2017-12-13T11:00:46Z</time>
      </trkpt>
      <trkpt lat="45.87258" lon="4.70371">
        <ele>216</ele>
        <time>2017-12-13T11:00:47Z</time>
      </trkpt>
      <trkpt lat="45.87262" lon="4.70376">
        <ele>216</ele>
        <time>2017-12-13T11:00:48Z</time>
      </trkpt>
      <trkpt lat="45.87267" lon="4.70384">
        <ele>216</ele>
        <time>2017-12-13T11:00:49Z</time>
      </trkpt>
      <trkpt lat="45.87271" lon="4.70391">
        <ele>216</ele>
        <time>2017-12-13T11:00:50Z</time>
      </trkpt>
      <trkpt lat="45.87274" lon="4.704">
        <ele>216</ele>
        <time>2017-12-13T11:00:51Z</time>
      </trkpt>
      <trkpt lat="45.87278" lon="4.70407">
        <ele>216</ele>
        <time>2017-12-13T11:00:52Z</time>
      </trkpt>
      <trkpt lat="45.87282" lon="4.70413">
        <ele>216</ele>
        <time>2017-12-13T11:00:53Z</time>
      </trkpt>
      <trkpt lat="45.87287" lon="4.70418">
        <ele>214</ele>
        <time>2017-12-13T11:00:54Z</time>
      </trkpt>
      <trkpt lat="45.87291" lon="4.70424">
        <ele>214</ele>
        <time>2017-12-13T11:00:55Z</time>
      </trkpt>
      <trkpt lat="45.87295" lon="4.7043">
        <ele>214</ele>
        <time>2017-12-13T11:00:56Z</time>
      </trkpt>
      <trkpt lat="45.87301" lon="4.70438">
        <ele>214</ele>
        <time>2017-12-13T11:00:57Z</time>
      </trkpt>
      <trkpt lat="45.87306" lon="4.70445">
        <ele>214</ele>
        <time>2017-12-13T11:00:58Z</time>
      </trkpt>
      <trkpt lat="45.87311" lon="4.70452">
        <ele>214</ele>
        <time>2017-12-13T11:00:59Z</time>
      </trkpt>
      <trkpt lat="45.87316" lon="4.7046">
        <ele>214</ele>
        <time>2017-12-13T11:01:00Z</time>
      </trkpt>
      <trkpt lat="45.87321" lon="4.70469">
        <ele>214</ele>
        <time>2017-12-13T11:01:01Z</time>
      </trkpt>
      <trkpt lat="45.87327" lon="4.70478">
        <ele>214</ele>
        <time>2017-12-13T11:01:02Z</time>
      </trkpt>
      <trkpt lat="45.87332" lon="4.70486">
        <ele>213</ele>
        <time>2017-12-13T11:01:03Z</time>
      </trkpt>
      <trkpt lat="45.87337" lon="4.70495">
        <ele>213</ele>
        <time>2017-12-13T11:01:04Z</time>
      </trkpt>
      <trkpt lat="45.87342" lon="4.70504">
        <ele>213</ele>
        <time>2017-12-13T11:01:05Z</time>
      </trkpt>
      <trkpt lat="45.87348" lon="4.70513">
        <ele>212</ele>
        <time>2017-12-13T11:01:06Z</time>
      </trkpt>
      <trkpt lat="45.87353" lon="4.70522">
        <ele>212</ele>
        <time>2017-12-13T11:01:07Z</time>
      </trkpt>
      <trkpt lat="45.87358" lon="4.7053">
        <ele>212</ele>
        <time>2017-12-13T11:01:08Z</time>
      </trkpt>
      <trkpt lat="45.87365" lon="4.7054">
        <ele>212</ele>
        <time>2017-12-13T11:01:09Z</time>
      </trkpt>
      <trkpt lat="45.87371" lon="4.70549">
        <ele>212</ele>
        <time>2017-12-13T11:01:10Z</time>
      </trkpt>
      <trkpt lat="45.87375" lon="4.70558">
        <ele>212</ele>
        <time>2017-12-13T11:01:11Z</time>
      </trkpt>
      <trkpt lat="45.87381" lon="4.70567">
        <ele>211</ele>
        <time>2017-12-13T11:01:12Z</time>
      </trkpt>
      <trkpt lat="45.87387" lon="4.70575">
        <ele>211</ele>
        <time>2017-12-13T11:01:13Z</time>
      </trkpt>
      <trkpt lat="45.87393" lon="4.70584">
        <ele>210</ele>
        <time>2017-12-13T11:01:14Z</time>
      </trkpt>
      <trkpt lat="45.87398" lon="4.70592">
        <ele>210</ele>
        <time>2017-12-13T11:01:15Z</time>
      </trkpt>
      <trkpt lat="45.87404" lon="4.70602">
        <ele>210</ele>
        <time>2017-12-13T11:01:16Z</time>
      </trkpt>
      <trkpt lat="45.87409" lon="4.70613">
        <ele>210</ele>
        <time>2017-12-13T11:01:17Z</time>
      </trkpt>
      <trkpt lat="45.87412" lon="4.70623">
        <ele>209</ele>
        <time>2017-12-13T11:01:18Z</time>
      </trkpt>
      <trkpt lat="45.87414" lon="4.70633">
        <ele>209</ele>
        <time>2017-12-13T11:01:19Z</time>
      </trkpt>
      <trkpt lat="45.87416" lon="4.70643">
        <ele>209</ele>
        <time>2017-12-13T11:01:20Z</time>
      </trkpt>
      <trkpt lat="45.87417" lon="4.70653">
        <ele>208</ele>
        <time>2017-12-13T11:01:21Z</time>
      </trkpt>
      <trkpt lat="45.87418" lon="4.70663">
        <ele>208</ele>
        <time>2017-12-13T11:01:22Z</time>
      </trkpt>
      <trkpt lat="45.87419" lon="4.70671">
        <ele>208</ele>
        <time>2017-12-13T11:01:23Z</time>
      </trkpt>
      <trkpt lat="45.8742" lon="4.70679">
        <ele>208</ele>
        <time>2017-12-13T11:01:24Z</time>
      </trkpt>
      <trkpt lat="45.87421" lon="4.70687">
        <ele>209</ele>
        <time>2017-12-13T11:01:25Z</time>
      </trkpt>
      <trkpt lat="45.87421" lon="4.70695">
        <ele>209</ele>
        <time>2017-12-13T11:01:26Z</time>
      </trkpt>
      <trkpt lat="45.87423" lon="4.70702">
        <ele>209</ele>
        <time>2017-12-13T11:01:27Z</time>
      </trkpt>
      <trkpt lat="45.87425" lon="4.70709">
        <ele>209</ele>
        <time>2017-12-13T11:01:28Z</time>
      </trkpt>
      <trkpt lat="45.87426" lon="4.70717">
        <ele>209</ele>
        <time>2017-12-13T11:01:29Z</time>
      </trkpt>
      <trkpt lat="45.87427" lon="4.70724">
        <ele>209</ele>
        <time>2017-12-13T11:01:30Z</time>
      </trkpt>
      <trkpt lat="45.87428" lon="4.70731">
        <ele>209</ele>
        <time>2017-12-13T11:01:31Z</time>
      </trkpt>
      <trkpt lat="45.87429" lon="4.70738">
        <ele>209</ele>
        <time>2017-12-13T11:01:32Z</time>
      </trkpt>
      <trkpt lat="45.87431" lon="4.70745">
        <ele>209</ele>
        <time>2017-12-13T11:01:33Z</time>
      </trkpt>
      <trkpt lat="45.87432" lon="4.70753">
        <ele>209</ele>
        <time>2017-12-13T11:01:34Z</time>
      </trkpt>
      <trkpt lat="45.87433" lon="4.70758">
        <ele>209</ele>
        <time>2017-12-13T11:01:35Z</time>
      </trkpt>
      <trkpt lat="45.87434" lon="4.70766">
        <ele>210</ele>
        <time>2017-12-13T11:01:36Z</time>
      </trkpt>
      <trkpt lat="45.87435" lon="4.70772">
        <ele>210</ele>
        <time>2017-12-13T11:01:37Z</time>
      </trkpt>
      <trkpt lat="45.87437" lon="4.70779">
        <ele>210</ele>
        <time>2017-12-13T11:01:38Z</time>
      </trkpt>
      <trkpt lat="45.87439" lon="4.70785">
        <ele>210</ele>
        <time>2017-12-13T11:01:39Z</time>
      </trkpt>
      <trkpt lat="45.87441" lon="4.70791">
        <ele>211</ele>
        <time>2017-12-13T11:01:40Z</time>
      </trkpt>
      <trkpt lat="45.87443" lon="4.70798">
        <ele>211</ele>
        <time>2017-12-13T11:01:41Z</time>
      </trkpt>
      <trkpt lat="45.87444" lon="4.70804">
        <ele>211</ele>
        <time>2017-12-13T11:01:42Z</time>
      </trkpt>
      <trkpt lat="45.87446" lon="4.70811">
        <ele>211</ele>
        <time>2017-12-13T11:01:43Z</time>
      </trkpt>
      <trkpt lat="45.87447" lon="4.70818">
        <ele>211</ele>
        <time>2017-12-13T11:01:44Z</time>
      </trkpt>
      <trkpt lat="45.87448" lon="4.70824">
        <ele>211</ele>
        <time>2017-12-13T11:01:45Z</time>
      </trkpt>
      <trkpt lat="45.87451" lon="4.7083">
        <ele>211</ele>
        <time>2017-12-13T11:01:46Z</time>
      </trkpt>
      <trkpt lat="45.87452" lon="4.70838">
        <ele>212</ele>
        <time>2017-12-13T11:01:47Z</time>
      </trkpt>
      <trkpt lat="45.87454" lon="4.70845">
        <ele>213</ele>
        <time>2017-12-13T11:01:48Z</time>
      </trkpt>
      <trkpt lat="45.87456" lon="4.70853">
        <ele>213</ele>
        <time>2017-12-13T11:01:49Z</time>
      </trkpt>
      <trkpt lat="45.87457" lon="4.70859">
        <ele>213</ele>
        <time>2017-12-13T11:01:50Z</time>
      </trkpt>
      <trkpt lat="45.87459" lon="4.70867">
        <ele>213</ele>
        <time>2017-12-13T11:01:51Z</time>
      </trkpt>
      <trkpt lat="45.87461" lon="4.70875">
        <ele>213</ele>
        <time>2017-12-13T11:01:52Z</time>
      </trkpt>
      <trkpt lat="45.87462" lon="4.70883">
        <ele>213</ele>
        <time>2017-12-13T11:01:53Z</time>
      </trkpt>
      <trkpt lat="45.87464" lon="4.7089">
        <ele>214</ele>
        <time>2017-12-13T11:01:54Z</time>
      </trkpt>
      <trkpt lat="45.87466" lon="4.70897">
        <ele>214</ele>
        <time>2017-12-13T11:01:55Z</time>
      </trkpt>
      <trkpt lat="45.87468" lon="4.70903">
        <ele>214</ele>
        <time>2017-12-13T11:01:56Z</time>
      </trkpt>
      <trkpt lat="45.87469" lon="4.70909">
        <ele>214</ele>
        <time>2017-12-13T11:01:57Z</time>
      </trkpt>
      <trkpt lat="45.87471" lon="4.70916">
        <ele>214</ele>
        <time>2017-12-13T11:01:58Z</time>
      </trkpt>
      <trkpt lat="45.87473" lon="4.70923">
        <ele>215</ele>
        <time>2017-12-13T11:01:59Z</time>
      </trkpt>
      <trkpt lat="45.87474" lon="4.7093">
        <ele>215</ele>
        <time>2017-12-13T11:02:00Z</time>
      </trkpt>
      <trkpt lat="45.87476" lon="4.70936">
        <ele>215</ele>
        <time>2017-12-13T11:02:01Z</time>
      </trkpt>
      <trkpt lat="45.87477" lon="4.70942">
        <ele>215</ele>
        <time>2017-12-13T11:02:02Z</time>
      </trkpt>
      <trkpt lat="45.87479" lon="4.70948">
        <ele>215</ele>
        <time>2017-12-13T11:02:03Z</time>
      </trkpt>
      <trkpt lat="45.87481" lon="4.70954">
        <ele>215</ele>
        <time>2017-12-13T11:02:04Z</time>
      </trkpt>
      <trkpt lat="45.87484" lon="4.70964">
        <ele>215</ele>
        <time>2017-12-13T11:02:06Z</time>
      </trkpt>
      <trkpt lat="45.87486" lon="4.70969">
        <ele>215</ele>
        <time>2017-12-13T11:02:07Z</time>
      </trkpt>
      <trkpt lat="45.8749" lon="4.70979">
        <ele>215</ele>
        <time>2017-12-13T11:02:09Z</time>
      </trkpt>
      <trkpt lat="45.87493" lon="4.70984">
        <ele>214</ele>
        <time>2017-12-13T11:02:10Z</time>
      </trkpt>
      <trkpt lat="45.87499" lon="4.70993">
        <ele>214</ele>
        <time>2017-12-13T11:02:12Z</time>
      </trkpt>
      <trkpt lat="45.87503" lon="4.70998">
        <ele>214</ele>
        <time>2017-12-13T11:02:13Z</time>
      </trkpt>
      <trkpt lat="45.87506" lon="4.71004">
        <ele>214</ele>
        <time>2017-12-13T11:02:14Z</time>
      </trkpt>
      <trkpt lat="45.8751" lon="4.71009">
        <ele>214</ele>
        <time>2017-12-13T11:02:15Z</time>
      </trkpt>
      <trkpt lat="45.87514" lon="4.71016">
        <ele>215</ele>
        <time>2017-12-13T11:02:16Z</time>
      </trkpt>
      <trkpt lat="45.87518" lon="4.71022">
        <ele>215</ele>
        <time>2017-12-13T11:02:17Z</time>
      </trkpt>
      <trkpt lat="45.87523" lon="4.71031">
        <ele>215</ele>
        <time>2017-12-13T11:02:19Z</time>
      </trkpt>
      <trkpt lat="45.87526" lon="4.71035">
        <ele>215</ele>
        <time>2017-12-13T11:02:20Z</time>
      </trkpt>
      <trkpt lat="45.8753" lon="4.71042">
        <ele>215</ele>
        <time>2017-12-13T11:02:22Z</time>
      </trkpt>
      <trkpt lat="45.87532" lon="4.71045">
        <ele>215</ele>
        <time>2017-12-13T11:02:23Z</time>
      </trkpt>
      <trkpt lat="45.87536" lon="4.71052">
        <ele>215</ele>
        <time>2017-12-13T11:02:25Z</time>
      </trkpt>
      <trkpt lat="45.87538" lon="4.71055">
        <ele>215</ele>
        <time>2017-12-13T11:02:26Z</time>
      </trkpt>
      <trkpt lat="45.87543" lon="4.71063">
        <ele>216</ele>
        <time>2017-12-13T11:02:29Z</time>
      </trkpt>
      <trkpt lat="45.87545" lon="4.71066">
        <ele>216</ele>
        <time>2017-12-13T11:02:30Z</time>
      </trkpt>
      <trkpt lat="45.87551" lon="4.71074">
        <ele>216</ele>
        <time>2017-12-13T11:02:33Z</time>
      </trkpt>
      <trkpt lat="45.87554" lon="4.71076">
        <ele>216</ele>
        <time>2017-12-13T11:02:34Z</time>
      </trkpt>
      <trkpt lat="45.87561" lon="4.71081">
        <ele>216</ele>
        <time>2017-12-13T11:02:37Z</time>
      </trkpt>
      <trkpt lat="45.87564" lon="4.71082">
        <ele>216</ele>
        <time>2017-12-13T11:02:38Z</time>
      </trkpt>
      <trkpt lat="45.8757" lon="4.71085">
        <ele>217</ele>
        <time>2017-12-13T11:02:40Z</time>
      </trkpt>
      <trkpt lat="45.87573" lon="4.71086">
        <ele>217</ele>
        <time>2017-12-13T11:02:41Z</time>
      </trkpt>
      <trkpt lat="45.87581" lon="4.71088">
        <ele>217</ele>
        <time>2017-12-13T11:02:43Z</time>
      </trkpt>
      <trkpt lat="45.87585" lon="4.71085">
        <ele>217</ele>
        <time>2017-12-13T11:02:44Z</time>
      </trkpt>
      <trkpt lat="45.87589" lon="4.71085">
        <ele>218</ele>
        <time>2017-12-13T11:02:45Z</time>
      </trkpt>
      <trkpt lat="45.87594" lon="4.71084">
        <ele>218</ele>
        <time>2017-12-13T11:02:46Z</time>
      </trkpt>
      <trkpt lat="45.87599" lon="4.71082">
        <ele>217</ele>
        <time>2017-12-13T11:02:47Z</time>
      </trkpt>
      <trkpt lat="45.87604" lon="4.7108">
        <ele>217</ele>
        <time>2017-12-13T11:02:48Z</time>
      </trkpt>
      <trkpt lat="45.87609" lon="4.71079">
        <ele>217</ele>
        <time>2017-12-13T11:02:49Z</time>
      </trkpt>
      <trkpt lat="45.87614" lon="4.71077">
        <ele>217</ele>
        <time>2017-12-13T11:02:50Z</time>
      </trkpt>
      <trkpt lat="45.87619" lon="4.71076">
        <ele>217</ele>
        <time>2017-12-13T11:02:51Z</time>
      </trkpt>
      <trkpt lat="45.87623" lon="4.71074">
        <ele>217</ele>
        <time>2017-12-13T11:02:52Z</time>
      </trkpt>
      <trkpt lat="45.87628" lon="4.71073">
        <ele>218</ele>
        <time>2017-12-13T11:02:53Z</time>
      </trkpt>
      <trkpt lat="45.87633" lon="4.71072">
        <ele>218</ele>
        <time>2017-12-13T11:02:54Z</time>
      </trkpt>
      <trkpt lat="45.87638" lon="4.71071">
        <ele>218</ele>
        <time>2017-12-13T11:02:55Z</time>
      </trkpt>
      <trkpt lat="45.87643" lon="4.7107">
        <ele>218</ele>
        <time>2017-12-13T11:02:56Z</time>
      </trkpt>
      <trkpt lat="45.87649" lon="4.71068">
        <ele>218</ele>
        <time>2017-12-13T11:02:57Z</time>
      </trkpt>
      <trkpt lat="45.87654" lon="4.71068">
        <ele>218</ele>
        <time>2017-12-13T11:02:58Z</time>
      </trkpt>
      <trkpt lat="45.87659" lon="4.71067">
        <ele>218</ele>
        <time>2017-12-13T11:02:59Z</time>
      </trkpt>
      <trkpt lat="45.87665" lon="4.71064">
        <ele>218</ele>
        <time>2017-12-13T11:03:00Z</time>
      </trkpt>
      <trkpt lat="45.87673" lon="4.7106">
        <ele>220</ele>
        <time>2017-12-13T11:03:02Z</time>
      </trkpt>
      <trkpt lat="45.87678" lon="4.71059">
        <ele>220</ele>
        <time>2017-12-13T11:03:03Z</time>
      </trkpt>
      <trkpt lat="45.87681" lon="4.71058">
        <ele>220</ele>
        <time>2017-12-13T11:03:04Z</time>
      </trkpt>
      <trkpt lat="45.87687" lon="4.71056">
        <ele>220</ele>
        <time>2017-12-13T11:03:05Z</time>
      </trkpt>
      <trkpt lat="45.87691" lon="4.71055">
        <ele>220</ele>
        <time>2017-12-13T11:03:06Z</time>
      </trkpt>
      <trkpt lat="45.87696" lon="4.71055">
        <ele>220</ele>
        <time>2017-12-13T11:03:07Z</time>
      </trkpt>
      <trkpt lat="45.87703" lon="4.71052">
        <ele>220</ele>
        <time>2017-12-13T11:03:09Z</time>
      </trkpt>
      <trkpt lat="45.87707" lon="4.71051">
        <ele>220</ele>
        <time>2017-12-13T11:03:10Z</time>
      </trkpt>
      <trkpt lat="45.87711" lon="4.71049">
        <ele>220</ele>
        <time>2017-12-13T11:03:11Z</time>
      </trkpt>
      <trkpt lat="45.87717" lon="4.71046">
        <ele>220</ele>
        <time>2017-12-13T11:03:12Z</time>
      </trkpt>
      <trkpt lat="45.87722" lon="4.71045">
        <ele>220</ele>
        <time>2017-12-13T11:03:13Z</time>
      </trkpt>
      <trkpt lat="45.87726" lon="4.71042">
        <ele>220</ele>
        <time>2017-12-13T11:03:14Z</time>
      </trkpt>
      <trkpt lat="45.8773" lon="4.7104">
        <ele>220</ele>
        <time>2017-12-13T11:03:15Z</time>
      </trkpt>
      <trkpt lat="45.87735" lon="4.71038">
        <ele>220</ele>
        <time>2017-12-13T11:03:16Z</time>
      </trkpt>
      <trkpt lat="45.87739" lon="4.71037">
        <ele>220</ele>
        <time>2017-12-13T11:03:17Z</time>
      </trkpt>
      <trkpt lat="45.87744" lon="4.71036">
        <ele>220</ele>
        <time>2017-12-13T11:03:18Z</time>
      </trkpt>
      <trkpt lat="45.87749" lon="4.71034">
        <ele>220</ele>
        <time>2017-12-13T11:03:19Z</time>
      </trkpt>
      <trkpt lat="45.87754" lon="4.71032">
        <ele>222</ele>
        <time>2017-12-13T11:03:20Z</time>
      </trkpt>
      <trkpt lat="45.87759" lon="4.71031">
        <ele>222</ele>
        <time>2017-12-13T11:03:21Z</time>
      </trkpt>
      <trkpt lat="45.87764" lon="4.71029">
        <ele>222</ele>
        <time>2017-12-13T11:03:22Z</time>
      </trkpt>
      <trkpt lat="45.87769" lon="4.71027">
        <ele>222</ele>
        <time>2017-12-13T11:03:23Z</time>
      </trkpt>
      <trkpt lat="45.87774" lon="4.71026">
        <ele>222</ele>
        <time>2017-12-13T11:03:24Z</time>
      </trkpt>
      <trkpt lat="45.87779" lon="4.71024">
        <ele>222</ele>
        <time>2017-12-13T11:03:25Z</time>
      </trkpt>
      <trkpt lat="45.87783" lon="4.71023">
        <ele>223</ele>
        <time>2017-12-13T11:03:26Z</time>
      </trkpt>
      <trkpt lat="45.87787" lon="4.71021">
        <ele>223</ele>
        <time>2017-12-13T11:03:27Z</time>
      </trkpt>
      <trkpt lat="45.87792" lon="4.7102">
        <ele>223</ele>
        <time>2017-12-13T11:03:28Z</time>
      </trkpt>
      <trkpt lat="45.87801" lon="4.71015">
        <ele>223</ele>
        <time>2017-12-13T11:03:30Z</time>
      </trkpt>
      <trkpt lat="45.87806" lon="4.71014">
        <ele>223</ele>
        <time>2017-12-13T11:03:31Z</time>
      </trkpt>
      <trkpt lat="45.8781" lon="4.71012">
        <ele>223</ele>
        <time>2017-12-13T11:03:32Z</time>
      </trkpt>
      <trkpt lat="45.87815" lon="4.7101">
        <ele>223</ele>
        <time>2017-12-13T11:03:33Z</time>
      </trkpt>
      <trkpt lat="45.8782" lon="4.71007">
        <ele>223</ele>
        <time>2017-12-13T11:03:34Z</time>
      </trkpt>
      <trkpt lat="45.87824" lon="4.71007">
        <ele>224</ele>
        <time>2017-12-13T11:03:35Z</time>
      </trkpt>
      <trkpt lat="45.87829" lon="4.71005">
        <ele>224</ele>
        <time>2017-12-13T11:03:36Z</time>
      </trkpt>
      <trkpt lat="45.87833" lon="4.71003">
        <ele>224</ele>
        <time>2017-12-13T11:03:37Z</time>
      </trkpt>
      <trkpt lat="45.87841" lon="4.70999">
        <ele>224</ele>
        <time>2017-12-13T11:03:39Z</time>
      </trkpt>
      <trkpt lat="45.87845" lon="4.70997">
        <ele>224</ele>
        <time>2017-12-13T11:03:40Z</time>
      </trkpt>
      <trkpt lat="45.87852" lon="4.70992">
        <ele>224</ele>
        <time>2017-12-13T11:03:42Z</time>
      </trkpt>
      <trkpt lat="45.87856" lon="4.7099">
        <ele>224</ele>
        <time>2017-12-13T11:03:43Z</time>
      </trkpt>
      <trkpt lat="45.87864" lon="4.70986">
        <ele>225</ele>
        <time>2017-12-13T11:03:45Z</time>
      </trkpt>
      <trkpt lat="45.87868" lon="4.70982">
        <ele>225</ele>
        <time>2017-12-13T11:03:46Z</time>
      </trkpt>
      <trkpt lat="45.87876" lon="4.70978">
        <ele>225</ele>
        <time>2017-12-13T11:03:48Z</time>
      </trkpt>
      <trkpt lat="45.8788" lon="4.70975">
        <ele>225</ele>
        <time>2017-12-13T11:03:49Z</time>
      </trkpt>
      <trkpt lat="45.87887" lon="4.70971">
        <ele>225</ele>
        <time>2017-12-13T11:03:51Z</time>
      </trkpt>
      <trkpt lat="45.87891" lon="4.70968">
        <ele>225</ele>
        <time>2017-12-13T11:03:52Z</time>
      </trkpt>
      <trkpt lat="45.87898" lon="4.70963">
        <ele>225</ele>
        <time>2017-12-13T11:03:54Z</time>
      </trkpt>
      <trkpt lat="45.87902" lon="4.70961">
        <ele>225</ele>
        <time>2017-12-13T11:03:55Z</time>
      </trkpt>
      <trkpt lat="45.87908" lon="4.70956">
        <ele>225</ele>
        <time>2017-12-13T11:03:57Z</time>
      </trkpt>
      <trkpt lat="45.87912" lon="4.70954">
        <ele>225</ele>
        <time>2017-12-13T11:03:58Z</time>
      </trkpt>
      <trkpt lat="45.8792" lon="4.70949">
        <ele>225</ele>
        <time>2017-12-13T11:04:00Z</time>
      </trkpt>
      <trkpt lat="45.87924" lon="4.70946">
        <ele>225</ele>
        <time>2017-12-13T11:04:01Z</time>
      </trkpt>
      <trkpt lat="45.87931" lon="4.70941">
        <ele>225</ele>
        <time>2017-12-13T11:04:03Z</time>
      </trkpt>
      <trkpt lat="45.87935" lon="4.70939">
        <ele>225</ele>
        <time>2017-12-13T11:04:04Z</time>
      </trkpt>
      <trkpt lat="45.87942" lon="4.70934">
        <ele>225</ele>
        <time>2017-12-13T11:04:06Z</time>
      </trkpt>
      <trkpt lat="45.87945" lon="4.70931">
        <ele>225</ele>
        <time>2017-12-13T11:04:07Z</time>
      </trkpt>
      <trkpt lat="45.87953" lon="4.70926">
        <ele>225</ele>
        <time>2017-12-13T11:04:09Z</time>
      </trkpt>
      <trkpt lat="45.87956" lon="4.70923">
        <ele>225</ele>
        <time>2017-12-13T11:04:10Z</time>
      </trkpt>
      <trkpt lat="45.87963" lon="4.70917">
        <ele>225</ele>
        <time>2017-12-13T11:04:12Z</time>
      </trkpt>
      <trkpt lat="45.87966" lon="4.70914">
        <ele>225</ele>
        <time>2017-12-13T11:04:13Z</time>
      </trkpt>
      <trkpt lat="45.87972" lon="4.70909">
        <ele>225</ele>
        <time>2017-12-13T11:04:15Z</time>
      </trkpt>
      <trkpt lat="45.87976" lon="4.70906">
        <ele>225</ele>
        <time>2017-12-13T11:04:16Z</time>
      </trkpt>
      <trkpt lat="45.87984" lon="4.70899">
        <ele>225</ele>
        <time>2017-12-13T11:04:18Z</time>
      </trkpt>
      <trkpt lat="45.87987" lon="4.70897">
        <ele>225</ele>
        <time>2017-12-13T11:04:19Z</time>
      </trkpt>
      <trkpt lat="45.87991" lon="4.70894">
        <ele>225</ele>
        <time>2017-12-13T11:04:20Z</time>
      </trkpt>
      <trkpt lat="45.87995" lon="4.70891">
        <ele>225</ele>
        <time>2017-12-13T11:04:21Z</time>
      </trkpt>
      <trkpt lat="45.88003" lon="4.70888">
        <ele>226</ele>
        <time>2017-12-13T11:04:23Z</time>
      </trkpt>
      <trkpt lat="45.88006" lon="4.70885">
        <ele>226</ele>
        <time>2017-12-13T11:04:24Z</time>
      </trkpt>
      <trkpt lat="45.88015" lon="4.70883">
        <ele>226</ele>
        <time>2017-12-13T11:04:26Z</time>
      </trkpt>
      <trkpt lat="45.88019" lon="4.7088">
        <ele>226</ele>
        <time>2017-12-13T11:04:27Z</time>
      </trkpt>
      <trkpt lat="45.88027" lon="4.70875">
        <ele>226</ele>
        <time>2017-12-13T11:04:29Z</time>
      </trkpt>
      <trkpt lat="45.88031" lon="4.70873">
        <ele>226</ele>
        <time>2017-12-13T11:04:30Z</time>
      </trkpt>
      <trkpt lat="45.88039" lon="4.70868">
        <ele>226</ele>
        <time>2017-12-13T11:04:32Z</time>
      </trkpt>
      <trkpt lat="45.88042" lon="4.70865">
        <ele>227</ele>
        <time>2017-12-13T11:04:33Z</time>
      </trkpt>
      <trkpt lat="45.8805" lon="4.7086">
        <ele>227</ele>
        <time>2017-12-13T11:04:35Z</time>
      </trkpt>
      <trkpt lat="45.88054" lon="4.70858">
        <ele>227</ele>
        <time>2017-12-13T11:04:36Z</time>
      </trkpt>
      <trkpt lat="45.88058" lon="4.70854">
        <ele>227</ele>
        <time>2017-12-13T11:04:37Z</time>
      </trkpt>
      <trkpt lat="45.88062" lon="4.70852">
        <ele>227</ele>
        <time>2017-12-13T11:04:38Z</time>
      </trkpt>
      <trkpt lat="45.88069" lon="4.70846">
        <ele>228</ele>
        <time>2017-12-13T11:04:40Z</time>
      </trkpt>
      <trkpt lat="45.88073" lon="4.70844">
        <ele>228</ele>
        <time>2017-12-13T11:04:41Z</time>
      </trkpt>
      <trkpt lat="45.88078" lon="4.70843">
        <ele>228</ele>
        <time>2017-12-13T11:04:42Z</time>
      </trkpt>
      <trkpt lat="45.88083" lon="4.70844">
        <ele>228</ele>
        <time>2017-12-13T11:04:43Z</time>
      </trkpt>
      <trkpt lat="45.88087" lon="4.70846">
        <ele>229</ele>
        <time>2017-12-13T11:04:44Z</time>
      </trkpt>
      <trkpt lat="45.88092" lon="4.70849">
        <ele>229</ele>
        <time>2017-12-13T11:04:45Z</time>
      </trkpt>
      <trkpt lat="45.88098" lon="4.70851">
        <ele>229</ele>
        <time>2017-12-13T11:04:46Z</time>
      </trkpt>
      <trkpt lat="45.88103" lon="4.70852">
        <ele>229</ele>
        <time>2017-12-13T11:04:47Z</time>
      </trkpt>
      <trkpt lat="45.88109" lon="4.70851">
        <ele>229</ele>
        <time>2017-12-13T11:04:48Z</time>
      </trkpt>
      <trkpt lat="45.88112" lon="4.70848">
        <ele>229</ele>
        <time>2017-12-13T11:04:49Z</time>
      </trkpt>
      <trkpt lat="45.88118" lon="4.7084">
        <ele>229</ele>
        <time>2017-12-13T11:04:51Z</time>
      </trkpt>
      <trkpt lat="45.88121" lon="4.70836">
        <ele>229</ele>
        <time>2017-12-13T11:04:52Z</time>
      </trkpt>
      <trkpt lat="45.88124" lon="4.70826">
        <ele>230</ele>
        <time>2017-12-13T11:04:54Z</time>
      </trkpt>
      <trkpt lat="45.88126" lon="4.70822">
        <ele>230</ele>
        <time>2017-12-13T11:04:55Z</time>
      </trkpt>
      <trkpt lat="45.88132" lon="4.70815">
        <ele>230</ele>
        <time>2017-12-13T11:04:57Z</time>
      </trkpt>
      <trkpt lat="45.88135" lon="4.70811">
        <ele>231</ele>
        <time>2017-12-13T11:04:58Z</time>
      </trkpt>
      <trkpt lat="45.88141" lon="4.70804">
        <ele>231</ele>
        <time>2017-12-13T11:05:00Z</time>
      </trkpt>
      <trkpt lat="45.88145" lon="4.70801">
        <ele>231</ele>
        <time>2017-12-13T11:05:01Z</time>
      </trkpt>
      <trkpt lat="45.88151" lon="4.70794">
        <ele>231</ele>
        <time>2017-12-13T11:05:03Z</time>
      </trkpt>
      <trkpt lat="45.88154" lon="4.7079">
        <ele>231</ele>
        <time>2017-12-13T11:05:04Z</time>
      </trkpt>
      <trkpt lat="45.88162" lon="4.70784">
        <ele>231</ele>
        <time>2017-12-13T11:05:06Z</time>
      </trkpt>
      <trkpt lat="45.88165" lon="4.70782">
        <ele>231</ele>
        <time>2017-12-13T11:05:07Z</time>
      </trkpt>
      <trkpt lat="45.88172" lon="4.70777">
        <ele>232</ele>
        <time>2017-12-13T11:05:09Z</time>
      </trkpt>
      <trkpt lat="45.88175" lon="4.70775">
        <ele>232</ele>
        <time>2017-12-13T11:05:10Z</time>
      </trkpt>
      <trkpt lat="45.88183" lon="4.7077">
        <ele>232</ele>
        <time>2017-12-13T11:05:12Z</time>
      </trkpt>
      <trkpt lat="45.88186" lon="4.70767">
        <ele>232</ele>
        <time>2017-12-13T11:05:13Z</time>
      </trkpt>
      <trkpt lat="45.88194" lon="4.70762">
        <ele>232</ele>
        <time>2017-12-13T11:05:15Z</time>
      </trkpt>
      <trkpt lat="45.88198" lon="4.70759">
        <ele>232</ele>
        <time>2017-12-13T11:05:16Z</time>
      </trkpt>
      <trkpt lat="45.88206" lon="4.70755">
        <ele>232</ele>
        <time>2017-12-13T11:05:18Z</time>
      </trkpt>
      <trkpt lat="45.88211" lon="4.70752">
        <ele>232</ele>
        <time>2017-12-13T11:05:19Z</time>
      </trkpt>
      <trkpt lat="45.88215" lon="4.70749">
        <ele>235</ele>
        <time>2017-12-13T11:05:20Z</time>
      </trkpt>
      <trkpt lat="45.88219" lon="4.70746">
        <ele>235</ele>
        <time>2017-12-13T11:05:21Z</time>
      </trkpt>
      <trkpt lat="45.88224" lon="4.70744">
        <ele>235</ele>
        <time>2017-12-13T11:05:22Z</time>
      </trkpt>
      <trkpt lat="45.88228" lon="4.70741">
        <ele>235</ele>
        <time>2017-12-13T11:05:23Z</time>
      </trkpt>
      <trkpt lat="45.88235" lon="4.70736">
        <ele>235</ele>
        <time>2017-12-13T11:05:25Z</time>
      </trkpt>
      <trkpt lat="45.88238" lon="4.70732">
        <ele>235</ele>
        <time>2017-12-13T11:05:26Z</time>
      </trkpt>
      <trkpt lat="45.88246" lon="4.70726">
        <ele>235</ele>
        <time>2017-12-13T11:05:28Z</time>
      </trkpt>
      <trkpt lat="45.88249" lon="4.70723">
        <ele>235</ele>
        <time>2017-12-13T11:05:29Z</time>
      </trkpt>
      <trkpt lat="45.88257" lon="4.70716">
        <ele>234</ele>
        <time>2017-12-13T11:05:31Z</time>
      </trkpt>
      <trkpt lat="45.8826" lon="4.70713">
        <ele>234</ele>
        <time>2017-12-13T11:05:32Z</time>
      </trkpt>
      <trkpt lat="45.88267" lon="4.70708">
        <ele>235</ele>
        <time>2017-12-13T11:05:34Z</time>
      </trkpt>
      <trkpt lat="45.88272" lon="4.70705">
        <ele>235</ele>
        <time>2017-12-13T11:05:35Z</time>
      </trkpt>
      <trkpt lat="45.88276" lon="4.70703">
        <ele>235</ele>
        <time>2017-12-13T11:05:36Z</time>
      </trkpt>
      <trkpt lat="45.8828" lon="4.70699">
        <ele>235</ele>
        <time>2017-12-13T11:05:37Z</time>
      </trkpt>
      <trkpt lat="45.88284" lon="4.70696">
        <ele>235</ele>
        <time>2017-12-13T11:05:38Z</time>
      </trkpt>
      <trkpt lat="45.88288" lon="4.70693">
        <ele>235</ele>
        <time>2017-12-13T11:05:39Z</time>
      </trkpt>
      <trkpt lat="45.88295" lon="4.70687">
        <ele>235</ele>
        <time>2017-12-13T11:05:41Z</time>
      </trkpt>
      <trkpt lat="45.88299" lon="4.70684">
        <ele>235</ele>
        <time>2017-12-13T11:05:42Z</time>
      </trkpt>
      <trkpt lat="45.88306" lon="4.70678">
        <ele>235</ele>
        <time>2017-12-13T11:05:44Z</time>
      </trkpt>
      <trkpt lat="45.8831" lon="4.70675">
        <ele>235</ele>
        <time>2017-12-13T11:05:45Z</time>
      </trkpt>
      <trkpt lat="45.88317" lon="4.70668">
        <ele>235</ele>
        <time>2017-12-13T11:05:47Z</time>
      </trkpt>
      <trkpt lat="45.88321" lon="4.70665">
        <ele>237</ele>
        <time>2017-12-13T11:05:48Z</time>
      </trkpt>
      <trkpt lat="45.88329" lon="4.70659">
        <ele>236</ele>
        <time>2017-12-13T11:05:50Z</time>
      </trkpt>
      <trkpt lat="45.88333" lon="4.70656">
        <ele>237</ele>
        <time>2017-12-13T11:05:51Z</time>
      </trkpt>
      <trkpt lat="45.88337" lon="4.70653">
        <ele>235</ele>
        <time>2017-12-13T11:05:52Z</time>
      </trkpt>
      <trkpt lat="45.88341" lon="4.7065">
        <ele>235</ele>
        <time>2017-12-13T11:05:53Z</time>
      </trkpt>
      <trkpt lat="45.88345" lon="4.70647">
        <ele>235</ele>
        <time>2017-12-13T11:05:54Z</time>
      </trkpt>
      <trkpt lat="45.8835" lon="4.70643">
        <ele>235</ele>
        <time>2017-12-13T11:05:55Z</time>
      </trkpt>
      <trkpt lat="45.88355" lon="4.70638">
        <ele>235</ele>
        <time>2017-12-13T11:05:56Z</time>
      </trkpt>
      <trkpt lat="45.88358" lon="4.70635">
        <ele>235</ele>
        <time>2017-12-13T11:05:57Z</time>
      </trkpt>
      <trkpt lat="45.88362" lon="4.70632">
        <ele>235</ele>
        <time>2017-12-13T11:05:58Z</time>
      </trkpt>
      <trkpt lat="45.88366" lon="4.70629">
        <ele>235</ele>
        <time>2017-12-13T11:05:59Z</time>
      </trkpt>
      <trkpt lat="45.88374" lon="4.70623">
        <ele>235</ele>
        <time>2017-12-13T11:06:01Z</time>
      </trkpt>
      <trkpt lat="45.88378" lon="4.7062">
        <ele>235</ele>
        <time>2017-12-13T11:06:02Z</time>
      </trkpt>
      <trkpt lat="45.88382" lon="4.70617">
        <ele>235</ele>
        <time>2017-12-13T11:06:03Z</time>
      </trkpt>
      <trkpt lat="45.88387" lon="4.70614">
        <ele>235</ele>
        <time>2017-12-13T11:06:04Z</time>
      </trkpt>
      <trkpt lat="45.88391" lon="4.7061">
        <ele>235</ele>
        <time>2017-12-13T11:06:05Z</time>
      </trkpt>
      <trkpt lat="45.88395" lon="4.70606">
        <ele>235</ele>
        <time>2017-12-13T11:06:06Z</time>
      </trkpt>
      <trkpt lat="45.88401" lon="4.70603">
        <ele>235</ele>
        <time>2017-12-13T11:06:07Z</time>
      </trkpt>
      <trkpt lat="45.88406" lon="4.70599">
        <ele>235</ele>
        <time>2017-12-13T11:06:08Z</time>
      </trkpt>
      <trkpt lat="45.88411" lon="4.70596">
        <ele>235</ele>
        <time>2017-12-13T11:06:09Z</time>
      </trkpt>
      <trkpt lat="45.88415" lon="4.70593">
        <ele>235</ele>
        <time>2017-12-13T11:06:10Z</time>
      </trkpt>
      <trkpt lat="45.8842" lon="4.70589">
        <ele>234</ele>
        <time>2017-12-13T11:06:11Z</time>
      </trkpt>
      <trkpt lat="45.88424" lon="4.70585">
        <ele>233</ele>
        <time>2017-12-13T11:06:12Z</time>
      </trkpt>
      <trkpt lat="45.88429" lon="4.70581">
        <ele>235</ele>
        <time>2017-12-13T11:06:13Z</time>
      </trkpt>
      <trkpt lat="45.88433" lon="4.70578">
        <ele>235</ele>
        <time>2017-12-13T11:06:14Z</time>
      </trkpt>
      <trkpt lat="45.88438" lon="4.70574">
        <ele>234</ele>
        <time>2017-12-13T11:06:15Z</time>
      </trkpt>
      <trkpt lat="45.88444" lon="4.70568">
        <ele>234</ele>
        <time>2017-12-13T11:06:16Z</time>
      </trkpt>
      <trkpt lat="45.88448" lon="4.70564">
        <ele>234</ele>
        <time>2017-12-13T11:06:17Z</time>
      </trkpt>
      <trkpt lat="45.88453" lon="4.70561">
        <ele>234</ele>
        <time>2017-12-13T11:06:18Z</time>
      </trkpt>
      <trkpt lat="45.88457" lon="4.70557">
        <ele>234</ele>
        <time>2017-12-13T11:06:19Z</time>
      </trkpt>
      <trkpt lat="45.88461" lon="4.70554">
        <ele>234</ele>
        <time>2017-12-13T11:06:20Z</time>
      </trkpt>
      <trkpt lat="45.88466" lon="4.70551">
        <ele>234</ele>
        <time>2017-12-13T11:06:21Z</time>
      </trkpt>
      <trkpt lat="45.8847" lon="4.70547">
        <ele>234</ele>
        <time>2017-12-13T11:06:22Z</time>
      </trkpt>
      <trkpt lat="45.88474" lon="4.70543">
        <ele>234</ele>
        <time>2017-12-13T11:06:23Z</time>
      </trkpt>
      <trkpt lat="45.88479" lon="4.7054">
        <ele>234</ele>
        <time>2017-12-13T11:06:24Z</time>
      </trkpt>
      <trkpt lat="45.88484" lon="4.70537">
        <ele>233</ele>
        <time>2017-12-13T11:06:25Z</time>
      </trkpt>
      <trkpt lat="45.8849" lon="4.70533">
        <ele>233</ele>
        <time>2017-12-13T11:06:26Z</time>
      </trkpt>
      <trkpt lat="45.88495" lon="4.70529">
        <ele>233</ele>
        <time>2017-12-13T11:06:27Z</time>
      </trkpt>
      <trkpt lat="45.885" lon="4.70525">
        <ele>230</ele>
        <time>2017-12-13T11:06:28Z</time>
      </trkpt>
      <trkpt lat="45.88506" lon="4.70522">
        <ele>230</ele>
        <time>2017-12-13T11:06:29Z</time>
      </trkpt>
      <trkpt lat="45.88511" lon="4.70517">
        <ele>230</ele>
        <time>2017-12-13T11:06:30Z</time>
      </trkpt>
      <trkpt lat="45.88516" lon="4.70513">
        <ele>230</ele>
        <time>2017-12-13T11:06:31Z</time>
      </trkpt>
      <trkpt lat="45.88521" lon="4.70509">
        <ele>230</ele>
        <time>2017-12-13T11:06:32Z</time>
      </trkpt>
      <trkpt lat="45.88528" lon="4.70505">
        <ele>230</ele>
        <time>2017-12-13T11:06:33Z</time>
      </trkpt>
      <trkpt lat="45.88532" lon="4.705">
        <ele>229</ele>
        <time>2017-12-13T11:06:34Z</time>
      </trkpt>
      <trkpt lat="45.88537" lon="4.70497">
        <ele>232</ele>
        <time>2017-12-13T11:06:35Z</time>
      </trkpt>
      <trkpt lat="45.88542" lon="4.70493">
        <ele>232</ele>
        <time>2017-12-13T11:06:36Z</time>
      </trkpt>
      <trkpt lat="45.88547" lon="4.70489">
        <ele>231</ele>
        <time>2017-12-13T11:06:37Z</time>
      </trkpt>
      <trkpt lat="45.88552" lon="4.70486">
        <ele>231</ele>
        <time>2017-12-13T11:06:38Z</time>
      </trkpt>
      <trkpt lat="45.88557" lon="4.70482">
        <ele>231</ele>
        <time>2017-12-13T11:06:39Z</time>
      </trkpt>
      <trkpt lat="45.88562" lon="4.70478">
        <ele>231</ele>
        <time>2017-12-13T11:06:40Z</time>
      </trkpt>
      <trkpt lat="45.88567" lon="4.70473">
        <ele>231</ele>
        <time>2017-12-13T11:06:41Z</time>
      </trkpt>
      <trkpt lat="45.88572" lon="4.70469">
        <ele>231</ele>
        <time>2017-12-13T11:06:42Z</time>
      </trkpt>
      <trkpt lat="45.88575" lon="4.70466">
        <ele>231</ele>
        <time>2017-12-13T11:06:43Z</time>
      </trkpt>
      <trkpt lat="45.8858" lon="4.70462">
        <ele>231</ele>
        <time>2017-12-13T11:06:44Z</time>
      </trkpt>
      <trkpt lat="45.88584" lon="4.70458">
        <ele>228</ele>
        <time>2017-12-13T11:06:45Z</time>
      </trkpt>
      <trkpt lat="45.88589" lon="4.70455">
        <ele>228</ele>
        <time>2017-12-13T11:06:46Z</time>
      </trkpt>
      <trkpt lat="45.88593" lon="4.70452">
        <ele>228</ele>
        <time>2017-12-13T11:06:47Z</time>
      </trkpt>
      <trkpt lat="45.88599" lon="4.70447">
        <ele>228</ele>
        <time>2017-12-13T11:06:48Z</time>
      </trkpt>
      <trkpt lat="45.88603" lon="4.70443">
        <ele>228</ele>
        <time>2017-12-13T11:06:49Z</time>
      </trkpt>
      <trkpt lat="45.88608" lon="4.70438">
        <ele>228</ele>
        <time>2017-12-13T11:06:50Z</time>
      </trkpt>
      <trkpt lat="45.88613" lon="4.70434">
        <ele>228</ele>
        <time>2017-12-13T11:06:51Z</time>
      </trkpt>
      <trkpt lat="45.88619" lon="4.70429">
        <ele>228</ele>
        <time>2017-12-13T11:06:52Z</time>
      </trkpt>
      <trkpt lat="45.88625" lon="4.70424">
        <ele>228</ele>
        <time>2017-12-13T11:06:53Z</time>
      </trkpt>
      <trkpt lat="45.88631" lon="4.7042">
        <ele>227</ele>
        <time>2017-12-13T11:06:54Z</time>
      </trkpt>
      <trkpt lat="45.88637" lon="4.70416">
        <ele>230</ele>
        <time>2017-12-13T11:06:55Z</time>
      </trkpt>
      <trkpt lat="45.8864" lon="4.70411">
        <ele>230</ele>
        <time>2017-12-13T11:06:56Z</time>
      </trkpt>
      <trkpt lat="45.88645" lon="4.70408">
        <ele>230</ele>
        <time>2017-12-13T11:06:57Z</time>
      </trkpt>
      <trkpt lat="45.8865" lon="4.70404">
        <ele>229</ele>
        <time>2017-12-13T11:06:58Z</time>
      </trkpt>
      <trkpt lat="45.88655" lon="4.70401">
        <ele>229</ele>
        <time>2017-12-13T11:06:59Z</time>
      </trkpt>
      <trkpt lat="45.88659" lon="4.70396">
        <ele>229</ele>
        <time>2017-12-13T11:07:00Z</time>
      </trkpt>
      <trkpt lat="45.88663" lon="4.70393">
        <ele>230</ele>
        <time>2017-12-13T11:07:01Z</time>
      </trkpt>
      <trkpt lat="45.88667" lon="4.70389">
        <ele>228</ele>
        <time>2017-12-13T11:07:02Z</time>
      </trkpt>
      <trkpt lat="45.88672" lon="4.70386">
        <ele>228</ele>
        <time>2017-12-13T11:07:03Z</time>
      </trkpt>
      <trkpt lat="45.88677" lon="4.70382">
        <ele>228</ele>
        <time>2017-12-13T11:07:04Z</time>
      </trkpt>
      <trkpt lat="45.88683" lon="4.70378">
        <ele>228</ele>
        <time>2017-12-13T11:07:05Z</time>
      </trkpt>
      <trkpt lat="45.88688" lon="4.70373">
        <ele>228</ele>
        <time>2017-12-13T11:07:06Z</time>
      </trkpt>
      <trkpt lat="45.88693" lon="4.70369">
        <ele>229</ele>
        <time>2017-12-13T11:07:07Z</time>
      </trkpt>
      <trkpt lat="45.88699" lon="4.70363">
        <ele>229</ele>
        <time>2017-12-13T11:07:08Z</time>
      </trkpt>
      <trkpt lat="45.88704" lon="4.70359">
        <ele>229</ele>
        <time>2017-12-13T11:07:09Z</time>
      </trkpt>
      <trkpt lat="45.8871" lon="4.70355">
        <ele>229</ele>
        <time>2017-12-13T11:07:10Z</time>
      </trkpt>
      <trkpt lat="45.88715" lon="4.7035">
        <ele>229</ele>
        <time>2017-12-13T11:07:11Z</time>
      </trkpt>
      <trkpt lat="45.88721" lon="4.70346">
        <ele>229</ele>
        <time>2017-12-13T11:07:12Z</time>
      </trkpt>
      <trkpt lat="45.88725" lon="4.70343">
        <ele>229</ele>
        <time>2017-12-13T11:07:13Z</time>
      </trkpt>
      <trkpt lat="45.8873" lon="4.70338">
        <ele>229</ele>
        <time>2017-12-13T11:07:14Z</time>
      </trkpt>
      <trkpt lat="45.88735" lon="4.70334">
        <ele>229</ele>
        <time>2017-12-13T11:07:15Z</time>
      </trkpt>
      <trkpt lat="45.88739" lon="4.70331">
        <ele>231</ele>
        <time>2017-12-13T11:07:16Z</time>
      </trkpt>
      <trkpt lat="45.88745" lon="4.70327">
        <ele>231</ele>
        <time>2017-12-13T11:07:17Z</time>
      </trkpt>
      <trkpt lat="45.88749" lon="4.70323">
        <ele>231</ele>
        <time>2017-12-13T11:07:18Z</time>
      </trkpt>
      <trkpt lat="45.88753" lon="4.70319">
        <ele>231</ele>
        <time>2017-12-13T11:07:19Z</time>
      </trkpt>
      <trkpt lat="45.88757" lon="4.70316">
        <ele>232</ele>
        <time>2017-12-13T11:07:20Z</time>
      </trkpt>
      <trkpt lat="45.88762" lon="4.70312">
        <ele>232</ele>
        <time>2017-12-13T11:07:21Z</time>
      </trkpt>
      <trkpt lat="45.88767" lon="4.70308">
        <ele>232</ele>
        <time>2017-12-13T11:07:22Z</time>
      </trkpt>
      <trkpt lat="45.88771" lon="4.70305">
        <ele>233</ele>
        <time>2017-12-13T11:07:23Z</time>
      </trkpt>
      <trkpt lat="45.88776" lon="4.70302">
        <ele>233</ele>
        <time>2017-12-13T11:07:24Z</time>
      </trkpt>
      <trkpt lat="45.88781" lon="4.70298">
        <ele>233</ele>
        <time>2017-12-13T11:07:25Z</time>
      </trkpt>
      <trkpt lat="45.88786" lon="4.70295">
        <ele>233</ele>
        <time>2017-12-13T11:07:26Z</time>
      </trkpt>
      <trkpt lat="45.88791" lon="4.70292">
        <ele>233</ele>
        <time>2017-12-13T11:07:27Z</time>
      </trkpt>
      <trkpt lat="45.88797" lon="4.70289">
        <ele>234</ele>
        <time>2017-12-13T11:07:28Z</time>
      </trkpt>
      <trkpt lat="45.88801" lon="4.70285">
        <ele>234</ele>
        <time>2017-12-13T11:07:29Z</time>
      </trkpt>
      <trkpt lat="45.88805" lon="4.70282">
        <ele>234</ele>
        <time>2017-12-13T11:07:30Z</time>
      </trkpt>
      <trkpt lat="45.8881" lon="4.70278">
        <ele>234</ele>
        <time>2017-12-13T11:07:31Z</time>
      </trkpt>
      <trkpt lat="45.88815" lon="4.70274">
        <ele>234</ele>
        <time>2017-12-13T11:07:32Z</time>
      </trkpt>
      <trkpt lat="45.88821" lon="4.70271">
        <ele>235</ele>
        <time>2017-12-13T11:07:33Z</time>
      </trkpt>
      <trkpt lat="45.88826" lon="4.70267">
        <ele>235</ele>
        <time>2017-12-13T11:07:34Z</time>
      </trkpt>
      <trkpt lat="45.88832" lon="4.70263">
        <ele>235</ele>
        <time>2017-12-13T11:07:35Z</time>
      </trkpt>
      <trkpt lat="45.88838" lon="4.7026">
        <ele>235</ele>
        <time>2017-12-13T11:07:36Z</time>
      </trkpt>
      <trkpt lat="45.88843" lon="4.70256">
        <ele>234</ele>
        <time>2017-12-13T11:07:37Z</time>
      </trkpt>
      <trkpt lat="45.88848" lon="4.70252">
        <ele>234</ele>
        <time>2017-12-13T11:07:38Z</time>
      </trkpt>
      <trkpt lat="45.88854" lon="4.70248">
        <ele>238</ele>
        <time>2017-12-13T11:07:39Z</time>
      </trkpt>
      <trkpt lat="45.88859" lon="4.70245">
        <ele>238</ele>
        <time>2017-12-13T11:07:40Z</time>
      </trkpt>
      <trkpt lat="45.88866" lon="4.70239">
        <ele>238</ele>
        <time>2017-12-13T11:07:42Z</time>
      </trkpt>
      <trkpt lat="45.8887" lon="4.70237">
        <ele>238</ele>
        <time>2017-12-13T11:07:43Z</time>
      </trkpt>
      <trkpt lat="45.88875" lon="4.70235">
        <ele>238</ele>
        <time>2017-12-13T11:07:44Z</time>
      </trkpt>
      <trkpt lat="45.88879" lon="4.70232">
        <ele>238</ele>
        <time>2017-12-13T11:07:45Z</time>
      </trkpt>
      <trkpt lat="45.88884" lon="4.7023">
        <ele>238</ele>
        <time>2017-12-13T11:07:46Z</time>
      </trkpt>
      <trkpt lat="45.88889" lon="4.70227">
        <ele>238</ele>
        <time>2017-12-13T11:07:47Z</time>
      </trkpt>
      <trkpt lat="45.88894" lon="4.70223">
        <ele>238</ele>
        <time>2017-12-13T11:07:48Z</time>
      </trkpt>
      <trkpt lat="45.88898" lon="4.7022">
        <ele>238</ele>
        <time>2017-12-13T11:07:49Z</time>
      </trkpt>
      <trkpt lat="45.88904" lon="4.70217">
        <ele>238</ele>
        <time>2017-12-13T11:07:50Z</time>
      </trkpt>
      <trkpt lat="45.8891" lon="4.70214">
        <ele>238</ele>
        <time>2017-12-13T11:07:51Z</time>
      </trkpt>
      <trkpt lat="45.88915" lon="4.7021">
        <ele>238</ele>
        <time>2017-12-13T11:07:52Z</time>
      </trkpt>
      <trkpt lat="45.88922" lon="4.70207">
        <ele>234</ele>
        <time>2017-12-13T11:07:53Z</time>
      </trkpt>
      <trkpt lat="45.88928" lon="4.70204">
        <ele>234</ele>
        <time>2017-12-13T11:07:54Z</time>
      </trkpt>
      <trkpt lat="45.88934" lon="4.70201">
        <ele>234</ele>
        <time>2017-12-13T11:07:55Z</time>
      </trkpt>
      <trkpt lat="45.88939" lon="4.70198">
        <ele>234</ele>
        <time>2017-12-13T11:07:56Z</time>
      </trkpt>
      <trkpt lat="45.88944" lon="4.70195">
        <ele>234</ele>
        <time>2017-12-13T11:07:57Z</time>
      </trkpt>
      <trkpt lat="45.88949" lon="4.70193">
        <ele>234</ele>
        <time>2017-12-13T11:07:58Z</time>
      </trkpt>
      <trkpt lat="45.88954" lon="4.70189">
        <ele>234</ele>
        <time>2017-12-13T11:07:59Z</time>
      </trkpt>
      <trkpt lat="45.8896" lon="4.70185">
        <ele>234</ele>
        <time>2017-12-13T11:08:00Z</time>
      </trkpt>
      <trkpt lat="45.88964" lon="4.70182">
        <ele>234</ele>
        <time>2017-12-13T11:08:01Z</time>
      </trkpt>
      <trkpt lat="45.88969" lon="4.7018">
        <ele>233</ele>
        <time>2017-12-13T11:08:02Z</time>
      </trkpt>
      <trkpt lat="45.88973" lon="4.70177">
        <ele>233</ele>
        <time>2017-12-13T11:08:03Z</time>
      </trkpt>
      <trkpt lat="45.88978" lon="4.70175">
        <ele>233</ele>
        <time>2017-12-13T11:08:04Z</time>
      </trkpt>
      <trkpt lat="45.88983" lon="4.70173">
        <ele>233</ele>
        <time>2017-12-13T11:08:05Z</time>
      </trkpt>
      <trkpt lat="45.88988" lon="4.7017">
        <ele>232</ele>
        <time>2017-12-13T11:08:06Z</time>
      </trkpt>
      <trkpt lat="45.88994" lon="4.70168">
        <ele>232</ele>
        <time>2017-12-13T11:08:07Z</time>
      </trkpt>
      <trkpt lat="45.88998" lon="4.70165">
        <ele>233</ele>
        <time>2017-12-13T11:08:08Z</time>
      </trkpt>
      <trkpt lat="45.89004" lon="4.7016">
        <ele>232</ele>
        <time>2017-12-13T11:08:09Z</time>
      </trkpt>
      <trkpt lat="45.89009" lon="4.70157">
        <ele>232</ele>
        <time>2017-12-13T11:08:10Z</time>
      </trkpt>
      <trkpt lat="45.89015" lon="4.70154">
        <ele>231</ele>
        <time>2017-12-13T11:08:11Z</time>
      </trkpt>
      <trkpt lat="45.8902" lon="4.70151">
        <ele>231</ele>
        <time>2017-12-13T11:08:12Z</time>
      </trkpt>
      <trkpt lat="45.89026" lon="4.70147">
        <ele>231</ele>
        <time>2017-12-13T11:08:13Z</time>
      </trkpt>
      <trkpt lat="45.89031" lon="4.70144">
        <ele>231</ele>
        <time>2017-12-13T11:08:14Z</time>
      </trkpt>
      <trkpt lat="45.89037" lon="4.7014">
        <ele>231</ele>
        <time>2017-12-13T11:08:15Z</time>
      </trkpt>
      <trkpt lat="45.89042" lon="4.70137">
        <ele>231</ele>
        <time>2017-12-13T11:08:16Z</time>
      </trkpt>
      <trkpt lat="45.89047" lon="4.70134">
        <ele>231</ele>
        <time>2017-12-13T11:08:17Z</time>
      </trkpt>
      <trkpt lat="45.89053" lon="4.7013">
        <ele>230</ele>
        <time>2017-12-13T11:08:18Z</time>
      </trkpt>
      <trkpt lat="45.89058" lon="4.70127">
        <ele>230</ele>
        <time>2017-12-13T11:08:19Z</time>
      </trkpt>
      <trkpt lat="45.89064" lon="4.70124">
        <ele>230</ele>
        <time>2017-12-13T11:08:20Z</time>
      </trkpt>
      <trkpt lat="45.8907" lon="4.70121">
        <ele>230</ele>
        <time>2017-12-13T11:08:21Z</time>
      </trkpt>
      <trkpt lat="45.89075" lon="4.70118">
        <ele>230</ele>
        <time>2017-12-13T11:08:22Z</time>
      </trkpt>
      <trkpt lat="45.89079" lon="4.70116">
        <ele>230</ele>
        <time>2017-12-13T11:08:23Z</time>
      </trkpt>
      <trkpt lat="45.89085" lon="4.70113">
        <ele>228</ele>
        <time>2017-12-13T11:08:24Z</time>
      </trkpt>
      <trkpt lat="45.89089" lon="4.7011">
        <ele>228</ele>
        <time>2017-12-13T11:08:25Z</time>
      </trkpt>
      <trkpt lat="45.89094" lon="4.70107">
        <ele>228</ele>
        <time>2017-12-13T11:08:26Z</time>
      </trkpt>
      <trkpt lat="45.89097" lon="4.70104">
        <ele>228</ele>
        <time>2017-12-13T11:08:27Z</time>
      </trkpt>
      <trkpt lat="45.89103" lon="4.70102">
        <ele>228</ele>
        <time>2017-12-13T11:08:28Z</time>
      </trkpt>
      <trkpt lat="45.89108" lon="4.70099">
        <ele>228</ele>
        <time>2017-12-13T11:08:29Z</time>
      </trkpt>
      <trkpt lat="45.89114" lon="4.70096">
        <ele>228</ele>
        <time>2017-12-13T11:08:30Z</time>
      </trkpt>
      <trkpt lat="45.89119" lon="4.70092">
        <ele>228</ele>
        <time>2017-12-13T11:08:31Z</time>
      </trkpt>
      <trkpt lat="45.89125" lon="4.70089">
        <ele>228</ele>
        <time>2017-12-13T11:08:32Z</time>
      </trkpt>
      <trkpt lat="45.89131" lon="4.70085">
        <ele>228</ele>
        <time>2017-12-13T11:08:33Z</time>
      </trkpt>
      <trkpt lat="45.89137" lon="4.70082">
        <ele>231</ele>
        <time>2017-12-13T11:08:34Z</time>
      </trkpt>
      <trkpt lat="45.89142" lon="4.70079">
        <ele>230</ele>
        <time>2017-12-13T11:08:35Z</time>
      </trkpt>
      <trkpt lat="45.89149" lon="4.70077">
        <ele>230</ele>
        <time>2017-12-13T11:08:36Z</time>
      </trkpt>
      <trkpt lat="45.89154" lon="4.70073">
        <ele>230</ele>
        <time>2017-12-13T11:08:37Z</time>
      </trkpt>
      <trkpt lat="45.8916" lon="4.70071">
        <ele>230</ele>
        <time>2017-12-13T11:08:38Z</time>
      </trkpt>
      <trkpt lat="45.89166" lon="4.70068">
        <ele>230</ele>
        <time>2017-12-13T11:08:39Z</time>
      </trkpt>
      <trkpt lat="45.89171" lon="4.70065">
        <ele>228</ele>
        <time>2017-12-13T11:08:40Z</time>
      </trkpt>
      <trkpt lat="45.89178" lon="4.70061">
        <ele>228</ele>
        <time>2017-12-13T11:08:41Z</time>
      </trkpt>
      <trkpt lat="45.89183" lon="4.70058">
        <ele>229</ele>
        <time>2017-12-13T11:08:42Z</time>
      </trkpt>
      <trkpt lat="45.89191" lon="4.70055">
        <ele>228</ele>
        <time>2017-12-13T11:08:43Z</time>
      </trkpt>
      <trkpt lat="45.89197" lon="4.70051">
        <ele>228</ele>
        <time>2017-12-13T11:08:44Z</time>
      </trkpt>
      <trkpt lat="45.89203" lon="4.70048">
        <ele>228</ele>
        <time>2017-12-13T11:08:45Z</time>
      </trkpt>
      <trkpt lat="45.89209" lon="4.70046">
        <ele>228</ele>
        <time>2017-12-13T11:08:46Z</time>
      </trkpt>
      <trkpt lat="45.89215" lon="4.70044">
        <ele>228</ele>
        <time>2017-12-13T11:08:47Z</time>
      </trkpt>
      <trkpt lat="45.8922" lon="4.70041">
        <ele>228</ele>
        <time>2017-12-13T11:08:48Z</time>
      </trkpt>
      <trkpt lat="45.89225" lon="4.70039">
        <ele>228</ele>
        <time>2017-12-13T11:08:49Z</time>
      </trkpt>
      <trkpt lat="45.89231" lon="4.70037">
        <ele>228</ele>
        <time>2017-12-13T11:08:50Z</time>
      </trkpt>
      <trkpt lat="45.89238" lon="4.70035">
        <ele>228</ele>
        <time>2017-12-13T11:08:51Z</time>
      </trkpt>
      <trkpt lat="45.89243" lon="4.70033">
        <ele>228</ele>
        <time>2017-12-13T11:08:52Z</time>
      </trkpt>
      <trkpt lat="45.89251" lon="4.7003">
        <ele>226</ele>
        <time>2017-12-13T11:08:53Z</time>
      </trkpt>
      <trkpt lat="45.89257" lon="4.70027">
        <ele>226</ele>
        <time>2017-12-13T11:08:54Z</time>
      </trkpt>
      <trkpt lat="45.89264" lon="4.70024">
        <ele>226</ele>
        <time>2017-12-13T11:08:55Z</time>
      </trkpt>
      <trkpt lat="45.8927" lon="4.70021">
        <ele>226</ele>
        <time>2017-12-13T11:08:56Z</time>
      </trkpt>
      <trkpt lat="45.89277" lon="4.7002">
        <ele>226</ele>
        <time>2017-12-13T11:08:57Z</time>
      </trkpt>
      <trkpt lat="45.89283" lon="4.70017">
        <ele>226</ele>
        <time>2017-12-13T11:08:58Z</time>
      </trkpt>
      <trkpt lat="45.8929" lon="4.70015">
        <ele>226</ele>
        <time>2017-12-13T11:08:59Z</time>
      </trkpt>
      <trkpt lat="45.89296" lon="4.70012">
        <ele>226</ele>
        <time>2017-12-13T11:09:00Z</time>
      </trkpt>
      <trkpt lat="45.89303" lon="4.70009">
        <ele>226</ele>
        <time>2017-12-13T11:09:01Z</time>
      </trkpt>
      <trkpt lat="45.89309" lon="4.70007">
        <ele>226</ele>
        <time>2017-12-13T11:09:02Z</time>
      </trkpt>
      <trkpt lat="45.89316" lon="4.70006">
        <ele>226</ele>
        <time>2017-12-13T11:09:03Z</time>
      </trkpt>
      <trkpt lat="45.89322" lon="4.70003">
        <ele>226</ele>
        <time>2017-12-13T11:09:04Z</time>
      </trkpt>
      <trkpt lat="45.89329" lon="4.70002">
        <ele>226</ele>
        <time>2017-12-13T11:09:05Z</time>
      </trkpt>
      <trkpt lat="45.89336" lon="4.7">
        <ele>226</ele>
        <time>2017-12-13T11:09:06Z</time>
      </trkpt>
      <trkpt lat="45.89342" lon="4.7">
        <ele>227</ele>
        <time>2017-12-13T11:09:07Z</time>
      </trkpt>
      <trkpt lat="45.89348" lon="4.69999">
        <ele>227</ele>
        <time>2017-12-13T11:09:08Z</time>
      </trkpt>
      <trkpt lat="45.89354" lon="4.69998">
        <ele>227</ele>
        <time>2017-12-13T11:09:09Z</time>
      </trkpt>
      <trkpt lat="45.8936" lon="4.69999">
        <ele>227</ele>
        <time>2017-12-13T11:09:10Z</time>
      </trkpt>
      <trkpt lat="45.89366" lon="4.7">
        <ele>225</ele>
        <time>2017-12-13T11:09:11Z</time>
      </trkpt>
      <trkpt lat="45.89372" lon="4.70002">
        <ele>225</ele>
        <time>2017-12-13T11:09:12Z</time>
      </trkpt>
      <trkpt lat="45.89379" lon="4.70002">
        <ele>225</ele>
        <time>2017-12-13T11:09:13Z</time>
      </trkpt>
      <trkpt lat="45.89386" lon="4.70004">
        <ele>226</ele>
        <time>2017-12-13T11:09:14Z</time>
      </trkpt>
      <trkpt lat="45.89391" lon="4.70004">
        <ele>226</ele>
        <time>2017-12-13T11:09:15Z</time>
      </trkpt>
      <trkpt lat="45.89398" lon="4.70005">
        <ele>226</ele>
        <time>2017-12-13T11:09:16Z</time>
      </trkpt>
      <trkpt lat="45.89405" lon="4.70007">
        <ele>226</ele>
        <time>2017-12-13T11:09:17Z</time>
      </trkpt>
      <trkpt lat="45.89412" lon="4.70007">
        <ele>226</ele>
        <time>2017-12-13T11:09:18Z</time>
      </trkpt>
      <trkpt lat="45.89419" lon="4.70009">
        <ele>226</ele>
        <time>2017-12-13T11:09:19Z</time>
      </trkpt>
      <trkpt lat="45.89426" lon="4.70011">
        <ele>226</ele>
        <time>2017-12-13T11:09:20Z</time>
      </trkpt>
      <trkpt lat="45.89433" lon="4.70012">
        <ele>225</ele>
        <time>2017-12-13T11:09:21Z</time>
      </trkpt>
      <trkpt lat="45.8944" lon="4.70014">
        <ele>225</ele>
        <time>2017-12-13T11:09:22Z</time>
      </trkpt>
      <trkpt lat="45.89447" lon="4.70014">
        <ele>225</ele>
        <time>2017-12-13T11:09:23Z</time>
      </trkpt>
      <trkpt lat="45.89454" lon="4.70016">
        <ele>225</ele>
        <time>2017-12-13T11:09:24Z</time>
      </trkpt>
      <trkpt lat="45.89461" lon="4.70018">
        <ele>225</ele>
        <time>2017-12-13T11:09:25Z</time>
      </trkpt>
      <trkpt lat="45.89467" lon="4.70019">
        <ele>225</ele>
        <time>2017-12-13T11:09:26Z</time>
      </trkpt>
      <trkpt lat="45.89474" lon="4.70019">
        <ele>225</ele>
        <time>2017-12-13T11:09:27Z</time>
      </trkpt>
      <trkpt lat="45.89481" lon="4.70021">
        <ele>224</ele>
        <time>2017-12-13T11:09:28Z</time>
      </trkpt>
      <trkpt lat="45.89487" lon="4.70022">
        <ele>224</ele>
        <time>2017-12-13T11:09:29Z</time>
      </trkpt>
      <trkpt lat="45.89494" lon="4.70024">
        <ele>224</ele>
        <time>2017-12-13T11:09:30Z</time>
      </trkpt>
      <trkpt lat="45.895" lon="4.70025">
        <ele>223</ele>
        <time>2017-12-13T11:09:31Z</time>
      </trkpt>
      <trkpt lat="45.89506" lon="4.70026">
        <ele>223</ele>
        <time>2017-12-13T11:09:32Z</time>
      </trkpt>
      <trkpt lat="45.89513" lon="4.70027">
        <ele>223</ele>
        <time>2017-12-13T11:09:33Z</time>
      </trkpt>
      <trkpt lat="45.89519" lon="4.70029">
        <ele>223</ele>
        <time>2017-12-13T11:09:34Z</time>
      </trkpt>
      <trkpt lat="45.89525" lon="4.70031">
        <ele>223</ele>
        <time>2017-12-13T11:09:35Z</time>
      </trkpt>
      <trkpt lat="45.89532" lon="4.70031">
        <ele>223</ele>
        <time>2017-12-13T11:09:36Z</time>
      </trkpt>
      <trkpt lat="45.89538" lon="4.70032">
        <ele>222</ele>
        <time>2017-12-13T11:09:37Z</time>
      </trkpt>
      <trkpt lat="45.89546" lon="4.70033">
        <ele>222</ele>
        <time>2017-12-13T11:09:38Z</time>
      </trkpt>
      <trkpt lat="45.89553" lon="4.70034">
        <ele>222</ele>
        <time>2017-12-13T11:09:39Z</time>
      </trkpt>
      <trkpt lat="45.89559" lon="4.70035">
        <ele>222</ele>
        <time>2017-12-13T11:09:40Z</time>
      </trkpt>
      <trkpt lat="45.89566" lon="4.70035">
        <ele>222</ele>
        <time>2017-12-13T11:09:41Z</time>
      </trkpt>
      <trkpt lat="45.89572" lon="4.70036">
        <ele>222</ele>
        <time>2017-12-13T11:09:42Z</time>
      </trkpt>
      <trkpt lat="45.89577" lon="4.70038">
        <ele>222</ele>
        <time>2017-12-13T11:09:43Z</time>
      </trkpt>
      <trkpt lat="45.89583" lon="4.70039">
        <ele>222</ele>
        <time>2017-12-13T11:09:44Z</time>
      </trkpt>
      <trkpt lat="45.89589" lon="4.7004">
        <ele>222</ele>
        <time>2017-12-13T11:09:45Z</time>
      </trkpt>
      <trkpt lat="45.89596" lon="4.70042">
        <ele>222</ele>
        <time>2017-12-13T11:09:46Z</time>
      </trkpt>
      <trkpt lat="45.89602" lon="4.70043">
        <ele>222</ele>
        <time>2017-12-13T11:09:47Z</time>
      </trkpt>
      <trkpt lat="45.8961" lon="4.70043">
        <ele>222</ele>
        <time>2017-12-13T11:09:48Z</time>
      </trkpt>
      <trkpt lat="45.89617" lon="4.70045">
        <ele>222</ele>
        <time>2017-12-13T11:09:49Z</time>
      </trkpt>
      <trkpt lat="45.89625" lon="4.70048">
        <ele>222</ele>
        <time>2017-12-13T11:09:50Z</time>
      </trkpt>
      <trkpt lat="45.89631" lon="4.70049">
        <ele>222</ele>
        <time>2017-12-13T11:09:51Z</time>
      </trkpt>
      <trkpt lat="45.8964" lon="4.70052">
        <ele>222</ele>
        <time>2017-12-13T11:09:52Z</time>
      </trkpt>
      <trkpt lat="45.89647" lon="4.70054">
        <ele>222</ele>
        <time>2017-12-13T11:09:53Z</time>
      </trkpt>
      <trkpt lat="45.89653" lon="4.70054">
        <ele>222</ele>
        <time>2017-12-13T11:09:54Z</time>
      </trkpt>
      <trkpt lat="45.89659" lon="4.70055">
        <ele>222</ele>
        <time>2017-12-13T11:09:55Z</time>
      </trkpt>
      <trkpt lat="45.89666" lon="4.70056">
        <ele>222</ele>
        <time>2017-12-13T11:09:56Z</time>
      </trkpt>
      <trkpt lat="45.89674" lon="4.70056">
        <ele>222</ele>
        <time>2017-12-13T11:09:57Z</time>
      </trkpt>
      <trkpt lat="45.8968" lon="4.70059">
        <ele>222</ele>
        <time>2017-12-13T11:09:58Z</time>
      </trkpt>
      <trkpt lat="45.89687" lon="4.70059">
        <ele>222</ele>
        <time>2017-12-13T11:09:59Z</time>
      </trkpt>
      <trkpt lat="45.89694" lon="4.70061">
        <ele>222</ele>
        <time>2017-12-13T11:10:00Z</time>
      </trkpt>
      <trkpt lat="45.897" lon="4.70062">
        <ele>221</ele>
        <time>2017-12-13T11:10:01Z</time>
      </trkpt>
      <trkpt lat="45.89708" lon="4.70062">
        <ele>221</ele>
        <time>2017-12-13T11:10:02Z</time>
      </trkpt>
      <trkpt lat="45.89715" lon="4.70064">
        <ele>221</ele>
        <time>2017-12-13T11:10:03Z</time>
      </trkpt>
      <trkpt lat="45.89721" lon="4.70064">
        <ele>221</ele>
        <time>2017-12-13T11:10:04Z</time>
      </trkpt>
      <trkpt lat="45.89727" lon="4.70065">
        <ele>221</ele>
        <time>2017-12-13T11:10:05Z</time>
      </trkpt>
      <trkpt lat="45.89734" lon="4.70067">
        <ele>221</ele>
        <time>2017-12-13T11:10:06Z</time>
      </trkpt>
      <trkpt lat="45.89739" lon="4.70068">
        <ele>220</ele>
        <time>2017-12-13T11:10:07Z</time>
      </trkpt>
      <trkpt lat="45.89744" lon="4.7007">
        <ele>220</ele>
        <time>2017-12-13T11:10:08Z</time>
      </trkpt>
      <trkpt lat="45.89752" lon="4.70072">
        <ele>220</ele>
        <time>2017-12-13T11:10:10Z</time>
      </trkpt>
      <trkpt lat="45.89757" lon="4.70072">
        <ele>220</ele>
        <time>2017-12-13T11:10:11Z</time>
      </trkpt>
      <trkpt lat="45.89761" lon="4.70073">
        <ele>220</ele>
        <time>2017-12-13T11:10:12Z</time>
      </trkpt>
      <trkpt lat="45.89766" lon="4.70074">
        <ele>220</ele>
        <time>2017-12-13T11:10:13Z</time>
      </trkpt>
      <trkpt lat="45.89773" lon="4.70074">
        <ele>220</ele>
        <time>2017-12-13T11:10:14Z</time>
      </trkpt>
      <trkpt lat="45.89779" lon="4.70075">
        <ele>220</ele>
        <time>2017-12-13T11:10:15Z</time>
      </trkpt>
      <trkpt lat="45.89784" lon="4.70075">
        <ele>221</ele>
        <time>2017-12-13T11:10:16Z</time>
      </trkpt>
      <trkpt lat="45.89789" lon="4.70076">
        <ele>221</ele>
        <time>2017-12-13T11:10:17Z</time>
      </trkpt>
      <trkpt lat="45.89794" lon="4.70076">
        <ele>221</ele>
        <time>2017-12-13T11:10:18Z</time>
      </trkpt>
      <trkpt lat="45.898" lon="4.70076">
        <ele>221</ele>
        <time>2017-12-13T11:10:19Z</time>
      </trkpt>
      <trkpt lat="45.89809" lon="4.70078">
        <ele>221</ele>
        <time>2017-12-13T11:10:21Z</time>
      </trkpt>
      <trkpt lat="45.89815" lon="4.70078">
        <ele>221</ele>
        <time>2017-12-13T11:10:22Z</time>
      </trkpt>
      <trkpt lat="45.8982" lon="4.70079">
        <ele>220</ele>
        <time>2017-12-13T11:10:23Z</time>
      </trkpt>
      <trkpt lat="45.89826" lon="4.70078">
        <ele>220</ele>
        <time>2017-12-13T11:10:24Z</time>
      </trkpt>
      <trkpt lat="45.89834" lon="4.70077">
        <ele>220</ele>
        <time>2017-12-13T11:10:26Z</time>
      </trkpt>
      <trkpt lat="45.89838" lon="4.70078">
        <ele>220</ele>
        <time>2017-12-13T11:10:27Z</time>
      </trkpt>
      <trkpt lat="45.89846" lon="4.70078">
        <ele>221</ele>
        <time>2017-12-13T11:10:29Z</time>
      </trkpt>
      <trkpt lat="45.89851" lon="4.70078">
        <ele>221</ele>
        <time>2017-12-13T11:10:30Z</time>
      </trkpt>
      <trkpt lat="45.89856" lon="4.70078">
        <ele>221</ele>
        <time>2017-12-13T11:10:31Z</time>
      </trkpt>
      <trkpt lat="45.89862" lon="4.70078">
        <ele>221</ele>
        <time>2017-12-13T11:10:32Z</time>
      </trkpt>
      <trkpt lat="45.89868" lon="4.70079">
        <ele>221</ele>
        <time>2017-12-13T11:10:33Z</time>
      </trkpt>
      <trkpt lat="45.89874" lon="4.7008">
        <ele>221</ele>
        <time>2017-12-13T11:10:34Z</time>
      </trkpt>
      <trkpt lat="45.89879" lon="4.70081">
        <ele>221</ele>
        <time>2017-12-13T11:10:35Z</time>
      </trkpt>
      <trkpt lat="45.89884" lon="4.70082">
        <ele>221</ele>
        <time>2017-12-13T11:10:36Z</time>
      </trkpt>
      <trkpt lat="45.8989" lon="4.70082">
        <ele>221</ele>
        <time>2017-12-13T11:10:37Z</time>
      </trkpt>
      <trkpt lat="45.89895" lon="4.70084">
        <ele>220</ele>
        <time>2017-12-13T11:10:38Z</time>
      </trkpt>
      <trkpt lat="45.899" lon="4.70084">
        <ele>220</ele>
        <time>2017-12-13T11:10:39Z</time>
      </trkpt>
      <trkpt lat="45.89906" lon="4.70084">
        <ele>220</ele>
        <time>2017-12-13T11:10:40Z</time>
      </trkpt>
      <trkpt lat="45.89912" lon="4.70085">
        <ele>221</ele>
        <time>2017-12-13T11:10:41Z</time>
      </trkpt>
      <trkpt lat="45.89917" lon="4.70086">
        <ele>221</ele>
        <time>2017-12-13T11:10:42Z</time>
      </trkpt>
      <trkpt lat="45.89923" lon="4.70086">
        <ele>221</ele>
        <time>2017-12-13T11:10:43Z</time>
      </trkpt>
      <trkpt lat="45.89929" lon="4.70085">
        <ele>221</ele>
        <time>2017-12-13T11:10:44Z</time>
      </trkpt>
      <trkpt lat="45.89934" lon="4.70084">
        <ele>221</ele>
        <time>2017-12-13T11:10:45Z</time>
      </trkpt>
      <trkpt lat="45.89939" lon="4.70085">
        <ele>221</ele>
        <time>2017-12-13T11:10:46Z</time>
      </trkpt>
      <trkpt lat="45.89945" lon="4.70087">
        <ele>221</ele>
        <time>2017-12-13T11:10:47Z</time>
      </trkpt>
      <trkpt lat="45.89948" lon="4.70088">
        <ele>221</ele>
        <time>2017-12-13T11:10:48Z</time>
      </trkpt>
      <trkpt lat="45.89953" lon="4.70088">
        <ele>221</ele>
        <time>2017-12-13T11:10:49Z</time>
      </trkpt>
      <trkpt lat="45.89959" lon="4.70088">
        <ele>221</ele>
        <time>2017-12-13T11:10:50Z</time>
      </trkpt>
      <trkpt lat="45.89965" lon="4.70089">
        <ele>221</ele>
        <time>2017-12-13T11:10:51Z</time>
      </trkpt>
      <trkpt lat="45.89971" lon="4.70089">
        <ele>221</ele>
        <time>2017-12-13T11:10:52Z</time>
      </trkpt>
      <trkpt lat="45.89978" lon="4.7009">
        <ele>221</ele>
        <time>2017-12-13T11:10:53Z</time>
      </trkpt>
      <trkpt lat="45.89984" lon="4.7009">
        <ele>221</ele>
        <time>2017-12-13T11:10:54Z</time>
      </trkpt>
      <trkpt lat="45.89989" lon="4.7009">
        <ele>222</ele>
        <time>2017-12-13T11:10:55Z</time>
      </trkpt>
      <trkpt lat="45.89996" lon="4.70089">
        <ele>222</ele>
        <time>2017-12-13T11:10:56Z</time>
      </trkpt>
      <trkpt lat="45.90003" lon="4.70089">
        <ele>222</ele>
        <time>2017-12-13T11:10:57Z</time>
      </trkpt>
      <trkpt lat="45.90009" lon="4.7009">
        <ele>222</ele>
        <time>2017-12-13T11:10:58Z</time>
      </trkpt>
      <trkpt lat="45.90015" lon="4.70091">
        <ele>222</ele>
        <time>2017-12-13T11:10:59Z</time>
      </trkpt>
      <trkpt lat="45.90023" lon="4.70092">
        <ele>222</ele>
        <time>2017-12-13T11:11:00Z</time>
      </trkpt>
      <trkpt lat="45.90028" lon="4.70092">
        <ele>222</ele>
        <time>2017-12-13T11:11:01Z</time>
      </trkpt>
      <trkpt lat="45.90034" lon="4.70093">
        <ele>222</ele>
        <time>2017-12-13T11:11:02Z</time>
      </trkpt>
      <trkpt lat="45.9004" lon="4.70093">
        <ele>222</ele>
        <time>2017-12-13T11:11:03Z</time>
      </trkpt>
      <trkpt lat="45.90046" lon="4.70094">
        <ele>222</ele>
        <time>2017-12-13T11:11:04Z</time>
      </trkpt>
      <trkpt lat="45.90051" lon="4.70094">
        <ele>222</ele>
        <time>2017-12-13T11:11:05Z</time>
      </trkpt>
      <trkpt lat="45.90056" lon="4.70095">
        <ele>222</ele>
        <time>2017-12-13T11:11:06Z</time>
      </trkpt>
      <trkpt lat="45.90065" lon="4.70094">
        <ele>223</ele>
        <time>2017-12-13T11:11:08Z</time>
      </trkpt>
      <trkpt lat="45.9007" lon="4.70094">
        <ele>223</ele>
        <time>2017-12-13T11:11:09Z</time>
      </trkpt>
      <trkpt lat="45.90075" lon="4.70093">
        <ele>223</ele>
        <time>2017-12-13T11:11:10Z</time>
      </trkpt>
      <trkpt lat="45.9008" lon="4.70092">
        <ele>223</ele>
        <time>2017-12-13T11:11:11Z</time>
      </trkpt>
      <trkpt lat="45.90085" lon="4.7009">
        <ele>224</ele>
        <time>2017-12-13T11:11:12Z</time>
      </trkpt>
      <trkpt lat="45.90091" lon="4.70088">
        <ele>224</ele>
        <time>2017-12-13T11:11:13Z</time>
      </trkpt>
      <trkpt lat="45.90099" lon="4.70088">
        <ele>223</ele>
        <time>2017-12-13T11:11:14Z</time>
      </trkpt>
      <trkpt lat="45.90105" lon="4.70086">
        <ele>223</ele>
        <time>2017-12-13T11:11:15Z</time>
      </trkpt>
      <trkpt lat="45.9011" lon="4.70085">
        <ele>223</ele>
        <time>2017-12-13T11:11:16Z</time>
      </trkpt>
      <trkpt lat="45.90116" lon="4.70084">
        <ele>223</ele>
        <time>2017-12-13T11:11:17Z</time>
      </trkpt>
      <trkpt lat="45.90121" lon="4.70083">
        <ele>226</ele>
        <time>2017-12-13T11:11:18Z</time>
      </trkpt>
      <trkpt lat="45.90126" lon="4.70083">
        <ele>226</ele>
        <time>2017-12-13T11:11:19Z</time>
      </trkpt>
      <trkpt lat="45.90134" lon="4.70084">
        <ele>224</ele>
        <time>2017-12-13T11:11:21Z</time>
      </trkpt>
      <trkpt lat="45.90138" lon="4.70083">
        <ele>226</ele>
        <time>2017-12-13T11:11:22Z</time>
      </trkpt>
      <trkpt lat="45.90143" lon="4.70082">
        <ele>226</ele>
        <time>2017-12-13T11:11:23Z</time>
      </trkpt>
      <trkpt lat="45.90147" lon="4.70081">
        <ele>226</ele>
        <time>2017-12-13T11:11:24Z</time>
      </trkpt>
      <trkpt lat="45.90152" lon="4.70081">
        <ele>226</ele>
        <time>2017-12-13T11:11:25Z</time>
      </trkpt>
      <trkpt lat="45.90157" lon="4.7008">
        <ele>226</ele>
        <time>2017-12-13T11:11:26Z</time>
      </trkpt>
      <trkpt lat="45.90162" lon="4.70077">
        <ele>226</ele>
        <time>2017-12-13T11:11:27Z</time>
      </trkpt>
      <trkpt lat="45.90167" lon="4.70075">
        <ele>226</ele>
        <time>2017-12-13T11:11:28Z</time>
      </trkpt>
      <trkpt lat="45.90171" lon="4.70075">
        <ele>225</ele>
        <time>2017-12-13T11:11:29Z</time>
      </trkpt>
      <trkpt lat="45.90177" lon="4.70074">
        <ele>226</ele>
        <time>2017-12-13T11:11:30Z</time>
      </trkpt>
      <trkpt lat="45.90182" lon="4.70073">
        <ele>226</ele>
        <time>2017-12-13T11:11:31Z</time>
      </trkpt>
      <trkpt lat="45.90188" lon="4.70072">
        <ele>226</ele>
        <time>2017-12-13T11:11:32Z</time>
      </trkpt>
      <trkpt lat="45.90194" lon="4.70072">
        <ele>226</ele>
        <time>2017-12-13T11:11:33Z</time>
      </trkpt>
      <trkpt lat="45.90199" lon="4.70071">
        <ele>226</ele>
        <time>2017-12-13T11:11:34Z</time>
      </trkpt>
      <trkpt lat="45.90205" lon="4.70071">
        <ele>226</ele>
        <time>2017-12-13T11:11:35Z</time>
      </trkpt>
      <trkpt lat="45.9021" lon="4.70071">
        <ele>226</ele>
        <time>2017-12-13T11:11:36Z</time>
      </trkpt>
      <trkpt lat="45.90215" lon="4.70069">
        <ele>225</ele>
        <time>2017-12-13T11:11:37Z</time>
      </trkpt>
      <trkpt lat="45.90219" lon="4.70067">
        <ele>225</ele>
        <time>2017-12-13T11:11:38Z</time>
      </trkpt>
      <trkpt lat="45.90225" lon="4.70067">
        <ele>225</ele>
        <time>2017-12-13T11:11:39Z</time>
      </trkpt>
      <trkpt lat="45.9023" lon="4.70066">
        <ele>225</ele>
        <time>2017-12-13T11:11:40Z</time>
      </trkpt>
      <trkpt lat="45.90239" lon="4.70065">
        <ele>225</ele>
        <time>2017-12-13T11:11:42Z</time>
      </trkpt>
      <trkpt lat="45.90243" lon="4.70064">
        <ele>225</ele>
        <time>2017-12-13T11:11:43Z</time>
      </trkpt>
      <trkpt lat="45.90248" lon="4.70063">
        <ele>225</ele>
        <time>2017-12-13T11:11:44Z</time>
      </trkpt>
      <trkpt lat="45.90253" lon="4.70062">
        <ele>224</ele>
        <time>2017-12-13T11:11:45Z</time>
      </trkpt>
      <trkpt lat="45.90257" lon="4.7006">
        <ele>224</ele>
        <time>2017-12-13T11:11:46Z</time>
      </trkpt>
      <trkpt lat="45.90263" lon="4.7006">
        <ele>224</ele>
        <time>2017-12-13T11:11:47Z</time>
      </trkpt>
      <trkpt lat="45.90268" lon="4.70059">
        <ele>224</ele>
        <time>2017-12-13T11:11:48Z</time>
      </trkpt>
      <trkpt lat="45.90273" lon="4.70059">
        <ele>224</ele>
        <time>2017-12-13T11:11:49Z</time>
      </trkpt>
      <trkpt lat="45.90278" lon="4.70059">
        <ele>224</ele>
        <time>2017-12-13T11:11:50Z</time>
      </trkpt>
      <trkpt lat="45.90283" lon="4.70059">
        <ele>224</ele>
        <time>2017-12-13T11:11:51Z</time>
      </trkpt>
      <trkpt lat="45.90292" lon="4.70058">
        <ele>224</ele>
        <time>2017-12-13T11:11:53Z</time>
      </trkpt>
      <trkpt lat="45.90296" lon="4.70057">
        <ele>224</ele>
        <time>2017-12-13T11:11:54Z</time>
      </trkpt>
      <trkpt lat="45.90305" lon="4.70054">
        <ele>224</ele>
        <time>2017-12-13T11:11:56Z</time>
      </trkpt>
      <trkpt lat="45.90309" lon="4.70053">
        <ele>224</ele>
        <time>2017-12-13T11:11:57Z</time>
      </trkpt>
      <trkpt lat="45.90314" lon="4.70052">
        <ele>224</ele>
        <time>2017-12-13T11:11:58Z</time>
      </trkpt>
      <trkpt lat="45.90319" lon="4.7005">
        <ele>224</ele>
        <time>2017-12-13T11:11:59Z</time>
      </trkpt>
      <trkpt lat="45.90324" lon="4.70049">
        <ele>224</ele>
        <time>2017-12-13T11:12:00Z</time>
      </trkpt>
      <trkpt lat="45.90329" lon="4.70048">
        <ele>224</ele>
        <time>2017-12-13T11:12:01Z</time>
      </trkpt>
      <trkpt lat="45.90338" lon="4.70046">
        <ele>224</ele>
        <time>2017-12-13T11:12:03Z</time>
      </trkpt>
      <trkpt lat="45.90341" lon="4.70045">
        <ele>224</ele>
        <time>2017-12-13T11:12:04Z</time>
      </trkpt>
      <trkpt lat="45.90345" lon="4.70044">
        <ele>224</ele>
        <time>2017-12-13T11:12:05Z</time>
      </trkpt>
      <trkpt lat="45.9035" lon="4.70043">
        <ele>224</ele>
        <time>2017-12-13T11:12:06Z</time>
      </trkpt>
      <trkpt lat="45.90358" lon="4.70041">
        <ele>224</ele>
        <time>2017-12-13T11:12:08Z</time>
      </trkpt>
      <trkpt lat="45.90363" lon="4.70042">
        <ele>224</ele>
        <time>2017-12-13T11:12:09Z</time>
      </trkpt>
      <trkpt lat="45.90369" lon="4.70042">
        <ele>224</ele>
        <time>2017-12-13T11:12:10Z</time>
      </trkpt>
      <trkpt lat="45.90374" lon="4.7004">
        <ele>224</ele>
        <time>2017-12-13T11:12:11Z</time>
      </trkpt>
      <trkpt lat="45.90379" lon="4.70039">
        <ele>224</ele>
        <time>2017-12-13T11:12:12Z</time>
      </trkpt>
      <trkpt lat="45.90384" lon="4.70038">
        <ele>224</ele>
        <time>2017-12-13T11:12:13Z</time>
      </trkpt>
      <trkpt lat="45.90389" lon="4.70037">
        <ele>225</ele>
        <time>2017-12-13T11:12:14Z</time>
      </trkpt>
      <trkpt lat="45.90395" lon="4.70036">
        <ele>225</ele>
        <time>2017-12-13T11:12:15Z</time>
      </trkpt>
      <trkpt lat="45.904" lon="4.70035">
        <ele>225</ele>
        <time>2017-12-13T11:12:16Z</time>
      </trkpt>
      <trkpt lat="45.90405" lon="4.70035">
        <ele>225</ele>
        <time>2017-12-13T11:12:17Z</time>
      </trkpt>
      <trkpt lat="45.90409" lon="4.70035">
        <ele>225</ele>
        <time>2017-12-13T11:12:18Z</time>
      </trkpt>
      <trkpt lat="45.90415" lon="4.70035">
        <ele>225</ele>
        <time>2017-12-13T11:12:19Z</time>
      </trkpt>
      <trkpt lat="45.90423" lon="4.70034">
        <ele>225</ele>
        <time>2017-12-13T11:12:21Z</time>
      </trkpt>
      <trkpt lat="45.90428" lon="4.70033">
        <ele>225</ele>
        <time>2017-12-13T11:12:22Z</time>
      </trkpt>
      <trkpt lat="45.90432" lon="4.70033">
        <ele>225</ele>
        <time>2017-12-13T11:12:23Z</time>
      </trkpt>
      <trkpt lat="45.90437" lon="4.70033">
        <ele>225</ele>
        <time>2017-12-13T11:12:24Z</time>
      </trkpt>
      <trkpt lat="45.90442" lon="4.70033">
        <ele>225</ele>
        <time>2017-12-13T11:12:25Z</time>
      </trkpt>
      <trkpt lat="45.90448" lon="4.70033">
        <ele>225</ele>
        <time>2017-12-13T11:12:26Z</time>
      </trkpt>
      <trkpt lat="45.90454" lon="4.70034">
        <ele>225</ele>
        <time>2017-12-13T11:12:27Z</time>
      </trkpt>
      <trkpt lat="45.9046" lon="4.70034">
        <ele>225</ele>
        <time>2017-12-13T11:12:28Z</time>
      </trkpt>
      <trkpt lat="45.90466" lon="4.70034">
        <ele>225</ele>
        <time>2017-12-13T11:12:29Z</time>
      </trkpt>
      <trkpt lat="45.90472" lon="4.70035">
        <ele>225</ele>
        <time>2017-12-13T11:12:30Z</time>
      </trkpt>
      <trkpt lat="45.90479" lon="4.70036">
        <ele>225</ele>
        <time>2017-12-13T11:12:31Z</time>
      </trkpt>
      <trkpt lat="45.90485" lon="4.70037">
        <ele>225</ele>
        <time>2017-12-13T11:12:32Z</time>
      </trkpt>
      <trkpt lat="45.90491" lon="4.70038">
        <ele>225</ele>
        <time>2017-12-13T11:12:33Z</time>
      </trkpt>
      <trkpt lat="45.90497" lon="4.70038">
        <ele>224</ele>
        <time>2017-12-13T11:12:34Z</time>
      </trkpt>
      <trkpt lat="45.90504" lon="4.70039">
        <ele>224</ele>
        <time>2017-12-13T11:12:35Z</time>
      </trkpt>
      <trkpt lat="45.9051" lon="4.7004">
        <ele>224</ele>
        <time>2017-12-13T11:12:36Z</time>
      </trkpt>
      <trkpt lat="45.90517" lon="4.70041">
        <ele>224</ele>
        <time>2017-12-13T11:12:37Z</time>
      </trkpt>
      <trkpt lat="45.90524" lon="4.70042">
        <ele>224</ele>
        <time>2017-12-13T11:12:38Z</time>
      </trkpt>
      <trkpt lat="45.9053" lon="4.70044">
        <ele>224</ele>
        <time>2017-12-13T11:12:39Z</time>
      </trkpt>
      <trkpt lat="45.90537" lon="4.70047">
        <ele>224</ele>
        <time>2017-12-13T11:12:40Z</time>
      </trkpt>
      <trkpt lat="45.90543" lon="4.70049">
        <ele>224</ele>
        <time>2017-12-13T11:12:41Z</time>
      </trkpt>
      <trkpt lat="45.9055" lon="4.70052">
        <ele>224</ele>
        <time>2017-12-13T11:12:42Z</time>
      </trkpt>
      <trkpt lat="45.90557" lon="4.70055">
        <ele>223</ele>
        <time>2017-12-13T11:12:43Z</time>
      </trkpt>
      <trkpt lat="45.90563" lon="4.70057">
        <ele>223</ele>
        <time>2017-12-13T11:12:44Z</time>
      </trkpt>
      <trkpt lat="45.90569" lon="4.7006">
        <ele>223</ele>
        <time>2017-12-13T11:12:45Z</time>
      </trkpt>
      <trkpt lat="45.90574" lon="4.70063">
        <ele>223</ele>
        <time>2017-12-13T11:12:46Z</time>
      </trkpt>
      <trkpt lat="45.9058" lon="4.70066">
        <ele>223</ele>
        <time>2017-12-13T11:12:47Z</time>
      </trkpt>
      <trkpt lat="45.90585" lon="4.7007">
        <ele>223</ele>
        <time>2017-12-13T11:12:48Z</time>
      </trkpt>
      <trkpt lat="45.90591" lon="4.70073">
        <ele>223</ele>
        <time>2017-12-13T11:12:49Z</time>
      </trkpt>
      <trkpt lat="45.90596" lon="4.70075">
        <ele>223</ele>
        <time>2017-12-13T11:12:50Z</time>
      </trkpt>
      <trkpt lat="45.90602" lon="4.70079">
        <ele>223</ele>
        <time>2017-12-13T11:12:51Z</time>
      </trkpt>
      <trkpt lat="45.90607" lon="4.70082">
        <ele>223</ele>
        <time>2017-12-13T11:12:52Z</time>
      </trkpt>
      <trkpt lat="45.90613" lon="4.70085">
        <ele>221</ele>
        <time>2017-12-13T11:12:53Z</time>
      </trkpt>
      <trkpt lat="45.9062" lon="4.70089">
        <ele>221</ele>
        <time>2017-12-13T11:12:54Z</time>
      </trkpt>
      <trkpt lat="45.90626" lon="4.70092">
        <ele>221</ele>
        <time>2017-12-13T11:12:55Z</time>
      </trkpt>
      <trkpt lat="45.90632" lon="4.70096">
        <ele>221</ele>
        <time>2017-12-13T11:12:56Z</time>
      </trkpt>
      <trkpt lat="45.90638" lon="4.701">
        <ele>221</ele>
        <time>2017-12-13T11:12:57Z</time>
      </trkpt>
      <trkpt lat="45.90645" lon="4.70103">
        <ele>221</ele>
        <time>2017-12-13T11:12:58Z</time>
      </trkpt>
      <trkpt lat="45.90652" lon="4.70106">
        <ele>221</ele>
        <time>2017-12-13T11:12:59Z</time>
      </trkpt>
      <trkpt lat="45.90658" lon="4.70109">
        <ele>221</ele>
        <time>2017-12-13T11:13:00Z</time>
      </trkpt>
      <trkpt lat="45.90664" lon="4.70113">
        <ele>221</ele>
        <time>2017-12-13T11:13:01Z</time>
      </trkpt>
      <trkpt lat="45.9067" lon="4.70117">
        <ele>222</ele>
        <time>2017-12-13T11:13:02Z</time>
      </trkpt>
      <trkpt lat="45.90677" lon="4.70121">
        <ele>221</ele>
        <time>2017-12-13T11:13:03Z</time>
      </trkpt>
      <trkpt lat="45.90682" lon="4.70127">
        <ele>221</ele>
        <time>2017-12-13T11:13:04Z</time>
      </trkpt>
      <trkpt lat="45.90687" lon="4.70133">
        <ele>221</ele>
        <time>2017-12-13T11:13:05Z</time>
      </trkpt>
      <trkpt lat="45.90693" lon="4.70139">
        <ele>221</ele>
        <time>2017-12-13T11:13:06Z</time>
      </trkpt>
      <trkpt lat="45.907" lon="4.70144">
        <ele>221</ele>
        <time>2017-12-13T11:13:07Z</time>
      </trkpt>
      <trkpt lat="45.90708" lon="4.70147">
        <ele>220</ele>
        <time>2017-12-13T11:13:08Z</time>
      </trkpt>
      <trkpt lat="45.90716" lon="4.70144">
        <ele>220</ele>
        <time>2017-12-13T11:13:09Z</time>
      </trkpt>
      <trkpt lat="45.90723" lon="4.70143">
        <ele>220</ele>
        <time>2017-12-13T11:13:10Z</time>
      </trkpt>
      <trkpt lat="45.90729" lon="4.70144">
        <ele>220</ele>
        <time>2017-12-13T11:13:11Z</time>
      </trkpt>
      <trkpt lat="45.90736" lon="4.70144">
        <ele>220</ele>
        <time>2017-12-13T11:13:12Z</time>
      </trkpt>
      <trkpt lat="45.90743" lon="4.70145">
        <ele>220</ele>
        <time>2017-12-13T11:13:13Z</time>
      </trkpt>
      <trkpt lat="45.90749" lon="4.70144">
        <ele>220</ele>
        <time>2017-12-13T11:13:14Z</time>
      </trkpt>
      <trkpt lat="45.90755" lon="4.70143">
        <ele>219</ele>
        <time>2017-12-13T11:13:15Z</time>
      </trkpt>
      <trkpt lat="45.90762" lon="4.70144">
        <ele>219</ele>
        <time>2017-12-13T11:13:16Z</time>
      </trkpt>
      <trkpt lat="45.9077" lon="4.70144">
        <ele>219</ele>
        <time>2017-12-13T11:13:17Z</time>
      </trkpt>
      <trkpt lat="45.90777" lon="4.70144">
        <ele>219</ele>
        <time>2017-12-13T11:13:18Z</time>
      </trkpt>
      <trkpt lat="45.90784" lon="4.70144">
        <ele>219</ele>
        <time>2017-12-13T11:13:19Z</time>
      </trkpt>
      <trkpt lat="45.90792" lon="4.70142">
        <ele>219</ele>
        <time>2017-12-13T11:13:20Z</time>
      </trkpt>
      <trkpt lat="45.90798" lon="4.70142">
        <ele>219</ele>
        <time>2017-12-13T11:13:21Z</time>
      </trkpt>
      <trkpt lat="45.90804" lon="4.70141">
        <ele>219</ele>
        <time>2017-12-13T11:13:22Z</time>
      </trkpt>
      <trkpt lat="45.9081" lon="4.70141">
        <ele>219</ele>
        <time>2017-12-13T11:13:23Z</time>
      </trkpt>
      <trkpt lat="45.90816" lon="4.70141">
        <ele>219</ele>
        <time>2017-12-13T11:13:24Z</time>
      </trkpt>
      <trkpt lat="45.90821" lon="4.70141">
        <ele>218</ele>
        <time>2017-12-13T11:13:25Z</time>
      </trkpt>
      <trkpt lat="45.9083" lon="4.70139">
        <ele>218</ele>
        <time>2017-12-13T11:13:26Z</time>
      </trkpt>
      <trkpt lat="45.90836" lon="4.70138">
        <ele>218</ele>
        <time>2017-12-13T11:13:27Z</time>
      </trkpt>
      <trkpt lat="45.90843" lon="4.70139">
        <ele>218</ele>
        <time>2017-12-13T11:13:28Z</time>
      </trkpt>
      <trkpt lat="45.90848" lon="4.70139">
        <ele>218</ele>
        <time>2017-12-13T11:13:29Z</time>
      </trkpt>
      <trkpt lat="45.90853" lon="4.70139">
        <ele>218</ele>
        <time>2017-12-13T11:13:30Z</time>
      </trkpt>
      <trkpt lat="45.90859" lon="4.70138">
        <ele>218</ele>
        <time>2017-12-13T11:13:31Z</time>
      </trkpt>
      <trkpt lat="45.90865" lon="4.70138">
        <ele>218</ele>
        <time>2017-12-13T11:13:32Z</time>
      </trkpt>
      <trkpt lat="45.90871" lon="4.70137">
        <ele>218</ele>
        <time>2017-12-13T11:13:33Z</time>
      </trkpt>
      <trkpt lat="45.90877" lon="4.70138">
        <ele>218</ele>
        <time>2017-12-13T11:13:34Z</time>
      </trkpt>
      <trkpt lat="45.90883" lon="4.70137">
        <ele>218</ele>
        <time>2017-12-13T11:13:35Z</time>
      </trkpt>
      <trkpt lat="45.90889" lon="4.70137">
        <ele>218</ele>
        <time>2017-12-13T11:13:36Z</time>
      </trkpt>
      <trkpt lat="45.90895" lon="4.70136">
        <ele>218</ele>
        <time>2017-12-13T11:13:37Z</time>
      </trkpt>
      <trkpt lat="45.90901" lon="4.70135">
        <ele>218</ele>
        <time>2017-12-13T11:13:38Z</time>
      </trkpt>
      <trkpt lat="45.90906" lon="4.70135">
        <ele>218</ele>
        <time>2017-12-13T11:13:39Z</time>
      </trkpt>
      <trkpt lat="45.90912" lon="4.70134">
        <ele>218</ele>
        <time>2017-12-13T11:13:40Z</time>
      </trkpt>
      <trkpt lat="45.90918" lon="4.70134">
        <ele>219</ele>
        <time>2017-12-13T11:13:41Z</time>
      </trkpt>
      <trkpt lat="45.90924" lon="4.70134">
        <ele>219</ele>
        <time>2017-12-13T11:13:42Z</time>
      </trkpt>
      <trkpt lat="45.9093" lon="4.70135">
        <ele>219</ele>
        <time>2017-12-13T11:13:43Z</time>
      </trkpt>
      <trkpt lat="45.90936" lon="4.70135">
        <ele>219</ele>
        <time>2017-12-13T11:13:44Z</time>
      </trkpt>
      <trkpt lat="45.90943" lon="4.70136">
        <ele>219</ele>
        <time>2017-12-13T11:13:45Z</time>
      </trkpt>
      <trkpt lat="45.90948" lon="4.70136">
        <ele>219</ele>
        <time>2017-12-13T11:13:46Z</time>
      </trkpt>
      <trkpt lat="45.90953" lon="4.70137">
        <ele>219</ele>
        <time>2017-12-13T11:13:47Z</time>
      </trkpt>
      <trkpt lat="45.90959" lon="4.70139">
        <ele>219</ele>
        <time>2017-12-13T11:13:48Z</time>
      </trkpt>
      <trkpt lat="45.90965" lon="4.70141">
        <ele>218</ele>
        <time>2017-12-13T11:13:49Z</time>
      </trkpt>
      <trkpt lat="45.90971" lon="4.70143">
        <ele>218</ele>
        <time>2017-12-13T11:13:50Z</time>
      </trkpt>
      <trkpt lat="45.90977" lon="4.70144">
        <ele>218</ele>
        <time>2017-12-13T11:13:51Z</time>
      </trkpt>
      <trkpt lat="45.90983" lon="4.70147">
        <ele>218</ele>
        <time>2017-12-13T11:13:52Z</time>
      </trkpt>
      <trkpt lat="45.90989" lon="4.70149">
        <ele>218</ele>
        <time>2017-12-13T11:13:53Z</time>
      </trkpt>
      <trkpt lat="45.90997" lon="4.7015">
        <ele>218</ele>
        <time>2017-12-13T11:13:54Z</time>
      </trkpt>
      <trkpt lat="45.91003" lon="4.70152">
        <ele>217</ele>
        <time>2017-12-13T11:13:55Z</time>
      </trkpt>
      <trkpt lat="45.9101" lon="4.70153">
        <ele>218</ele>
        <time>2017-12-13T11:13:56Z</time>
      </trkpt>
      <trkpt lat="45.91017" lon="4.70157">
        <ele>218</ele>
        <time>2017-12-13T11:13:57Z</time>
      </trkpt>
      <trkpt lat="45.91024" lon="4.70159">
        <ele>218</ele>
        <time>2017-12-13T11:13:58Z</time>
      </trkpt>
      <trkpt lat="45.9103" lon="4.70161">
        <ele>218</ele>
        <time>2017-12-13T11:13:59Z</time>
      </trkpt>
      <trkpt lat="45.91036" lon="4.70163">
        <ele>218</ele>
        <time>2017-12-13T11:14:00Z</time>
      </trkpt>
      <trkpt lat="45.91042" lon="4.70166">
        <ele>218</ele>
        <time>2017-12-13T11:14:01Z</time>
      </trkpt>
      <trkpt lat="45.91048" lon="4.70168">
        <ele>215</ele>
        <time>2017-12-13T11:14:02Z</time>
      </trkpt>
      <trkpt lat="45.91055" lon="4.70171">
        <ele>216</ele>
        <time>2017-12-13T11:14:03Z</time>
      </trkpt>
      <trkpt lat="45.91061" lon="4.70172">
        <ele>216</ele>
        <time>2017-12-13T11:14:04Z</time>
      </trkpt>
      <trkpt lat="45.91067" lon="4.70175">
        <ele>216</ele>
        <time>2017-12-13T11:14:05Z</time>
      </trkpt>
      <trkpt lat="45.91074" lon="4.70176">
        <ele>216</ele>
        <time>2017-12-13T11:14:06Z</time>
      </trkpt>
      <trkpt lat="45.9108" lon="4.70178">
        <ele>216</ele>
        <time>2017-12-13T11:14:07Z</time>
      </trkpt>
      <trkpt lat="45.91087" lon="4.70179">
        <ele>216</ele>
        <time>2017-12-13T11:14:08Z</time>
      </trkpt>
      <trkpt lat="45.91093" lon="4.70181">
        <ele>216</ele>
        <time>2017-12-13T11:14:09Z</time>
      </trkpt>
      <trkpt lat="45.91099" lon="4.70183">
        <ele>216</ele>
        <time>2017-12-13T11:14:10Z</time>
      </trkpt>
      <trkpt lat="45.91104" lon="4.70186">
        <ele>215</ele>
        <time>2017-12-13T11:14:11Z</time>
      </trkpt>
      <trkpt lat="45.9111" lon="4.70187">
        <ele>215</ele>
        <time>2017-12-13T11:14:12Z</time>
      </trkpt>
      <trkpt lat="45.91116" lon="4.70189">
        <ele>215</ele>
        <time>2017-12-13T11:14:13Z</time>
      </trkpt>
      <trkpt lat="45.91122" lon="4.70191">
        <ele>215</ele>
        <time>2017-12-13T11:14:14Z</time>
      </trkpt>
      <trkpt lat="45.91128" lon="4.70193">
        <ele>215</ele>
        <time>2017-12-13T11:14:15Z</time>
      </trkpt>
      <trkpt lat="45.91135" lon="4.70195">
        <ele>215</ele>
        <time>2017-12-13T11:14:16Z</time>
      </trkpt>
      <trkpt lat="45.91141" lon="4.70198">
        <ele>215</ele>
        <time>2017-12-13T11:14:17Z</time>
      </trkpt>
      <trkpt lat="45.91147" lon="4.70201">
        <ele>215</ele>
        <time>2017-12-13T11:14:18Z</time>
      </trkpt>
      <trkpt lat="45.91154" lon="4.70203">
        <ele>215</ele>
        <time>2017-12-13T11:14:19Z</time>
      </trkpt>
      <trkpt lat="45.91161" lon="4.70206">
        <ele>214</ele>
        <time>2017-12-13T11:14:20Z</time>
      </trkpt>
      <trkpt lat="45.91168" lon="4.70208">
        <ele>214</ele>
        <time>2017-12-13T11:14:21Z</time>
      </trkpt>
      <trkpt lat="45.91174" lon="4.7021">
        <ele>214</ele>
        <time>2017-12-13T11:14:22Z</time>
      </trkpt>
      <trkpt lat="45.91181" lon="4.70211">
        <ele>214</ele>
        <time>2017-12-13T11:14:23Z</time>
      </trkpt>
      <trkpt lat="45.91188" lon="4.70213">
        <ele>214</ele>
        <time>2017-12-13T11:14:24Z</time>
      </trkpt>
      <trkpt lat="45.91196" lon="4.70214">
        <ele>214</ele>
        <time>2017-12-13T11:14:25Z</time>
      </trkpt>
      <trkpt lat="45.91203" lon="4.70216">
        <ele>214</ele>
        <time>2017-12-13T11:14:26Z</time>
      </trkpt>
      <trkpt lat="45.9121" lon="4.70218">
        <ele>214</ele>
        <time>2017-12-13T11:14:27Z</time>
      </trkpt>
      <trkpt lat="45.91215" lon="4.70222">
        <ele>213</ele>
        <time>2017-12-13T11:14:28Z</time>
      </trkpt>
      <trkpt lat="45.91223" lon="4.70224">
        <ele>213</ele>
        <time>2017-12-13T11:14:29Z</time>
      </trkpt>
      <trkpt lat="45.9123" lon="4.70226">
        <ele>213</ele>
        <time>2017-12-13T11:14:30Z</time>
      </trkpt>
      <trkpt lat="45.91237" lon="4.70228">
        <ele>213</ele>
        <time>2017-12-13T11:14:31Z</time>
      </trkpt>
      <trkpt lat="45.91244" lon="4.7023">
        <ele>213</ele>
        <time>2017-12-13T11:14:32Z</time>
      </trkpt>
      <trkpt lat="45.91251" lon="4.70233">
        <ele>213</ele>
        <time>2017-12-13T11:14:33Z</time>
      </trkpt>
      <trkpt lat="45.91257" lon="4.70236">
        <ele>213</ele>
        <time>2017-12-13T11:14:34Z</time>
      </trkpt>
      <trkpt lat="45.91263" lon="4.70239">
        <ele>213</ele>
        <time>2017-12-13T11:14:35Z</time>
      </trkpt>
      <trkpt lat="45.9127" lon="4.70241">
        <ele>213</ele>
        <time>2017-12-13T11:14:36Z</time>
      </trkpt>
      <trkpt lat="45.91276" lon="4.70244">
        <ele>213</ele>
        <time>2017-12-13T11:14:37Z</time>
      </trkpt>
      <trkpt lat="45.91283" lon="4.70246">
        <ele>213</ele>
        <time>2017-12-13T11:14:38Z</time>
      </trkpt>
      <trkpt lat="45.9129" lon="4.70249">
        <ele>214</ele>
        <time>2017-12-13T11:14:39Z</time>
      </trkpt>
      <trkpt lat="45.91296" lon="4.70252">
        <ele>210</ele>
        <time>2017-12-13T11:14:40Z</time>
      </trkpt>
      <trkpt lat="45.91303" lon="4.70254">
        <ele>210</ele>
        <time>2017-12-13T11:14:41Z</time>
      </trkpt>
      <trkpt lat="45.91309" lon="4.70257">
        <ele>210</ele>
        <time>2017-12-13T11:14:42Z</time>
      </trkpt>
      <trkpt lat="45.91316" lon="4.7026">
        <ele>210</ele>
        <time>2017-12-13T11:14:43Z</time>
      </trkpt>
      <trkpt lat="45.91322" lon="4.70263">
        <ele>211</ele>
        <time>2017-12-13T11:14:44Z</time>
      </trkpt>
      <trkpt lat="45.91328" lon="4.70267">
        <ele>210</ele>
        <time>2017-12-13T11:14:45Z</time>
      </trkpt>
      <trkpt lat="45.91333" lon="4.70271">
        <ele>210</ele>
        <time>2017-12-13T11:14:46Z</time>
      </trkpt>
      <trkpt lat="45.91338" lon="4.70276">
        <ele>210</ele>
        <time>2017-12-13T11:14:47Z</time>
      </trkpt>
      <trkpt lat="45.91345" lon="4.7028">
        <ele>210</ele>
        <time>2017-12-13T11:14:48Z</time>
      </trkpt>
      <trkpt lat="45.91352" lon="4.70283">
        <ele>210</ele>
        <time>2017-12-13T11:14:49Z</time>
      </trkpt>
      <trkpt lat="45.91358" lon="4.70288">
        <ele>210</ele>
        <time>2017-12-13T11:14:50Z</time>
      </trkpt>
      <trkpt lat="45.91364" lon="4.70292">
        <ele>209</ele>
        <time>2017-12-13T11:14:51Z</time>
      </trkpt>
      <trkpt lat="45.9137" lon="4.70296">
        <ele>209</ele>
        <time>2017-12-13T11:14:52Z</time>
      </trkpt>
      <trkpt lat="45.91374" lon="4.703">
        <ele>209</ele>
        <time>2017-12-13T11:14:53Z</time>
      </trkpt>
      <trkpt lat="45.91381" lon="4.70305">
        <ele>209</ele>
        <time>2017-12-13T11:14:54Z</time>
      </trkpt>
      <trkpt lat="45.91386" lon="4.7031">
        <ele>209</ele>
        <time>2017-12-13T11:14:55Z</time>
      </trkpt>
      <trkpt lat="45.91392" lon="4.70314">
        <ele>209</ele>
        <time>2017-12-13T11:14:56Z</time>
      </trkpt>
      <trkpt lat="45.91397" lon="4.7032">
        <ele>209</ele>
        <time>2017-12-13T11:14:57Z</time>
      </trkpt>
      <trkpt lat="45.91402" lon="4.70324">
        <ele>209</ele>
        <time>2017-12-13T11:14:58Z</time>
      </trkpt>
      <trkpt lat="45.91407" lon="4.70328">
        <ele>208</ele>
        <time>2017-12-13T11:14:59Z</time>
      </trkpt>
      <trkpt lat="45.91412" lon="4.70333">
        <ele>208</ele>
        <time>2017-12-13T11:15:00Z</time>
      </trkpt>
      <trkpt lat="45.91419" lon="4.70337">
        <ele>208</ele>
        <time>2017-12-13T11:15:01Z</time>
      </trkpt>
      <trkpt lat="45.91425" lon="4.70341">
        <ele>207</ele>
        <time>2017-12-13T11:15:02Z</time>
      </trkpt>
      <trkpt lat="45.9143" lon="4.70345">
        <ele>207</ele>
        <time>2017-12-13T11:15:03Z</time>
      </trkpt>
      <trkpt lat="45.91435" lon="4.7035">
        <ele>207</ele>
        <time>2017-12-13T11:15:04Z</time>
      </trkpt>
      <trkpt lat="45.91441" lon="4.70355">
        <ele>207</ele>
        <time>2017-12-13T11:15:05Z</time>
      </trkpt>
      <trkpt lat="45.91448" lon="4.7036">
        <ele>206</ele>
        <time>2017-12-13T11:15:06Z</time>
      </trkpt>
      <trkpt lat="45.91454" lon="4.70365">
        <ele>206</ele>
        <time>2017-12-13T11:15:07Z</time>
      </trkpt>
      <trkpt lat="45.9146" lon="4.7037">
        <ele>206</ele>
        <time>2017-12-13T11:15:08Z</time>
      </trkpt>
      <trkpt lat="45.91467" lon="4.70376">
        <ele>206</ele>
        <time>2017-12-13T11:15:09Z</time>
      </trkpt>
      <trkpt lat="45.91474" lon="4.70382">
        <ele>206</ele>
        <time>2017-12-13T11:15:10Z</time>
      </trkpt>
      <trkpt lat="45.9148" lon="4.70386">
        <ele>206</ele>
        <time>2017-12-13T11:15:11Z</time>
      </trkpt>
      <trkpt lat="45.91487" lon="4.70391">
        <ele>205</ele>
        <time>2017-12-13T11:15:12Z</time>
      </trkpt>
      <trkpt lat="45.91494" lon="4.70396">
        <ele>205</ele>
        <time>2017-12-13T11:15:13Z</time>
      </trkpt>
      <trkpt lat="45.915" lon="4.70401">
        <ele>205</ele>
        <time>2017-12-13T11:15:14Z</time>
      </trkpt>
      <trkpt lat="45.91507" lon="4.70406">
        <ele>205</ele>
        <time>2017-12-13T11:15:15Z</time>
      </trkpt>
      <trkpt lat="45.91514" lon="4.70411">
        <ele>205</ele>
        <time>2017-12-13T11:15:16Z</time>
      </trkpt>
      <trkpt lat="45.9152" lon="4.70415">
        <ele>205</ele>
        <time>2017-12-13T11:15:17Z</time>
      </trkpt>
      <trkpt lat="45.91526" lon="4.70421">
        <ele>203</ele>
        <time>2017-12-13T11:15:18Z</time>
      </trkpt>
      <trkpt lat="45.91533" lon="4.70426">
        <ele>203</ele>
        <time>2017-12-13T11:15:19Z</time>
      </trkpt>
      <trkpt lat="45.9154" lon="4.7043">
        <ele>203</ele>
        <time>2017-12-13T11:15:20Z</time>
      </trkpt>
      <trkpt lat="45.91547" lon="4.70435">
        <ele>203</ele>
        <time>2017-12-13T11:15:21Z</time>
      </trkpt>
      <trkpt lat="45.91553" lon="4.70441">
        <ele>203</ele>
        <time>2017-12-13T11:15:22Z</time>
      </trkpt>
      <trkpt lat="45.9156" lon="4.70447">
        <ele>203</ele>
        <time>2017-12-13T11:15:23Z</time>
      </trkpt>
      <trkpt lat="45.91567" lon="4.70452">
        <ele>203</ele>
        <time>2017-12-13T11:15:24Z</time>
      </trkpt>
      <trkpt lat="45.91573" lon="4.70458">
        <ele>203</ele>
        <time>2017-12-13T11:15:25Z</time>
      </trkpt>
      <trkpt lat="45.91579" lon="4.70464">
        <ele>203</ele>
        <time>2017-12-13T11:15:26Z</time>
      </trkpt>
      <trkpt lat="45.91586" lon="4.70469">
        <ele>203</ele>
        <time>2017-12-13T11:15:27Z</time>
      </trkpt>
      <trkpt lat="45.91592" lon="4.70475">
        <ele>202</ele>
        <time>2017-12-13T11:15:28Z</time>
      </trkpt>
      <trkpt lat="45.916" lon="4.7048">
        <ele>202</ele>
        <time>2017-12-13T11:15:29Z</time>
      </trkpt>
      <trkpt lat="45.91608" lon="4.70486">
        <ele>202</ele>
        <time>2017-12-13T11:15:30Z</time>
      </trkpt>
      <trkpt lat="45.91614" lon="4.7049">
        <ele>202</ele>
        <time>2017-12-13T11:15:31Z</time>
      </trkpt>
      <trkpt lat="45.91619" lon="4.70496">
        <ele>202</ele>
        <time>2017-12-13T11:15:32Z</time>
      </trkpt>
      <trkpt lat="45.91627" lon="4.705">
        <ele>202</ele>
        <time>2017-12-13T11:15:33Z</time>
      </trkpt>
      <trkpt lat="45.91633" lon="4.70505">
        <ele>199</ele>
        <time>2017-12-13T11:15:34Z</time>
      </trkpt>
      <trkpt lat="45.9164" lon="4.70512">
        <ele>199</ele>
        <time>2017-12-13T11:15:35Z</time>
      </trkpt>
      <trkpt lat="45.91645" lon="4.70518">
        <ele>199</ele>
        <time>2017-12-13T11:15:36Z</time>
      </trkpt>
      <trkpt lat="45.91652" lon="4.70523">
        <ele>199</ele>
        <time>2017-12-13T11:15:37Z</time>
      </trkpt>
      <trkpt lat="45.91658" lon="4.70529">
        <ele>198</ele>
        <time>2017-12-13T11:15:38Z</time>
      </trkpt>
      <trkpt lat="45.91664" lon="4.70534">
        <ele>198</ele>
        <time>2017-12-13T11:15:39Z</time>
      </trkpt>
      <trkpt lat="45.9167" lon="4.70538">
        <ele>198</ele>
        <time>2017-12-13T11:15:40Z</time>
      </trkpt>
      <trkpt lat="45.91676" lon="4.70542">
        <ele>198</ele>
        <time>2017-12-13T11:15:41Z</time>
      </trkpt>
      <trkpt lat="45.91682" lon="4.70547">
        <ele>198</ele>
        <time>2017-12-13T11:15:42Z</time>
      </trkpt>
      <trkpt lat="45.91689" lon="4.70551">
        <ele>198</ele>
        <time>2017-12-13T11:15:43Z</time>
      </trkpt>
      <trkpt lat="45.91694" lon="4.70556">
        <ele>198</ele>
        <time>2017-12-13T11:15:44Z</time>
      </trkpt>
      <trkpt lat="45.91699" lon="4.70563">
        <ele>197</ele>
        <time>2017-12-13T11:15:45Z</time>
      </trkpt>
      <trkpt lat="45.91703" lon="4.70571">
        <ele>197</ele>
        <time>2017-12-13T11:15:46Z</time>
      </trkpt>
      <trkpt lat="45.91708" lon="4.7058">
        <ele>197</ele>
        <time>2017-12-13T11:15:47Z</time>
      </trkpt>
      <trkpt lat="45.91714" lon="4.70587">
        <ele>196</ele>
        <time>2017-12-13T11:15:48Z</time>
      </trkpt>
      <trkpt lat="45.91719" lon="4.70591">
        <ele>195</ele>
        <time>2017-12-13T11:15:49Z</time>
      </trkpt>
      <trkpt lat="45.91726" lon="4.70592">
        <ele>195</ele>
        <time>2017-12-13T11:15:50Z</time>
      </trkpt>
      <trkpt lat="45.91732" lon="4.70593">
        <ele>196</ele>
        <time>2017-12-13T11:15:51Z</time>
      </trkpt>
      <trkpt lat="45.91737" lon="4.70594">
        <ele>196</ele>
        <time>2017-12-13T11:15:52Z</time>
      </trkpt>
      <trkpt lat="45.91743" lon="4.70596">
        <ele>196</ele>
        <time>2017-12-13T11:15:53Z</time>
      </trkpt>
      <trkpt lat="45.9175" lon="4.706">
        <ele>196</ele>
        <time>2017-12-13T11:15:54Z</time>
      </trkpt>
      <trkpt lat="45.91756" lon="4.70605">
        <ele>195</ele>
        <time>2017-12-13T11:15:55Z</time>
      </trkpt>
      <trkpt lat="45.91762" lon="4.70607">
        <ele>195</ele>
        <time>2017-12-13T11:15:56Z</time>
      </trkpt>
      <trkpt lat="45.91769" lon="4.7061">
        <ele>195</ele>
        <time>2017-12-13T11:15:57Z</time>
      </trkpt>
      <trkpt lat="45.91776" lon="4.70613">
        <ele>195</ele>
        <time>2017-12-13T11:15:58Z</time>
      </trkpt>
      <trkpt lat="45.91784" lon="4.70615">
        <ele>194</ele>
        <time>2017-12-13T11:15:59Z</time>
      </trkpt>
      <trkpt lat="45.91792" lon="4.70618">
        <ele>194</ele>
        <time>2017-12-13T11:16:00Z</time>
      </trkpt>
      <trkpt lat="45.91799" lon="4.70619">
        <ele>194</ele>
        <time>2017-12-13T11:16:01Z</time>
      </trkpt>
      <trkpt lat="45.91807" lon="4.7062">
        <ele>194</ele>
        <time>2017-12-13T11:16:02Z</time>
      </trkpt>
      <trkpt lat="45.91815" lon="4.7062">
        <ele>194</ele>
        <time>2017-12-13T11:16:03Z</time>
      </trkpt>
      <trkpt lat="45.91823" lon="4.70622">
        <ele>194</ele>
        <time>2017-12-13T11:16:04Z</time>
      </trkpt>
      <trkpt lat="45.91831" lon="4.70622">
        <ele>194</ele>
        <time>2017-12-13T11:16:05Z</time>
      </trkpt>
      <trkpt lat="45.91837" lon="4.70621">
        <ele>194</ele>
        <time>2017-12-13T11:16:06Z</time>
      </trkpt>
      <trkpt lat="45.91844" lon="4.70622">
        <ele>194</ele>
        <time>2017-12-13T11:16:07Z</time>
      </trkpt>
      <trkpt lat="45.91852" lon="4.70622">
        <ele>194</ele>
        <time>2017-12-13T11:16:08Z</time>
      </trkpt>
      <trkpt lat="45.91859" lon="4.70621">
        <ele>194</ele>
        <time>2017-12-13T11:16:09Z</time>
      </trkpt>
      <trkpt lat="45.91866" lon="4.70621">
        <ele>194</ele>
        <time>2017-12-13T11:16:10Z</time>
      </trkpt>
      <trkpt lat="45.91874" lon="4.70621">
        <ele>194</ele>
        <time>2017-12-13T11:16:11Z</time>
      </trkpt>
      <trkpt lat="45.9188" lon="4.70621">
        <ele>194</ele>
        <time>2017-12-13T11:16:12Z</time>
      </trkpt>
      <trkpt lat="45.91887" lon="4.7062">
        <ele>194</ele>
        <time>2017-12-13T11:16:13Z</time>
      </trkpt>
      <trkpt lat="45.91893" lon="4.70619">
        <ele>194</ele>
        <time>2017-12-13T11:16:14Z</time>
      </trkpt>
      <trkpt lat="45.91899" lon="4.70619">
        <ele>194</ele>
        <time>2017-12-13T11:16:15Z</time>
      </trkpt>
      <trkpt lat="45.91904" lon="4.70619">
        <ele>194</ele>
        <time>2017-12-13T11:16:16Z</time>
      </trkpt>
      <trkpt lat="45.9191" lon="4.70619">
        <ele>194</ele>
        <time>2017-12-13T11:16:17Z</time>
      </trkpt>
      <trkpt lat="45.91916" lon="4.70618">
        <ele>194</ele>
        <time>2017-12-13T11:16:18Z</time>
      </trkpt>
      <trkpt lat="45.91921" lon="4.70617">
        <ele>194</ele>
        <time>2017-12-13T11:16:19Z</time>
      </trkpt>
      <trkpt lat="45.91928" lon="4.70616">
        <ele>194</ele>
        <time>2017-12-13T11:16:20Z</time>
      </trkpt>
      <trkpt lat="45.91934" lon="4.70614">
        <ele>194</ele>
        <time>2017-12-13T11:16:21Z</time>
      </trkpt>
      <trkpt lat="45.91941" lon="4.70613">
        <ele>194</ele>
        <time>2017-12-13T11:16:22Z</time>
      </trkpt>
      <trkpt lat="45.91949" lon="4.70612">
        <ele>194</ele>
        <time>2017-12-13T11:16:23Z</time>
      </trkpt>
      <trkpt lat="45.91956" lon="4.70613">
        <ele>194</ele>
        <time>2017-12-13T11:16:24Z</time>
      </trkpt>
      <trkpt lat="45.91962" lon="4.70612">
        <ele>194</ele>
        <time>2017-12-13T11:16:25Z</time>
      </trkpt>
      <trkpt lat="45.91968" lon="4.70611">
        <ele>194</ele>
        <time>2017-12-13T11:16:26Z</time>
      </trkpt>
      <trkpt lat="45.91977" lon="4.70609">
        <ele>194</ele>
        <time>2017-12-13T11:16:27Z</time>
      </trkpt>
      <trkpt lat="45.91984" lon="4.70609">
        <ele>194</ele>
        <time>2017-12-13T11:16:28Z</time>
      </trkpt>
      <trkpt lat="45.9199" lon="4.70608">
        <ele>194</ele>
        <time>2017-12-13T11:16:29Z</time>
      </trkpt>
      <trkpt lat="45.91996" lon="4.70607">
        <ele>194</ele>
        <time>2017-12-13T11:16:30Z</time>
      </trkpt>
      <trkpt lat="45.92002" lon="4.70606">
        <ele>194</ele>
        <time>2017-12-13T11:16:31Z</time>
      </trkpt>
      <trkpt lat="45.92008" lon="4.70605">
        <ele>194</ele>
        <time>2017-12-13T11:16:32Z</time>
      </trkpt>
      <trkpt lat="45.92013" lon="4.70604">
        <ele>194</ele>
        <time>2017-12-13T11:16:33Z</time>
      </trkpt>
      <trkpt lat="45.9202" lon="4.70604">
        <ele>194</ele>
        <time>2017-12-13T11:16:34Z</time>
      </trkpt>
      <trkpt lat="45.92026" lon="4.70604">
        <ele>194</ele>
        <time>2017-12-13T11:16:35Z</time>
      </trkpt>
      <trkpt lat="45.92031" lon="4.70603">
        <ele>193</ele>
        <time>2017-12-13T11:16:36Z</time>
      </trkpt>
      <trkpt lat="45.92037" lon="4.70602">
        <ele>193</ele>
        <time>2017-12-13T11:16:37Z</time>
      </trkpt>
      <trkpt lat="45.92044" lon="4.70601">
        <ele>193</ele>
        <time>2017-12-13T11:16:38Z</time>
      </trkpt>
      <trkpt lat="45.92048" lon="4.706">
        <ele>193</ele>
        <time>2017-12-13T11:16:39Z</time>
      </trkpt>
      <trkpt lat="45.92055" lon="4.70599">
        <ele>193</ele>
        <time>2017-12-13T11:16:40Z</time>
      </trkpt>
      <trkpt lat="45.92062" lon="4.70598">
        <ele>193</ele>
        <time>2017-12-13T11:16:41Z</time>
      </trkpt>
      <trkpt lat="45.92068" lon="4.70598">
        <ele>193</ele>
        <time>2017-12-13T11:16:42Z</time>
      </trkpt>
      <trkpt lat="45.92076" lon="4.70598">
        <ele>193</ele>
        <time>2017-12-13T11:16:43Z</time>
      </trkpt>
      <trkpt lat="45.92082" lon="4.70597">
        <ele>194</ele>
        <time>2017-12-13T11:16:44Z</time>
      </trkpt>
      <trkpt lat="45.9209" lon="4.70597">
        <ele>193</ele>
        <time>2017-12-13T11:16:45Z</time>
      </trkpt>
      <trkpt lat="45.92099" lon="4.70595">
        <ele>192</ele>
        <time>2017-12-13T11:16:46Z</time>
      </trkpt>
      <trkpt lat="45.92107" lon="4.70594">
        <ele>192</ele>
        <time>2017-12-13T11:16:47Z</time>
      </trkpt>
      <trkpt lat="45.92114" lon="4.70592">
        <ele>192</ele>
        <time>2017-12-13T11:16:48Z</time>
      </trkpt>
      <trkpt lat="45.9212" lon="4.70593">
        <ele>191</ele>
        <time>2017-12-13T11:16:49Z</time>
      </trkpt>
      <trkpt lat="45.92126" lon="4.70593">
        <ele>191</ele>
        <time>2017-12-13T11:16:50Z</time>
      </trkpt>
      <trkpt lat="45.92132" lon="4.70593">
        <ele>191</ele>
        <time>2017-12-13T11:16:51Z</time>
      </trkpt>
      <trkpt lat="45.92137" lon="4.70593">
        <ele>191</ele>
        <time>2017-12-13T11:16:52Z</time>
      </trkpt>
      <trkpt lat="45.92143" lon="4.70592">
        <ele>191</ele>
        <time>2017-12-13T11:16:53Z</time>
      </trkpt>
      <trkpt lat="45.92148" lon="4.70592">
        <ele>191</ele>
        <time>2017-12-13T11:16:54Z</time>
      </trkpt>
      <trkpt lat="45.92153" lon="4.70592">
        <ele>190</ele>
        <time>2017-12-13T11:16:55Z</time>
      </trkpt>
      <trkpt lat="45.92158" lon="4.70592">
        <ele>190</ele>
        <time>2017-12-13T11:16:56Z</time>
      </trkpt>
      <trkpt lat="45.92163" lon="4.70592">
        <ele>190</ele>
        <time>2017-12-13T11:16:57Z</time>
      </trkpt>
      <trkpt lat="45.92168" lon="4.70593">
        <ele>191</ele>
        <time>2017-12-13T11:16:58Z</time>
      </trkpt>
      <trkpt lat="45.92174" lon="4.70593">
        <ele>191</ele>
        <time>2017-12-13T11:16:59Z</time>
      </trkpt>
      <trkpt lat="45.92181" lon="4.70594">
        <ele>191</ele>
        <time>2017-12-13T11:17:00Z</time>
      </trkpt>
      <trkpt lat="45.92187" lon="4.70596">
        <ele>191</ele>
        <time>2017-12-13T11:17:01Z</time>
      </trkpt>
      <trkpt lat="45.92193" lon="4.70596">
        <ele>192</ele>
        <time>2017-12-13T11:17:02Z</time>
      </trkpt>
      <trkpt lat="45.92198" lon="4.70597">
        <ele>192</ele>
        <time>2017-12-13T11:17:03Z</time>
      </trkpt>
      <trkpt lat="45.92204" lon="4.70597">
        <ele>192</ele>
        <time>2017-12-13T11:17:04Z</time>
      </trkpt>
      <trkpt lat="45.92209" lon="4.70598">
        <ele>193</ele>
        <time>2017-12-13T11:17:05Z</time>
      </trkpt>
      <trkpt lat="45.92215" lon="4.70598">
        <ele>193</ele>
        <time>2017-12-13T11:17:06Z</time>
      </trkpt>
      <trkpt lat="45.92221" lon="4.70599">
        <ele>193</ele>
        <time>2017-12-13T11:17:07Z</time>
      </trkpt>
      <trkpt lat="45.92226" lon="4.70601">
        <ele>193</ele>
        <time>2017-12-13T11:17:08Z</time>
      </trkpt>
      <trkpt lat="45.92231" lon="4.70602">
        <ele>194</ele>
        <time>2017-12-13T11:17:09Z</time>
      </trkpt>
      <trkpt lat="45.92237" lon="4.70603">
        <ele>194</ele>
        <time>2017-12-13T11:17:10Z</time>
      </trkpt>
      <trkpt lat="45.92244" lon="4.70605">
        <ele>194</ele>
        <time>2017-12-13T11:17:11Z</time>
      </trkpt>
      <trkpt lat="45.92249" lon="4.70606">
        <ele>194</ele>
        <time>2017-12-13T11:17:12Z</time>
      </trkpt>
      <trkpt lat="45.92255" lon="4.70608">
        <ele>196</ele>
        <time>2017-12-13T11:17:13Z</time>
      </trkpt>
      <trkpt lat="45.92261" lon="4.7061">
        <ele>196</ele>
        <time>2017-12-13T11:17:14Z</time>
      </trkpt>
      <trkpt lat="45.92268" lon="4.70613">
        <ele>196</ele>
        <time>2017-12-13T11:17:15Z</time>
      </trkpt>
      <trkpt lat="45.92275" lon="4.70615">
        <ele>196</ele>
        <time>2017-12-13T11:17:16Z</time>
      </trkpt>
      <trkpt lat="45.92281" lon="4.70618">
        <ele>196</ele>
        <time>2017-12-13T11:17:17Z</time>
      </trkpt>
      <trkpt lat="45.92288" lon="4.7062">
        <ele>196</ele>
        <time>2017-12-13T11:17:18Z</time>
      </trkpt>
      <trkpt lat="45.92294" lon="4.70623">
        <ele>196</ele>
        <time>2017-12-13T11:17:19Z</time>
      </trkpt>
      <trkpt lat="45.92301" lon="4.70625">
        <ele>196</ele>
        <time>2017-12-13T11:17:20Z</time>
      </trkpt>
      <trkpt lat="45.92307" lon="4.70629">
        <ele>196</ele>
        <time>2017-12-13T11:17:21Z</time>
      </trkpt>
      <trkpt lat="45.92313" lon="4.70632">
        <ele>196</ele>
        <time>2017-12-13T11:17:22Z</time>
      </trkpt>
      <trkpt lat="45.92318" lon="4.70636">
        <ele>196</ele>
        <time>2017-12-13T11:17:23Z</time>
      </trkpt>
      <trkpt lat="45.92324" lon="4.70639">
        <ele>196</ele>
        <time>2017-12-13T11:17:24Z</time>
      </trkpt>
      <trkpt lat="45.92328" lon="4.70642">
        <ele>196</ele>
        <time>2017-12-13T11:17:25Z</time>
      </trkpt>
      <trkpt lat="45.92333" lon="4.70645">
        <ele>197</ele>
        <time>2017-12-13T11:17:26Z</time>
      </trkpt>
      <trkpt lat="45.92339" lon="4.70648">
        <ele>196</ele>
        <time>2017-12-13T11:17:27Z</time>
      </trkpt>
      <trkpt lat="45.92344" lon="4.7065">
        <ele>196</ele>
        <time>2017-12-13T11:17:28Z</time>
      </trkpt>
      <trkpt lat="45.92349" lon="4.70654">
        <ele>196</ele>
        <time>2017-12-13T11:17:29Z</time>
      </trkpt>
      <trkpt lat="45.92355" lon="4.70657">
        <ele>196</ele>
        <time>2017-12-13T11:17:30Z</time>
      </trkpt>
      <trkpt lat="45.92361" lon="4.7066">
        <ele>196</ele>
        <time>2017-12-13T11:17:31Z</time>
      </trkpt>
      <trkpt lat="45.92366" lon="4.70664">
        <ele>196</ele>
        <time>2017-12-13T11:17:32Z</time>
      </trkpt>
      <trkpt lat="45.92373" lon="4.70667">
        <ele>194</ele>
        <time>2017-12-13T11:17:33Z</time>
      </trkpt>
      <trkpt lat="45.92378" lon="4.70671">
        <ele>194</ele>
        <time>2017-12-13T11:17:34Z</time>
      </trkpt>
      <trkpt lat="45.92384" lon="4.70673">
        <ele>194</ele>
        <time>2017-12-13T11:17:35Z</time>
      </trkpt>
      <trkpt lat="45.9239" lon="4.70677">
        <ele>194</ele>
        <time>2017-12-13T11:17:36Z</time>
      </trkpt>
      <trkpt lat="45.92394" lon="4.70682">
        <ele>194</ele>
        <time>2017-12-13T11:17:37Z</time>
      </trkpt>
      <trkpt lat="45.924" lon="4.70684">
        <ele>194</ele>
        <time>2017-12-13T11:17:38Z</time>
      </trkpt>
      <trkpt lat="45.92405" lon="4.70688">
        <ele>194</ele>
        <time>2017-12-13T11:17:39Z</time>
      </trkpt>
      <trkpt lat="45.92412" lon="4.70691">
        <ele>194</ele>
        <time>2017-12-13T11:17:40Z</time>
      </trkpt>
      <trkpt lat="45.92417" lon="4.70695">
        <ele>195</ele>
        <time>2017-12-13T11:17:41Z</time>
      </trkpt>
      <trkpt lat="45.92423" lon="4.70699">
        <ele>195</ele>
        <time>2017-12-13T11:17:42Z</time>
      </trkpt>
      <trkpt lat="45.9243" lon="4.70702">
        <ele>194</ele>
        <time>2017-12-13T11:17:43Z</time>
      </trkpt>
      <trkpt lat="45.92437" lon="4.70706">
        <ele>194</ele>
        <time>2017-12-13T11:17:44Z</time>
      </trkpt>
      <trkpt lat="45.92443" lon="4.7071">
        <ele>194</ele>
        <time>2017-12-13T11:17:45Z</time>
      </trkpt>
      <trkpt lat="45.9245" lon="4.70714">
        <ele>194</ele>
        <time>2017-12-13T11:17:46Z</time>
      </trkpt>
      <trkpt lat="45.92456" lon="4.70718">
        <ele>194</ele>
        <time>2017-12-13T11:17:47Z</time>
      </trkpt>
      <trkpt lat="45.92463" lon="4.70721">
        <ele>194</ele>
        <time>2017-12-13T11:17:48Z</time>
      </trkpt>
      <trkpt lat="45.92469" lon="4.70723">
        <ele>194</ele>
        <time>2017-12-13T11:17:49Z</time>
      </trkpt>
      <trkpt lat="45.92475" lon="4.70728">
        <ele>194</ele>
        <time>2017-12-13T11:17:50Z</time>
      </trkpt>
      <trkpt lat="45.92481" lon="4.7073">
        <ele>194</ele>
        <time>2017-12-13T11:17:51Z</time>
      </trkpt>
      <trkpt lat="45.92486" lon="4.70733">
        <ele>194</ele>
        <time>2017-12-13T11:17:52Z</time>
      </trkpt>
      <trkpt lat="45.92492" lon="4.70736">
        <ele>194</ele>
        <time>2017-12-13T11:17:53Z</time>
      </trkpt>
      <trkpt lat="45.92497" lon="4.70739">
        <ele>194</ele>
        <time>2017-12-13T11:17:54Z</time>
      </trkpt>
      <trkpt lat="45.92502" lon="4.70742">
        <ele>195</ele>
        <time>2017-12-13T11:17:55Z</time>
      </trkpt>
      <trkpt lat="45.92506" lon="4.70744">
        <ele>195</ele>
        <time>2017-12-13T11:17:56Z</time>
      </trkpt>
      <trkpt lat="45.92511" lon="4.70746">
        <ele>195</ele>
        <time>2017-12-13T11:17:57Z</time>
      </trkpt>
      <trkpt lat="45.92516" lon="4.70749">
        <ele>196</ele>
        <time>2017-12-13T11:17:58Z</time>
      </trkpt>
      <trkpt lat="45.92521" lon="4.70753">
        <ele>195</ele>
        <time>2017-12-13T11:17:59Z</time>
      </trkpt>
      <trkpt lat="45.92527" lon="4.70757">
        <ele>195</ele>
        <time>2017-12-13T11:18:00Z</time>
      </trkpt>
      <trkpt lat="45.92532" lon="4.70761">
        <ele>195</ele>
        <time>2017-12-13T11:18:01Z</time>
      </trkpt>
      <trkpt lat="45.92537" lon="4.70764">
        <ele>195</ele>
        <time>2017-12-13T11:18:02Z</time>
      </trkpt>
      <trkpt lat="45.92542" lon="4.70767">
        <ele>195</ele>
        <time>2017-12-13T11:18:03Z</time>
      </trkpt>
      <trkpt lat="45.92548" lon="4.7077">
        <ele>195</ele>
        <time>2017-12-13T11:18:04Z</time>
      </trkpt>
      <trkpt lat="45.92552" lon="4.70774">
        <ele>196</ele>
        <time>2017-12-13T11:18:05Z</time>
      </trkpt>
      <trkpt lat="45.92557" lon="4.70778">
        <ele>196</ele>
        <time>2017-12-13T11:18:06Z</time>
      </trkpt>
      <trkpt lat="45.92561" lon="4.70782">
        <ele>196</ele>
        <time>2017-12-13T11:18:07Z</time>
      </trkpt>
      <trkpt lat="45.92566" lon="4.70786">
        <ele>196</ele>
        <time>2017-12-13T11:18:08Z</time>
      </trkpt>
      <trkpt lat="45.9257" lon="4.7079">
        <ele>196</ele>
        <time>2017-12-13T11:18:09Z</time>
      </trkpt>
      <trkpt lat="45.92575" lon="4.70794">
        <ele>196</ele>
        <time>2017-12-13T11:18:10Z</time>
      </trkpt>
      <trkpt lat="45.9258" lon="4.70797">
        <ele>196</ele>
        <time>2017-12-13T11:18:11Z</time>
      </trkpt>
      <trkpt lat="45.92584" lon="4.70801">
        <ele>198</ele>
        <time>2017-12-13T11:18:12Z</time>
      </trkpt>
      <trkpt lat="45.92589" lon="4.70806">
        <ele>198</ele>
        <time>2017-12-13T11:18:13Z</time>
      </trkpt>
      <trkpt lat="45.92593" lon="4.70809">
        <ele>198</ele>
        <time>2017-12-13T11:18:14Z</time>
      </trkpt>
      <trkpt lat="45.92598" lon="4.70814">
        <ele>198</ele>
        <time>2017-12-13T11:18:15Z</time>
      </trkpt>
      <trkpt lat="45.92604" lon="4.70819">
        <ele>198</ele>
        <time>2017-12-13T11:18:16Z</time>
      </trkpt>
      <trkpt lat="45.92609" lon="4.70823">
        <ele>198</ele>
        <time>2017-12-13T11:18:17Z</time>
      </trkpt>
      <trkpt lat="45.92613" lon="4.70827">
        <ele>198</ele>
        <time>2017-12-13T11:18:18Z</time>
      </trkpt>
      <trkpt lat="45.9262" lon="4.70832">
        <ele>199</ele>
        <time>2017-12-13T11:18:19Z</time>
      </trkpt>
      <trkpt lat="45.92625" lon="4.70837">
        <ele>198</ele>
        <time>2017-12-13T11:18:20Z</time>
      </trkpt>
      <trkpt lat="45.9263" lon="4.70842">
        <ele>198</ele>
        <time>2017-12-13T11:18:21Z</time>
      </trkpt>
      <trkpt lat="45.92635" lon="4.70846">
        <ele>198</ele>
        <time>2017-12-13T11:18:22Z</time>
      </trkpt>
      <trkpt lat="45.92639" lon="4.70851">
        <ele>198</ele>
        <time>2017-12-13T11:18:23Z</time>
      </trkpt>
      <trkpt lat="45.92643" lon="4.70856">
        <ele>198</ele>
        <time>2017-12-13T11:18:24Z</time>
      </trkpt>
      <trkpt lat="45.92646" lon="4.7086">
        <ele>198</ele>
        <time>2017-12-13T11:18:25Z</time>
      </trkpt>
      <trkpt lat="45.9265" lon="4.70864">
        <ele>198</ele>
        <time>2017-12-13T11:18:26Z</time>
      </trkpt>
      <trkpt lat="45.92653" lon="4.70868">
        <ele>198</ele>
        <time>2017-12-13T11:18:27Z</time>
      </trkpt>
      <trkpt lat="45.92657" lon="4.70873">
        <ele>198</ele>
        <time>2017-12-13T11:18:28Z</time>
      </trkpt>
      <trkpt lat="45.92662" lon="4.70877">
        <ele>197</ele>
        <time>2017-12-13T11:18:29Z</time>
      </trkpt>
      <trkpt lat="45.92666" lon="4.70881">
        <ele>197</ele>
        <time>2017-12-13T11:18:30Z</time>
      </trkpt>
      <trkpt lat="45.92671" lon="4.70884">
        <ele>198</ele>
        <time>2017-12-13T11:18:31Z</time>
      </trkpt>
      <trkpt lat="45.92675" lon="4.70889">
        <ele>198</ele>
        <time>2017-12-13T11:18:32Z</time>
      </trkpt>
      <trkpt lat="45.9268" lon="4.70893">
        <ele>197</ele>
        <time>2017-12-13T11:18:33Z</time>
      </trkpt>
      <trkpt lat="45.92684" lon="4.70898">
        <ele>197</ele>
        <time>2017-12-13T11:18:34Z</time>
      </trkpt>
      <trkpt lat="45.92689" lon="4.70902">
        <ele>197</ele>
        <time>2017-12-13T11:18:35Z</time>
      </trkpt>
      <trkpt lat="45.92696" lon="4.70904">
        <ele>197</ele>
        <time>2017-12-13T11:18:36Z</time>
      </trkpt>
      <trkpt lat="45.92701" lon="4.70908">
        <ele>197</ele>
        <time>2017-12-13T11:18:37Z</time>
      </trkpt>
      <trkpt lat="45.92707" lon="4.70911">
        <ele>197</ele>
        <time>2017-12-13T11:18:38Z</time>
      </trkpt>
      <trkpt lat="45.92712" lon="4.70915">
        <ele>197</ele>
        <time>2017-12-13T11:18:39Z</time>
      </trkpt>
      <trkpt lat="45.92718" lon="4.70917">
        <ele>195</ele>
        <time>2017-12-13T11:18:40Z</time>
      </trkpt>
      <trkpt lat="45.92724" lon="4.7092">
        <ele>195</ele>
        <time>2017-12-13T11:18:41Z</time>
      </trkpt>
      <trkpt lat="45.92728" lon="4.70921">
        <ele>195</ele>
        <time>2017-12-13T11:18:42Z</time>
      </trkpt>
      <trkpt lat="45.92734" lon="4.70922">
        <ele>195</ele>
        <time>2017-12-13T11:18:43Z</time>
      </trkpt>
      <trkpt lat="45.9274" lon="4.70923">
        <ele>195</ele>
        <time>2017-12-13T11:18:44Z</time>
      </trkpt>
      <trkpt lat="45.92745" lon="4.70926">
        <ele>195</ele>
        <time>2017-12-13T11:18:45Z</time>
      </trkpt>
      <trkpt lat="45.9275" lon="4.70927">
        <ele>196</ele>
        <time>2017-12-13T11:18:46Z</time>
      </trkpt>
      <trkpt lat="45.92756" lon="4.70928">
        <ele>196</ele>
        <time>2017-12-13T11:18:47Z</time>
      </trkpt>
      <trkpt lat="45.92761" lon="4.7093">
        <ele>196</ele>
        <time>2017-12-13T11:18:48Z</time>
      </trkpt>
      <trkpt lat="45.92766" lon="4.70932">
        <ele>196</ele>
        <time>2017-12-13T11:18:49Z</time>
      </trkpt>
      <trkpt lat="45.92771" lon="4.70933">
        <ele>196</ele>
        <time>2017-12-13T11:18:50Z</time>
      </trkpt>
      <trkpt lat="45.92777" lon="4.70934">
        <ele>196</ele>
        <time>2017-12-13T11:18:51Z</time>
      </trkpt>
      <trkpt lat="45.92781" lon="4.70935">
        <ele>196</ele>
        <time>2017-12-13T11:18:52Z</time>
      </trkpt>
      <trkpt lat="45.92787" lon="4.70936">
        <ele>196</ele>
        <time>2017-12-13T11:18:53Z</time>
      </trkpt>
      <trkpt lat="45.92793" lon="4.70938">
        <ele>196</ele>
        <time>2017-12-13T11:18:54Z</time>
      </trkpt>
      <trkpt lat="45.92801" lon="4.70941">
        <ele>196</ele>
        <time>2017-12-13T11:18:56Z</time>
      </trkpt>
      <trkpt lat="45.92806" lon="4.70945">
        <ele>196</ele>
        <time>2017-12-13T11:18:57Z</time>
      </trkpt>
      <trkpt lat="45.9281" lon="4.70948">
        <ele>196</ele>
        <time>2017-12-13T11:18:58Z</time>
      </trkpt>
      <trkpt lat="45.92814" lon="4.70951">
        <ele>196</ele>
        <time>2017-12-13T11:18:59Z</time>
      </trkpt>
      <trkpt lat="45.9282" lon="4.70952">
        <ele>197</ele>
        <time>2017-12-13T11:19:00Z</time>
      </trkpt>
      <trkpt lat="45.92824" lon="4.70951">
        <ele>197</ele>
        <time>2017-12-13T11:19:01Z</time>
      </trkpt>
      <trkpt lat="45.92829" lon="4.70947">
        <ele>197</ele>
        <time>2017-12-13T11:19:02Z</time>
      </trkpt>
      <trkpt lat="45.92836" lon="4.70945">
        <ele>198</ele>
        <time>2017-12-13T11:19:03Z</time>
      </trkpt>
      <trkpt lat="45.92842" lon="4.70945">
        <ele>198</ele>
        <time>2017-12-13T11:19:04Z</time>
      </trkpt>
      <trkpt lat="45.92847" lon="4.70945">
        <ele>198</ele>
        <time>2017-12-13T11:19:05Z</time>
      </trkpt>
      <trkpt lat="45.92853" lon="4.70944">
        <ele>198</ele>
        <time>2017-12-13T11:19:06Z</time>
      </trkpt>
      <trkpt lat="45.92858" lon="4.70945">
        <ele>198</ele>
        <time>2017-12-13T11:19:07Z</time>
      </trkpt>
      <trkpt lat="45.92864" lon="4.70946">
        <ele>198</ele>
        <time>2017-12-13T11:19:08Z</time>
      </trkpt>
      <trkpt lat="45.9287" lon="4.70948">
        <ele>198</ele>
        <time>2017-12-13T11:19:09Z</time>
      </trkpt>
      <trkpt lat="45.92876" lon="4.70949">
        <ele>198</ele>
        <time>2017-12-13T11:19:10Z</time>
      </trkpt>
      <trkpt lat="45.92883" lon="4.7095">
        <ele>198</ele>
        <time>2017-12-13T11:19:11Z</time>
      </trkpt>
      <trkpt lat="45.92889" lon="4.70951">
        <ele>198</ele>
        <time>2017-12-13T11:19:12Z</time>
      </trkpt>
      <trkpt lat="45.92896" lon="4.70954">
        <ele>198</ele>
        <time>2017-12-13T11:19:13Z</time>
      </trkpt>
      <trkpt lat="45.92902" lon="4.70955">
        <ele>198</ele>
        <time>2017-12-13T11:19:14Z</time>
      </trkpt>
      <trkpt lat="45.92908" lon="4.70956">
        <ele>198</ele>
        <time>2017-12-13T11:19:15Z</time>
      </trkpt>
      <trkpt lat="45.92914" lon="4.70957">
        <ele>198</ele>
        <time>2017-12-13T11:19:16Z</time>
      </trkpt>
      <trkpt lat="45.9292" lon="4.70959">
        <ele>198</ele>
        <time>2017-12-13T11:19:17Z</time>
      </trkpt>
      <trkpt lat="45.92927" lon="4.70962">
        <ele>198</ele>
        <time>2017-12-13T11:19:18Z</time>
      </trkpt>
      <trkpt lat="45.92932" lon="4.70963">
        <ele>198</ele>
        <time>2017-12-13T11:19:19Z</time>
      </trkpt>
      <trkpt lat="45.92938" lon="4.70965">
        <ele>198</ele>
        <time>2017-12-13T11:19:20Z</time>
      </trkpt>
      <trkpt lat="45.92944" lon="4.70966">
        <ele>198</ele>
        <time>2017-12-13T11:19:21Z</time>
      </trkpt>
      <trkpt lat="45.9295" lon="4.70969">
        <ele>198</ele>
        <time>2017-12-13T11:19:22Z</time>
      </trkpt>
      <trkpt lat="45.92957" lon="4.70971">
        <ele>198</ele>
        <time>2017-12-13T11:19:23Z</time>
      </trkpt>
      <trkpt lat="45.92963" lon="4.70973">
        <ele>198</ele>
        <time>2017-12-13T11:19:24Z</time>
      </trkpt>
      <trkpt lat="45.92969" lon="4.70974">
        <ele>198</ele>
        <time>2017-12-13T11:19:25Z</time>
      </trkpt>
      <trkpt lat="45.92975" lon="4.70976">
        <ele>198</ele>
        <time>2017-12-13T11:19:26Z</time>
      </trkpt>
      <trkpt lat="45.92981" lon="4.70978">
        <ele>198</ele>
        <time>2017-12-13T11:19:27Z</time>
      </trkpt>
      <trkpt lat="45.92987" lon="4.7098">
        <ele>198</ele>
        <time>2017-12-13T11:19:28Z</time>
      </trkpt>
      <trkpt lat="45.92992" lon="4.70982">
        <ele>198</ele>
        <time>2017-12-13T11:19:29Z</time>
      </trkpt>
      <trkpt lat="45.92998" lon="4.70984">
        <ele>198</ele>
        <time>2017-12-13T11:19:30Z</time>
      </trkpt>
      <trkpt lat="45.93005" lon="4.70986">
        <ele>198</ele>
        <time>2017-12-13T11:19:31Z</time>
      </trkpt>
      <trkpt lat="45.93012" lon="4.70989">
        <ele>198</ele>
        <time>2017-12-13T11:19:32Z</time>
      </trkpt>
      <trkpt lat="45.93017" lon="4.70993">
        <ele>198</ele>
        <time>2017-12-13T11:19:33Z</time>
      </trkpt>
      <trkpt lat="45.93022" lon="4.70997">
        <ele>198</ele>
        <time>2017-12-13T11:19:34Z</time>
      </trkpt>
      <trkpt lat="45.93028" lon="4.71">
        <ele>197</ele>
        <time>2017-12-13T11:19:35Z</time>
      </trkpt>
      <trkpt lat="45.93034" lon="4.71004">
        <ele>197</ele>
        <time>2017-12-13T11:19:36Z</time>
      </trkpt>
      <trkpt lat="45.9304" lon="4.71007">
        <ele>197</ele>
        <time>2017-12-13T11:19:37Z</time>
      </trkpt>
      <trkpt lat="45.93049" lon="4.71009">
        <ele>197</ele>
        <time>2017-12-13T11:19:38Z</time>
      </trkpt>
      <trkpt lat="45.93055" lon="4.71014">
        <ele>197</ele>
        <time>2017-12-13T11:19:39Z</time>
      </trkpt>
      <trkpt lat="45.93061" lon="4.7102">
        <ele>197</ele>
        <time>2017-12-13T11:19:40Z</time>
      </trkpt>
      <trkpt lat="45.93066" lon="4.71025">
        <ele>197</ele>
        <time>2017-12-13T11:19:41Z</time>
      </trkpt>
      <trkpt lat="45.93072" lon="4.71031">
        <ele>197</ele>
        <time>2017-12-13T11:19:42Z</time>
      </trkpt>
      <trkpt lat="45.93077" lon="4.71037">
        <ele>196</ele>
        <time>2017-12-13T11:19:43Z</time>
      </trkpt>
      <trkpt lat="45.93083" lon="4.71044">
        <ele>196</ele>
        <time>2017-12-13T11:19:44Z</time>
      </trkpt>
      <trkpt lat="45.93088" lon="4.7105">
        <ele>196</ele>
        <time>2017-12-13T11:19:45Z</time>
      </trkpt>
      <trkpt lat="45.93093" lon="4.71057">
        <ele>195</ele>
        <time>2017-12-13T11:19:46Z</time>
      </trkpt>
      <trkpt lat="45.93098" lon="4.71064">
        <ele>195</ele>
        <time>2017-12-13T11:19:47Z</time>
      </trkpt>
      <trkpt lat="45.93103" lon="4.71072">
        <ele>195</ele>
        <time>2017-12-13T11:19:48Z</time>
      </trkpt>
      <trkpt lat="45.93108" lon="4.7108">
        <ele>195</ele>
        <time>2017-12-13T11:19:49Z</time>
      </trkpt>
      <trkpt lat="45.93112" lon="4.71088">
        <ele>193</ele>
        <time>2017-12-13T11:19:50Z</time>
      </trkpt>
      <trkpt lat="45.93117" lon="4.71096">
        <ele>193</ele>
        <time>2017-12-13T11:19:51Z</time>
      </trkpt>
      <trkpt lat="45.93123" lon="4.71103">
        <ele>192</ele>
        <time>2017-12-13T11:19:52Z</time>
      </trkpt>
      <trkpt lat="45.93127" lon="4.71112">
        <ele>192</ele>
        <time>2017-12-13T11:19:53Z</time>
      </trkpt>
      <trkpt lat="45.93132" lon="4.7112">
        <ele>192</ele>
        <time>2017-12-13T11:19:54Z</time>
      </trkpt>
      <trkpt lat="45.93136" lon="4.71128">
        <ele>192</ele>
        <time>2017-12-13T11:19:55Z</time>
      </trkpt>
      <trkpt lat="45.9314" lon="4.71138">
        <ele>192</ele>
        <time>2017-12-13T11:19:56Z</time>
      </trkpt>
      <trkpt lat="45.93144" lon="4.71147">
        <ele>191</ele>
        <time>2017-12-13T11:19:57Z</time>
      </trkpt>
      <trkpt lat="45.93149" lon="4.71156">
        <ele>191</ele>
        <time>2017-12-13T11:19:58Z</time>
      </trkpt>
      <trkpt lat="45.93153" lon="4.71164">
        <ele>191</ele>
        <time>2017-12-13T11:19:59Z</time>
      </trkpt>
      <trkpt lat="45.93157" lon="4.71173">
        <ele>190</ele>
        <time>2017-12-13T11:20:00Z</time>
      </trkpt>
      <trkpt lat="45.93161" lon="4.71182">
        <ele>190</ele>
        <time>2017-12-13T11:20:01Z</time>
      </trkpt>
      <trkpt lat="45.93165" lon="4.71191">
        <ele>190</ele>
        <time>2017-12-13T11:20:02Z</time>
      </trkpt>
      <trkpt lat="45.93169" lon="4.712">
        <ele>190</ele>
        <time>2017-12-13T11:20:03Z</time>
      </trkpt>
      <trkpt lat="45.93173" lon="4.7121">
        <ele>190</ele>
        <time>2017-12-13T11:20:04Z</time>
      </trkpt>
      <trkpt lat="45.93177" lon="4.71219">
        <ele>190</ele>
        <time>2017-12-13T11:20:05Z</time>
      </trkpt>
      <trkpt lat="45.9318" lon="4.71229">
        <ele>190</ele>
        <time>2017-12-13T11:20:06Z</time>
      </trkpt>
      <trkpt lat="45.93185" lon="4.71238">
        <ele>190</ele>
        <time>2017-12-13T11:20:07Z</time>
      </trkpt>
      <trkpt lat="45.93189" lon="4.71247">
        <ele>190</ele>
        <time>2017-12-13T11:20:08Z</time>
      </trkpt>
      <trkpt lat="45.93193" lon="4.71257">
        <ele>189</ele>
        <time>2017-12-13T11:20:09Z</time>
      </trkpt>
      <trkpt lat="45.93197" lon="4.71266">
        <ele>189</ele>
        <time>2017-12-13T11:20:10Z</time>
      </trkpt>
      <trkpt lat="45.932" lon="4.71276">
        <ele>188</ele>
        <time>2017-12-13T11:20:11Z</time>
      </trkpt>
      <trkpt lat="45.93204" lon="4.71285">
        <ele>188</ele>
        <time>2017-12-13T11:20:12Z</time>
      </trkpt>
      <trkpt lat="45.93208" lon="4.71294">
        <ele>188</ele>
        <time>2017-12-13T11:20:13Z</time>
      </trkpt>
      <trkpt lat="45.93211" lon="4.71303">
        <ele>188</ele>
        <time>2017-12-13T11:20:14Z</time>
      </trkpt>
      <trkpt lat="45.93216" lon="4.71313">
        <ele>188</ele>
        <time>2017-12-13T11:20:15Z</time>
      </trkpt>
      <trkpt lat="45.9322" lon="4.71321">
        <ele>187</ele>
        <time>2017-12-13T11:20:16Z</time>
      </trkpt>
      <trkpt lat="45.93223" lon="4.7133">
        <ele>187</ele>
        <time>2017-12-13T11:20:17Z</time>
      </trkpt>
      <trkpt lat="45.93228" lon="4.71338">
        <ele>186</ele>
        <time>2017-12-13T11:20:18Z</time>
      </trkpt>
      <trkpt lat="45.93233" lon="4.71347">
        <ele>186</ele>
        <time>2017-12-13T11:20:19Z</time>
      </trkpt>
      <trkpt lat="45.93237" lon="4.71357">
        <ele>186</ele>
        <time>2017-12-13T11:20:20Z</time>
      </trkpt>
      <trkpt lat="45.93241" lon="4.71366">
        <ele>186</ele>
        <time>2017-12-13T11:20:21Z</time>
      </trkpt>
      <trkpt lat="45.93245" lon="4.71376">
        <ele>186</ele>
        <time>2017-12-13T11:20:22Z</time>
      </trkpt>
      <trkpt lat="45.93249" lon="4.71386">
        <ele>186</ele>
        <time>2017-12-13T11:20:23Z</time>
      </trkpt>
      <trkpt lat="45.93253" lon="4.71395">
        <ele>186</ele>
        <time>2017-12-13T11:20:24Z</time>
      </trkpt>
      <trkpt lat="45.93257" lon="4.71403">
        <ele>186</ele>
        <time>2017-12-13T11:20:25Z</time>
      </trkpt>
      <trkpt lat="45.9326" lon="4.71412">
        <ele>186</ele>
        <time>2017-12-13T11:20:26Z</time>
      </trkpt>
      <trkpt lat="45.93264" lon="4.7142">
        <ele>186</ele>
        <time>2017-12-13T11:20:27Z</time>
      </trkpt>
      <trkpt lat="45.93267" lon="4.71429">
        <ele>185</ele>
        <time>2017-12-13T11:20:28Z</time>
      </trkpt>
      <trkpt lat="45.9327" lon="4.71437">
        <ele>185</ele>
        <time>2017-12-13T11:20:29Z</time>
      </trkpt>
      <trkpt lat="45.93273" lon="4.71444">
        <ele>185</ele>
        <time>2017-12-13T11:20:30Z</time>
      </trkpt>
      <trkpt lat="45.93276" lon="4.71452">
        <ele>185</ele>
        <time>2017-12-13T11:20:31Z</time>
      </trkpt>
      <trkpt lat="45.93279" lon="4.71459">
        <ele>185</ele>
        <time>2017-12-13T11:20:32Z</time>
      </trkpt>
      <trkpt lat="45.93283" lon="4.71464">
        <ele>185</ele>
        <time>2017-12-13T11:20:33Z</time>
      </trkpt>
      <trkpt lat="45.93286" lon="4.7147">
        <ele>185</ele>
        <time>2017-12-13T11:20:34Z</time>
      </trkpt>
      <trkpt lat="45.93289" lon="4.71477">
        <ele>185</ele>
        <time>2017-12-13T11:20:35Z</time>
      </trkpt>
      <trkpt lat="45.93292" lon="4.71483">
        <ele>185</ele>
        <time>2017-12-13T11:20:36Z</time>
      </trkpt>
      <trkpt lat="45.93295" lon="4.7149">
        <ele>185</ele>
        <time>2017-12-13T11:20:37Z</time>
      </trkpt>
      <trkpt lat="45.93297" lon="4.71496">
        <ele>185</ele>
        <time>2017-12-13T11:20:38Z</time>
      </trkpt>
      <trkpt lat="45.933" lon="4.71503">
        <ele>184</ele>
        <time>2017-12-13T11:20:39Z</time>
      </trkpt>
      <trkpt lat="45.93302" lon="4.71509">
        <ele>184</ele>
        <time>2017-12-13T11:20:40Z</time>
      </trkpt>
      <trkpt lat="45.93305" lon="4.71516">
        <ele>184</ele>
        <time>2017-12-13T11:20:41Z</time>
      </trkpt>
      <trkpt lat="45.93307" lon="4.71524">
        <ele>184</ele>
        <time>2017-12-13T11:20:42Z</time>
      </trkpt>
      <trkpt lat="45.9331" lon="4.71531">
        <ele>184</ele>
        <time>2017-12-13T11:20:43Z</time>
      </trkpt>
      <trkpt lat="45.93313" lon="4.71538">
        <ele>184</ele>
        <time>2017-12-13T11:20:44Z</time>
      </trkpt>
      <trkpt lat="45.93317" lon="4.71545">
        <ele>184</ele>
        <time>2017-12-13T11:20:45Z</time>
      </trkpt>
      <trkpt lat="45.93319" lon="4.71551">
        <ele>184</ele>
        <time>2017-12-13T11:20:46Z</time>
      </trkpt>
      <trkpt lat="45.93322" lon="4.71558">
        <ele>184</ele>
        <time>2017-12-13T11:20:47Z</time>
      </trkpt>
      <trkpt lat="45.93326" lon="4.71565">
        <ele>185</ele>
        <time>2017-12-13T11:20:48Z</time>
      </trkpt>
      <trkpt lat="45.93329" lon="4.71571">
        <ele>185</ele>
        <time>2017-12-13T11:20:49Z</time>
      </trkpt>
      <trkpt lat="45.93332" lon="4.71578">
        <ele>185</ele>
        <time>2017-12-13T11:20:50Z</time>
      </trkpt>
      <trkpt lat="45.93335" lon="4.71586">
        <ele>185</ele>
        <time>2017-12-13T11:20:51Z</time>
      </trkpt>
      <trkpt lat="45.93339" lon="4.71592">
        <ele>185</ele>
        <time>2017-12-13T11:20:52Z</time>
      </trkpt>
      <trkpt lat="45.93342" lon="4.71599">
        <ele>185</ele>
        <time>2017-12-13T11:20:53Z</time>
      </trkpt>
      <trkpt lat="45.93345" lon="4.71606">
        <ele>185</ele>
        <time>2017-12-13T11:20:54Z</time>
      </trkpt>
      <trkpt lat="45.93349" lon="4.71613">
        <ele>185</ele>
        <time>2017-12-13T11:20:55Z</time>
      </trkpt>
      <trkpt lat="45.93352" lon="4.7162">
        <ele>185</ele>
        <time>2017-12-13T11:20:56Z</time>
      </trkpt>
      <trkpt lat="45.93356" lon="4.71628">
        <ele>185</ele>
        <time>2017-12-13T11:20:57Z</time>
      </trkpt>
      <trkpt lat="45.9336" lon="4.71637">
        <ele>185</ele>
        <time>2017-12-13T11:20:58Z</time>
      </trkpt>
      <trkpt lat="45.93365" lon="4.71645">
        <ele>185</ele>
        <time>2017-12-13T11:20:59Z</time>
      </trkpt>
      <trkpt lat="45.93369" lon="4.71653">
        <ele>185</ele>
        <time>2017-12-13T11:21:00Z</time>
      </trkpt>
      <trkpt lat="45.93373" lon="4.71661">
        <ele>185</ele>
        <time>2017-12-13T11:21:01Z</time>
      </trkpt>
      <trkpt lat="45.93377" lon="4.71668">
        <ele>185</ele>
        <time>2017-12-13T11:21:02Z</time>
      </trkpt>
      <trkpt lat="45.93381" lon="4.71677">
        <ele>185</ele>
        <time>2017-12-13T11:21:03Z</time>
      </trkpt>
      <trkpt lat="45.93384" lon="4.71686">
        <ele>184</ele>
        <time>2017-12-13T11:21:04Z</time>
      </trkpt>
      <trkpt lat="45.93389" lon="4.71694">
        <ele>184</ele>
        <time>2017-12-13T11:21:05Z</time>
      </trkpt>
      <trkpt lat="45.93393" lon="4.71702">
        <ele>184</ele>
        <time>2017-12-13T11:21:06Z</time>
      </trkpt>
      <trkpt lat="45.93396" lon="4.71711">
        <ele>184</ele>
        <time>2017-12-13T11:21:07Z</time>
      </trkpt>
      <trkpt lat="45.93399" lon="4.71719">
        <ele>184</ele>
        <time>2017-12-13T11:21:08Z</time>
      </trkpt>
      <trkpt lat="45.93404" lon="4.71728">
        <ele>184</ele>
        <time>2017-12-13T11:21:09Z</time>
      </trkpt>
      <trkpt lat="45.93407" lon="4.71738">
        <ele>184</ele>
        <time>2017-12-13T11:21:10Z</time>
      </trkpt>
      <trkpt lat="45.9341" lon="4.71746">
        <ele>183</ele>
        <time>2017-12-13T11:21:11Z</time>
      </trkpt>
      <trkpt lat="45.93414" lon="4.71754">
        <ele>183</ele>
        <time>2017-12-13T11:21:12Z</time>
      </trkpt>
      <trkpt lat="45.93419" lon="4.71764">
        <ele>182</ele>
        <time>2017-12-13T11:21:13Z</time>
      </trkpt>
      <trkpt lat="45.93423" lon="4.71774">
        <ele>182</ele>
        <time>2017-12-13T11:21:14Z</time>
      </trkpt>
      <trkpt lat="45.93427" lon="4.71783">
        <ele>182</ele>
        <time>2017-12-13T11:21:15Z</time>
      </trkpt>
      <trkpt lat="45.93432" lon="4.71793">
        <ele>182</ele>
        <time>2017-12-13T11:21:16Z</time>
      </trkpt>
      <trkpt lat="45.93435" lon="4.71803">
        <ele>182</ele>
        <time>2017-12-13T11:21:17Z</time>
      </trkpt>
      <trkpt lat="45.93438" lon="4.71812">
        <ele>182</ele>
        <time>2017-12-13T11:21:18Z</time>
      </trkpt>
      <trkpt lat="45.93442" lon="4.71821">
        <ele>182</ele>
        <time>2017-12-13T11:21:19Z</time>
      </trkpt>
      <trkpt lat="45.93447" lon="4.7183">
        <ele>182</ele>
        <time>2017-12-13T11:21:20Z</time>
      </trkpt>
      <trkpt lat="45.93452" lon="4.71839">
        <ele>181</ele>
        <time>2017-12-13T11:21:21Z</time>
      </trkpt>
      <trkpt lat="45.93459" lon="4.71845">
        <ele>181</ele>
        <time>2017-12-13T11:21:22Z</time>
      </trkpt>
      <trkpt lat="45.93465" lon="4.71848">
        <ele>180</ele>
        <time>2017-12-13T11:21:23Z</time>
      </trkpt>
      <trkpt lat="45.93473" lon="4.71852">
        <ele>180</ele>
        <time>2017-12-13T11:21:24Z</time>
      </trkpt>
      <trkpt lat="45.93481" lon="4.71851">
        <ele>180</ele>
        <time>2017-12-13T11:21:25Z</time>
      </trkpt>
      <trkpt lat="45.93489" lon="4.71851">
        <ele>180</ele>
        <time>2017-12-13T11:21:26Z</time>
      </trkpt>
      <trkpt lat="45.93496" lon="4.7185">
        <ele>180</ele>
        <time>2017-12-13T11:21:27Z</time>
      </trkpt>
      <trkpt lat="45.93503" lon="4.71849">
        <ele>179</ele>
        <time>2017-12-13T11:21:28Z</time>
      </trkpt>
      <trkpt lat="45.93511" lon="4.71847">
        <ele>179</ele>
        <time>2017-12-13T11:21:29Z</time>
      </trkpt>
      <trkpt lat="45.93518" lon="4.71845">
        <ele>179</ele>
        <time>2017-12-13T11:21:30Z</time>
      </trkpt>
      <trkpt lat="45.93525" lon="4.71843">
        <ele>179</ele>
        <time>2017-12-13T11:21:31Z</time>
      </trkpt>
      <trkpt lat="45.93533" lon="4.71842">
        <ele>179</ele>
        <time>2017-12-13T11:21:32Z</time>
      </trkpt>
      <trkpt lat="45.9354" lon="4.71841">
        <ele>179</ele>
        <time>2017-12-13T11:21:33Z</time>
      </trkpt>
      <trkpt lat="45.93547" lon="4.71841">
        <ele>179</ele>
        <time>2017-12-13T11:21:34Z</time>
      </trkpt>
      <trkpt lat="45.93554" lon="4.71839">
        <ele>179</ele>
        <time>2017-12-13T11:21:35Z</time>
      </trkpt>
      <trkpt lat="45.93561" lon="4.7184">
        <ele>179</ele>
        <time>2017-12-13T11:21:36Z</time>
      </trkpt>
      <trkpt lat="45.93567" lon="4.71839">
        <ele>179</ele>
        <time>2017-12-13T11:21:37Z</time>
      </trkpt>
      <trkpt lat="45.93572" lon="4.71838">
        <ele>180</ele>
        <time>2017-12-13T11:21:38Z</time>
      </trkpt>
      <trkpt lat="45.93577" lon="4.71837">
        <ele>180</ele>
        <time>2017-12-13T11:21:39Z</time>
      </trkpt>
      <trkpt lat="45.93584" lon="4.71836">
        <ele>180</ele>
        <time>2017-12-13T11:21:41Z</time>
      </trkpt>
      <trkpt lat="45.93587" lon="4.71835">
        <ele>180</ele>
        <time>2017-12-13T11:21:42Z</time>
      </trkpt>
      <trkpt lat="45.93593" lon="4.71828">
        <ele>180</ele>
        <time>2017-12-13T11:21:44Z</time>
      </trkpt>
      <trkpt lat="45.93598" lon="4.71825">
        <ele>179</ele>
        <time>2017-12-13T11:21:45Z</time>
      </trkpt>
      <trkpt lat="45.93605" lon="4.71819">
        <ele>179</ele>
        <time>2017-12-13T11:21:47Z</time>
      </trkpt>
      <trkpt lat="45.93609" lon="4.71816">
        <ele>179</ele>
        <time>2017-12-13T11:21:48Z</time>
      </trkpt>
      <trkpt lat="45.93615" lon="4.71808">
        <ele>179</ele>
        <time>2017-12-13T11:21:50Z</time>
      </trkpt>
      <trkpt lat="45.93618" lon="4.71806">
        <ele>179</ele>
        <time>2017-12-13T11:21:51Z</time>
      </trkpt>
      <trkpt lat="45.93624" lon="4.71803">
        <ele>179</ele>
        <time>2017-12-13T11:21:53Z</time>
      </trkpt>
      <trkpt lat="45.93627" lon="4.71801">
        <ele>179</ele>
        <time>2017-12-13T11:21:54Z</time>
      </trkpt>
      <trkpt lat="45.93634" lon="4.71799">
        <ele>179</ele>
        <time>2017-12-13T11:21:56Z</time>
      </trkpt>
      <trkpt lat="45.93638" lon="4.71798">
        <ele>179</ele>
        <time>2017-12-13T11:21:57Z</time>
      </trkpt>
      <trkpt lat="45.93645" lon="4.71796">
        <ele>179</ele>
        <time>2017-12-13T11:21:59Z</time>
      </trkpt>
      <trkpt lat="45.93648" lon="4.71795">
        <ele>179</ele>
        <time>2017-12-13T11:22:00Z</time>
      </trkpt>
      <trkpt lat="45.93656" lon="4.7179">
        <ele>179</ele>
        <time>2017-12-13T11:22:03Z</time>
      </trkpt>
      <trkpt lat="45.93658" lon="4.71788">
        <ele>179</ele>
        <time>2017-12-13T11:22:04Z</time>
      </trkpt>
      <trkpt lat="45.93662" lon="4.71777">
        <ele>179</ele>
        <time>2017-12-13T11:22:10Z</time>
      </trkpt>
      <trkpt lat="45.93662" lon="4.71776">
        <ele>179</ele>
        <time>2017-12-13T11:22:11Z</time>
      </trkpt>
      <trkpt lat="45.93668" lon="4.71783">
        <ele>177</ele>
        <time>2017-12-13T11:23:38Z</time>
      </trkpt>
      <trkpt lat="45.9367" lon="4.71783">
        <ele>177</ele>
        <time>2017-12-13T11:23:39Z</time>
      </trkpt>
      <trkpt lat="45.93676" lon="4.71785">
        <ele>177</ele>
        <time>2017-12-13T11:23:41Z</time>
      </trkpt>
      <trkpt lat="45.93679" lon="4.71785">
        <ele>177</ele>
        <time>2017-12-13T11:23:42Z</time>
      </trkpt>
      <trkpt lat="45.93687" lon="4.71784">
        <ele>177</ele>
        <time>2017-12-13T11:23:44Z</time>
      </trkpt>
      <trkpt lat="45.93691" lon="4.71784">
        <ele>177</ele>
        <time>2017-12-13T11:23:45Z</time>
      </trkpt>
      <trkpt lat="45.93699" lon="4.71789">
        <ele>176</ele>
        <time>2017-12-13T11:23:47Z</time>
      </trkpt>
      <trkpt lat="45.93702" lon="4.71792">
        <ele>176</ele>
        <time>2017-12-13T11:23:48Z</time>
      </trkpt>
      <trkpt lat="45.93705" lon="4.718">
        <ele>176</ele>
        <time>2017-12-13T11:23:50Z</time>
      </trkpt>
      <trkpt lat="45.93706" lon="4.71804">
        <ele>176</ele>
        <time>2017-12-13T11:23:51Z</time>
      </trkpt>
      <trkpt lat="45.93706" lon="4.71814">
        <ele>176</ele>
        <time>2017-12-13T11:23:53Z</time>
      </trkpt>
      <trkpt lat="45.93706" lon="4.7182">
        <ele>176</ele>
        <time>2017-12-13T11:23:54Z</time>
      </trkpt>
      <trkpt lat="45.93702" lon="4.71827">
        <ele>176</ele>
        <time>2017-12-13T11:23:55Z</time>
      </trkpt>
      <trkpt lat="45.937" lon="4.71834">
        <ele>175</ele>
        <time>2017-12-13T11:23:56Z</time>
      </trkpt>
      <trkpt lat="45.93697" lon="4.7184">
        <ele>175</ele>
        <time>2017-12-13T11:23:57Z</time>
      </trkpt>
      <trkpt lat="45.93694" lon="4.71847">
        <ele>175</ele>
        <time>2017-12-13T11:23:58Z</time>
      </trkpt>
      <trkpt lat="45.9369" lon="4.71858">
        <ele>175</ele>
        <time>2017-12-13T11:24:00Z</time>
      </trkpt>
      <trkpt lat="45.93687" lon="4.71865">
        <ele>175</ele>
        <time>2017-12-13T11:24:01Z</time>
      </trkpt>
      <trkpt lat="45.93687" lon="4.71871">
        <ele>175</ele>
        <time>2017-12-13T11:24:03Z</time>
      </trkpt>
      <trkpt lat="45.93682" lon="4.71878">
        <ele>175</ele>
        <time>2017-12-13T11:24:04Z</time>
      </trkpt>
      <trkpt lat="45.93681" lon="4.71884">
        <ele>175</ele>
        <time>2017-12-13T11:24:05Z</time>
      </trkpt>
      <trkpt lat="45.93678" lon="4.71889">
        <ele>175</ele>
        <time>2017-12-13T11:24:06Z</time>
      </trkpt>
      <trkpt lat="45.93676" lon="4.71896">
        <ele>175</ele>
        <time>2017-12-13T11:24:07Z</time>
      </trkpt>
      <trkpt lat="45.93674" lon="4.71902">
        <ele>175</ele>
        <time>2017-12-13T11:24:08Z</time>
      </trkpt>
      <trkpt lat="45.93672" lon="4.7191">
        <ele>175</ele>
        <time>2017-12-13T11:24:09Z</time>
      </trkpt>
      <trkpt lat="45.93669" lon="4.71916">
        <ele>175</ele>
        <time>2017-12-13T11:24:10Z</time>
      </trkpt>
      <trkpt lat="45.93668" lon="4.71926">
        <ele>174</ele>
        <time>2017-12-13T11:24:12Z</time>
      </trkpt>
      <trkpt lat="45.93664" lon="4.71934">
        <ele>175</ele>
        <time>2017-12-13T11:24:13Z</time>
      </trkpt>
      <trkpt lat="45.93659" lon="4.71942">
        <ele>175</ele>
        <time>2017-12-13T11:24:15Z</time>
      </trkpt>
      <trkpt lat="45.93655" lon="4.71945">
        <ele>175</ele>
        <time>2017-12-13T11:24:16Z</time>
      </trkpt>
      <trkpt lat="45.93652" lon="4.71948">
        <ele>175</ele>
        <time>2017-12-13T11:24:17Z</time>
      </trkpt>
      <trkpt lat="45.93649" lon="4.7196">
        <ele>175</ele>
        <time>2017-12-13T11:24:18Z</time>
      </trkpt>
      <trkpt lat="45.93646" lon="4.71968">
        <ele>175</ele>
        <time>2017-12-13T11:24:19Z</time>
      </trkpt>
      <trkpt lat="45.93643" lon="4.71975">
        <ele>175</ele>
        <time>2017-12-13T11:24:20Z</time>
      </trkpt>
      <trkpt lat="45.9364" lon="4.71983">
        <ele>175</ele>
        <time>2017-12-13T11:24:21Z</time>
      </trkpt>
      <trkpt lat="45.93637" lon="4.7199">
        <ele>175</ele>
        <time>2017-12-13T11:24:22Z</time>
      </trkpt>
      <trkpt lat="45.93634" lon="4.71998">
        <ele>175</ele>
        <time>2017-12-13T11:24:23Z</time>
      </trkpt>
      <trkpt lat="45.93632" lon="4.72009">
        <ele>174</ele>
        <time>2017-12-13T11:24:24Z</time>
      </trkpt>
      <trkpt lat="45.9363" lon="4.72023">
        <ele>174</ele>
        <time>2017-12-13T11:24:25Z</time>
      </trkpt>
      <trkpt lat="45.93626" lon="4.7203">
        <ele>175</ele>
        <time>2017-12-13T11:24:26Z</time>
      </trkpt>
      <trkpt lat="45.93624" lon="4.7204">
        <ele>175</ele>
        <time>2017-12-13T11:24:27Z</time>
      </trkpt>
      <trkpt lat="45.93621" lon="4.72048">
        <ele>175</ele>
        <time>2017-12-13T11:24:28Z</time>
      </trkpt>
      <trkpt lat="45.93617" lon="4.72054">
        <ele>175</ele>
        <time>2017-12-13T11:24:29Z</time>
      </trkpt>
      <trkpt lat="45.93614" lon="4.72059">
        <ele>175</ele>
        <time>2017-12-13T11:24:30Z</time>
      </trkpt>
      <trkpt lat="45.93611" lon="4.72064">
        <ele>175</ele>
        <time>2017-12-13T11:24:31Z</time>
      </trkpt>
      <trkpt lat="45.93608" lon="4.72079">
        <ele>175</ele>
        <time>2017-12-13T11:24:32Z</time>
      </trkpt>
      <trkpt lat="45.93605" lon="4.72085">
        <ele>174</ele>
        <time>2017-12-13T11:24:33Z</time>
      </trkpt>
      <trkpt lat="45.93601" lon="4.72091">
        <ele>174</ele>
        <time>2017-12-13T11:24:34Z</time>
      </trkpt>
      <trkpt lat="45.93597" lon="4.72097">
        <ele>174</ele>
        <time>2017-12-13T11:24:35Z</time>
      </trkpt>
      <trkpt lat="45.93596" lon="4.72106">
        <ele>174</ele>
        <time>2017-12-13T11:24:36Z</time>
      </trkpt>
      <trkpt lat="45.93594" lon="4.72113">
        <ele>174</ele>
        <time>2017-12-13T11:24:37Z</time>
      </trkpt>
      <trkpt lat="45.93591" lon="4.7212">
        <ele>174</ele>
        <time>2017-12-13T11:24:38Z</time>
      </trkpt>
      <trkpt lat="45.93585" lon="4.72127">
        <ele>174</ele>
        <time>2017-12-13T11:24:40Z</time>
      </trkpt>
      <trkpt lat="45.93582" lon="4.72128">
        <ele>174</ele>
        <time>2017-12-13T11:24:41Z</time>
      </trkpt>
      <trkpt lat="45.93581" lon="4.72139">
        <ele>174</ele>
        <time>2017-12-13T11:24:42Z</time>
      </trkpt>
      <trkpt lat="45.93578" lon="4.72145">
        <ele>174</ele>
        <time>2017-12-13T11:24:43Z</time>
      </trkpt>
      <trkpt lat="45.93575" lon="4.72151">
        <ele>174</ele>
        <time>2017-12-13T11:24:44Z</time>
      </trkpt>
      <trkpt lat="45.93573" lon="4.72159">
        <ele>174</ele>
        <time>2017-12-13T11:24:45Z</time>
      </trkpt>
      <trkpt lat="45.93571" lon="4.72166">
        <ele>174</ele>
        <time>2017-12-13T11:24:46Z</time>
      </trkpt>
      <trkpt lat="45.93568" lon="4.72172">
        <ele>173</ele>
        <time>2017-12-13T11:24:47Z</time>
      </trkpt>
      <trkpt lat="45.93565" lon="4.7218">
        <ele>173</ele>
        <time>2017-12-13T11:24:48Z</time>
      </trkpt>
      <trkpt lat="45.93563" lon="4.72187">
        <ele>173</ele>
        <time>2017-12-13T11:24:49Z</time>
      </trkpt>
      <trkpt lat="45.93556" lon="4.72195">
        <ele>173</ele>
        <time>2017-12-13T11:24:50Z</time>
      </trkpt>
      <trkpt lat="45.93553" lon="4.72203">
        <ele>173</ele>
        <time>2017-12-13T11:24:51Z</time>
      </trkpt>
      <trkpt lat="45.93549" lon="4.72214">
        <ele>173</ele>
        <time>2017-12-13T11:24:52Z</time>
      </trkpt>
      <trkpt lat="45.93546" lon="4.72222">
        <ele>172</ele>
        <time>2017-12-13T11:24:53Z</time>
      </trkpt>
      <trkpt lat="45.93544" lon="4.72233">
        <ele>172</ele>
        <time>2017-12-13T11:24:54Z</time>
      </trkpt>
      <trkpt lat="45.93541" lon="4.72238">
        <ele>172</ele>
        <time>2017-12-13T11:24:55Z</time>
      </trkpt>
      <trkpt lat="45.93538" lon="4.72246">
        <ele>172</ele>
        <time>2017-12-13T11:24:56Z</time>
      </trkpt>
      <trkpt lat="45.93536" lon="4.72253">
        <ele>172</ele>
        <time>2017-12-13T11:24:57Z</time>
      </trkpt>
      <trkpt lat="45.93535" lon="4.72264">
        <ele>172</ele>
        <time>2017-12-13T11:24:58Z</time>
      </trkpt>
      <trkpt lat="45.93532" lon="4.7227">
        <ele>172</ele>
        <time>2017-12-13T11:24:59Z</time>
      </trkpt>
      <trkpt lat="45.9353" lon="4.72276">
        <ele>172</ele>
        <time>2017-12-13T11:25:00Z</time>
      </trkpt>
      <trkpt lat="45.93527" lon="4.72283">
        <ele>172</ele>
        <time>2017-12-13T11:25:01Z</time>
      </trkpt>
      <trkpt lat="45.93525" lon="4.7229">
        <ele>172</ele>
        <time>2017-12-13T11:25:02Z</time>
      </trkpt>
      <trkpt lat="45.93522" lon="4.72296">
        <ele>172</ele>
        <time>2017-12-13T11:25:03Z</time>
      </trkpt>
      <trkpt lat="45.93519" lon="4.72302">
        <ele>172</ele>
        <time>2017-12-13T11:25:04Z</time>
      </trkpt>
      <trkpt lat="45.93514" lon="4.72308">
        <ele>173</ele>
        <time>2017-12-13T11:25:05Z</time>
      </trkpt>
      <trkpt lat="45.93509" lon="4.72313">
        <ele>173</ele>
        <time>2017-12-13T11:25:06Z</time>
      </trkpt>
      <trkpt lat="45.93505" lon="4.72318">
        <ele>173</ele>
        <time>2017-12-13T11:25:07Z</time>
      </trkpt>
      <trkpt lat="45.935" lon="4.72325">
        <ele>173</ele>
        <time>2017-12-13T11:25:08Z</time>
      </trkpt>
      <trkpt lat="45.93496" lon="4.72333">
        <ele>173</ele>
        <time>2017-12-13T11:25:09Z</time>
      </trkpt>
      <trkpt lat="45.93492" lon="4.72339">
        <ele>173</ele>
        <time>2017-12-13T11:25:10Z</time>
      </trkpt>
      <trkpt lat="45.93487" lon="4.72345">
        <ele>173</ele>
        <time>2017-12-13T11:25:11Z</time>
      </trkpt>
      <trkpt lat="45.93483" lon="4.72347">
        <ele>173</ele>
        <time>2017-12-13T11:25:12Z</time>
      </trkpt>
      <trkpt lat="45.93479" lon="4.72352">
        <ele>173</ele>
        <time>2017-12-13T11:25:13Z</time>
      </trkpt>
      <trkpt lat="45.93474" lon="4.72358">
        <ele>173</ele>
        <time>2017-12-13T11:25:14Z</time>
      </trkpt>
      <trkpt lat="45.93471" lon="4.72364">
        <ele>173</ele>
        <time>2017-12-13T11:25:15Z</time>
      </trkpt>
      <trkpt lat="45.93468" lon="4.72368">
        <ele>173</ele>
        <time>2017-12-13T11:25:16Z</time>
      </trkpt>
      <trkpt lat="45.93464" lon="4.72372">
        <ele>173</ele>
        <time>2017-12-13T11:25:17Z</time>
      </trkpt>
      <trkpt lat="45.9346" lon="4.72376">
        <ele>173</ele>
        <time>2017-12-13T11:25:18Z</time>
      </trkpt>
      <trkpt lat="45.93457" lon="4.72381">
        <ele>173</ele>
        <time>2017-12-13T11:25:19Z</time>
      </trkpt>
      <trkpt lat="45.93451" lon="4.72385">
        <ele>173</ele>
        <time>2017-12-13T11:25:20Z</time>
      </trkpt>
      <trkpt lat="45.93447" lon="4.72391">
        <ele>173</ele>
        <time>2017-12-13T11:25:21Z</time>
      </trkpt>
      <trkpt lat="45.93442" lon="4.72394">
        <ele>173</ele>
        <time>2017-12-13T11:25:22Z</time>
      </trkpt>
      <trkpt lat="45.93438" lon="4.72398">
        <ele>173</ele>
        <time>2017-12-13T11:25:23Z</time>
      </trkpt>
      <trkpt lat="45.93433" lon="4.724">
        <ele>174</ele>
        <time>2017-12-13T11:25:24Z</time>
      </trkpt>
      <trkpt lat="45.93427" lon="4.72401">
        <ele>174</ele>
        <time>2017-12-13T11:25:25Z</time>
      </trkpt>
      <trkpt lat="45.93422" lon="4.72403">
        <ele>174</ele>
        <time>2017-12-13T11:25:26Z</time>
      </trkpt>
      <trkpt lat="45.93414" lon="4.72409">
        <ele>174</ele>
        <time>2017-12-13T11:25:28Z</time>
      </trkpt>
      <trkpt lat="45.93409" lon="4.72409">
        <ele>174</ele>
        <time>2017-12-13T11:25:29Z</time>
      </trkpt>
      <trkpt lat="45.934" lon="4.72407">
        <ele>174</ele>
        <time>2017-12-13T11:25:31Z</time>
      </trkpt>
      <trkpt lat="45.93395" lon="4.7241">
        <ele>174</ele>
        <time>2017-12-13T11:25:32Z</time>
      </trkpt>
      <trkpt lat="45.93388" lon="4.72415">
        <ele>174</ele>
        <time>2017-12-13T11:25:34Z</time>
      </trkpt>
      <trkpt lat="45.93386" lon="4.7242">
        <ele>173</ele>
        <time>2017-12-13T11:25:35Z</time>
      </trkpt>
      <trkpt lat="45.93385" lon="4.72428">
        <ele>173</ele>
        <time>2017-12-13T11:25:36Z</time>
      </trkpt>
      <trkpt lat="45.93387" lon="4.72434">
        <ele>173</ele>
        <time>2017-12-13T11:25:37Z</time>
      </trkpt>
      <trkpt lat="45.9339" lon="4.72441">
        <ele>173</ele>
        <time>2017-12-13T11:25:38Z</time>
      </trkpt>
      <trkpt lat="45.93389" lon="4.72448">
        <ele>173</ele>
        <time>2017-12-13T11:25:39Z</time>
      </trkpt>
      <trkpt lat="45.93389" lon="4.72457">
        <ele>173</ele>
        <time>2017-12-13T11:25:40Z</time>
      </trkpt>
      <trkpt lat="45.93389" lon="4.72465">
        <ele>173</ele>
        <time>2017-12-13T11:25:41Z</time>
      </trkpt>
      <trkpt lat="45.93385" lon="4.72471">
        <ele>173</ele>
        <time>2017-12-13T11:25:42Z</time>
      </trkpt>
      <trkpt lat="45.93381" lon="4.72477">
        <ele>173</ele>
        <time>2017-12-13T11:25:43Z</time>
      </trkpt>
      <trkpt lat="45.93378" lon="4.72482">
        <ele>173</ele>
        <time>2017-12-13T11:25:44Z</time>
      </trkpt>
      <trkpt lat="45.93374" lon="4.72486">
        <ele>173</ele>
        <time>2017-12-13T11:25:45Z</time>
      </trkpt>
      <trkpt lat="45.93368" lon="4.72494">
        <ele>173</ele>
        <time>2017-12-13T11:25:47Z</time>
      </trkpt>
      <trkpt lat="45.93364" lon="4.725">
        <ele>173</ele>
        <time>2017-12-13T11:25:48Z</time>
      </trkpt>
      <trkpt lat="45.9336" lon="4.72505">
        <ele>172</ele>
        <time>2017-12-13T11:25:49Z</time>
      </trkpt>
      <trkpt lat="45.93354" lon="4.72509">
        <ele>172</ele>
        <time>2017-12-13T11:25:50Z</time>
      </trkpt>
      <trkpt lat="45.93351" lon="4.72517">
        <ele>172</ele>
        <time>2017-12-13T11:25:51Z</time>
      </trkpt>
      <trkpt lat="45.93347" lon="4.72522">
        <ele>172</ele>
        <time>2017-12-13T11:25:52Z</time>
      </trkpt>
      <trkpt lat="45.93341" lon="4.72528">
        <ele>172</ele>
        <time>2017-12-13T11:25:53Z</time>
      </trkpt>
      <trkpt lat="45.93338" lon="4.72534">
        <ele>172</ele>
        <time>2017-12-13T11:25:54Z</time>
      </trkpt>
      <trkpt lat="45.93333" lon="4.7254">
        <ele>172</ele>
        <time>2017-12-13T11:25:55Z</time>
      </trkpt>
      <trkpt lat="45.93328" lon="4.72546">
        <ele>172</ele>
        <time>2017-12-13T11:25:56Z</time>
      </trkpt>
      <trkpt lat="45.93324" lon="4.72548">
        <ele>172</ele>
        <time>2017-12-13T11:25:57Z</time>
      </trkpt>
      <trkpt lat="45.93319" lon="4.72553">
        <ele>172</ele>
        <time>2017-12-13T11:25:58Z</time>
      </trkpt>
      <trkpt lat="45.93312" lon="4.72558">
        <ele>172</ele>
        <time>2017-12-13T11:25:59Z</time>
      </trkpt>
      <trkpt lat="45.9331" lon="4.72565">
        <ele>171</ele>
        <time>2017-12-13T11:26:00Z</time>
      </trkpt>
      <trkpt lat="45.93305" lon="4.72567">
        <ele>171</ele>
        <time>2017-12-13T11:26:01Z</time>
      </trkpt>
      <trkpt lat="45.933" lon="4.72572">
        <ele>171</ele>
        <time>2017-12-13T11:26:02Z</time>
      </trkpt>
      <trkpt lat="45.93293" lon="4.72578">
        <ele>171</ele>
        <time>2017-12-13T11:26:04Z</time>
      </trkpt>
      <trkpt lat="45.9329" lon="4.72579">
        <ele>171</ele>
        <time>2017-12-13T11:26:05Z</time>
      </trkpt>
      <trkpt lat="45.93285" lon="4.72589">
        <ele>170</ele>
        <time>2017-12-13T11:26:07Z</time>
      </trkpt>
      <trkpt lat="45.9328" lon="4.72593">
        <ele>170</ele>
        <time>2017-12-13T11:26:08Z</time>
      </trkpt>
      <trkpt lat="45.93276" lon="4.72599">
        <ele>170</ele>
        <time>2017-12-13T11:26:09Z</time>
      </trkpt>
      <trkpt lat="45.93273" lon="4.72604">
        <ele>170</ele>
        <time>2017-12-13T11:26:10Z</time>
      </trkpt>
      <trkpt lat="45.93269" lon="4.72609">
        <ele>170</ele>
        <time>2017-12-13T11:26:11Z</time>
      </trkpt>
      <trkpt lat="45.93264" lon="4.72612">
        <ele>170</ele>
        <time>2017-12-13T11:26:12Z</time>
      </trkpt>
      <trkpt lat="45.9326" lon="4.72614">
        <ele>170</ele>
        <time>2017-12-13T11:26:13Z</time>
      </trkpt>
      <trkpt lat="45.93256" lon="4.72619">
        <ele>170</ele>
        <time>2017-12-13T11:26:14Z</time>
      </trkpt>
      <trkpt lat="45.93253" lon="4.72622">
        <ele>170</ele>
        <time>2017-12-13T11:26:15Z</time>
      </trkpt>
      <trkpt lat="45.93249" lon="4.72628">
        <ele>170</ele>
        <time>2017-12-13T11:26:16Z</time>
      </trkpt>
      <trkpt lat="45.93243" lon="4.72633">
        <ele>170</ele>
        <time>2017-12-13T11:26:17Z</time>
      </trkpt>
      <trkpt lat="45.93239" lon="4.72637">
        <ele>170</ele>
        <time>2017-12-13T11:26:18Z</time>
      </trkpt>
      <trkpt lat="45.93235" lon="4.72641">
        <ele>170</ele>
        <time>2017-12-13T11:26:19Z</time>
      </trkpt>
      <trkpt lat="45.93231" lon="4.72648">
        <ele>170</ele>
        <time>2017-12-13T11:26:20Z</time>
      </trkpt>
      <trkpt lat="45.93226" lon="4.72652">
        <ele>170</ele>
        <time>2017-12-13T11:26:21Z</time>
      </trkpt>
      <trkpt lat="45.93223" lon="4.72657">
        <ele>170</ele>
        <time>2017-12-13T11:26:22Z</time>
      </trkpt>
      <trkpt lat="45.93218" lon="4.72662">
        <ele>170</ele>
        <time>2017-12-13T11:26:23Z</time>
      </trkpt>
      <trkpt lat="45.93213" lon="4.72667">
        <ele>169</ele>
        <time>2017-12-13T11:26:24Z</time>
      </trkpt>
      <trkpt lat="45.93211" lon="4.72673">
        <ele>169</ele>
        <time>2017-12-13T11:26:25Z</time>
      </trkpt>
      <trkpt lat="45.93207" lon="4.72677">
        <ele>169</ele>
        <time>2017-12-13T11:26:26Z</time>
      </trkpt>
      <trkpt lat="45.93203" lon="4.72682">
        <ele>169</ele>
        <time>2017-12-13T11:26:27Z</time>
      </trkpt>
      <trkpt lat="45.932" lon="4.72688">
        <ele>169</ele>
        <time>2017-12-13T11:26:28Z</time>
      </trkpt>
      <trkpt lat="45.93195" lon="4.7269">
        <ele>169</ele>
        <time>2017-12-13T11:26:29Z</time>
      </trkpt>
      <trkpt lat="45.9319" lon="4.72696">
        <ele>169</ele>
        <time>2017-12-13T11:26:30Z</time>
      </trkpt>
      <trkpt lat="45.93186" lon="4.72701">
        <ele>169</ele>
        <time>2017-12-13T11:26:31Z</time>
      </trkpt>
      <trkpt lat="45.93181" lon="4.72708">
        <ele>169</ele>
        <time>2017-12-13T11:26:32Z</time>
      </trkpt>
      <trkpt lat="45.93177" lon="4.72714">
        <ele>169</ele>
        <time>2017-12-13T11:26:33Z</time>
      </trkpt>
      <trkpt lat="45.93171" lon="4.7272">
        <ele>170</ele>
        <time>2017-12-13T11:26:34Z</time>
      </trkpt>
      <trkpt lat="45.93166" lon="4.72724">
        <ele>170</ele>
        <time>2017-12-13T11:26:35Z</time>
      </trkpt>
      <trkpt lat="45.93162" lon="4.72729">
        <ele>170</ele>
        <time>2017-12-13T11:26:36Z</time>
      </trkpt>
      <trkpt lat="45.93156" lon="4.72735">
        <ele>170</ele>
        <time>2017-12-13T11:26:37Z</time>
      </trkpt>
      <trkpt lat="45.93152" lon="4.72741">
        <ele>170</ele>
        <time>2017-12-13T11:26:38Z</time>
      </trkpt>
      <trkpt lat="45.93148" lon="4.72747">
        <ele>170</ele>
        <time>2017-12-13T11:26:39Z</time>
      </trkpt>
      <trkpt lat="45.93145" lon="4.72754">
        <ele>170</ele>
        <time>2017-12-13T11:26:40Z</time>
      </trkpt>
      <trkpt lat="45.9314" lon="4.72758">
        <ele>171</ele>
        <time>2017-12-13T11:26:41Z</time>
      </trkpt>
      <trkpt lat="45.93136" lon="4.72761">
        <ele>171</ele>
        <time>2017-12-13T11:26:42Z</time>
      </trkpt>
      <trkpt lat="45.93131" lon="4.72767">
        <ele>171</ele>
        <time>2017-12-13T11:26:43Z</time>
      </trkpt>
      <trkpt lat="45.93126" lon="4.72772">
        <ele>171</ele>
        <time>2017-12-13T11:26:44Z</time>
      </trkpt>
      <trkpt lat="45.93122" lon="4.72778">
        <ele>171</ele>
        <time>2017-12-13T11:26:45Z</time>
      </trkpt>
      <trkpt lat="45.93117" lon="4.72783">
        <ele>171</ele>
        <time>2017-12-13T11:26:46Z</time>
      </trkpt>
      <trkpt lat="45.93113" lon="4.72788">
        <ele>171</ele>
        <time>2017-12-13T11:26:47Z</time>
      </trkpt>
      <trkpt lat="45.93108" lon="4.72792">
        <ele>171</ele>
        <time>2017-12-13T11:26:48Z</time>
      </trkpt>
      <trkpt lat="45.93103" lon="4.72797">
        <ele>171</ele>
        <time>2017-12-13T11:26:49Z</time>
      </trkpt>
      <trkpt lat="45.93099" lon="4.72804">
        <ele>171</ele>
        <time>2017-12-13T11:26:50Z</time>
      </trkpt>
      <trkpt lat="45.93094" lon="4.7281">
        <ele>172</ele>
        <time>2017-12-13T11:26:51Z</time>
      </trkpt>
      <trkpt lat="45.93089" lon="4.72815">
        <ele>172</ele>
        <time>2017-12-13T11:26:52Z</time>
      </trkpt>
      <trkpt lat="45.93085" lon="4.7282">
        <ele>172</ele>
        <time>2017-12-13T11:26:53Z</time>
      </trkpt>
      <trkpt lat="45.9308" lon="4.72826">
        <ele>173</ele>
        <time>2017-12-13T11:26:54Z</time>
      </trkpt>
      <trkpt lat="45.9307" lon="4.72834">
        <ele>173</ele>
        <time>2017-12-13T11:26:56Z</time>
      </trkpt>
      <trkpt lat="45.93066" lon="4.72839">
        <ele>173</ele>
        <time>2017-12-13T11:26:57Z</time>
      </trkpt>
      <trkpt lat="45.93056" lon="4.7285">
        <ele>172</ele>
        <time>2017-12-13T11:26:59Z</time>
      </trkpt>
      <trkpt lat="45.9305" lon="4.72841">
        <ele>172</ele>
        <time>2017-12-13T11:27:00Z</time>
      </trkpt>
      <trkpt lat="45.93044" lon="4.72849">
        <ele>172</ele>
        <time>2017-12-13T11:27:01Z</time>
      </trkpt>
      <trkpt lat="45.93037" lon="4.72855">
        <ele>172</ele>
        <time>2017-12-13T11:27:02Z</time>
      </trkpt>
      <trkpt lat="45.93032" lon="4.72865">
        <ele>172</ele>
        <time>2017-12-13T11:27:03Z</time>
      </trkpt>
      <trkpt lat="45.93028" lon="4.72872">
        <ele>172</ele>
        <time>2017-12-13T11:27:04Z</time>
      </trkpt>
      <trkpt lat="45.93025" lon="4.72878">
        <ele>172</ele>
        <time>2017-12-13T11:27:05Z</time>
      </trkpt>
      <trkpt lat="45.93021" lon="4.72885">
        <ele>172</ele>
        <time>2017-12-13T11:27:06Z</time>
      </trkpt>
      <trkpt lat="45.93017" lon="4.72892">
        <ele>172</ele>
        <time>2017-12-13T11:27:07Z</time>
      </trkpt>
      <trkpt lat="45.93013" lon="4.72897">
        <ele>172</ele>
        <time>2017-12-13T11:27:08Z</time>
      </trkpt>
      <trkpt lat="45.93009" lon="4.72903">
        <ele>171</ele>
        <time>2017-12-13T11:27:09Z</time>
      </trkpt>
      <trkpt lat="45.93005" lon="4.7291">
        <ele>171</ele>
        <time>2017-12-13T11:27:10Z</time>
      </trkpt>
      <trkpt lat="45.93" lon="4.72917">
        <ele>171</ele>
        <time>2017-12-13T11:27:11Z</time>
      </trkpt>
      <trkpt lat="45.92996" lon="4.72921">
        <ele>171</ele>
        <time>2017-12-13T11:27:12Z</time>
      </trkpt>
      <trkpt lat="45.9299" lon="4.72928">
        <ele>171</ele>
        <time>2017-12-13T11:27:13Z</time>
      </trkpt>
      <trkpt lat="45.92986" lon="4.72933">
        <ele>171</ele>
        <time>2017-12-13T11:27:14Z</time>
      </trkpt>
      <trkpt lat="45.92981" lon="4.72941">
        <ele>171</ele>
        <time>2017-12-13T11:27:15Z</time>
      </trkpt>
      <trkpt lat="45.92978" lon="4.72948">
        <ele>171</ele>
        <time>2017-12-13T11:27:16Z</time>
      </trkpt>
      <trkpt lat="45.92973" lon="4.72953">
        <ele>171</ele>
        <time>2017-12-13T11:27:17Z</time>
      </trkpt>
      <trkpt lat="45.92969" lon="4.72958">
        <ele>171</ele>
        <time>2017-12-13T11:27:18Z</time>
      </trkpt>
      <trkpt lat="45.92964" lon="4.72963">
        <ele>171</ele>
        <time>2017-12-13T11:27:19Z</time>
      </trkpt>
      <trkpt lat="45.9296" lon="4.72968">
        <ele>171</ele>
        <time>2017-12-13T11:27:20Z</time>
      </trkpt>
      <trkpt lat="45.92955" lon="4.72973">
        <ele>171</ele>
        <time>2017-12-13T11:27:21Z</time>
      </trkpt>
      <trkpt lat="45.9295" lon="4.72978">
        <ele>171</ele>
        <time>2017-12-13T11:27:22Z</time>
      </trkpt>
      <trkpt lat="45.92946" lon="4.72984">
        <ele>171</ele>
        <time>2017-12-13T11:27:23Z</time>
      </trkpt>
      <trkpt lat="45.92942" lon="4.7299">
        <ele>171</ele>
        <time>2017-12-13T11:27:24Z</time>
      </trkpt>
      <trkpt lat="45.92938" lon="4.72996">
        <ele>171</ele>
        <time>2017-12-13T11:27:25Z</time>
      </trkpt>
      <trkpt lat="45.92934" lon="4.73002">
        <ele>171</ele>
        <time>2017-12-13T11:27:26Z</time>
      </trkpt>
      <trkpt lat="45.92931" lon="4.73007">
        <ele>172</ele>
        <time>2017-12-13T11:27:27Z</time>
      </trkpt>
      <trkpt lat="45.92926" lon="4.73012">
        <ele>172</ele>
        <time>2017-12-13T11:27:28Z</time>
      </trkpt>
      <trkpt lat="45.92922" lon="4.73017">
        <ele>172</ele>
        <time>2017-12-13T11:27:29Z</time>
      </trkpt>
      <trkpt lat="45.92918" lon="4.73021">
        <ele>172</ele>
        <time>2017-12-13T11:27:30Z</time>
      </trkpt>
      <trkpt lat="45.92914" lon="4.73026">
        <ele>172</ele>
        <time>2017-12-13T11:27:31Z</time>
      </trkpt>
      <trkpt lat="45.9291" lon="4.73031">
        <ele>172</ele>
        <time>2017-12-13T11:27:32Z</time>
      </trkpt>
      <trkpt lat="45.92904" lon="4.73041">
        <ele>172</ele>
        <time>2017-12-13T11:27:34Z</time>
      </trkpt>
      <trkpt lat="45.929" lon="4.73046">
        <ele>172</ele>
        <time>2017-12-13T11:27:35Z</time>
      </trkpt>
      <trkpt lat="45.92897" lon="4.73051">
        <ele>172</ele>
        <time>2017-12-13T11:27:36Z</time>
      </trkpt>
      <trkpt lat="45.92893" lon="4.73055">
        <ele>172</ele>
        <time>2017-12-13T11:27:37Z</time>
      </trkpt>
      <trkpt lat="45.9289" lon="4.73061">
        <ele>172</ele>
        <time>2017-12-13T11:27:38Z</time>
      </trkpt>
      <trkpt lat="45.92886" lon="4.73066">
        <ele>172</ele>
        <time>2017-12-13T11:27:39Z</time>
      </trkpt>
      <trkpt lat="45.92882" lon="4.7307">
        <ele>172</ele>
        <time>2017-12-13T11:27:40Z</time>
      </trkpt>
      <trkpt lat="45.92879" lon="4.73075">
        <ele>172</ele>
        <time>2017-12-13T11:27:41Z</time>
      </trkpt>
      <trkpt lat="45.92876" lon="4.73081">
        <ele>172</ele>
        <time>2017-12-13T11:27:42Z</time>
      </trkpt>
      <trkpt lat="45.92873" lon="4.73085">
        <ele>172</ele>
        <time>2017-12-13T11:27:43Z</time>
      </trkpt>
      <trkpt lat="45.92869" lon="4.73088">
        <ele>172</ele>
        <time>2017-12-13T11:27:44Z</time>
      </trkpt>
      <trkpt lat="45.92865" lon="4.73094">
        <ele>171</ele>
        <time>2017-12-13T11:27:45Z</time>
      </trkpt>
      <trkpt lat="45.92861" lon="4.73099">
        <ele>171</ele>
        <time>2017-12-13T11:27:46Z</time>
      </trkpt>
      <trkpt lat="45.92857" lon="4.73103">
        <ele>171</ele>
        <time>2017-12-13T11:27:47Z</time>
      </trkpt>
      <trkpt lat="45.9285" lon="4.73102">
        <ele>171</ele>
        <time>2017-12-13T11:27:49Z</time>
      </trkpt>
      <trkpt lat="45.92847" lon="4.73097">
        <ele>171</ele>
        <time>2017-12-13T11:27:50Z</time>
      </trkpt>
      <trkpt lat="45.92845" lon="4.73085">
        <ele>171</ele>
        <time>2017-12-13T11:27:52Z</time>
      </trkpt>
      <trkpt lat="45.92844" lon="4.73079">
        <ele>171</ele>
        <time>2017-12-13T11:27:53Z</time>
      </trkpt>
      <trkpt lat="45.92842" lon="4.73072">
        <ele>171</ele>
        <time>2017-12-13T11:27:54Z</time>
      </trkpt>
      <trkpt lat="45.9284" lon="4.73064">
        <ele>171</ele>
        <time>2017-12-13T11:27:55Z</time>
      </trkpt>
      <trkpt lat="45.9284" lon="4.73056">
        <ele>171</ele>
        <time>2017-12-13T11:27:56Z</time>
      </trkpt>
      <trkpt lat="45.92838" lon="4.73049">
        <ele>171</ele>
        <time>2017-12-13T11:27:57Z</time>
      </trkpt>
      <trkpt lat="45.92837" lon="4.73041">
        <ele>171</ele>
        <time>2017-12-13T11:27:58Z</time>
      </trkpt>
      <trkpt lat="45.92835" lon="4.73033">
        <ele>171</ele>
        <time>2017-12-13T11:27:59Z</time>
      </trkpt>
      <trkpt lat="45.92834" lon="4.73026">
        <ele>171</ele>
        <time>2017-12-13T11:28:00Z</time>
      </trkpt>
      <trkpt lat="45.92833" lon="4.73019">
        <ele>170</ele>
        <time>2017-12-13T11:28:01Z</time>
      </trkpt>
      <trkpt lat="45.92831" lon="4.73012">
        <ele>170</ele>
        <time>2017-12-13T11:28:02Z</time>
      </trkpt>
      <trkpt lat="45.9283" lon="4.73003">
        <ele>170</ele>
        <time>2017-12-13T11:28:03Z</time>
      </trkpt>
      <trkpt lat="45.92829" lon="4.72995">
        <ele>170</ele>
        <time>2017-12-13T11:28:04Z</time>
      </trkpt>
      <trkpt lat="45.92828" lon="4.72987">
        <ele>170</ele>
        <time>2017-12-13T11:28:05Z</time>
      </trkpt>
      <trkpt lat="45.92829" lon="4.72977">
        <ele>170</ele>
        <time>2017-12-13T11:28:06Z</time>
      </trkpt>
      <trkpt lat="45.92827" lon="4.72967">
        <ele>170</ele>
        <time>2017-12-13T11:28:07Z</time>
      </trkpt>
      <trkpt lat="45.92825" lon="4.72959">
        <ele>170</ele>
        <time>2017-12-13T11:28:08Z</time>
      </trkpt>
      <trkpt lat="45.92825" lon="4.7295">
        <ele>170</ele>
        <time>2017-12-13T11:28:09Z</time>
      </trkpt>
      <trkpt lat="45.92823" lon="4.72942">
        <ele>170</ele>
        <time>2017-12-13T11:28:10Z</time>
      </trkpt>
      <trkpt lat="45.92823" lon="4.72935">
        <ele>170</ele>
        <time>2017-12-13T11:28:11Z</time>
      </trkpt>
      <trkpt lat="45.92822" lon="4.72928">
        <ele>170</ele>
        <time>2017-12-13T11:28:12Z</time>
      </trkpt>
      <trkpt lat="45.92821" lon="4.72921">
        <ele>170</ele>
        <time>2017-12-13T11:28:13Z</time>
      </trkpt>
      <trkpt lat="45.92821" lon="4.72914">
        <ele>170</ele>
        <time>2017-12-13T11:28:14Z</time>
      </trkpt>
      <trkpt lat="45.9282" lon="4.72906">
        <ele>170</ele>
        <time>2017-12-13T11:28:15Z</time>
      </trkpt>
      <trkpt lat="45.92819" lon="4.72899">
        <ele>170</ele>
        <time>2017-12-13T11:28:16Z</time>
      </trkpt>
      <trkpt lat="45.92818" lon="4.72893">
        <ele>170</ele>
        <time>2017-12-13T11:28:17Z</time>
      </trkpt>
      <trkpt lat="45.92818" lon="4.72887">
        <ele>170</ele>
        <time>2017-12-13T11:28:18Z</time>
      </trkpt>
      <trkpt lat="45.92815" lon="4.7288">
        <ele>170</ele>
        <time>2017-12-13T11:28:19Z</time>
      </trkpt>
      <trkpt lat="45.92814" lon="4.72873">
        <ele>170</ele>
        <time>2017-12-13T11:28:20Z</time>
      </trkpt>
      <trkpt lat="45.92811" lon="4.72865">
        <ele>170</ele>
        <time>2017-12-13T11:28:21Z</time>
      </trkpt>
      <trkpt lat="45.9281" lon="4.72857">
        <ele>170</ele>
        <time>2017-12-13T11:28:22Z</time>
      </trkpt>
      <trkpt lat="45.92809" lon="4.72852">
        <ele>170</ele>
        <time>2017-12-13T11:28:23Z</time>
      </trkpt>
      <trkpt lat="45.92808" lon="4.72844">
        <ele>170</ele>
        <time>2017-12-13T11:28:24Z</time>
      </trkpt>
      <trkpt lat="45.92806" lon="4.72837">
        <ele>170</ele>
        <time>2017-12-13T11:28:25Z</time>
      </trkpt>
      <trkpt lat="45.92805" lon="4.72825">
        <ele>171</ele>
        <time>2017-12-13T11:28:27Z</time>
      </trkpt>
      <trkpt lat="45.92804" lon="4.72818">
        <ele>171</ele>
        <time>2017-12-13T11:28:28Z</time>
      </trkpt>
      <trkpt lat="45.92803" lon="4.72811">
        <ele>171</ele>
        <time>2017-12-13T11:28:29Z</time>
      </trkpt>
      <trkpt lat="45.92803" lon="4.72805">
        <ele>171</ele>
        <time>2017-12-13T11:28:30Z</time>
      </trkpt>
      <trkpt lat="45.92802" lon="4.72798">
        <ele>171</ele>
        <time>2017-12-13T11:28:31Z</time>
      </trkpt>
      <trkpt lat="45.92801" lon="4.72792">
        <ele>171</ele>
        <time>2017-12-13T11:28:32Z</time>
      </trkpt>
      <trkpt lat="45.92794" lon="4.72785">
        <ele>171</ele>
        <time>2017-12-13T11:28:34Z</time>
      </trkpt>
      <trkpt lat="45.92789" lon="4.72784">
        <ele>171</ele>
        <time>2017-12-13T11:28:35Z</time>
      </trkpt>
      <trkpt lat="45.92783" lon="4.72791">
        <ele>170</ele>
        <time>2017-12-13T11:28:37Z</time>
      </trkpt>
      <trkpt lat="45.92779" lon="4.72795">
        <ele>170</ele>
        <time>2017-12-13T11:28:38Z</time>
      </trkpt>
      <trkpt lat="45.92776" lon="4.728">
        <ele>170</ele>
        <time>2017-12-13T11:28:39Z</time>
      </trkpt>
      <trkpt lat="45.92772" lon="4.72804">
        <ele>170</ele>
        <time>2017-12-13T11:28:40Z</time>
      </trkpt>
      <trkpt lat="45.92767" lon="4.7281">
        <ele>170</ele>
        <time>2017-12-13T11:28:41Z</time>
      </trkpt>
      <trkpt lat="45.92762" lon="4.72814">
        <ele>170</ele>
        <time>2017-12-13T11:28:42Z</time>
      </trkpt>
      <trkpt lat="45.92757" lon="4.72817">
        <ele>170</ele>
        <time>2017-12-13T11:28:43Z</time>
      </trkpt>
      <trkpt lat="45.92752" lon="4.72821">
        <ele>170</ele>
        <time>2017-12-13T11:28:44Z</time>
      </trkpt>
      <trkpt lat="45.92748" lon="4.72825">
        <ele>169</ele>
        <time>2017-12-13T11:28:45Z</time>
      </trkpt>
      <trkpt lat="45.92743" lon="4.72831">
        <ele>169</ele>
        <time>2017-12-13T11:28:46Z</time>
      </trkpt>
      <trkpt lat="45.92738" lon="4.72834">
        <ele>169</ele>
        <time>2017-12-13T11:28:47Z</time>
      </trkpt>
      <trkpt lat="45.92732" lon="4.72838">
        <ele>169</ele>
        <time>2017-12-13T11:28:48Z</time>
      </trkpt>
      <trkpt lat="45.92727" lon="4.72842">
        <ele>169</ele>
        <time>2017-12-13T11:28:49Z</time>
      </trkpt>
      <trkpt lat="45.92722" lon="4.72845">
        <ele>169</ele>
        <time>2017-12-13T11:28:50Z</time>
      </trkpt>
      <trkpt lat="45.92717" lon="4.72849">
        <ele>169</ele>
        <time>2017-12-13T11:28:51Z</time>
      </trkpt>
      <trkpt lat="45.92712" lon="4.72854">
        <ele>169</ele>
        <time>2017-12-13T11:28:52Z</time>
      </trkpt>
      <trkpt lat="45.92707" lon="4.72858">
        <ele>169</ele>
        <time>2017-12-13T11:28:53Z</time>
      </trkpt>
      <trkpt lat="45.92702" lon="4.72862">
        <ele>169</ele>
        <time>2017-12-13T11:28:54Z</time>
      </trkpt>
      <trkpt lat="45.92697" lon="4.72866">
        <ele>169</ele>
        <time>2017-12-13T11:28:55Z</time>
      </trkpt>
      <trkpt lat="45.92691" lon="4.72871">
        <ele>169</ele>
        <time>2017-12-13T11:28:56Z</time>
      </trkpt>
      <trkpt lat="45.92685" lon="4.72875">
        <ele>169</ele>
        <time>2017-12-13T11:28:57Z</time>
      </trkpt>
      <trkpt lat="45.92681" lon="4.72879">
        <ele>170</ele>
        <time>2017-12-13T11:28:58Z</time>
      </trkpt>
      <trkpt lat="45.92676" lon="4.72883">
        <ele>170</ele>
        <time>2017-12-13T11:28:59Z</time>
      </trkpt>
      <trkpt lat="45.92671" lon="4.72888">
        <ele>170</ele>
        <time>2017-12-13T11:29:00Z</time>
      </trkpt>
      <trkpt lat="45.92665" lon="4.72894">
        <ele>170</ele>
        <time>2017-12-13T11:29:01Z</time>
      </trkpt>
      <trkpt lat="45.9266" lon="4.72898">
        <ele>170</ele>
        <time>2017-12-13T11:29:02Z</time>
      </trkpt>
      <trkpt lat="45.92655" lon="4.72902">
        <ele>170</ele>
        <time>2017-12-13T11:29:03Z</time>
      </trkpt>
      <trkpt lat="45.92649" lon="4.72907">
        <ele>170</ele>
        <time>2017-12-13T11:29:04Z</time>
      </trkpt>
      <trkpt lat="45.92644" lon="4.72911">
        <ele>170</ele>
        <time>2017-12-13T11:29:05Z</time>
      </trkpt>
      <trkpt lat="45.92639" lon="4.72915">
        <ele>169</ele>
        <time>2017-12-13T11:29:06Z</time>
      </trkpt>
      <trkpt lat="45.92634" lon="4.72919">
        <ele>170</ele>
        <time>2017-12-13T11:29:07Z</time>
      </trkpt>
      <trkpt lat="45.92628" lon="4.72923">
        <ele>170</ele>
        <time>2017-12-13T11:29:08Z</time>
      </trkpt>
      <trkpt lat="45.92622" lon="4.72928">
        <ele>169</ele>
        <time>2017-12-13T11:29:09Z</time>
      </trkpt>
      <trkpt lat="45.92618" lon="4.72932">
        <ele>169</ele>
        <time>2017-12-13T11:29:10Z</time>
      </trkpt>
      <trkpt lat="45.92612" lon="4.72937">
        <ele>169</ele>
        <time>2017-12-13T11:29:11Z</time>
      </trkpt>
      <trkpt lat="45.92607" lon="4.72942">
        <ele>169</ele>
        <time>2017-12-13T11:29:12Z</time>
      </trkpt>
      <trkpt lat="45.92602" lon="4.72947">
        <ele>169</ele>
        <time>2017-12-13T11:29:13Z</time>
      </trkpt>
      <trkpt lat="45.92597" lon="4.72952">
        <ele>169</ele>
        <time>2017-12-13T11:29:14Z</time>
      </trkpt>
      <trkpt lat="45.92592" lon="4.72957">
        <ele>169</ele>
        <time>2017-12-13T11:29:15Z</time>
      </trkpt>
      <trkpt lat="45.92587" lon="4.72963">
        <ele>169</ele>
        <time>2017-12-13T11:29:16Z</time>
      </trkpt>
      <trkpt lat="45.92582" lon="4.72968">
        <ele>169</ele>
        <time>2017-12-13T11:29:17Z</time>
      </trkpt>
      <trkpt lat="45.92578" lon="4.72974">
        <ele>169</ele>
        <time>2017-12-13T11:29:18Z</time>
      </trkpt>
      <trkpt lat="45.92572" lon="4.72979">
        <ele>169</ele>
        <time>2017-12-13T11:29:19Z</time>
      </trkpt>
      <trkpt lat="45.92568" lon="4.72983">
        <ele>169</ele>
        <time>2017-12-13T11:29:20Z</time>
      </trkpt>
      <trkpt lat="45.92564" lon="4.72988">
        <ele>169</ele>
        <time>2017-12-13T11:29:21Z</time>
      </trkpt>
      <trkpt lat="45.92558" lon="4.72993">
        <ele>169</ele>
        <time>2017-12-13T11:29:22Z</time>
      </trkpt>
      <trkpt lat="45.92553" lon="4.72997">
        <ele>169</ele>
        <time>2017-12-13T11:29:23Z</time>
      </trkpt>
      <trkpt lat="45.92548" lon="4.73002">
        <ele>169</ele>
        <time>2017-12-13T11:29:24Z</time>
      </trkpt>
      <trkpt lat="45.92544" lon="4.73006">
        <ele>169</ele>
        <time>2017-12-13T11:29:25Z</time>
      </trkpt>
      <trkpt lat="45.9254" lon="4.73012">
        <ele>169</ele>
        <time>2017-12-13T11:29:26Z</time>
      </trkpt>
      <trkpt lat="45.92535" lon="4.73016">
        <ele>169</ele>
        <time>2017-12-13T11:29:27Z</time>
      </trkpt>
      <trkpt lat="45.9253" lon="4.7302">
        <ele>169</ele>
        <time>2017-12-13T11:29:28Z</time>
      </trkpt>
      <trkpt lat="45.92526" lon="4.73025">
        <ele>169</ele>
        <time>2017-12-13T11:29:29Z</time>
      </trkpt>
      <trkpt lat="45.92521" lon="4.7303">
        <ele>169</ele>
        <time>2017-12-13T11:29:30Z</time>
      </trkpt>
      <trkpt lat="45.92516" lon="4.73034">
        <ele>169</ele>
        <time>2017-12-13T11:29:31Z</time>
      </trkpt>
      <trkpt lat="45.92511" lon="4.73038">
        <ele>169</ele>
        <time>2017-12-13T11:29:32Z</time>
      </trkpt>
      <trkpt lat="45.92506" lon="4.73043">
        <ele>170</ele>
        <time>2017-12-13T11:29:33Z</time>
      </trkpt>
      <trkpt lat="45.92501" lon="4.73047">
        <ele>170</ele>
        <time>2017-12-13T11:29:34Z</time>
      </trkpt>
      <trkpt lat="45.92496" lon="4.73051">
        <ele>170</ele>
        <time>2017-12-13T11:29:35Z</time>
      </trkpt>
      <trkpt lat="45.92491" lon="4.73055">
        <ele>170</ele>
        <time>2017-12-13T11:29:36Z</time>
      </trkpt>
      <trkpt lat="45.92486" lon="4.73058">
        <ele>170</ele>
        <time>2017-12-13T11:29:37Z</time>
      </trkpt>
      <trkpt lat="45.92481" lon="4.73065">
        <ele>170</ele>
        <time>2017-12-13T11:29:38Z</time>
      </trkpt>
      <trkpt lat="45.92477" lon="4.73069">
        <ele>170</ele>
        <time>2017-12-13T11:29:39Z</time>
      </trkpt>
      <trkpt lat="45.92471" lon="4.73073">
        <ele>170</ele>
        <time>2017-12-13T11:29:40Z</time>
      </trkpt>
      <trkpt lat="45.92467" lon="4.73078">
        <ele>170</ele>
        <time>2017-12-13T11:29:41Z</time>
      </trkpt>
      <trkpt lat="45.92463" lon="4.73082">
        <ele>170</ele>
        <time>2017-12-13T11:29:42Z</time>
      </trkpt>
      <trkpt lat="45.92457" lon="4.73086">
        <ele>170</ele>
        <time>2017-12-13T11:29:43Z</time>
      </trkpt>
      <trkpt lat="45.92453" lon="4.73089">
        <ele>170</ele>
        <time>2017-12-13T11:29:44Z</time>
      </trkpt>
      <trkpt lat="45.92449" lon="4.73094">
        <ele>170</ele>
        <time>2017-12-13T11:29:45Z</time>
      </trkpt>
      <trkpt lat="45.92444" lon="4.731">
        <ele>170</ele>
        <time>2017-12-13T11:29:46Z</time>
      </trkpt>
      <trkpt lat="45.9244" lon="4.73104">
        <ele>170</ele>
        <time>2017-12-13T11:29:47Z</time>
      </trkpt>
      <trkpt lat="45.92436" lon="4.73107">
        <ele>170</ele>
        <time>2017-12-13T11:29:48Z</time>
      </trkpt>
      <trkpt lat="45.92432" lon="4.73111">
        <ele>170</ele>
        <time>2017-12-13T11:29:49Z</time>
      </trkpt>
      <trkpt lat="45.92427" lon="4.73114">
        <ele>170</ele>
        <time>2017-12-13T11:29:50Z</time>
      </trkpt>
      <trkpt lat="45.92423" lon="4.73116">
        <ele>170</ele>
        <time>2017-12-13T11:29:51Z</time>
      </trkpt>
      <trkpt lat="45.92419" lon="4.7312">
        <ele>170</ele>
        <time>2017-12-13T11:29:52Z</time>
      </trkpt>
      <trkpt lat="45.92416" lon="4.73124">
        <ele>171</ele>
        <time>2017-12-13T11:29:53Z</time>
      </trkpt>
      <trkpt lat="45.92412" lon="4.7313">
        <ele>171</ele>
        <time>2017-12-13T11:29:54Z</time>
      </trkpt>
      <trkpt lat="45.92409" lon="4.73136">
        <ele>171</ele>
        <time>2017-12-13T11:29:55Z</time>
      </trkpt>
      <trkpt lat="45.92409" lon="4.73144">
        <ele>171</ele>
        <time>2017-12-13T11:29:56Z</time>
      </trkpt>
      <trkpt lat="45.92409" lon="4.73152">
        <ele>171</ele>
        <time>2017-12-13T11:29:57Z</time>
      </trkpt>
      <trkpt lat="45.92409" lon="4.73159">
        <ele>170</ele>
        <time>2017-12-13T11:29:58Z</time>
      </trkpt>
      <trkpt lat="45.92409" lon="4.73167">
        <ele>170</ele>
        <time>2017-12-13T11:29:59Z</time>
      </trkpt>
      <trkpt lat="45.92409" lon="4.73174">
        <ele>170</ele>
        <time>2017-12-13T11:30:00Z</time>
      </trkpt>
      <trkpt lat="45.92409" lon="4.73182">
        <ele>171</ele>
        <time>2017-12-13T11:30:01Z</time>
      </trkpt>
      <trkpt lat="45.92408" lon="4.73188">
        <ele>171</ele>
        <time>2017-12-13T11:30:02Z</time>
      </trkpt>
      <trkpt lat="45.92408" lon="4.73197">
        <ele>171</ele>
        <time>2017-12-13T11:30:03Z</time>
      </trkpt>
      <trkpt lat="45.92408" lon="4.73205">
        <ele>171</ele>
        <time>2017-12-13T11:30:04Z</time>
      </trkpt>
      <trkpt lat="45.92409" lon="4.73213">
        <ele>171</ele>
        <time>2017-12-13T11:30:05Z</time>
      </trkpt>
      <trkpt lat="45.9241" lon="4.73222">
        <ele>171</ele>
        <time>2017-12-13T11:30:06Z</time>
      </trkpt>
      <trkpt lat="45.9241" lon="4.73229">
        <ele>171</ele>
        <time>2017-12-13T11:30:07Z</time>
      </trkpt>
      <trkpt lat="45.9241" lon="4.73236">
        <ele>171</ele>
        <time>2017-12-13T11:30:08Z</time>
      </trkpt>
      <trkpt lat="45.9241" lon="4.73243">
        <ele>171</ele>
        <time>2017-12-13T11:30:09Z</time>
      </trkpt>
      <trkpt lat="45.92411" lon="4.73252">
        <ele>171</ele>
        <time>2017-12-13T11:30:10Z</time>
      </trkpt>
      <trkpt lat="45.92412" lon="4.7326">
        <ele>171</ele>
        <time>2017-12-13T11:30:11Z</time>
      </trkpt>
      <trkpt lat="45.92412" lon="4.73268">
        <ele>171</ele>
        <time>2017-12-13T11:30:12Z</time>
      </trkpt>
      <trkpt lat="45.92414" lon="4.73276">
        <ele>171</ele>
        <time>2017-12-13T11:30:13Z</time>
      </trkpt>
      <trkpt lat="45.92415" lon="4.73285">
        <ele>171</ele>
        <time>2017-12-13T11:30:14Z</time>
      </trkpt>
      <trkpt lat="45.92415" lon="4.73292">
        <ele>171</ele>
        <time>2017-12-13T11:30:15Z</time>
      </trkpt>
      <trkpt lat="45.92416" lon="4.733">
        <ele>171</ele>
        <time>2017-12-13T11:30:16Z</time>
      </trkpt>
      <trkpt lat="45.92416" lon="4.73307">
        <ele>171</ele>
        <time>2017-12-13T11:30:17Z</time>
      </trkpt>
      <trkpt lat="45.92417" lon="4.73314">
        <ele>171</ele>
        <time>2017-12-13T11:30:18Z</time>
      </trkpt>
      <trkpt lat="45.92417" lon="4.73322">
        <ele>171</ele>
        <time>2017-12-13T11:30:19Z</time>
      </trkpt>
      <trkpt lat="45.92417" lon="4.73328">
        <ele>171</ele>
        <time>2017-12-13T11:30:20Z</time>
      </trkpt>
      <trkpt lat="45.92418" lon="4.73335">
        <ele>171</ele>
        <time>2017-12-13T11:30:21Z</time>
      </trkpt>
      <trkpt lat="45.92418" lon="4.73343">
        <ele>171</ele>
        <time>2017-12-13T11:30:22Z</time>
      </trkpt>
      <trkpt lat="45.92419" lon="4.7335">
        <ele>171</ele>
        <time>2017-12-13T11:30:23Z</time>
      </trkpt>
      <trkpt lat="45.9242" lon="4.73356">
        <ele>171</ele>
        <time>2017-12-13T11:30:24Z</time>
      </trkpt>
      <trkpt lat="45.92421" lon="4.73363">
        <ele>172</ele>
        <time>2017-12-13T11:30:25Z</time>
      </trkpt>
      <trkpt lat="45.92422" lon="4.7337">
        <ele>172</ele>
        <time>2017-12-13T11:30:26Z</time>
      </trkpt>
      <trkpt lat="45.92423" lon="4.73378">
        <ele>172</ele>
        <time>2017-12-13T11:30:27Z</time>
      </trkpt>
      <trkpt lat="45.92424" lon="4.73385">
        <ele>172</ele>
        <time>2017-12-13T11:30:28Z</time>
      </trkpt>
      <trkpt lat="45.92426" lon="4.73391">
        <ele>172</ele>
        <time>2017-12-13T11:30:29Z</time>
      </trkpt>
      <trkpt lat="45.92427" lon="4.73399">
        <ele>172</ele>
        <time>2017-12-13T11:30:30Z</time>
      </trkpt>
      <trkpt lat="45.92429" lon="4.73405">
        <ele>172</ele>
        <time>2017-12-13T11:30:31Z</time>
      </trkpt>
      <trkpt lat="45.92434" lon="4.73414">
        <ele>172</ele>
        <time>2017-12-13T11:30:32Z</time>
      </trkpt>
      <trkpt lat="45.92441" lon="4.73421">
        <ele>173</ele>
        <time>2017-12-13T11:30:34Z</time>
      </trkpt>
      <trkpt lat="45.92445" lon="4.73424">
        <ele>173</ele>
        <time>2017-12-13T11:30:35Z</time>
      </trkpt>
      <trkpt lat="45.92452" lon="4.73428">
        <ele>173</ele>
        <time>2017-12-13T11:30:37Z</time>
      </trkpt>
      <trkpt lat="45.92455" lon="4.73431">
        <ele>173</ele>
        <time>2017-12-13T11:30:38Z</time>
      </trkpt>
      <trkpt lat="45.92459" lon="4.73435">
        <ele>173</ele>
        <time>2017-12-13T11:30:39Z</time>
      </trkpt>
      <trkpt lat="45.92462" lon="4.73441">
        <ele>173</ele>
        <time>2017-12-13T11:30:40Z</time>
      </trkpt>
      <trkpt lat="45.92464" lon="4.73447">
        <ele>173</ele>
        <time>2017-12-13T11:30:41Z</time>
      </trkpt>
      <trkpt lat="45.92466" lon="4.73454">
        <ele>173</ele>
        <time>2017-12-13T11:30:42Z</time>
      </trkpt>
      <trkpt lat="45.92468" lon="4.73461">
        <ele>173</ele>
        <time>2017-12-13T11:30:43Z</time>
      </trkpt>
      <trkpt lat="45.92468" lon="4.73469">
        <ele>173</ele>
        <time>2017-12-13T11:30:44Z</time>
      </trkpt>
      <trkpt lat="45.92469" lon="4.73478">
        <ele>173</ele>
        <time>2017-12-13T11:30:45Z</time>
      </trkpt>
      <trkpt lat="45.9247" lon="4.73485">
        <ele>173</ele>
        <time>2017-12-13T11:30:46Z</time>
      </trkpt>
      <trkpt lat="45.92469" lon="4.73492">
        <ele>173</ele>
        <time>2017-12-13T11:30:47Z</time>
      </trkpt>
      <trkpt lat="45.92468" lon="4.73498">
        <ele>173</ele>
        <time>2017-12-13T11:30:48Z</time>
      </trkpt>
      <trkpt lat="45.92468" lon="4.7351">
        <ele>174</ele>
        <time>2017-12-13T11:30:50Z</time>
      </trkpt>
      <trkpt lat="45.92467" lon="4.73515">
        <ele>174</ele>
        <time>2017-12-13T11:30:51Z</time>
      </trkpt>
      <trkpt lat="45.92468" lon="4.73527">
        <ele>174</ele>
        <time>2017-12-13T11:30:53Z</time>
      </trkpt>
      <trkpt lat="45.92468" lon="4.73534">
        <ele>174</ele>
        <time>2017-12-13T11:30:54Z</time>
      </trkpt>
      <trkpt lat="45.92469" lon="4.73545">
        <ele>173</ele>
        <time>2017-12-13T11:30:56Z</time>
      </trkpt>
      <trkpt lat="45.92469" lon="4.7355">
        <ele>173</ele>
        <time>2017-12-13T11:30:57Z</time>
      </trkpt>
      <trkpt lat="45.92467" lon="4.73559">
        <ele>173</ele>
        <time>2017-12-13T11:30:59Z</time>
      </trkpt>
      <trkpt lat="45.92467" lon="4.73565">
        <ele>173</ele>
        <time>2017-12-13T11:31:00Z</time>
      </trkpt>
      <trkpt lat="45.92468" lon="4.73577">
        <ele>173</ele>
        <time>2017-12-13T11:31:02Z</time>
      </trkpt>
      <trkpt lat="45.92468" lon="4.73584">
        <ele>174</ele>
        <time>2017-12-13T11:31:03Z</time>
      </trkpt>
      <trkpt lat="45.92469" lon="4.73596">
        <ele>174</ele>
        <time>2017-12-13T11:31:05Z</time>
      </trkpt>
      <trkpt lat="45.92469" lon="4.73603">
        <ele>174</ele>
        <time>2017-12-13T11:31:06Z</time>
      </trkpt>
      <trkpt lat="45.92469" lon="4.73611">
        <ele>174</ele>
        <time>2017-12-13T11:31:07Z</time>
      </trkpt>
      <trkpt lat="45.92469" lon="4.73617">
        <ele>174</ele>
        <time>2017-12-13T11:31:08Z</time>
      </trkpt>
      <trkpt lat="45.92469" lon="4.73629">
        <ele>174</ele>
        <time>2017-12-13T11:31:10Z</time>
      </trkpt>
      <trkpt lat="45.92469" lon="4.73635">
        <ele>174</ele>
        <time>2017-12-13T11:31:11Z</time>
      </trkpt>
      <trkpt lat="45.92469" lon="4.73646">
        <ele>174</ele>
        <time>2017-12-13T11:31:13Z</time>
      </trkpt>
      <trkpt lat="45.92468" lon="4.73652">
        <ele>174</ele>
        <time>2017-12-13T11:31:14Z</time>
      </trkpt>
      <trkpt lat="45.92468" lon="4.73664">
        <ele>174</ele>
        <time>2017-12-13T11:31:16Z</time>
      </trkpt>
      <trkpt lat="45.92467" lon="4.73668">
        <ele>174</ele>
        <time>2017-12-13T11:31:17Z</time>
      </trkpt>
      <trkpt lat="45.92465" lon="4.73679">
        <ele>174</ele>
        <time>2017-12-13T11:31:19Z</time>
      </trkpt>
      <trkpt lat="45.92465" lon="4.73683">
        <ele>174</ele>
        <time>2017-12-13T11:31:20Z</time>
      </trkpt>
      <trkpt lat="45.92465" lon="4.73694">
        <ele>174</ele>
        <time>2017-12-13T11:31:22Z</time>
      </trkpt>
      <trkpt lat="45.92466" lon="4.73702">
        <ele>174</ele>
        <time>2017-12-13T11:31:23Z</time>
      </trkpt>
      <trkpt lat="45.92474" lon="4.73716">
        <ele>174</ele>
        <time>2017-12-13T11:31:24Z</time>
      </trkpt>
      <trkpt lat="45.92466" lon="4.73713">
        <ele>174</ele>
        <time>2017-12-13T11:31:33Z</time>
      </trkpt>
      <trkpt lat="45.92465" lon="4.73714">
        <ele>174</ele>
        <time>2017-12-13T11:31:34Z</time>
      </trkpt>
      <trkpt lat="45.92465" lon="4.73713">
        <ele>174</ele>
        <time>2017-12-13T11:31:36Z</time>
      </trkpt>
      <trkpt lat="45.92466" lon="4.73714">
        <ele>174</ele>
        <time>2017-12-13T11:31:37Z</time>
      </trkpt>
      <trkpt lat="45.92465" lon="4.73715">
        <ele>174</ele>
        <time>2017-12-13T11:31:52Z</time>
      </trkpt>
      <trkpt lat="45.92464" lon="4.73715">
        <ele>174</ele>
        <time>2017-12-13T11:31:53Z</time>
      </trkpt>
      <trkpt lat="45.92459" lon="4.73712">
        <ele>174</ele>
        <time>2017-12-13T11:32:11.268Z</time>
      </trkpt>
    </trkseg>
  </trk>
</gpx>